<?xml version='1.0' encoding='UTF-8'?><gpx version="1.1" creator="JPX - https://github.com/jenetics/jpx" xmlns="http://www.topografix.com/GPX/1/1"><trk><trkseg><trkpt lat="40.4050117" lon="9.4959605"><ele>90.0</ele><time>2026-04-18T17:45:58.122Z</time></trkpt><trkpt lat="40.4051266" lon="9.4961669"><ele>90.0</ele><time>2026-04-18T17:45:59.122Z</time></trkpt><trkpt lat="40.4052428" lon="9.4963701"><ele>90.0</ele><time>2026-04-18T17:46:00.122Z</time></trkpt><trkpt lat="40.4054735" lon="9.4967781"><ele>91.33333333333333</ele><time>2026-04-18T17:46:02.122Z</time></trkpt><trkpt lat="40.4055923" lon="9.4969827"><ele>92.66666666666666</ele><time>2026-04-18T17:46:03.122Z</time></trkpt><trkpt lat="40.4057177" lon="9.4971829"><ele>94.0</ele><time>2026-04-18T17:46:04.121Z</time></trkpt><trkpt lat="40.4058473" lon="9.4973791"><ele>94.0</ele><time>2026-04-18T17:46:05.122Z</time></trkpt><trkpt lat="40.4059827" lon="9.4975763"><ele>94.0</ele><time>2026-04-18T17:46:06.122Z</time></trkpt><trkpt lat="40.4061186" lon="9.4977631"><ele>94.0</ele><time>2026-04-18T17:46:07.122Z</time></trkpt><trkpt lat="40.4062606" lon="9.4979523"><ele>94.66666666666666</ele><time>2026-04-18T17:46:08.122Z</time></trkpt><trkpt lat="40.4064093" lon="9.4981363"><ele>95.33333333333333</ele><time>2026-04-18T17:46:09.122Z</time></trkpt><trkpt lat="40.4065616" lon="9.4983184"><ele>96.0</ele><time>2026-04-18T17:46:10.122Z</time></trkpt><trkpt lat="40.4067163" lon="9.4984973"><ele>96.0</ele><time>2026-04-18T17:46:11.122Z</time></trkpt><trkpt lat="40.4068754" lon="9.4986714"><ele>96.0</ele><time>2026-04-18T17:46:12.122Z</time></trkpt><trkpt lat="40.4070444" lon="9.4988345"><ele>96.0</ele><time>2026-04-18T17:46:13.122Z</time></trkpt><trkpt lat="40.4072166" lon="9.4989981"><ele>94.66666666666667</ele><time>2026-04-18T17:46:14.122Z</time></trkpt><trkpt lat="40.4073897" lon="9.4991638"><ele>93.33333333333334</ele><time>2026-04-18T17:46:15.121Z</time></trkpt><trkpt lat="40.407565" lon="9.4993303"><ele>92.0</ele><time>2026-04-18T17:46:16.122Z</time></trkpt><trkpt lat="40.4077345" lon="9.4995016"><ele>91.33333333333334</ele><time>2026-04-18T17:46:17.122Z</time></trkpt><trkpt lat="40.4079056" lon="9.4996717"><ele>90.66666666666667</ele><time>2026-04-18T17:46:18.122Z</time></trkpt><trkpt lat="40.408079" lon="9.4998396"><ele>90.0</ele><time>2026-04-18T17:46:19.122Z</time></trkpt><trkpt lat="40.4082498" lon="9.5000009"><ele>90.0</ele><time>2026-04-18T17:46:20.122Z</time></trkpt><trkpt lat="40.4084212" lon="9.5001644"><ele>90.0</ele><time>2026-04-18T17:46:21.122Z</time></trkpt><trkpt lat="40.4085938" lon="9.5003256"><ele>90.0</ele><time>2026-04-18T17:46:22.122Z</time></trkpt><trkpt lat="40.4087616" lon="9.50049"><ele>92.0</ele><time>2026-04-18T17:46:23.122Z</time></trkpt><trkpt lat="40.4089276" lon="9.5006595"><ele>94.0</ele><time>2026-04-18T17:46:24.122Z</time></trkpt><trkpt lat="40.4090911" lon="9.500836"><ele>96.0</ele><time>2026-04-18T17:46:25.122Z</time></trkpt><trkpt lat="40.4092455" lon="9.5010211"><ele>93.0</ele><time>2026-04-18T17:46:26.121Z</time></trkpt><trkpt lat="40.4094874" lon="9.5013269"><ele>90.0</ele><time>2026-04-18T17:46:27.765Z</time></trkpt><trkpt lat="40.4096868" lon="9.5015998"><ele>92.0</ele><time>2026-04-18T17:46:29.122Z</time></trkpt><trkpt lat="40.4098312" lon="9.5018113"><ele>94.0</ele><time>2026-04-18T17:46:30.121Z</time></trkpt><trkpt lat="40.4099797" lon="9.5020305"><ele>96.0</ele><time>2026-04-18T17:46:31.121Z</time></trkpt><trkpt lat="40.4101268" lon="9.5022659"><ele>96.0</ele><time>2026-04-18T17:46:32.121Z</time></trkpt><trkpt lat="40.4102762" lon="9.5024943"><ele>96.0</ele><time>2026-04-18T17:46:33.121Z</time></trkpt><trkpt lat="40.4104276" lon="9.5027212"><ele>98.0</ele><time>2026-04-18T17:46:34.121Z</time></trkpt><trkpt lat="40.4105792" lon="9.5029593"><ele>100.0</ele><time>2026-04-18T17:46:35.121Z</time></trkpt><trkpt lat="40.4107373" lon="9.5031938"><ele>100.0</ele><time>2026-04-18T17:46:36.121Z</time></trkpt><trkpt lat="40.4108935" lon="9.5034329"><ele>100.0</ele><time>2026-04-18T17:46:37.121Z</time></trkpt><trkpt lat="40.411049" lon="9.5036723"><ele>99.0</ele><time>2026-04-18T17:46:38.121Z</time></trkpt><trkpt lat="40.4112004" lon="9.5039053"><ele>98.0</ele><time>2026-04-18T17:46:39.12Z</time></trkpt><trkpt lat="40.4113562" lon="9.5041466"><ele>101.5</ele><time>2026-04-18T17:46:40.12Z</time></trkpt><trkpt lat="40.4115146" lon="9.5043806"><ele>105.0</ele><time>2026-04-18T17:46:41.121Z</time></trkpt><trkpt lat="40.4116717" lon="9.5046157"><ele>105.0</ele><time>2026-04-18T17:46:42.121Z</time></trkpt><trkpt lat="40.4118304" lon="9.5048532"><ele>105.0</ele><time>2026-04-18T17:46:43.121Z</time></trkpt><trkpt lat="40.4119902" lon="9.5050921"><ele>105.0</ele><time>2026-04-18T17:46:44.121Z</time></trkpt><trkpt lat="40.4121493" lon="9.5053325"><ele>105.0</ele><time>2026-04-18T17:46:45.121Z</time></trkpt><trkpt lat="40.4123071" lon="9.5055799"><ele>103.5</ele><time>2026-04-18T17:46:46.121Z</time></trkpt><trkpt lat="40.4124674" lon="9.5058243"><ele>102.0</ele><time>2026-04-18T17:46:47.121Z</time></trkpt><trkpt lat="40.4126247" lon="9.5060697"><ele>101.0</ele><time>2026-04-18T17:46:48.12Z</time></trkpt><trkpt lat="40.4127837" lon="9.5063146"><ele>100.0</ele><time>2026-04-18T17:46:49.121Z</time></trkpt><trkpt lat="40.4129441" lon="9.5065599"><ele>104.5</ele><time>2026-04-18T17:46:50.121Z</time></trkpt><trkpt lat="40.4130993" lon="9.506804"><ele>109.0</ele><time>2026-04-18T17:46:51.121Z</time></trkpt><trkpt lat="40.4132599" lon="9.5070446"><ele>108.0</ele><time>2026-04-18T17:46:52.121Z</time></trkpt><trkpt lat="40.4134194" lon="9.5072856"><ele>107.0</ele><time>2026-04-18T17:46:53.121Z</time></trkpt><trkpt lat="40.4135789" lon="9.5075277"><ele>107.0</ele><time>2026-04-18T17:46:54.121Z</time></trkpt><trkpt lat="40.4137361" lon="9.5077709"><ele>107.0</ele><time>2026-04-18T17:46:55.121Z</time></trkpt><trkpt lat="40.4138916" lon="9.5080109"><ele>114.0</ele><time>2026-04-18T17:46:56.121Z</time></trkpt><trkpt lat="40.4140496" lon="9.5082517"><ele>121.0</ele><time>2026-04-18T17:46:57.121Z</time></trkpt><trkpt lat="40.4142077" lon="9.5084914"><ele>121.0</ele><time>2026-04-18T17:46:58.121Z</time></trkpt><trkpt lat="40.4143659" lon="9.5087338"><ele>121.0</ele><time>2026-04-18T17:46:59.121Z</time></trkpt><trkpt lat="40.4145253" lon="9.5089754"><ele>122.0</ele><time>2026-04-18T17:47:00.121Z</time></trkpt><trkpt lat="40.4146855" lon="9.5092143"><ele>123.0</ele><time>2026-04-18T17:47:01.121Z</time></trkpt><trkpt lat="40.414845" lon="9.5094532"><ele>120.0</ele><time>2026-04-18T17:47:02.121Z</time></trkpt><trkpt lat="40.4150063" lon="9.509694"><ele>117.0</ele><time>2026-04-18T17:47:03.121Z</time></trkpt><trkpt lat="40.4151652" lon="9.5099373"><ele>117.0</ele><time>2026-04-18T17:47:04.121Z</time></trkpt><trkpt lat="40.4153217" lon="9.5101774"><ele>117.0</ele><time>2026-04-18T17:47:05.121Z</time></trkpt><trkpt lat="40.4154798" lon="9.5104206"><ele>119.0</ele><time>2026-04-18T17:47:06.121Z</time></trkpt><trkpt lat="40.4156344" lon="9.5106627"><ele>121.0</ele><time>2026-04-18T17:47:07.12Z</time></trkpt><trkpt lat="40.4157886" lon="9.5109052"><ele>121.0</ele><time>2026-04-18T17:47:08.121Z</time></trkpt><trkpt lat="40.415943" lon="9.5111441"><ele>121.0</ele><time>2026-04-18T17:47:09.121Z</time></trkpt><trkpt lat="40.4161012" lon="9.5113786"><ele>120.5</ele><time>2026-04-18T17:47:10.121Z</time></trkpt><trkpt lat="40.416267" lon="9.511606"><ele>120.0</ele><time>2026-04-18T17:47:11.121Z</time></trkpt><trkpt lat="40.4164378" lon="9.5118271"><ele>125.0</ele><time>2026-04-18T17:47:12.121Z</time></trkpt><trkpt lat="40.416619" lon="9.5120325"><ele>130.0</ele><time>2026-04-18T17:47:13.121Z</time></trkpt><trkpt lat="40.4168092" lon="9.5122277"><ele>130.0</ele><time>2026-04-18T17:47:14.12Z</time></trkpt><trkpt lat="40.4170084" lon="9.5124109"><ele>130.0</ele><time>2026-04-18T17:47:15.121Z</time></trkpt><trkpt lat="40.4172167" lon="9.5125805"><ele>132.5</ele><time>2026-04-18T17:47:16.121Z</time></trkpt><trkpt lat="40.4174324" lon="9.5127369"><ele>135.0</ele><time>2026-04-18T17:47:17.121Z</time></trkpt><trkpt lat="40.4176559" lon="9.5128863"><ele>135.5</ele><time>2026-04-18T17:47:18.121Z</time></trkpt><trkpt lat="40.4178834" lon="9.513018"><ele>136.0</ele><time>2026-04-18T17:47:19.121Z</time></trkpt><trkpt lat="40.4181172" lon="9.5131312"><ele>139.5</ele><time>2026-04-18T17:47:20.121Z</time></trkpt><trkpt lat="40.4183531" lon="9.51322"><ele>143.0</ele><time>2026-04-18T17:47:21.121Z</time></trkpt><trkpt lat="40.4185919" lon="9.5132971"><ele>147.0</ele><time>2026-04-18T17:47:22.12Z</time></trkpt><trkpt lat="40.4188366" lon="9.5133571"><ele>151.0</ele><time>2026-04-18T17:47:23.121Z</time></trkpt><trkpt lat="40.419079" lon="9.5134003"><ele>151.0</ele><time>2026-04-18T17:47:24.121Z</time></trkpt><trkpt lat="40.4193237" lon="9.5134363"><ele>151.0</ele><time>2026-04-18T17:47:25.121Z</time></trkpt><trkpt lat="40.4195645" lon="9.5134644"><ele>154.5</ele><time>2026-04-18T17:47:26.121Z</time></trkpt><trkpt lat="40.4198009" lon="9.5134948"><ele>158.0</ele><time>2026-04-18T17:47:27.121Z</time></trkpt><trkpt lat="40.4200369" lon="9.513526"><ele>158.0</ele><time>2026-04-18T17:47:28.121Z</time></trkpt><trkpt lat="40.4202756" lon="9.51356"><ele>158.0</ele><time>2026-04-18T17:47:29.121Z</time></trkpt><trkpt lat="40.4205092" lon="9.5135874"><ele>160.0</ele><time>2026-04-18T17:47:30.122Z</time></trkpt><trkpt lat="40.4207395" lon="9.5136236"><ele>162.0</ele><time>2026-04-18T17:47:31.121Z</time></trkpt><trkpt lat="40.420968" lon="9.513671"><ele>162.0</ele><time>2026-04-18T17:47:32.121Z</time></trkpt><trkpt lat="40.4211944" lon="9.513731"><ele>162.0</ele><time>2026-04-18T17:47:33.12Z</time></trkpt><trkpt lat="40.4214167" lon="9.513814"><ele>160.66666666666666</ele><time>2026-04-18T17:47:34.121Z</time></trkpt><trkpt lat="40.4216318" lon="9.5139006"><ele>159.33333333333331</ele><time>2026-04-18T17:47:35.121Z</time></trkpt><trkpt lat="40.4218379" lon="9.5140047"><ele>158.0</ele><time>2026-04-18T17:47:36.121Z</time></trkpt><trkpt lat="40.4220454" lon="9.5141136"><ele>163.0</ele><time>2026-04-18T17:47:37.121Z</time></trkpt><trkpt lat="40.4222477" lon="9.5142416"><ele>168.0</ele><time>2026-04-18T17:47:38.121Z</time></trkpt><trkpt lat="40.4224442" lon="9.5143812"><ele>173.0</ele><time>2026-04-18T17:47:39.121Z</time></trkpt><trkpt lat="40.4226381" lon="9.5145356"><ele>176.0</ele><time>2026-04-18T17:47:40.121Z</time></trkpt><trkpt lat="40.4228241" lon="9.5146985"><ele>179.0</ele><time>2026-04-18T17:47:41.121Z</time></trkpt><trkpt lat="40.423005" lon="9.5148791"><ele>179.0</ele><time>2026-04-18T17:47:42.121Z</time></trkpt><trkpt lat="40.4231779" lon="9.5150733"><ele>179.0</ele><time>2026-04-18T17:47:43.12Z</time></trkpt><trkpt lat="40.4233428" lon="9.5152773"><ele>176.33333333333331</ele><time>2026-04-18T17:47:44.121Z</time></trkpt><trkpt lat="40.4234977" lon="9.5154924"><ele>173.66666666666666</ele><time>2026-04-18T17:47:45.121Z</time></trkpt><trkpt lat="40.423645" lon="9.5157142"><ele>171.0</ele><time>2026-04-18T17:47:46.121Z</time></trkpt><trkpt lat="40.4237864" lon="9.5159486"><ele>179.0</ele><time>2026-04-18T17:47:47.121Z</time></trkpt><trkpt lat="40.4239197" lon="9.5161864"><ele>187.0</ele><time>2026-04-18T17:47:48.121Z</time></trkpt><trkpt lat="40.4240397" lon="9.5164367"><ele>187.0</ele><time>2026-04-18T17:47:49.121Z</time></trkpt><trkpt lat="40.424149" lon="9.5167001"><ele>187.0</ele><time>2026-04-18T17:47:50.121Z</time></trkpt><trkpt lat="40.4242503" lon="9.5169726"><ele>185.0</ele><time>2026-04-18T17:47:51.12Z</time></trkpt><trkpt lat="40.4243438" lon="9.5172532"><ele>183.0</ele><time>2026-04-18T17:47:52.121Z</time></trkpt><trkpt lat="40.4244234" lon="9.5175448"><ele>183.0</ele><time>2026-04-18T17:47:53.121Z</time></trkpt><trkpt lat="40.4244916" lon="9.5178377"><ele>183.0</ele><time>2026-04-18T17:47:54.12Z</time></trkpt><trkpt lat="40.4245449" lon="9.5181327"><ele>182.0</ele><time>2026-04-18T17:47:55.121Z</time></trkpt><trkpt lat="40.4245893" lon="9.5184317"><ele>181.0</ele><time>2026-04-18T17:47:56.12Z</time></trkpt><trkpt lat="40.4246287" lon="9.5187326"><ele>191.5</ele><time>2026-04-18T17:47:57.12Z</time></trkpt><trkpt lat="40.4246574" lon="9.5190399"><ele>202.0</ele><time>2026-04-18T17:47:58.121Z</time></trkpt><trkpt lat="40.4246791" lon="9.5193548"><ele>203.5</ele><time>2026-04-18T17:47:59.121Z</time></trkpt><trkpt lat="40.424705" lon="9.5196675"><ele>205.0</ele><time>2026-04-18T17:48:00.121Z</time></trkpt><trkpt lat="40.4247344" lon="9.519981"><ele>205.0</ele><time>2026-04-18T17:48:01.121Z</time></trkpt><trkpt lat="40.4247654" lon="9.5202931"><ele>205.0</ele><time>2026-04-18T17:48:02.121Z</time></trkpt><trkpt lat="40.4247929" lon="9.5206048"><ele>204.0</ele><time>2026-04-18T17:48:03.121Z</time></trkpt><trkpt lat="40.4248221" lon="9.5209151"><ele>203.0</ele><time>2026-04-18T17:48:04.121Z</time></trkpt><trkpt lat="40.4248468" lon="9.5212308"><ele>203.5</ele><time>2026-04-18T17:48:05.121Z</time></trkpt><trkpt lat="40.424874" lon="9.5215418"><ele>204.0</ele><time>2026-04-18T17:48:06.121Z</time></trkpt><trkpt lat="40.4248987" lon="9.5218508"><ele>205.0</ele><time>2026-04-18T17:48:07.12Z</time></trkpt><trkpt lat="40.4249227" lon="9.5221593"><ele>206.0</ele><time>2026-04-18T17:48:08.121Z</time></trkpt><trkpt lat="40.4249484" lon="9.5224685"><ele>206.0</ele><time>2026-04-18T17:48:09.121Z</time></trkpt><trkpt lat="40.4249814" lon="9.5227727"><ele>206.0</ele><time>2026-04-18T17:48:10.121Z</time></trkpt><trkpt lat="40.4250145" lon="9.5230829"><ele>204.5</ele><time>2026-04-18T17:48:11.12Z</time></trkpt><trkpt lat="40.4250658" lon="9.5233862"><ele>203.0</ele><time>2026-04-18T17:48:12.121Z</time></trkpt><trkpt lat="40.4251263" lon="9.5236858"><ele>203.5</ele><time>2026-04-18T17:48:13.121Z</time></trkpt><trkpt lat="40.4251903" lon="9.5239872"><ele>204.0</ele><time>2026-04-18T17:48:14.121Z</time></trkpt><trkpt lat="40.4252597" lon="9.5242858"><ele>207.5</ele><time>2026-04-18T17:48:15.121Z</time></trkpt><trkpt lat="40.4253334" lon="9.5245812"><ele>211.0</ele><time>2026-04-18T17:48:16.121Z</time></trkpt><trkpt lat="40.4254173" lon="9.5248755"><ele>210.0</ele><time>2026-04-18T17:48:17.12Z</time></trkpt><trkpt lat="40.4255073" lon="9.525165"><ele>209.0</ele><time>2026-04-18T17:48:18.121Z</time></trkpt><trkpt lat="40.4256099" lon="9.525451"><ele>211.5</ele><time>2026-04-18T17:48:19.121Z</time></trkpt><trkpt lat="40.4257159" lon="9.5257333"><ele>214.0</ele><time>2026-04-18T17:48:20.121Z</time></trkpt><trkpt lat="40.42583" lon="9.5260208"><ele>215.5</ele><time>2026-04-18T17:48:21.121Z</time></trkpt><trkpt lat="40.4259456" lon="9.5263114"><ele>217.0</ele><time>2026-04-18T17:48:22.121Z</time></trkpt><trkpt lat="40.4260606" lon="9.5266065"><ele>217.0</ele><time>2026-04-18T17:48:23.121Z</time></trkpt><trkpt lat="40.4261768" lon="9.5269038"><ele>217.0</ele><time>2026-04-18T17:48:24.121Z</time></trkpt><trkpt lat="40.4262939" lon="9.5272083"><ele>219.5</ele><time>2026-04-18T17:48:25.121Z</time></trkpt><trkpt lat="40.4264125" lon="9.5275102"><ele>222.0</ele><time>2026-04-18T17:48:26.121Z</time></trkpt><trkpt lat="40.426532" lon="9.527816"><ele>219.0</ele><time>2026-04-18T17:48:27.121Z</time></trkpt><trkpt lat="40.4266553" lon="9.5281233"><ele>216.0</ele><time>2026-04-18T17:48:28.121Z</time></trkpt><trkpt lat="40.4267792" lon="9.5284328"><ele>214.0</ele><time>2026-04-18T17:48:29.121Z</time></trkpt><trkpt lat="40.4269012" lon="9.5287494"><ele>212.0</ele><time>2026-04-18T17:48:30.121Z</time></trkpt><trkpt lat="40.427024" lon="9.5290671"><ele>210.5</ele><time>2026-04-18T17:48:31.121Z</time></trkpt><trkpt lat="40.4271507" lon="9.5293875"><ele>209.0</ele><time>2026-04-18T17:48:32.121Z</time></trkpt><trkpt lat="40.427275" lon="9.5297119"><ele>209.0</ele><time>2026-04-18T17:48:33.121Z</time></trkpt><trkpt lat="40.4274004" lon="9.5300397"><ele>209.0</ele><time>2026-04-18T17:48:34.121Z</time></trkpt><trkpt lat="40.4275282" lon="9.5303666"><ele>202.5</ele><time>2026-04-18T17:48:35.121Z</time></trkpt><trkpt lat="40.4276516" lon="9.5306961"><ele>196.0</ele><time>2026-04-18T17:48:36.121Z</time></trkpt><trkpt lat="40.4277788" lon="9.5310213"><ele>198.0</ele><time>2026-04-18T17:48:37.121Z</time></trkpt><trkpt lat="40.4279037" lon="9.5313394"><ele>200.0</ele><time>2026-04-18T17:48:38.121Z</time></trkpt><trkpt lat="40.4280292" lon="9.5316617"><ele>200.0</ele><time>2026-04-18T17:48:39.121Z</time></trkpt><trkpt lat="40.4281541" lon="9.531982"><ele>200.0</ele><time>2026-04-18T17:48:40.121Z</time></trkpt><trkpt lat="40.428275" lon="9.5323"><ele>195.0</ele><time>2026-04-18T17:48:41.121Z</time></trkpt><trkpt lat="40.4283936" lon="9.5326205"><ele>190.0</ele><time>2026-04-18T17:48:42.12Z</time></trkpt><trkpt lat="40.4285178" lon="9.5329418"><ele>186.0</ele><time>2026-04-18T17:48:43.121Z</time></trkpt><trkpt lat="40.4286435" lon="9.5332598"><ele>182.0</ele><time>2026-04-18T17:48:44.121Z</time></trkpt><trkpt lat="40.428773" lon="9.5335732"><ele>180.5</ele><time>2026-04-18T17:48:45.121Z</time></trkpt><trkpt lat="40.4289071" lon="9.5338857"><ele>179.0</ele><time>2026-04-18T17:48:46.121Z</time></trkpt><trkpt lat="40.4290482" lon="9.5341898"><ele>179.0</ele><time>2026-04-18T17:48:47.121Z</time></trkpt><trkpt lat="40.4291998" lon="9.5344866"><ele>179.0</ele><time>2026-04-18T17:48:48.121Z</time></trkpt><trkpt lat="40.4293653" lon="9.5347705"><ele>178.5</ele><time>2026-04-18T17:48:49.121Z</time></trkpt><trkpt lat="40.4295333" lon="9.5350515"><ele>178.0</ele><time>2026-04-18T17:48:50.121Z</time></trkpt><trkpt lat="40.4297077" lon="9.5353294"><ele>174.5</ele><time>2026-04-18T17:48:51.12Z</time></trkpt><trkpt lat="40.4298894" lon="9.5355967"><ele>171.0</ele><time>2026-04-18T17:48:52.121Z</time></trkpt><trkpt lat="40.4300804" lon="9.5358564"><ele>171.0</ele><time>2026-04-18T17:48:53.121Z</time></trkpt><trkpt lat="40.4302778" lon="9.5361076"><ele>171.0</ele><time>2026-04-18T17:48:54.12Z</time></trkpt><trkpt lat="40.4304773" lon="9.5363561"><ele>169.0</ele><time>2026-04-18T17:48:55.121Z</time></trkpt><trkpt lat="40.4306768" lon="9.5366079"><ele>167.0</ele><time>2026-04-18T17:48:56.121Z</time></trkpt><trkpt lat="40.4308761" lon="9.5368574"><ele>164.5</ele><time>2026-04-18T17:48:57.12Z</time></trkpt><trkpt lat="40.4310723" lon="9.5371076"><ele>162.0</ele><time>2026-04-18T17:48:58.121Z</time></trkpt><trkpt lat="40.4312709" lon="9.537354"><ele>162.5</ele><time>2026-04-18T17:48:59.121Z</time></trkpt><trkpt lat="40.4314663" lon="9.5375993"><ele>163.0</ele><time>2026-04-18T17:49:00.12Z</time></trkpt><trkpt lat="40.4316613" lon="9.53785"><ele>160.5</ele><time>2026-04-18T17:49:01.121Z</time></trkpt><trkpt lat="40.4318591" lon="9.5380935"><ele>158.0</ele><time>2026-04-18T17:49:02.121Z</time></trkpt><trkpt lat="40.4320558" lon="9.5383374"><ele>159.0</ele><time>2026-04-18T17:49:03.121Z</time></trkpt><trkpt lat="40.4322493" lon="9.5385827"><ele>160.0</ele><time>2026-04-18T17:49:04.12Z</time></trkpt><trkpt lat="40.4324467" lon="9.5388257"><ele>158.0</ele><time>2026-04-18T17:49:05.121Z</time></trkpt><trkpt lat="40.4326437" lon="9.5390702"><ele>156.0</ele><time>2026-04-18T17:49:06.121Z</time></trkpt><trkpt lat="40.432837" lon="9.5393137"><ele>156.0</ele><time>2026-04-18T17:49:07.121Z</time></trkpt><trkpt lat="40.4330294" lon="9.5395572"><ele>156.0</ele><time>2026-04-18T17:49:08.121Z</time></trkpt><trkpt lat="40.43322" lon="9.5398051"><ele>156.0</ele><time>2026-04-18T17:49:09.12Z</time></trkpt><trkpt lat="40.4334088" lon="9.5400516"><ele>156.0</ele><time>2026-04-18T17:49:10.121Z</time></trkpt><trkpt lat="40.4336017" lon="9.5402912"><ele>155.5</ele><time>2026-04-18T17:49:11.121Z</time></trkpt><trkpt lat="40.4337947" lon="9.5405293"><ele>155.0</ele><time>2026-04-18T17:49:12.12Z</time></trkpt><trkpt lat="40.4339853" lon="9.5407664"><ele>155.0</ele><time>2026-04-18T17:49:13.121Z</time></trkpt><trkpt lat="40.4341769" lon="9.541"><ele>155.0</ele><time>2026-04-18T17:49:14.121Z</time></trkpt><trkpt lat="40.4343668" lon="9.5412309"><ele>155.0</ele><time>2026-04-18T17:49:15.121Z</time></trkpt><trkpt lat="40.4345589" lon="9.5414641"><ele>155.0</ele><time>2026-04-18T17:49:16.121Z</time></trkpt><trkpt lat="40.4347483" lon="9.5417048"><ele>154.5</ele><time>2026-04-18T17:49:17.121Z</time></trkpt><trkpt lat="40.4349363" lon="9.5419423"><ele>154.0</ele><time>2026-04-18T17:49:18.121Z</time></trkpt><trkpt lat="40.4351249" lon="9.5421791"><ele>154.0</ele><time>2026-04-18T17:49:19.121Z</time></trkpt><trkpt lat="40.4353138" lon="9.542414"><ele>154.0</ele><time>2026-04-18T17:49:20.121Z</time></trkpt><trkpt lat="40.435503" lon="9.5426499"><ele>155.0</ele><time>2026-04-18T17:49:21.121Z</time></trkpt><trkpt lat="40.4356892" lon="9.5428878"><ele>156.0</ele><time>2026-04-18T17:49:22.121Z</time></trkpt><trkpt lat="40.4358764" lon="9.5431187"><ele>156.0</ele><time>2026-04-18T17:49:23.12Z</time></trkpt><trkpt lat="40.4360651" lon="9.5433526"><ele>156.0</ele><time>2026-04-18T17:49:24.121Z</time></trkpt><trkpt lat="40.4362557" lon="9.543585"><ele>154.5</ele><time>2026-04-18T17:49:25.121Z</time></trkpt><trkpt lat="40.4364476" lon="9.54382"><ele>153.0</ele><time>2026-04-18T17:49:26.121Z</time></trkpt><trkpt lat="40.4366403" lon="9.5440546"><ele>153.0</ele><time>2026-04-18T17:49:27.121Z</time></trkpt><trkpt lat="40.4368356" lon="9.5442907"><ele>153.0</ele><time>2026-04-18T17:49:28.121Z</time></trkpt><trkpt lat="40.4370296" lon="9.5445279"><ele>151.0</ele><time>2026-04-18T17:49:29.121Z</time></trkpt><trkpt lat="40.4372217" lon="9.5447727"><ele>149.0</ele><time>2026-04-18T17:49:30.121Z</time></trkpt><trkpt lat="40.437412" lon="9.5450135"><ele>149.0</ele><time>2026-04-18T17:49:31.121Z</time></trkpt><trkpt lat="40.4376053" lon="9.5452491"><ele>149.0</ele><time>2026-04-18T17:49:32.121Z</time></trkpt><trkpt lat="40.4377974" lon="9.54549"><ele>148.5</ele><time>2026-04-18T17:49:33.12Z</time></trkpt><trkpt lat="40.4379918" lon="9.5457273"><ele>148.0</ele><time>2026-04-18T17:49:34.121Z</time></trkpt><trkpt lat="40.4381869" lon="9.5459717"><ele>146.0</ele><time>2026-04-18T17:49:35.121Z</time></trkpt><trkpt lat="40.4383821" lon="9.5462164"><ele>144.0</ele><time>2026-04-18T17:49:36.121Z</time></trkpt><trkpt lat="40.4385767" lon="9.5464545"><ele>144.0</ele><time>2026-04-18T17:49:37.121Z</time></trkpt><trkpt lat="40.4387697" lon="9.5466952"><ele>144.0</ele><time>2026-04-18T17:49:38.121Z</time></trkpt><trkpt lat="40.4389675" lon="9.5469343"><ele>143.0</ele><time>2026-04-18T17:49:39.121Z</time></trkpt><trkpt lat="40.4391628" lon="9.5471813"><ele>142.0</ele><time>2026-04-18T17:49:40.121Z</time></trkpt><trkpt lat="40.4393555" lon="9.5474258"><ele>142.0</ele><time>2026-04-18T17:49:41.12Z</time></trkpt><trkpt lat="40.4395517" lon="9.5476717"><ele>142.0</ele><time>2026-04-18T17:49:42.121Z</time></trkpt><trkpt lat="40.4397456" lon="9.5479174"><ele>142.0</ele><time>2026-04-18T17:49:43.121Z</time></trkpt><trkpt lat="40.4399407" lon="9.5481613"><ele>142.0</ele><time>2026-04-18T17:49:44.121Z</time></trkpt><trkpt lat="40.4401345" lon="9.548401"><ele>142.0</ele><time>2026-04-18T17:49:45.121Z</time></trkpt><trkpt lat="40.4403266" lon="9.5486369"><ele>142.0</ele><time>2026-04-18T17:49:46.121Z</time></trkpt><trkpt lat="40.4405218" lon="9.5488742"><ele>142.0</ele><time>2026-04-18T17:49:47.121Z</time></trkpt><trkpt lat="40.4407125" lon="9.5491042"><ele>142.0</ele><time>2026-04-18T17:49:48.121Z</time></trkpt><trkpt lat="40.4409014" lon="9.5493375"><ele>140.5</ele><time>2026-04-18T17:49:49.121Z</time></trkpt><trkpt lat="40.4410872" lon="9.5495691"><ele>139.0</ele><time>2026-04-18T17:49:50.121Z</time></trkpt><trkpt lat="40.4412701" lon="9.549799"><ele>141.5</ele><time>2026-04-18T17:49:51.121Z</time></trkpt><trkpt lat="40.4414525" lon="9.5500247"><ele>144.0</ele><time>2026-04-18T17:49:52.121Z</time></trkpt><trkpt lat="40.4416326" lon="9.5502506"><ele>142.5</ele><time>2026-04-18T17:49:53.121Z</time></trkpt><trkpt lat="40.4418086" lon="9.550476"><ele>141.0</ele><time>2026-04-18T17:49:54.121Z</time></trkpt><trkpt lat="40.4419889" lon="9.5506976"><ele>144.5</ele><time>2026-04-18T17:49:55.121Z</time></trkpt><trkpt lat="40.4421657" lon="9.5509151"><ele>148.0</ele><time>2026-04-18T17:49:56.121Z</time></trkpt><trkpt lat="40.4423466" lon="9.5511355"><ele>146.5</ele><time>2026-04-18T17:49:57.121Z</time></trkpt><trkpt lat="40.4425247" lon="9.5513583"><ele>145.0</ele><time>2026-04-18T17:49:58.121Z</time></trkpt><trkpt lat="40.4427022" lon="9.5515732"><ele>145.0</ele><time>2026-04-18T17:49:59.121Z</time></trkpt><trkpt lat="40.4428848" lon="9.5518"><ele>145.0</ele><time>2026-04-18T17:50:00.121Z</time></trkpt><trkpt lat="40.4430678" lon="9.5520249"><ele>145.0</ele><time>2026-04-18T17:50:01.121Z</time></trkpt><trkpt lat="40.4432492" lon="9.5522481"><ele>145.0</ele><time>2026-04-18T17:50:02.121Z</time></trkpt><trkpt lat="40.4434312" lon="9.5524716"><ele>145.0</ele><time>2026-04-18T17:50:03.121Z</time></trkpt><trkpt lat="40.4436106" lon="9.5526976"><ele>145.0</ele><time>2026-04-18T17:50:04.121Z</time></trkpt><trkpt lat="40.4437897" lon="9.5529266"><ele>144.5</ele><time>2026-04-18T17:50:05.121Z</time></trkpt><trkpt lat="40.4439691" lon="9.5531545"><ele>144.0</ele><time>2026-04-18T17:50:06.121Z</time></trkpt><trkpt lat="40.4441465" lon="9.5533746"><ele>144.0</ele><time>2026-04-18T17:50:07.121Z</time></trkpt><trkpt lat="40.4443255" lon="9.5535971"><ele>144.0</ele><time>2026-04-18T17:50:08.121Z</time></trkpt><trkpt lat="40.4445024" lon="9.5538191"><ele>146.0</ele><time>2026-04-18T17:50:09.121Z</time></trkpt><trkpt lat="40.4446801" lon="9.5540428"><ele>148.0</ele><time>2026-04-18T17:50:10.12Z</time></trkpt><trkpt lat="40.4448561" lon="9.5542625"><ele>148.0</ele><time>2026-04-18T17:50:11.121Z</time></trkpt><trkpt lat="40.445033" lon="9.5544854"><ele>148.0</ele><time>2026-04-18T17:50:12.121Z</time></trkpt><trkpt lat="40.4452084" lon="9.5547104"><ele>149.5</ele><time>2026-04-18T17:50:13.121Z</time></trkpt><trkpt lat="40.4453834" lon="9.5549291"><ele>151.0</ele><time>2026-04-18T17:50:14.121Z</time></trkpt><trkpt lat="40.4455626" lon="9.5551453"><ele>151.0</ele><time>2026-04-18T17:50:15.121Z</time></trkpt><trkpt lat="40.4457475" lon="9.5553549"><ele>151.0</ele><time>2026-04-18T17:50:16.121Z</time></trkpt><trkpt lat="40.4459327" lon="9.5555618"><ele>150.0</ele><time>2026-04-18T17:50:17.121Z</time></trkpt><trkpt lat="40.4461223" lon="9.5557631"><ele>149.0</ele><time>2026-04-18T17:50:18.12Z</time></trkpt><trkpt lat="40.4463166" lon="9.5559596"><ele>151.0</ele><time>2026-04-18T17:50:19.121Z</time></trkpt><trkpt lat="40.4465121" lon="9.5561549"><ele>153.0</ele><time>2026-04-18T17:50:20.121Z</time></trkpt><trkpt lat="40.4467098" lon="9.5563484"><ele>153.0</ele><time>2026-04-18T17:50:21.121Z</time></trkpt><trkpt lat="40.4469101" lon="9.5565389"><ele>153.0</ele><time>2026-04-18T17:50:22.121Z</time></trkpt><trkpt lat="40.4471075" lon="9.5567312"><ele>152.5</ele><time>2026-04-18T17:50:23.121Z</time></trkpt><trkpt lat="40.4473071" lon="9.5569264"><ele>152.0</ele><time>2026-04-18T17:50:24.121Z</time></trkpt><trkpt lat="40.4475055" lon="9.5571214"><ele>152.0</ele><time>2026-04-18T17:50:25.121Z</time></trkpt><trkpt lat="40.4477056" lon="9.5573185"><ele>152.0</ele><time>2026-04-18T17:50:26.12Z</time></trkpt><trkpt lat="40.4479056" lon="9.5575128"><ele>151.5</ele><time>2026-04-18T17:50:27.121Z</time></trkpt><trkpt lat="40.4481091" lon="9.5577063"><ele>151.0</ele><time>2026-04-18T17:50:28.121Z</time></trkpt><trkpt lat="40.4483081" lon="9.557902"><ele>150.5</ele><time>2026-04-18T17:50:29.12Z</time></trkpt><trkpt lat="40.4485116" lon="9.5580934"><ele>150.0</ele><time>2026-04-18T17:50:30.121Z</time></trkpt><trkpt lat="40.4487116" lon="9.5582863"><ele>151.5</ele><time>2026-04-18T17:50:31.12Z</time></trkpt><trkpt lat="40.4489127" lon="9.5584808"><ele>153.0</ele><time>2026-04-18T17:50:32.121Z</time></trkpt><trkpt lat="40.4491128" lon="9.5586692"><ele>151.5</ele><time>2026-04-18T17:50:33.121Z</time></trkpt><trkpt lat="40.449313" lon="9.5588607"><ele>150.0</ele><time>2026-04-18T17:50:34.121Z</time></trkpt><trkpt lat="40.4495136" lon="9.5590489"><ele>151.0</ele><time>2026-04-18T17:50:35.121Z</time></trkpt><trkpt lat="40.4497127" lon="9.5592412"><ele>152.0</ele><time>2026-04-18T17:50:36.121Z</time></trkpt><trkpt lat="40.4499092" lon="9.559435"><ele>152.0</ele><time>2026-04-18T17:50:37.121Z</time></trkpt><trkpt lat="40.4501056" lon="9.5596291"><ele>152.0</ele><time>2026-04-18T17:50:38.121Z</time></trkpt><trkpt lat="40.4503022" lon="9.5598243"><ele>153.0</ele><time>2026-04-18T17:50:39.121Z</time></trkpt><trkpt lat="40.4505024" lon="9.5600141"><ele>154.0</ele><time>2026-04-18T17:50:40.121Z</time></trkpt><trkpt lat="40.4507" lon="9.560205"><ele>155.0</ele><time>2026-04-18T17:50:41.121Z</time></trkpt><trkpt lat="40.4508964" lon="9.5603954"><ele>156.0</ele><time>2026-04-18T17:50:42.121Z</time></trkpt><trkpt lat="40.4510982" lon="9.5605867"><ele>155.0</ele><time>2026-04-18T17:50:43.12Z</time></trkpt><trkpt lat="40.4513005" lon="9.5607743"><ele>154.0</ele><time>2026-04-18T17:50:44.121Z</time></trkpt><trkpt lat="40.4514975" lon="9.5609624"><ele>154.0</ele><time>2026-04-18T17:50:45.121Z</time></trkpt><trkpt lat="40.4516931" lon="9.5611535"><ele>154.0</ele><time>2026-04-18T17:50:46.121Z</time></trkpt><trkpt lat="40.4518894" lon="9.5613406"><ele>154.5</ele><time>2026-04-18T17:50:47.121Z</time></trkpt><trkpt lat="40.4520828" lon="9.5615272"><ele>155.0</ele><time>2026-04-18T17:50:48.121Z</time></trkpt><trkpt lat="40.4522764" lon="9.5617132"><ele>156.0</ele><time>2026-04-18T17:50:49.121Z</time></trkpt><trkpt lat="40.4524732" lon="9.5619024"><ele>157.0</ele><time>2026-04-18T17:50:50.121Z</time></trkpt><trkpt lat="40.4526685" lon="9.5620899"><ele>157.0</ele><time>2026-04-18T17:50:51.121Z</time></trkpt><trkpt lat="40.4528666" lon="9.5622831"><ele>157.0</ele><time>2026-04-18T17:50:52.121Z</time></trkpt><trkpt lat="40.4530655" lon="9.5624733"><ele>158.5</ele><time>2026-04-18T17:50:53.12Z</time></trkpt><trkpt lat="40.4532655" lon="9.5626629"><ele>160.0</ele><time>2026-04-18T17:50:54.121Z</time></trkpt><trkpt lat="40.4534662" lon="9.5628591"><ele>159.5</ele><time>2026-04-18T17:50:55.121Z</time></trkpt><trkpt lat="40.4536602" lon="9.5630584"><ele>159.0</ele><time>2026-04-18T17:50:56.12Z</time></trkpt><trkpt lat="40.4538513" lon="9.5632612"><ele>161.0</ele><time>2026-04-18T17:50:57.121Z</time></trkpt><trkpt lat="40.4540429" lon="9.5634721"><ele>163.0</ele><time>2026-04-18T17:50:58.121Z</time></trkpt><trkpt lat="40.4542266" lon="9.5636923"><ele>162.0</ele><time>2026-04-18T17:50:59.121Z</time></trkpt><trkpt lat="40.4544078" lon="9.5639151"><ele>161.0</ele><time>2026-04-18T17:51:00.121Z</time></trkpt><trkpt lat="40.4545898" lon="9.5641338"><ele>163.0</ele><time>2026-04-18T17:51:01.121Z</time></trkpt><trkpt lat="40.4547619" lon="9.5643636"><ele>165.0</ele><time>2026-04-18T17:51:02.119Z</time></trkpt><trkpt lat="40.4549356" lon="9.5645902"><ele>165.5</ele><time>2026-04-18T17:51:03.121Z</time></trkpt><trkpt lat="40.4551108" lon="9.5648161"><ele>166.0</ele><time>2026-04-18T17:51:04.121Z</time></trkpt><trkpt lat="40.4552851" lon="9.5650405"><ele>167.5</ele><time>2026-04-18T17:51:05.121Z</time></trkpt><trkpt lat="40.4554584" lon="9.5652661"><ele>169.0</ele><time>2026-04-18T17:51:06.121Z</time></trkpt><trkpt lat="40.4556308" lon="9.5654912"><ele>169.0</ele><time>2026-04-18T17:51:07.121Z</time></trkpt><trkpt lat="40.4558049" lon="9.565715"><ele>169.0</ele><time>2026-04-18T17:51:08.121Z</time></trkpt><trkpt lat="40.4559798" lon="9.565942"><ele>169.0</ele><time>2026-04-18T17:51:09.121Z</time></trkpt><trkpt lat="40.4561513" lon="9.5661642"><ele>169.0</ele><time>2026-04-18T17:51:10.121Z</time></trkpt><trkpt lat="40.4563245" lon="9.5663857"><ele>169.0</ele><time>2026-04-18T17:51:11.121Z</time></trkpt><trkpt lat="40.4564981" lon="9.5666093"><ele>169.0</ele><time>2026-04-18T17:51:12.121Z</time></trkpt><trkpt lat="40.4566684" lon="9.5668335"><ele>168.5</ele><time>2026-04-18T17:51:13.121Z</time></trkpt><trkpt lat="40.4568431" lon="9.5670547"><ele>168.0</ele><time>2026-04-18T17:51:14.121Z</time></trkpt><trkpt lat="40.4570187" lon="9.5672769"><ele>170.0</ele><time>2026-04-18T17:51:15.121Z</time></trkpt><trkpt lat="40.4571962" lon="9.5675006"><ele>172.0</ele><time>2026-04-18T17:51:16.121Z</time></trkpt><trkpt lat="40.4573688" lon="9.5677272"><ele>170.5</ele><time>2026-04-18T17:51:17.121Z</time></trkpt><trkpt lat="40.4575403" lon="9.5679525"><ele>169.0</ele><time>2026-04-18T17:51:18.121Z</time></trkpt><trkpt lat="40.4577147" lon="9.5681701"><ele>169.0</ele><time>2026-04-18T17:51:19.121Z</time></trkpt><trkpt lat="40.4578892" lon="9.5683885"><ele>169.0</ele><time>2026-04-18T17:51:20.121Z</time></trkpt><trkpt lat="40.4580603" lon="9.5686082"><ele>171.5</ele><time>2026-04-18T17:51:21.121Z</time></trkpt><trkpt lat="40.4582281" lon="9.5688278"><ele>174.0</ele><time>2026-04-18T17:51:22.121Z</time></trkpt><trkpt lat="40.4583968" lon="9.5690468"><ele>174.0</ele><time>2026-04-18T17:51:23.121Z</time></trkpt><trkpt lat="40.4585674" lon="9.5692661"><ele>174.0</ele><time>2026-04-18T17:51:24.121Z</time></trkpt><trkpt lat="40.4587361" lon="9.5694854"><ele>175.0</ele><time>2026-04-18T17:51:25.121Z</time></trkpt><trkpt lat="40.4589032" lon="9.5697033"><ele>176.0</ele><time>2026-04-18T17:51:26.121Z</time></trkpt><trkpt lat="40.4590715" lon="9.5699197"><ele>176.0</ele><time>2026-04-18T17:51:27.121Z</time></trkpt><trkpt lat="40.4592422" lon="9.5701381"><ele>176.0</ele><time>2026-04-18T17:51:28.121Z</time></trkpt><trkpt lat="40.4594083" lon="9.5703579"><ele>177.0</ele><time>2026-04-18T17:51:29.121Z</time></trkpt><trkpt lat="40.4595765" lon="9.5705732"><ele>178.0</ele><time>2026-04-18T17:51:30.121Z</time></trkpt><trkpt lat="40.4597426" lon="9.570787"><ele>178.5</ele><time>2026-04-18T17:51:31.12Z</time></trkpt><trkpt lat="40.4599079" lon="9.5709979"><ele>179.0</ele><time>2026-04-18T17:51:32.121Z</time></trkpt><trkpt lat="40.4600714" lon="9.5712087"><ele>179.0</ele><time>2026-04-18T17:51:33.12Z</time></trkpt><trkpt lat="40.4602352" lon="9.571421"><ele>179.0</ele><time>2026-04-18T17:51:34.12Z</time></trkpt><trkpt lat="40.4603983" lon="9.5716239"><ele>181.66666666666666</ele><time>2026-04-18T17:51:35.121Z</time></trkpt><trkpt lat="40.460556" lon="9.5718312"><ele>184.33333333333334</ele><time>2026-04-18T17:51:36.121Z</time></trkpt><trkpt lat="40.4607151" lon="9.5720369"><ele>187.0</ele><time>2026-04-18T17:51:37.121Z</time></trkpt><trkpt lat="40.4608716" lon="9.5722379"><ele>187.0</ele><time>2026-04-18T17:51:38.121Z</time></trkpt><trkpt lat="40.4610369" lon="9.5724484"><ele>187.0</ele><time>2026-04-18T17:51:39.121Z</time></trkpt><trkpt lat="40.4611995" lon="9.5726516"><ele>189.66666666666669</ele><time>2026-04-18T17:51:40.121Z</time></trkpt><trkpt lat="40.4613591" lon="9.5728579"><ele>192.33333333333334</ele><time>2026-04-18T17:51:41.121Z</time></trkpt><trkpt lat="40.4615162" lon="9.5730591"><ele>195.0</ele><time>2026-04-18T17:51:42.121Z</time></trkpt><trkpt lat="40.4616761" lon="9.5732616"><ele>195.0</ele><time>2026-04-18T17:51:43.121Z</time></trkpt><trkpt lat="40.4618406" lon="9.573463"><ele>195.0</ele><time>2026-04-18T17:51:44.12Z</time></trkpt><trkpt lat="40.4620009" lon="9.573667"><ele>195.0</ele><time>2026-04-18T17:51:45.121Z</time></trkpt><trkpt lat="40.4621577" lon="9.5738752"><ele>194.33333333333331</ele><time>2026-04-18T17:51:46.12Z</time></trkpt><trkpt lat="40.4623179" lon="9.5740828"><ele>193.66666666666666</ele><time>2026-04-18T17:51:47.121Z</time></trkpt><trkpt lat="40.4624777" lon="9.574287"><ele>193.0</ele><time>2026-04-18T17:51:48.121Z</time></trkpt><trkpt lat="40.4626341" lon="9.5744964"><ele>194.0</ele><time>2026-04-18T17:51:49.121Z</time></trkpt><trkpt lat="40.4627809" lon="9.5747145"><ele>195.0</ele><time>2026-04-18T17:51:50.121Z</time></trkpt><trkpt lat="40.4629194" lon="9.5749449"><ele>196.0</ele><time>2026-04-18T17:51:51.12Z</time></trkpt><trkpt lat="40.4630448" lon="9.5751816"><ele>197.33333333333331</ele><time>2026-04-18T17:51:52.121Z</time></trkpt><trkpt lat="40.4631651" lon="9.5754261"><ele>198.66666666666669</ele><time>2026-04-18T17:51:53.121Z</time></trkpt><trkpt lat="40.4632757" lon="9.5756704"><ele>200.0</ele><time>2026-04-18T17:51:54.121Z</time></trkpt><trkpt lat="40.4633915" lon="9.5759258"><ele>200.0</ele><time>2026-04-18T17:51:55.12Z</time></trkpt><trkpt lat="40.463504" lon="9.5761822"><ele>200.0</ele><time>2026-04-18T17:51:56.121Z</time></trkpt><trkpt lat="40.4636192" lon="9.5764369"><ele>204.0</ele><time>2026-04-18T17:51:57.121Z</time></trkpt><trkpt lat="40.4637352" lon="9.576689"><ele>208.0</ele><time>2026-04-18T17:51:58.121Z</time></trkpt><trkpt lat="40.4638534" lon="9.5769423"><ele>208.0</ele><time>2026-04-18T17:51:59.121Z</time></trkpt><trkpt lat="40.4639689" lon="9.5771997"><ele>208.0</ele><time>2026-04-18T17:52:00.121Z</time></trkpt><trkpt lat="40.4640891" lon="9.577459"><ele>208.0</ele><time>2026-04-18T17:52:01.121Z</time></trkpt><trkpt lat="40.4642066" lon="9.5777152"><ele>208.0</ele><time>2026-04-18T17:52:02.12Z</time></trkpt><trkpt lat="40.4643203" lon="9.5779736"><ele>211.66666666666666</ele><time>2026-04-18T17:52:03.121Z</time></trkpt><trkpt lat="40.4644363" lon="9.5782265"><ele>215.33333333333331</ele><time>2026-04-18T17:52:04.121Z</time></trkpt><trkpt lat="40.464553" lon="9.5784776"><ele>219.0</ele><time>2026-04-18T17:52:05.12Z</time></trkpt><trkpt lat="40.4646737" lon="9.578728"><ele>219.33333333333331</ele><time>2026-04-18T17:52:06.121Z</time></trkpt><trkpt lat="40.4648024" lon="9.5789675"><ele>219.66666666666666</ele><time>2026-04-18T17:52:07.121Z</time></trkpt><trkpt lat="40.4649386" lon="9.5791996"><ele>220.0</ele><time>2026-04-18T17:52:08.121Z</time></trkpt><trkpt lat="40.4650836" lon="9.5794289"><ele>228.0</ele><time>2026-04-18T17:52:09.121Z</time></trkpt><trkpt lat="40.4652372" lon="9.5796467"><ele>236.0</ele><time>2026-04-18T17:52:10.121Z</time></trkpt><trkpt lat="40.4653989" lon="9.5798613"><ele>227.0</ele><time>2026-04-18T17:52:11.121Z</time></trkpt><trkpt lat="40.4655643" lon="9.5800665"><ele>218.0</ele><time>2026-04-18T17:52:12.121Z</time></trkpt><trkpt lat="40.4657372" lon="9.5802607"><ele>226.0</ele><time>2026-04-18T17:52:13.121Z</time></trkpt><trkpt lat="40.465913" lon="9.5804437"><ele>234.0</ele><time>2026-04-18T17:52:14.12Z</time></trkpt><trkpt lat="40.4660961" lon="9.5806168"><ele>229.0</ele><time>2026-04-18T17:52:15.12Z</time></trkpt><trkpt lat="40.4662828" lon="9.5807823"><ele>224.0</ele><time>2026-04-18T17:52:16.121Z</time></trkpt><trkpt lat="40.4664776" lon="9.5809393"><ele>224.0</ele><time>2026-04-18T17:52:17.121Z</time></trkpt><trkpt lat="40.4666756" lon="9.5810941"><ele>224.0</ele><time>2026-04-18T17:52:18.121Z</time></trkpt><trkpt lat="40.4668687" lon="9.5812524"><ele>225.0</ele><time>2026-04-18T17:52:19.121Z</time></trkpt><trkpt lat="40.4670646" lon="9.5814203"><ele>226.0</ele><time>2026-04-18T17:52:20.121Z</time></trkpt><trkpt lat="40.4672622" lon="9.5815925"><ele>226.0</ele><time>2026-04-18T17:52:21.121Z</time></trkpt><trkpt lat="40.467464" lon="9.581762"><ele>226.0</ele><time>2026-04-18T17:52:22.121Z</time></trkpt><trkpt lat="40.4676699" lon="9.581934"><ele>227.5</ele><time>2026-04-18T17:52:23.121Z</time></trkpt><trkpt lat="40.467874" lon="9.5821089"><ele>229.0</ele><time>2026-04-18T17:52:24.121Z</time></trkpt><trkpt lat="40.4680787" lon="9.5822873"><ele>229.0</ele><time>2026-04-18T17:52:25.12Z</time></trkpt><trkpt lat="40.4682822" lon="9.5824607"><ele>229.0</ele><time>2026-04-18T17:52:26.121Z</time></trkpt><trkpt lat="40.4684886" lon="9.5826337"><ele>229.0</ele><time>2026-04-18T17:52:27.121Z</time></trkpt><trkpt lat="40.4686923" lon="9.582804"><ele>229.0</ele><time>2026-04-18T17:52:28.121Z</time></trkpt><trkpt lat="40.4688932" lon="9.5829723"><ele>232.5</ele><time>2026-04-18T17:52:29.121Z</time></trkpt><trkpt lat="40.4690924" lon="9.5831373"><ele>236.0</ele><time>2026-04-18T17:52:30.121Z</time></trkpt><trkpt lat="40.4692898" lon="9.5833032"><ele>236.0</ele><time>2026-04-18T17:52:31.121Z</time></trkpt><trkpt lat="40.4694893" lon="9.5834728"><ele>236.0</ele><time>2026-04-18T17:52:32.121Z</time></trkpt><trkpt lat="40.4696863" lon="9.5836407"><ele>239.0</ele><time>2026-04-18T17:52:33.121Z</time></trkpt><trkpt lat="40.4698804" lon="9.5838044"><ele>242.0</ele><time>2026-04-18T17:52:34.121Z</time></trkpt><trkpt lat="40.4700788" lon="9.5839741"><ele>242.0</ele><time>2026-04-18T17:52:35.121Z</time></trkpt><trkpt lat="40.4702788" lon="9.5841403"><ele>242.0</ele><time>2026-04-18T17:52:36.121Z</time></trkpt><trkpt lat="40.470479" lon="9.5843077"><ele>242.5</ele><time>2026-04-18T17:52:37.121Z</time></trkpt><trkpt lat="40.4706785" lon="9.5844772"><ele>243.0</ele><time>2026-04-18T17:52:38.121Z</time></trkpt><trkpt lat="40.4708776" lon="9.5846452"><ele>243.0</ele><time>2026-04-18T17:52:39.121Z</time></trkpt><trkpt lat="40.4710805" lon="9.5848203"><ele>243.0</ele><time>2026-04-18T17:52:40.121Z</time></trkpt><trkpt lat="40.4712797" lon="9.584995"><ele>240.5</ele><time>2026-04-18T17:52:41.121Z</time></trkpt><trkpt lat="40.4714823" lon="9.5851761"><ele>238.0</ele><time>2026-04-18T17:52:42.121Z</time></trkpt><trkpt lat="40.4716839" lon="9.5853585"><ele>238.0</ele><time>2026-04-18T17:52:43.12Z</time></trkpt><trkpt lat="40.4718801" lon="9.5855393"><ele>238.0</ele><time>2026-04-18T17:52:44.121Z</time></trkpt><trkpt lat="40.4720815" lon="9.5857202"><ele>234.0</ele><time>2026-04-18T17:52:45.121Z</time></trkpt><trkpt lat="40.4722856" lon="9.5859009"><ele>230.0</ele><time>2026-04-18T17:52:46.121Z</time></trkpt><trkpt lat="40.4724847" lon="9.5860814"><ele>235.0</ele><time>2026-04-18T17:52:47.121Z</time></trkpt><trkpt lat="40.4726928" lon="9.5862667"><ele>240.0</ele><time>2026-04-18T17:52:48.12Z</time></trkpt><trkpt lat="40.4728954" lon="9.5864494"><ele>233.5</ele><time>2026-04-18T17:52:49.121Z</time></trkpt><trkpt lat="40.4730969" lon="9.5866372"><ele>227.0</ele><time>2026-04-18T17:52:50.121Z</time></trkpt><trkpt lat="40.4733003" lon="9.5868244"><ele>234.5</ele><time>2026-04-18T17:52:51.121Z</time></trkpt><trkpt lat="40.4735061" lon="9.5870129"><ele>242.0</ele><time>2026-04-18T17:52:52.121Z</time></trkpt><trkpt lat="40.4737127" lon="9.5871981"><ele>231.5</ele><time>2026-04-18T17:52:53.121Z</time></trkpt><trkpt lat="40.4739246" lon="9.5873891"><ele>221.0</ele><time>2026-04-18T17:52:54.121Z</time></trkpt><trkpt lat="40.4741385" lon="9.5875764"><ele>221.0</ele><time>2026-04-18T17:52:55.121Z</time></trkpt><trkpt lat="40.4743508" lon="9.5877611"><ele>221.0</ele><time>2026-04-18T17:52:56.121Z</time></trkpt><trkpt lat="40.4745647" lon="9.587951"><ele>219.0</ele><time>2026-04-18T17:52:57.121Z</time></trkpt><trkpt lat="40.4747728" lon="9.5881373"><ele>217.0</ele><time>2026-04-18T17:52:58.121Z</time></trkpt><trkpt lat="40.4749792" lon="9.5883259"><ele>217.0</ele><time>2026-04-18T17:52:59.121Z</time></trkpt><trkpt lat="40.4751876" lon="9.5885118"><ele>217.0</ele><time>2026-04-18T17:53:00.121Z</time></trkpt><trkpt lat="40.4753948" lon="9.5886989"><ele>218.0</ele><time>2026-04-18T17:53:01.12Z</time></trkpt><trkpt lat="40.4756012" lon="9.58889"><ele>219.0</ele><time>2026-04-18T17:53:02.121Z</time></trkpt><trkpt lat="40.4758099" lon="9.5890794"><ele>219.0</ele><time>2026-04-18T17:53:03.121Z</time></trkpt><trkpt lat="40.4760172" lon="9.5892648"><ele>219.0</ele><time>2026-04-18T17:53:04.121Z</time></trkpt><trkpt lat="40.4762241" lon="9.5894523"><ele>217.5</ele><time>2026-04-18T17:53:05.121Z</time></trkpt><trkpt lat="40.476431" lon="9.58964"><ele>216.0</ele><time>2026-04-18T17:53:06.121Z</time></trkpt><trkpt lat="40.4766404" lon="9.5898296"><ele>216.0</ele><time>2026-04-18T17:53:07.12Z</time></trkpt><trkpt lat="40.4768483" lon="9.5900141"><ele>216.0</ele><time>2026-04-18T17:53:08.121Z</time></trkpt><trkpt lat="40.4770556" lon="9.5902012"><ele>212.0</ele><time>2026-04-18T17:53:09.121Z</time></trkpt><trkpt lat="40.4772614" lon="9.5903888"><ele>208.0</ele><time>2026-04-18T17:53:10.121Z</time></trkpt><trkpt lat="40.4774702" lon="9.5905747"><ele>208.0</ele><time>2026-04-18T17:53:11.121Z</time></trkpt><trkpt lat="40.4776746" lon="9.5907591"><ele>208.0</ele><time>2026-04-18T17:53:12.121Z</time></trkpt><trkpt lat="40.4778835" lon="9.5909443"><ele>207.5</ele><time>2026-04-18T17:53:13.121Z</time></trkpt><trkpt lat="40.4780898" lon="9.5911304"><ele>207.0</ele><time>2026-04-18T17:53:14.121Z</time></trkpt><trkpt lat="40.4782931" lon="9.591317"><ele>207.0</ele><time>2026-04-18T17:53:15.121Z</time></trkpt><trkpt lat="40.4785003" lon="9.5915033"><ele>207.0</ele><time>2026-04-18T17:53:16.12Z</time></trkpt><trkpt lat="40.4787069" lon="9.5916938"><ele>201.5</ele><time>2026-04-18T17:53:17.121Z</time></trkpt><trkpt lat="40.4789111" lon="9.5918818"><ele>196.0</ele><time>2026-04-18T17:53:18.121Z</time></trkpt><trkpt lat="40.4791165" lon="9.5920666"><ele>196.0</ele><time>2026-04-18T17:53:19.121Z</time></trkpt><trkpt lat="40.4793204" lon="9.5922498"><ele>196.0</ele><time>2026-04-18T17:53:20.121Z</time></trkpt><trkpt lat="40.4795242" lon="9.5924354"><ele>193.5</ele><time>2026-04-18T17:53:21.121Z</time></trkpt><trkpt lat="40.4797244" lon="9.5926257"><ele>191.0</ele><time>2026-04-18T17:53:22.121Z</time></trkpt><trkpt lat="40.4799254" lon="9.59281"><ele>193.0</ele><time>2026-04-18T17:53:23.121Z</time></trkpt><trkpt lat="40.4801286" lon="9.5929939"><ele>195.0</ele><time>2026-04-18T17:53:24.121Z</time></trkpt><trkpt lat="40.4803278" lon="9.5931864"><ele>191.5</ele><time>2026-04-18T17:53:25.12Z</time></trkpt><trkpt lat="40.480519" lon="9.5933848"><ele>188.0</ele><time>2026-04-18T17:53:26.121Z</time></trkpt><trkpt lat="40.4807065" lon="9.5935884"><ele>190.0</ele><time>2026-04-18T17:53:27.121Z</time></trkpt><trkpt lat="40.480898" lon="9.5937982"><ele>192.0</ele><time>2026-04-18T17:53:28.121Z</time></trkpt><trkpt lat="40.4810718" lon="9.5940202"><ele>192.0</ele><time>2026-04-18T17:53:29.121Z</time></trkpt><trkpt lat="40.4812514" lon="9.594244"><ele>192.0</ele><time>2026-04-18T17:53:30.121Z</time></trkpt><trkpt lat="40.4814318" lon="9.594466"><ele>190.5</ele><time>2026-04-18T17:53:31.121Z</time></trkpt><trkpt lat="40.4816156" lon="9.594689"><ele>189.0</ele><time>2026-04-18T17:53:32.12Z</time></trkpt><trkpt lat="40.4818003" lon="9.594904"><ele>189.0</ele><time>2026-04-18T17:53:33.121Z</time></trkpt><trkpt lat="40.4819819" lon="9.5951217"><ele>189.0</ele><time>2026-04-18T17:53:34.121Z</time></trkpt><trkpt lat="40.4821591" lon="9.5953439"><ele>186.5</ele><time>2026-04-18T17:53:35.121Z</time></trkpt><trkpt lat="40.48234" lon="9.5955677"><ele>184.0</ele><time>2026-04-18T17:53:36.121Z</time></trkpt><trkpt lat="40.4825175" lon="9.5957831"><ele>184.0</ele><time>2026-04-18T17:53:37.121Z</time></trkpt><trkpt lat="40.4826947" lon="9.596008"><ele>184.0</ele><time>2026-04-18T17:53:38.121Z</time></trkpt><trkpt lat="40.4828699" lon="9.5962244"><ele>183.5</ele><time>2026-04-18T17:53:39.121Z</time></trkpt><trkpt lat="40.4830445" lon="9.5964418"><ele>183.0</ele><time>2026-04-18T17:53:40.12Z</time></trkpt><trkpt lat="40.4832192" lon="9.5966581"><ele>183.0</ele><time>2026-04-18T17:53:41.121Z</time></trkpt><trkpt lat="40.4833901" lon="9.5968622"><ele>183.0</ele><time>2026-04-18T17:53:42.121Z</time></trkpt><trkpt lat="40.4835616" lon="9.5970732"><ele>179.5</ele><time>2026-04-18T17:53:43.121Z</time></trkpt><trkpt lat="40.4837319" lon="9.5972827"><ele>176.0</ele><time>2026-04-18T17:53:44.121Z</time></trkpt><trkpt lat="40.4839028" lon="9.5974927"><ele>176.0</ele><time>2026-04-18T17:53:45.121Z</time></trkpt><trkpt lat="40.4840719" lon="9.5977013"><ele>176.0</ele><time>2026-04-18T17:53:46.121Z</time></trkpt><trkpt lat="40.4842397" lon="9.597909"><ele>182.5</ele><time>2026-04-18T17:53:47.121Z</time></trkpt><trkpt lat="40.4844036" lon="9.5981159"><ele>189.0</ele><time>2026-04-18T17:53:48.121Z</time></trkpt><trkpt lat="40.4845705" lon="9.5983236"><ele>181.5</ele><time>2026-04-18T17:53:49.121Z</time></trkpt><trkpt lat="40.484736" lon="9.5985337"><ele>174.0</ele><time>2026-04-18T17:53:50.121Z</time></trkpt><trkpt lat="40.4849021" lon="9.5987371"><ele>174.0</ele><time>2026-04-18T17:53:51.12Z</time></trkpt><trkpt lat="40.485069" lon="9.5989408"><ele>174.0</ele><time>2026-04-18T17:53:52.12Z</time></trkpt><trkpt lat="40.4852346" lon="9.5991492"><ele>174.0</ele><time>2026-04-18T17:53:53.121Z</time></trkpt><trkpt lat="40.4854001" lon="9.5993534"><ele>174.0</ele><time>2026-04-18T17:53:54.121Z</time></trkpt><trkpt lat="40.4855659" lon="9.5995606"><ele>172.0</ele><time>2026-04-18T17:53:55.121Z</time></trkpt><trkpt lat="40.4857296" lon="9.5997698"><ele>170.0</ele><time>2026-04-18T17:53:56.121Z</time></trkpt><trkpt lat="40.485894" lon="9.5999795"><ele>170.0</ele><time>2026-04-18T17:53:57.12Z</time></trkpt><trkpt lat="40.486061" lon="9.6001853"><ele>170.0</ele><time>2026-04-18T17:53:58.121Z</time></trkpt><trkpt lat="40.4862184" lon="9.6004003"><ele>168.5</ele><time>2026-04-18T17:53:59.121Z</time></trkpt><trkpt lat="40.4863745" lon="9.6006168"><ele>167.0</ele><time>2026-04-18T17:54:00.12Z</time></trkpt><trkpt lat="40.4865264" lon="9.6008385"><ele>167.0</ele><time>2026-04-18T17:54:01.121Z</time></trkpt><trkpt lat="40.4866738" lon="9.6010647"><ele>167.0</ele><time>2026-04-18T17:54:02.121Z</time></trkpt><trkpt lat="40.4868176" lon="9.6012901"><ele>166.5</ele><time>2026-04-18T17:54:03.121Z</time></trkpt><trkpt lat="40.4869652" lon="9.6015209"><ele>166.0</ele><time>2026-04-18T17:54:04.121Z</time></trkpt><trkpt lat="40.4871161" lon="9.6017506"><ele>166.0</ele><time>2026-04-18T17:54:05.121Z</time></trkpt><trkpt lat="40.4872682" lon="9.6019746"><ele>166.0</ele><time>2026-04-18T17:54:06.121Z</time></trkpt><trkpt lat="40.4874204" lon="9.6022037"><ele>168.0</ele><time>2026-04-18T17:54:07.121Z</time></trkpt><trkpt lat="40.4875708" lon="9.6024364"><ele>170.0</ele><time>2026-04-18T17:54:08.121Z</time></trkpt><trkpt lat="40.4877188" lon="9.6026676"><ele>170.5</ele><time>2026-04-18T17:54:09.121Z</time></trkpt><trkpt lat="40.4878698" lon="9.6028992"><ele>171.0</ele><time>2026-04-18T17:54:10.121Z</time></trkpt><trkpt lat="40.4880191" lon="9.6031317"><ele>171.0</ele><time>2026-04-18T17:54:11.121Z</time></trkpt><trkpt lat="40.4881705" lon="9.6033668"><ele>171.0</ele><time>2026-04-18T17:54:12.121Z</time></trkpt><trkpt lat="40.4883225" lon="9.6036056"><ele>173.5</ele><time>2026-04-18T17:54:13.121Z</time></trkpt><trkpt lat="40.4884745" lon="9.6038471"><ele>176.0</ele><time>2026-04-18T17:54:14.12Z</time></trkpt><trkpt lat="40.4886275" lon="9.6040872"><ele>174.0</ele><time>2026-04-18T17:54:15.121Z</time></trkpt><trkpt lat="40.4887829" lon="9.6043276"><ele>172.0</ele><time>2026-04-18T17:54:16.121Z</time></trkpt><trkpt lat="40.4889397" lon="9.6045704"><ele>172.0</ele><time>2026-04-18T17:54:17.12Z</time></trkpt><trkpt lat="40.489097" lon="9.6048127"><ele>172.0</ele><time>2026-04-18T17:54:18.121Z</time></trkpt><trkpt lat="40.4892557" lon="9.6050533"><ele>172.0</ele><time>2026-04-18T17:54:19.121Z</time></trkpt><trkpt lat="40.4894112" lon="9.6053013"><ele>172.0</ele><time>2026-04-18T17:54:20.121Z</time></trkpt><trkpt lat="40.4895668" lon="9.6055474"><ele>169.5</ele><time>2026-04-18T17:54:21.121Z</time></trkpt><trkpt lat="40.4897224" lon="9.6057918"><ele>167.0</ele><time>2026-04-18T17:54:22.121Z</time></trkpt><trkpt lat="40.4898829" lon="9.6060375"><ele>167.5</ele><time>2026-04-18T17:54:23.121Z</time></trkpt><trkpt lat="40.4900409" lon="9.6062818"><ele>168.0</ele><time>2026-04-18T17:54:24.121Z</time></trkpt><trkpt lat="40.4901995" lon="9.6065243"><ele>168.0</ele><time>2026-04-18T17:54:25.121Z</time></trkpt><trkpt lat="40.4903586" lon="9.6067652"><ele>168.0</ele><time>2026-04-18T17:54:26.121Z</time></trkpt><trkpt lat="40.4905146" lon="9.6070076"><ele>163.0</ele><time>2026-04-18T17:54:27.121Z</time></trkpt><trkpt lat="40.4906719" lon="9.6072549"><ele>158.0</ele><time>2026-04-18T17:54:28.121Z</time></trkpt><trkpt lat="40.490829" lon="9.6074982"><ele>158.0</ele><time>2026-04-18T17:54:29.121Z</time></trkpt><trkpt lat="40.4909878" lon="9.607741"><ele>158.0</ele><time>2026-04-18T17:54:30.121Z</time></trkpt><trkpt lat="40.4911423" lon="9.6079825"><ele>155.5</ele><time>2026-04-18T17:54:31.121Z</time></trkpt><trkpt lat="40.4912958" lon="9.6082232"><ele>153.0</ele><time>2026-04-18T17:54:32.121Z</time></trkpt><trkpt lat="40.4914497" lon="9.6084627"><ele>153.0</ele><time>2026-04-18T17:54:33.121Z</time></trkpt><trkpt lat="40.4916072" lon="9.608698"><ele>153.0</ele><time>2026-04-18T17:54:34.12Z</time></trkpt><trkpt lat="40.4917606" lon="9.6089416"><ele>153.0</ele><time>2026-04-18T17:54:35.121Z</time></trkpt><trkpt lat="40.4919153" lon="9.6091784"><ele>153.0</ele><time>2026-04-18T17:54:36.12Z</time></trkpt><trkpt lat="40.4920735" lon="9.6094074"><ele>150.0</ele><time>2026-04-18T17:54:37.121Z</time></trkpt><trkpt lat="40.4922396" lon="9.6096259"><ele>147.0</ele><time>2026-04-18T17:54:38.121Z</time></trkpt><trkpt lat="40.4924079" lon="9.6098392"><ele>147.0</ele><time>2026-04-18T17:54:39.121Z</time></trkpt><trkpt lat="40.4925811" lon="9.6100468"><ele>147.0</ele><time>2026-04-18T17:54:40.121Z</time></trkpt><trkpt lat="40.4927564" lon="9.610248"><ele>145.5</ele><time>2026-04-18T17:54:41.12Z</time></trkpt><trkpt lat="40.4929346" lon="9.610445"><ele>144.0</ele><time>2026-04-18T17:54:42.121Z</time></trkpt><trkpt lat="40.4931178" lon="9.6106383"><ele>144.0</ele><time>2026-04-18T17:54:43.121Z</time></trkpt><trkpt lat="40.4933017" lon="9.6108388"><ele>144.0</ele><time>2026-04-18T17:54:44.121Z</time></trkpt><trkpt lat="40.4934831" lon="9.6110372"><ele>143.5</ele><time>2026-04-18T17:54:45.121Z</time></trkpt><trkpt lat="40.4936673" lon="9.6112366"><ele>143.0</ele><time>2026-04-18T17:54:46.12Z</time></trkpt><trkpt lat="40.49385" lon="9.6114299"><ele>143.0</ele><time>2026-04-18T17:54:47.121Z</time></trkpt><trkpt lat="40.4940309" lon="9.611632"><ele>143.0</ele><time>2026-04-18T17:54:48.12Z</time></trkpt><trkpt lat="40.4942121" lon="9.6118323"><ele>143.0</ele><time>2026-04-18T17:54:49.121Z</time></trkpt><trkpt lat="40.4943915" lon="9.6120342"><ele>143.0</ele><time>2026-04-18T17:54:50.121Z</time></trkpt><trkpt lat="40.4945767" lon="9.612238"><ele>139.5</ele><time>2026-04-18T17:54:51.121Z</time></trkpt><trkpt lat="40.4947603" lon="9.6124381"><ele>136.0</ele><time>2026-04-18T17:54:52.121Z</time></trkpt><trkpt lat="40.4949488" lon="9.6126351"><ele>135.5</ele><time>2026-04-18T17:54:53.121Z</time></trkpt><trkpt lat="40.4951281" lon="9.6128408"><ele>135.0</ele><time>2026-04-18T17:54:54.121Z</time></trkpt><trkpt lat="40.4953157" lon="9.6130456"><ele>133.5</ele><time>2026-04-18T17:54:55.121Z</time></trkpt><trkpt lat="40.4955082" lon="9.6132503"><ele>132.0</ele><time>2026-04-18T17:54:56.121Z</time></trkpt><trkpt lat="40.4957006" lon="9.613458"><ele>129.5</ele><time>2026-04-18T17:54:57.121Z</time></trkpt><trkpt lat="40.4958911" lon="9.613664"><ele>127.0</ele><time>2026-04-18T17:54:58.121Z</time></trkpt><trkpt lat="40.4960781" lon="9.6138679"><ele>128.0</ele><time>2026-04-18T17:54:59.121Z</time></trkpt><trkpt lat="40.4962631" lon="9.6140658"><ele>129.0</ele><time>2026-04-18T17:55:00.12Z</time></trkpt><trkpt lat="40.4964488" lon="9.6142659"><ele>129.0</ele><time>2026-04-18T17:55:01.121Z</time></trkpt><trkpt lat="40.4966328" lon="9.614465"><ele>129.0</ele><time>2026-04-18T17:55:02.12Z</time></trkpt><trkpt lat="40.4968155" lon="9.6146636"><ele>126.5</ele><time>2026-04-18T17:55:03.121Z</time></trkpt><trkpt lat="40.4970002" lon="9.6148577"><ele>124.0</ele><time>2026-04-18T17:55:04.121Z</time></trkpt><trkpt lat="40.4971826" lon="9.6150531"><ele>123.5</ele><time>2026-04-18T17:55:05.12Z</time></trkpt><trkpt lat="40.4973659" lon="9.6152489"><ele>123.0</ele><time>2026-04-18T17:55:06.121Z</time></trkpt><trkpt lat="40.4975527" lon="9.6154469"><ele>122.0</ele><time>2026-04-18T17:55:07.121Z</time></trkpt><trkpt lat="40.4977362" lon="9.6156465"><ele>121.0</ele><time>2026-04-18T17:55:08.121Z</time></trkpt><trkpt lat="40.4979227" lon="9.6158446"><ele>121.0</ele><time>2026-04-18T17:55:09.121Z</time></trkpt><trkpt lat="40.4981045" lon="9.6160484"><ele>121.0</ele><time>2026-04-18T17:55:10.121Z</time></trkpt><trkpt lat="40.4982882" lon="9.6162493"><ele>126.0</ele><time>2026-04-18T17:55:11.121Z</time></trkpt><trkpt lat="40.4984733" lon="9.6164477"><ele>131.0</ele><time>2026-04-18T17:55:12.121Z</time></trkpt><trkpt lat="40.4986572" lon="9.6166432"><ele>129.0</ele><time>2026-04-18T17:55:13.121Z</time></trkpt><trkpt lat="40.4988388" lon="9.6168399"><ele>127.0</ele><time>2026-04-18T17:55:14.121Z</time></trkpt><trkpt lat="40.4990197" lon="9.6170402"><ele>127.0</ele><time>2026-04-18T17:55:15.121Z</time></trkpt><trkpt lat="40.4992019" lon="9.6172421"><ele>127.0</ele><time>2026-04-18T17:55:16.121Z</time></trkpt><trkpt lat="40.4993817" lon="9.6174373"><ele>127.0</ele><time>2026-04-18T17:55:17.121Z</time></trkpt><trkpt lat="40.4995627" lon="9.6176386"><ele>127.0</ele><time>2026-04-18T17:55:18.121Z</time></trkpt><trkpt lat="40.4997445" lon="9.617839"><ele>123.5</ele><time>2026-04-18T17:55:19.121Z</time></trkpt><trkpt lat="40.4999246" lon="9.6180327"><ele>120.0</ele><time>2026-04-18T17:55:20.121Z</time></trkpt><trkpt lat="40.5001077" lon="9.6182299"><ele>120.0</ele><time>2026-04-18T17:55:21.121Z</time></trkpt><trkpt lat="40.5002872" lon="9.6184254"><ele>120.0</ele><time>2026-04-18T17:55:22.121Z</time></trkpt><trkpt lat="40.5004661" lon="9.6186236"><ele>116.5</ele><time>2026-04-18T17:55:23.121Z</time></trkpt><trkpt lat="40.500646" lon="9.6188216"><ele>113.0</ele><time>2026-04-18T17:55:24.121Z</time></trkpt><trkpt lat="40.5008259" lon="9.6190158"><ele>113.0</ele><time>2026-04-18T17:55:25.121Z</time></trkpt><trkpt lat="40.5010063" lon="9.6192115"><ele>113.0</ele><time>2026-04-18T17:55:26.121Z</time></trkpt><trkpt lat="40.5011839" lon="9.6194043"><ele>112.5</ele><time>2026-04-18T17:55:27.121Z</time></trkpt><trkpt lat="40.5013626" lon="9.6196026"><ele>112.0</ele><time>2026-04-18T17:55:28.121Z</time></trkpt><trkpt lat="40.5015427" lon="9.6197981"><ele>112.0</ele><time>2026-04-18T17:55:29.121Z</time></trkpt><trkpt lat="40.5017224" lon="9.6199912"><ele>112.0</ele><time>2026-04-18T17:55:30.121Z</time></trkpt><trkpt lat="40.5018997" lon="9.6201873"><ele>111.5</ele><time>2026-04-18T17:55:31.121Z</time></trkpt><trkpt lat="40.5020798" lon="9.6203816"><ele>111.0</ele><time>2026-04-18T17:55:32.121Z</time></trkpt><trkpt lat="40.5022578" lon="9.6205751"><ele>111.0</ele><time>2026-04-18T17:55:33.121Z</time></trkpt><trkpt lat="40.5024387" lon="9.6207652"><ele>111.0</ele><time>2026-04-18T17:55:34.121Z</time></trkpt><trkpt lat="40.5026248" lon="9.6209433"><ele>111.0</ele><time>2026-04-18T17:55:35.121Z</time></trkpt><trkpt lat="40.5028173" lon="9.6211039"><ele>111.0</ele><time>2026-04-18T17:55:36.121Z</time></trkpt><trkpt lat="40.5030136" lon="9.6212577"><ele>111.0</ele><time>2026-04-18T17:55:37.121Z</time></trkpt><trkpt lat="40.503219" lon="9.6214077"><ele>111.0</ele><time>2026-04-18T17:55:38.121Z</time></trkpt><trkpt lat="40.5034265" lon="9.6215499"><ele>111.0</ele><time>2026-04-18T17:55:39.121Z</time></trkpt><trkpt lat="40.5036383" lon="9.6216864"><ele>111.0</ele><time>2026-04-18T17:55:40.121Z</time></trkpt><trkpt lat="40.5038732" lon="9.6218182"><ele>110.5</ele><time>2026-04-18T17:55:41.121Z</time></trkpt><trkpt lat="40.5041098" lon="9.6219471"><ele>110.0</ele><time>2026-04-18T17:55:42.12Z</time></trkpt><trkpt lat="40.5043403" lon="9.6220787"><ele>107.0</ele><time>2026-04-18T17:55:43.121Z</time></trkpt><trkpt lat="40.5045675" lon="9.6222076"><ele>104.0</ele><time>2026-04-18T17:55:44.121Z</time></trkpt><trkpt lat="40.5047929" lon="9.6223362"><ele>103.0</ele><time>2026-04-18T17:55:45.121Z</time></trkpt><trkpt lat="40.5050151" lon="9.6224651"><ele>102.0</ele><time>2026-04-18T17:55:46.121Z</time></trkpt><trkpt lat="40.5052343" lon="9.6225945"><ele>99.0</ele><time>2026-04-18T17:55:47.121Z</time></trkpt><trkpt lat="40.5054528" lon="9.622721"><ele>96.0</ele><time>2026-04-18T17:55:48.121Z</time></trkpt><trkpt lat="40.5056692" lon="9.6228482"><ele>96.0</ele><time>2026-04-18T17:55:49.121Z</time></trkpt><trkpt lat="40.505888" lon="9.6229693"><ele>96.0</ele><time>2026-04-18T17:55:50.121Z</time></trkpt><trkpt lat="40.5061026" lon="9.6230864"><ele>95.0</ele><time>2026-04-18T17:55:51.121Z</time></trkpt><trkpt lat="40.5063128" lon="9.6232029"><ele>94.0</ele><time>2026-04-18T17:55:52.121Z</time></trkpt><trkpt lat="40.506523" lon="9.623319"><ele>94.0</ele><time>2026-04-18T17:55:53.12Z</time></trkpt><trkpt lat="40.5067353" lon="9.6234369"><ele>94.0</ele><time>2026-04-18T17:55:54.121Z</time></trkpt><trkpt lat="40.5069447" lon="9.6235533"><ele>94.0</ele><time>2026-04-18T17:55:55.121Z</time></trkpt><trkpt lat="40.5071547" lon="9.6236727"><ele>94.0</ele><time>2026-04-18T17:55:56.121Z</time></trkpt><trkpt lat="40.5073606" lon="9.623788"><ele>94.0</ele><time>2026-04-18T17:55:57.121Z</time></trkpt><trkpt lat="40.5075677" lon="9.6239022"><ele>94.0</ele><time>2026-04-18T17:55:58.121Z</time></trkpt><trkpt lat="40.5077764" lon="9.6240197"><ele>94.0</ele><time>2026-04-18T17:55:59.121Z</time></trkpt><trkpt lat="40.5079834" lon="9.6241352"><ele>94.0</ele><time>2026-04-18T17:56:00.121Z</time></trkpt><trkpt lat="40.508192" lon="9.6242496"><ele>94.0</ele><time>2026-04-18T17:56:01.121Z</time></trkpt><trkpt lat="40.5084002" lon="9.624364"><ele>94.0</ele><time>2026-04-18T17:56:02.121Z</time></trkpt><trkpt lat="40.5086105" lon="9.6244782"><ele>92.5</ele><time>2026-04-18T17:56:03.121Z</time></trkpt><trkpt lat="40.5088163" lon="9.6245904"><ele>91.0</ele><time>2026-04-18T17:56:04.121Z</time></trkpt><trkpt lat="40.5090255" lon="9.6247069"><ele>91.0</ele><time>2026-04-18T17:56:05.121Z</time></trkpt><trkpt lat="40.5092359" lon="9.6248227"><ele>91.0</ele><time>2026-04-18T17:56:06.121Z</time></trkpt><trkpt lat="40.5094447" lon="9.6249341"><ele>90.5</ele><time>2026-04-18T17:56:07.121Z</time></trkpt><trkpt lat="40.5096524" lon="9.625048"><ele>90.0</ele><time>2026-04-18T17:56:08.121Z</time></trkpt><trkpt lat="40.509864" lon="9.6251653"><ele>90.0</ele><time>2026-04-18T17:56:09.121Z</time></trkpt><trkpt lat="40.5100763" lon="9.6252827"><ele>90.0</ele><time>2026-04-18T17:56:10.121Z</time></trkpt><trkpt lat="40.5102917" lon="9.6254042"><ele>90.5</ele><time>2026-04-18T17:56:11.121Z</time></trkpt><trkpt lat="40.5105116" lon="9.625523"><ele>91.0</ele><time>2026-04-18T17:56:12.121Z</time></trkpt><trkpt lat="40.5107342" lon="9.6256477"><ele>91.0</ele><time>2026-04-18T17:56:13.121Z</time></trkpt><trkpt lat="40.5109579" lon="9.6257698"><ele>91.0</ele><time>2026-04-18T17:56:14.121Z</time></trkpt><trkpt lat="40.5111819" lon="9.6258953"><ele>89.5</ele><time>2026-04-18T17:56:15.121Z</time></trkpt><trkpt lat="40.5114069" lon="9.6260217"><ele>88.0</ele><time>2026-04-18T17:56:16.121Z</time></trkpt><trkpt lat="40.5116306" lon="9.6261463"><ele>88.0</ele><time>2026-04-18T17:56:17.121Z</time></trkpt><trkpt lat="40.511856" lon="9.6262679"><ele>88.0</ele><time>2026-04-18T17:56:18.121Z</time></trkpt><trkpt lat="40.5120819" lon="9.6263949"><ele>88.0</ele><time>2026-04-18T17:56:19.121Z</time></trkpt><trkpt lat="40.5123027" lon="9.6265258"><ele>88.0</ele><time>2026-04-18T17:56:20.121Z</time></trkpt><trkpt lat="40.5125288" lon="9.6266497"><ele>88.0</ele><time>2026-04-18T17:56:21.12Z</time></trkpt><trkpt lat="40.5127536" lon="9.6267757"><ele>88.0</ele><time>2026-04-18T17:56:22.121Z</time></trkpt><trkpt lat="40.513208" lon="9.6270265"><ele>86.0</ele><time>2026-04-18T17:56:24.121Z</time></trkpt><trkpt lat="40.5134351" lon="9.6271545"><ele>84.0</ele><time>2026-04-18T17:56:25.121Z</time></trkpt><trkpt lat="40.5136638" lon="9.6272796"><ele>86.0</ele><time>2026-04-18T17:56:26.121Z</time></trkpt><trkpt lat="40.5138935" lon="9.6274069"><ele>88.0</ele><time>2026-04-18T17:56:27.121Z</time></trkpt><trkpt lat="40.5141212" lon="9.6275351"><ele>88.0</ele><time>2026-04-18T17:56:28.121Z</time></trkpt><trkpt lat="40.5143516" lon="9.627658"><ele>88.0</ele><time>2026-04-18T17:56:29.121Z</time></trkpt><trkpt lat="40.514587" lon="9.6277869"><ele>86.0</ele><time>2026-04-18T17:56:30.121Z</time></trkpt><trkpt lat="40.5148183" lon="9.6279194"><ele>84.0</ele><time>2026-04-18T17:56:31.121Z</time></trkpt><trkpt lat="40.5150497" lon="9.6280528"><ele>84.0</ele><time>2026-04-18T17:56:32.121Z</time></trkpt><trkpt lat="40.5152834" lon="9.6281867"><ele>84.0</ele><time>2026-04-18T17:56:33.12Z</time></trkpt><trkpt lat="40.5155195" lon="9.6283183"><ele>83.5</ele><time>2026-04-18T17:56:34.12Z</time></trkpt><trkpt lat="40.5157537" lon="9.6284484"><ele>83.0</ele><time>2026-04-18T17:56:35.12Z</time></trkpt><trkpt lat="40.5159879" lon="9.6285737"><ele>81.0</ele><time>2026-04-18T17:56:36.12Z</time></trkpt><trkpt lat="40.5162241" lon="9.6287006"><ele>79.0</ele><time>2026-04-18T17:56:37.121Z</time></trkpt><trkpt lat="40.5164622" lon="9.628832"><ele>78.5</ele><time>2026-04-18T17:56:38.12Z</time></trkpt><trkpt lat="40.5166982" lon="9.6289596"><ele>78.0</ele><time>2026-04-18T17:56:39.121Z</time></trkpt><trkpt lat="40.5169352" lon="9.6290908"><ele>77.0</ele><time>2026-04-18T17:56:40.121Z</time></trkpt><trkpt lat="40.5171738" lon="9.6292208"><ele>76.0</ele><time>2026-04-18T17:56:41.121Z</time></trkpt><trkpt lat="40.5174119" lon="9.6293505"><ele>76.5</ele><time>2026-04-18T17:56:42.121Z</time></trkpt><trkpt lat="40.5176517" lon="9.629482"><ele>77.0</ele><time>2026-04-18T17:56:43.121Z</time></trkpt><trkpt lat="40.5178882" lon="9.6296122"><ele>76.0</ele><time>2026-04-18T17:56:44.121Z</time></trkpt><trkpt lat="40.5181233" lon="9.6297445"><ele>75.0</ele><time>2026-04-18T17:56:45.121Z</time></trkpt><trkpt lat="40.5183595" lon="9.6298749"><ele>75.0</ele><time>2026-04-18T17:56:46.121Z</time></trkpt><trkpt lat="40.5185934" lon="9.6300071"><ele>75.0</ele><time>2026-04-18T17:56:47.121Z</time></trkpt><trkpt lat="40.5188266" lon="9.6301381"><ele>73.5</ele><time>2026-04-18T17:56:48.121Z</time></trkpt><trkpt lat="40.5190565" lon="9.6302676"><ele>72.0</ele><time>2026-04-18T17:56:49.12Z</time></trkpt><trkpt lat="40.5192891" lon="9.6303973"><ele>72.0</ele><time>2026-04-18T17:56:50.121Z</time></trkpt><trkpt lat="40.5195182" lon="9.6305236"><ele>72.0</ele><time>2026-04-18T17:56:51.121Z</time></trkpt><trkpt lat="40.5197516" lon="9.6306506"><ele>73.5</ele><time>2026-04-18T17:56:52.121Z</time></trkpt><trkpt lat="40.5199833" lon="9.6307799"><ele>75.0</ele><time>2026-04-18T17:56:53.121Z</time></trkpt><trkpt lat="40.5202156" lon="9.6309125"><ele>73.0</ele><time>2026-04-18T17:56:54.121Z</time></trkpt><trkpt lat="40.5204485" lon="9.6310426"><ele>71.0</ele><time>2026-04-18T17:56:55.121Z</time></trkpt><trkpt lat="40.5206806" lon="9.6311717"><ele>71.0</ele><time>2026-04-18T17:56:56.121Z</time></trkpt><trkpt lat="40.5209094" lon="9.6313022"><ele>71.0</ele><time>2026-04-18T17:56:57.121Z</time></trkpt><trkpt lat="40.5211385" lon="9.6314356"><ele>74.0</ele><time>2026-04-18T17:56:58.121Z</time></trkpt><trkpt lat="40.5213613" lon="9.6315766"><ele>77.0</ele><time>2026-04-18T17:56:59.121Z</time></trkpt><trkpt lat="40.5215839" lon="9.6317308"><ele>77.0</ele><time>2026-04-18T17:57:00.121Z</time></trkpt><trkpt lat="40.5217999" lon="9.6318936"><ele>77.0</ele><time>2026-04-18T17:57:01.121Z</time></trkpt><trkpt lat="40.5220104" lon="9.6320674"><ele>73.5</ele><time>2026-04-18T17:57:02.121Z</time></trkpt><trkpt lat="40.522215" lon="9.6322486"><ele>70.0</ele><time>2026-04-18T17:57:03.121Z</time></trkpt><trkpt lat="40.5224161" lon="9.6324387"><ele>70.0</ele><time>2026-04-18T17:57:04.121Z</time></trkpt><trkpt lat="40.5226124" lon="9.6326394"><ele>70.0</ele><time>2026-04-18T17:57:05.121Z</time></trkpt><trkpt lat="40.5228148" lon="9.6328456"><ele>70.0</ele><time>2026-04-18T17:57:06.121Z</time></trkpt><trkpt lat="40.5230157" lon="9.6330501"><ele>70.0</ele><time>2026-04-18T17:57:07.12Z</time></trkpt><trkpt lat="40.5232177" lon="9.6332578"><ele>70.0</ele><time>2026-04-18T17:57:08.121Z</time></trkpt><trkpt lat="40.5234211" lon="9.6334615"><ele>70.0</ele><time>2026-04-18T17:57:09.121Z</time></trkpt><trkpt lat="40.5236299" lon="9.6336712"><ele>70.0</ele><time>2026-04-18T17:57:10.121Z</time></trkpt><trkpt lat="40.5238426" lon="9.6338827"><ele>70.0</ele><time>2026-04-18T17:57:11.121Z</time></trkpt><trkpt lat="40.5240572" lon="9.6340941"><ele>70.0</ele><time>2026-04-18T17:57:12.121Z</time></trkpt><trkpt lat="40.5242666" lon="9.6343015"><ele>70.0</ele><time>2026-04-18T17:57:13.121Z</time></trkpt><trkpt lat="40.5244761" lon="9.6345102"><ele>67.5</ele><time>2026-04-18T17:57:14.121Z</time></trkpt><trkpt lat="40.5246813" lon="9.6347213"><ele>65.0</ele><time>2026-04-18T17:57:15.121Z</time></trkpt><trkpt lat="40.5248859" lon="9.6349267"><ele>65.0</ele><time>2026-04-18T17:57:16.121Z</time></trkpt><trkpt lat="40.5250906" lon="9.6351327"><ele>65.0</ele><time>2026-04-18T17:57:17.12Z</time></trkpt><trkpt lat="40.5252989" lon="9.6353411"><ele>63.0</ele><time>2026-04-18T17:57:18.121Z</time></trkpt><trkpt lat="40.5255086" lon="9.6355525"><ele>61.0</ele><time>2026-04-18T17:57:19.121Z</time></trkpt><trkpt lat="40.5257163" lon="9.6357573"><ele>61.0</ele><time>2026-04-18T17:57:20.121Z</time></trkpt><trkpt lat="40.5259244" lon="9.6359611"><ele>61.0</ele><time>2026-04-18T17:57:21.121Z</time></trkpt><trkpt lat="40.5261308" lon="9.6361631"><ele>61.0</ele><time>2026-04-18T17:57:22.121Z</time></trkpt><trkpt lat="40.5263347" lon="9.6363696"><ele>61.0</ele><time>2026-04-18T17:57:23.12Z</time></trkpt><trkpt lat="40.5265388" lon="9.6365715"><ele>61.0</ele><time>2026-04-18T17:57:24.121Z</time></trkpt><trkpt lat="40.5267451" lon="9.6367716"><ele>61.0</ele><time>2026-04-18T17:57:25.12Z</time></trkpt><trkpt lat="40.5269524" lon="9.6369747"><ele>60.0</ele><time>2026-04-18T17:57:26.121Z</time></trkpt><trkpt lat="40.5271621" lon="9.6371885"><ele>59.0</ele><time>2026-04-18T17:57:27.121Z</time></trkpt><trkpt lat="40.5273755" lon="9.6374005"><ele>59.0</ele><time>2026-04-18T17:57:28.121Z</time></trkpt><trkpt lat="40.5275918" lon="9.6376213"><ele>59.0</ele><time>2026-04-18T17:57:29.121Z</time></trkpt><trkpt lat="40.5278087" lon="9.6378386"><ele>58.0</ele><time>2026-04-18T17:57:30.121Z</time></trkpt><trkpt lat="40.5280113" lon="9.6380442"><ele>57.0</ele><time>2026-04-18T17:57:31.121Z</time></trkpt><trkpt lat="40.5282215" lon="9.6382549"><ele>57.0</ele><time>2026-04-18T17:57:32.121Z</time></trkpt><trkpt lat="40.5284278" lon="9.6384649"><ele>57.0</ele><time>2026-04-18T17:57:33.121Z</time></trkpt><trkpt lat="40.5286276" lon="9.6386713"><ele>57.5</ele><time>2026-04-18T17:57:34.12Z</time></trkpt><trkpt lat="40.5288204" lon="9.6388765"><ele>58.0</ele><time>2026-04-18T17:57:35.121Z</time></trkpt><trkpt lat="40.5289959" lon="9.6390853"><ele>58.0</ele><time>2026-04-18T17:57:36.121Z</time></trkpt><trkpt lat="40.5291673" lon="9.6392975"><ele>58.0</ele><time>2026-04-18T17:57:37.121Z</time></trkpt><trkpt lat="40.5293299" lon="9.6395176"><ele>57.0</ele><time>2026-04-18T17:57:38.121Z</time></trkpt><trkpt lat="40.5294798" lon="9.6397353"><ele>56.0</ele><time>2026-04-18T17:57:39.121Z</time></trkpt><trkpt lat="40.5296147" lon="9.6399493"><ele>55.0</ele><time>2026-04-18T17:57:40.121Z</time></trkpt><trkpt lat="40.5297392" lon="9.6401547"><ele>57.666666666666664</ele><time>2026-04-18T17:57:41.121Z</time></trkpt><trkpt lat="40.5298554" lon="9.6403515"><ele>60.33333333333333</ele><time>2026-04-18T17:57:42.121Z</time></trkpt><trkpt lat="40.529962" lon="9.6405392"><ele>63.0</ele><time>2026-04-18T17:57:43.121Z</time></trkpt><trkpt lat="40.5300619" lon="9.6407103"><ele>63.0</ele><time>2026-04-18T17:57:44.121Z</time></trkpt><trkpt lat="40.5301561" lon="9.6408767"><ele>63.0</ele><time>2026-04-18T17:57:45.121Z</time></trkpt><trkpt lat="40.5302451" lon="9.6410297"><ele>63.0</ele><time>2026-04-18T17:57:46.12Z</time></trkpt><trkpt lat="40.5303301" lon="9.6411749"><ele>63.0</ele><time>2026-04-18T17:57:47.121Z</time></trkpt><trkpt lat="40.5304078" lon="9.6413106"><ele>63.2</ele><time>2026-04-18T17:57:48.121Z</time></trkpt><trkpt lat="40.5304762" lon="9.6414427"><ele>63.4</ele><time>2026-04-18T17:57:49.12Z</time></trkpt><trkpt lat="40.5305417" lon="9.6415654"><ele>63.60000000000001</ele><time>2026-04-18T17:57:50.121Z</time></trkpt><trkpt lat="40.5306016" lon="9.6416761"><ele>63.800000000000004</ele><time>2026-04-18T17:57:51.121Z</time></trkpt><trkpt lat="40.5306513" lon="9.6417778"><ele>64.0</ele><time>2026-04-18T17:57:52.121Z</time></trkpt><trkpt lat="40.5306979" lon="9.6418692"><ele>63.99999999999999</ele><time>2026-04-18T17:57:53.121Z</time></trkpt><trkpt lat="40.5307396" lon="9.6419537"><ele>64.0</ele><time>2026-04-18T17:57:54.121Z</time></trkpt><trkpt lat="40.5307748" lon="9.6420256"><ele>64.0</ele><time>2026-04-18T17:57:55.121Z</time></trkpt><trkpt lat="40.5308381" lon="9.6421487"><ele>64.0</ele><time>2026-04-18T17:57:57.122Z</time></trkpt><trkpt lat="40.5308922" lon="9.642246"><ele>63.99999999999999</ele><time>2026-04-18T17:57:59.122Z</time></trkpt><trkpt lat="40.5309302" lon="9.6423293"><ele>64.0</ele><time>2026-04-18T17:58:02.122Z</time></trkpt><trkpt lat="40.5309848" lon="9.6423851"><ele>63.666666666666664</ele><time>2026-04-18T18:07:09.122Z</time></trkpt><trkpt lat="40.5310353" lon="9.642473"><ele>63.33333333333333</ele><time>2026-04-18T18:07:13.122Z</time></trkpt><trkpt lat="40.5310965" lon="9.6425767"><ele>63.0</ele><time>2026-04-18T18:07:15.122Z</time></trkpt><trkpt lat="40.5311437" lon="9.6426384"><ele>62.66666666666667</ele><time>2026-04-18T18:07:16.122Z</time></trkpt><trkpt lat="40.5311909" lon="9.6427137"><ele>62.333333333333336</ele><time>2026-04-18T18:07:17.122Z</time></trkpt><trkpt lat="40.5312449" lon="9.6428007"><ele>62.0</ele><time>2026-04-18T18:07:18.122Z</time></trkpt><trkpt lat="40.53131" lon="9.6429034"><ele>62.0</ele><time>2026-04-18T18:07:19.122Z</time></trkpt><trkpt lat="40.5313819" lon="9.6430268"><ele>62.0</ele><time>2026-04-18T18:07:20.122Z</time></trkpt><trkpt lat="40.5314559" lon="9.6431555"><ele>62.0</ele><time>2026-04-18T18:07:21.122Z</time></trkpt><trkpt lat="40.5315376" lon="9.6432961"><ele>62.0</ele><time>2026-04-18T18:07:22.122Z</time></trkpt><trkpt lat="40.5316298" lon="9.6434535"><ele>62.0</ele><time>2026-04-18T18:07:23.122Z</time></trkpt><trkpt lat="40.531723" lon="9.6436147"><ele>62.0</ele><time>2026-04-18T18:07:24.122Z</time></trkpt><trkpt lat="40.5318183" lon="9.6437802"><ele>62.0</ele><time>2026-04-18T18:07:25.122Z</time></trkpt><trkpt lat="40.5319164" lon="9.6439545"><ele>62.333333333333336</ele><time>2026-04-18T18:07:26.121Z</time></trkpt><trkpt lat="40.5320158" lon="9.6441262"><ele>62.66666666666667</ele><time>2026-04-18T18:07:27.122Z</time></trkpt><trkpt lat="40.5321173" lon="9.6443072"><ele>63.0</ele><time>2026-04-18T18:07:28.121Z</time></trkpt><trkpt lat="40.5322236" lon="9.644493"><ele>62.0</ele><time>2026-04-18T18:07:29.122Z</time></trkpt><trkpt lat="40.5323316" lon="9.6446872"><ele>61.0</ele><time>2026-04-18T18:07:30.122Z</time></trkpt><trkpt lat="40.5324499" lon="9.6448884"><ele>60.0</ele><time>2026-04-18T18:07:31.122Z</time></trkpt><trkpt lat="40.5325711" lon="9.6450991"><ele>59.0</ele><time>2026-04-18T18:07:32.122Z</time></trkpt><trkpt lat="40.5326862" lon="9.6453032"><ele>58.0</ele><time>2026-04-18T18:07:33.121Z</time></trkpt><trkpt lat="40.5328015" lon="9.6455096"><ele>57.0</ele><time>2026-04-18T18:07:34.122Z</time></trkpt><trkpt lat="40.5329216" lon="9.645724"><ele>58.66666666666667</ele><time>2026-04-18T18:07:35.122Z</time></trkpt><trkpt lat="40.5330437" lon="9.6459433"><ele>60.333333333333336</ele><time>2026-04-18T18:07:36.122Z</time></trkpt><trkpt lat="40.5331681" lon="9.6461633"><ele>62.0</ele><time>2026-04-18T18:07:37.122Z</time></trkpt><trkpt lat="40.533296" lon="9.6463872"><ele>62.0</ele><time>2026-04-18T18:07:38.122Z</time></trkpt><trkpt lat="40.5334234" lon="9.6466123"><ele>62.0</ele><time>2026-04-18T18:07:39.122Z</time></trkpt><trkpt lat="40.5335541" lon="9.6468458"><ele>62.0</ele><time>2026-04-18T18:07:40.122Z</time></trkpt><trkpt lat="40.5336867" lon="9.6470811"><ele>63.0</ele><time>2026-04-18T18:07:41.122Z</time></trkpt><trkpt lat="40.5338195" lon="9.647315"><ele>64.0</ele><time>2026-04-18T18:07:42.122Z</time></trkpt><trkpt lat="40.5339515" lon="9.6475513"><ele>65.0</ele><time>2026-04-18T18:07:43.122Z</time></trkpt><trkpt lat="40.5340865" lon="9.6477853"><ele>62.0</ele><time>2026-04-18T18:07:44.121Z</time></trkpt><trkpt lat="40.5342228" lon="9.6480232"><ele>59.0</ele><time>2026-04-18T18:07:45.122Z</time></trkpt><trkpt lat="40.534359" lon="9.6482636"><ele>59.0</ele><time>2026-04-18T18:07:46.122Z</time></trkpt><trkpt lat="40.5344943" lon="9.6484987"><ele>59.0</ele><time>2026-04-18T18:07:47.122Z</time></trkpt><trkpt lat="40.5346313" lon="9.6487379"><ele>62.0</ele><time>2026-04-18T18:07:48.121Z</time></trkpt><trkpt lat="40.5347655" lon="9.6489762"><ele>65.0</ele><time>2026-04-18T18:07:49.122Z</time></trkpt><trkpt lat="40.5349034" lon="9.6492177"><ele>65.0</ele><time>2026-04-18T18:07:50.122Z</time></trkpt><trkpt lat="40.5350415" lon="9.6494574"><ele>65.0</ele><time>2026-04-18T18:07:51.121Z</time></trkpt><trkpt lat="40.5351799" lon="9.6497013"><ele>66.5</ele><time>2026-04-18T18:07:52.122Z</time></trkpt><trkpt lat="40.5353191" lon="9.6499469"><ele>68.0</ele><time>2026-04-18T18:07:53.122Z</time></trkpt><trkpt lat="40.5354635" lon="9.6501904"><ele>65.5</ele><time>2026-04-18T18:07:54.122Z</time></trkpt><trkpt lat="40.535605" lon="9.6504345"><ele>63.0</ele><time>2026-04-18T18:07:55.122Z</time></trkpt><trkpt lat="40.5357471" lon="9.6506872"><ele>63.0</ele><time>2026-04-18T18:07:56.122Z</time></trkpt><trkpt lat="40.5358881" lon="9.6509391"><ele>63.0</ele><time>2026-04-18T18:07:57.121Z</time></trkpt><trkpt lat="40.5360346" lon="9.6511937"><ele>64.0</ele><time>2026-04-18T18:07:58.122Z</time></trkpt><trkpt lat="40.5361757" lon="9.6514517"><ele>65.0</ele><time>2026-04-18T18:07:59.122Z</time></trkpt><trkpt lat="40.5363215" lon="9.6517073"><ele>62.0</ele><time>2026-04-18T18:08:00.122Z</time></trkpt><trkpt lat="40.5364665" lon="9.6519642"><ele>59.0</ele><time>2026-04-18T18:08:01.122Z</time></trkpt><trkpt lat="40.5366148" lon="9.6522239"><ele>59.0</ele><time>2026-04-18T18:08:02.122Z</time></trkpt><trkpt lat="40.5367603" lon="9.6524859"><ele>59.0</ele><time>2026-04-18T18:08:03.122Z</time></trkpt><trkpt lat="40.5369076" lon="9.6527448"><ele>61.5</ele><time>2026-04-18T18:08:04.122Z</time></trkpt><trkpt lat="40.5370543" lon="9.653005"><ele>64.0</ele><time>2026-04-18T18:08:05.122Z</time></trkpt><trkpt lat="40.5372018" lon="9.6532644"><ele>64.0</ele><time>2026-04-18T18:08:06.121Z</time></trkpt><trkpt lat="40.5373483" lon="9.6535259"><ele>64.0</ele><time>2026-04-18T18:08:07.122Z</time></trkpt><trkpt lat="40.5374978" lon="9.6537862"><ele>60.5</ele><time>2026-04-18T18:08:08.121Z</time></trkpt><trkpt lat="40.5376464" lon="9.6540481"><ele>57.0</ele><time>2026-04-18T18:08:09.122Z</time></trkpt><trkpt lat="40.5377947" lon="9.6543112"><ele>58.0</ele><time>2026-04-18T18:08:10.122Z</time></trkpt><trkpt lat="40.5379441" lon="9.6545695"><ele>59.0</ele><time>2026-04-18T18:08:11.122Z</time></trkpt><trkpt lat="40.5380941" lon="9.6548306"><ele>59.0</ele><time>2026-04-18T18:08:12.122Z</time></trkpt><trkpt lat="40.5382419" lon="9.655093"><ele>59.0</ele><time>2026-04-18T18:08:13.121Z</time></trkpt><trkpt lat="40.5383895" lon="9.6553518"><ele>58.0</ele><time>2026-04-18T18:08:14.122Z</time></trkpt><trkpt lat="40.5385369" lon="9.6556158"><ele>57.0</ele><time>2026-04-18T18:08:15.122Z</time></trkpt><trkpt lat="40.538683" lon="9.6558822"><ele>57.5</ele><time>2026-04-18T18:08:16.122Z</time></trkpt><trkpt lat="40.5388304" lon="9.6561487"><ele>58.0</ele><time>2026-04-18T18:08:17.122Z</time></trkpt><trkpt lat="40.5389806" lon="9.6564121"><ele>58.0</ele><time>2026-04-18T18:08:18.122Z</time></trkpt><trkpt lat="40.5391309" lon="9.6566757"><ele>58.0</ele><time>2026-04-18T18:08:19.122Z</time></trkpt><trkpt lat="40.5392816" lon="9.6569415"><ele>56.5</ele><time>2026-04-18T18:08:20.122Z</time></trkpt><trkpt lat="40.5394335" lon="9.6572027"><ele>55.0</ele><time>2026-04-18T18:08:21.122Z</time></trkpt><trkpt lat="40.5395883" lon="9.6574705"><ele>58.0</ele><time>2026-04-18T18:08:22.122Z</time></trkpt><trkpt lat="40.5397402" lon="9.6577384"><ele>61.0</ele><time>2026-04-18T18:08:23.121Z</time></trkpt><trkpt lat="40.5398937" lon="9.6580071"><ele>61.0</ele><time>2026-04-18T18:08:24.122Z</time></trkpt><trkpt lat="40.5400476" lon="9.6582787"><ele>61.0</ele><time>2026-04-18T18:08:25.122Z</time></trkpt><trkpt lat="40.5401991" lon="9.6585482"><ele>61.5</ele><time>2026-04-18T18:08:26.121Z</time></trkpt><trkpt lat="40.5403525" lon="9.6588238"><ele>62.0</ele><time>2026-04-18T18:08:27.122Z</time></trkpt><trkpt lat="40.5405053" lon="9.6590937"><ele>62.0</ele><time>2026-04-18T18:08:28.122Z</time></trkpt><trkpt lat="40.5406582" lon="9.6593656"><ele>62.0</ele><time>2026-04-18T18:08:29.122Z</time></trkpt><trkpt lat="40.5408112" lon="9.6596351"><ele>62.0</ele><time>2026-04-18T18:08:30.122Z</time></trkpt><trkpt lat="40.5409648" lon="9.6599003"><ele>62.0</ele><time>2026-04-18T18:08:31.122Z</time></trkpt><trkpt lat="40.5411189" lon="9.6601663"><ele>63.0</ele><time>2026-04-18T18:08:32.122Z</time></trkpt><trkpt lat="40.5412695" lon="9.6604327"><ele>64.0</ele><time>2026-04-18T18:08:33.122Z</time></trkpt><trkpt lat="40.5414195" lon="9.6607019"><ele>64.0</ele><time>2026-04-18T18:08:34.122Z</time></trkpt><trkpt lat="40.5415714" lon="9.6609745"><ele>64.0</ele><time>2026-04-18T18:08:35.122Z</time></trkpt><trkpt lat="40.5417234" lon="9.6612443"><ele>61.0</ele><time>2026-04-18T18:08:36.122Z</time></trkpt><trkpt lat="40.5418769" lon="9.6615168"><ele>58.0</ele><time>2026-04-18T18:08:37.122Z</time></trkpt><trkpt lat="40.5420314" lon="9.6617894"><ele>58.5</ele><time>2026-04-18T18:08:38.122Z</time></trkpt><trkpt lat="40.5421859" lon="9.662064"><ele>59.0</ele><time>2026-04-18T18:08:39.122Z</time></trkpt><trkpt lat="40.5423412" lon="9.6623352"><ele>59.0</ele><time>2026-04-18T18:08:40.122Z</time></trkpt><trkpt lat="40.5424955" lon="9.6626044"><ele>59.0</ele><time>2026-04-18T18:08:41.122Z</time></trkpt><trkpt lat="40.5426507" lon="9.6628748"><ele>58.0</ele><time>2026-04-18T18:08:42.122Z</time></trkpt><trkpt lat="40.5428044" lon="9.6631479"><ele>57.0</ele><time>2026-04-18T18:08:43.122Z</time></trkpt><trkpt lat="40.5429648" lon="9.6634183"><ele>55.5</ele><time>2026-04-18T18:08:44.122Z</time></trkpt><trkpt lat="40.5431262" lon="9.6636839"><ele>54.0</ele><time>2026-04-18T18:08:45.122Z</time></trkpt><trkpt lat="40.543299" lon="9.6639431"><ele>54.0</ele><time>2026-04-18T18:08:46.122Z</time></trkpt><trkpt lat="40.5434737" lon="9.6641998"><ele>54.0</ele><time>2026-04-18T18:08:47.122Z</time></trkpt><trkpt lat="40.5436517" lon="9.6644528"><ele>53.5</ele><time>2026-04-18T18:08:48.122Z</time></trkpt><trkpt lat="40.5438298" lon="9.664708"><ele>53.0</ele><time>2026-04-18T18:08:49.122Z</time></trkpt><trkpt lat="40.5440094" lon="9.6649662"><ele>53.0</ele><time>2026-04-18T18:08:50.122Z</time></trkpt><trkpt lat="40.5441884" lon="9.665225"><ele>53.0</ele><time>2026-04-18T18:08:51.122Z</time></trkpt><trkpt lat="40.544368" lon="9.6654839"><ele>51.0</ele><time>2026-04-18T18:08:52.122Z</time></trkpt><trkpt lat="40.5445531" lon="9.6657389"><ele>49.0</ele><time>2026-04-18T18:08:53.122Z</time></trkpt><trkpt lat="40.5447324" lon="9.6659964"><ele>47.0</ele><time>2026-04-18T18:08:54.122Z</time></trkpt><trkpt lat="40.5449106" lon="9.6662565"><ele>45.0</ele><time>2026-04-18T18:08:55.122Z</time></trkpt><trkpt lat="40.5450893" lon="9.6665141"><ele>45.0</ele><time>2026-04-18T18:08:56.122Z</time></trkpt><trkpt lat="40.5452667" lon="9.6667744"><ele>45.0</ele><time>2026-04-18T18:08:57.122Z</time></trkpt><trkpt lat="40.5454473" lon="9.6670271"><ele>43.5</ele><time>2026-04-18T18:08:58.122Z</time></trkpt><trkpt lat="40.5456313" lon="9.6672864"><ele>42.0</ele><time>2026-04-18T18:08:59.122Z</time></trkpt><trkpt lat="40.5458054" lon="9.6675402"><ele>42.0</ele><time>2026-04-18T18:09:00.122Z</time></trkpt><trkpt lat="40.5459835" lon="9.6677939"><ele>42.0</ele><time>2026-04-18T18:09:01.122Z</time></trkpt><trkpt lat="40.5461626" lon="9.6680546"><ele>42.0</ele><time>2026-04-18T18:09:02.122Z</time></trkpt><trkpt lat="40.5463412" lon="9.668312"><ele>42.0</ele><time>2026-04-18T18:09:03.122Z</time></trkpt><trkpt lat="40.5465211" lon="9.6685682"><ele>41.5</ele><time>2026-04-18T18:09:04.121Z</time></trkpt><trkpt lat="40.5467019" lon="9.6688204"><ele>41.0</ele><time>2026-04-18T18:09:05.121Z</time></trkpt><trkpt lat="40.5468827" lon="9.6690698"><ele>41.0</ele><time>2026-04-18T18:09:06.121Z</time></trkpt><trkpt lat="40.5470644" lon="9.6693165"><ele>41.0</ele><time>2026-04-18T18:09:07.121Z</time></trkpt><trkpt lat="40.547246" lon="9.6695634"><ele>40.0</ele><time>2026-04-18T18:09:08.122Z</time></trkpt><trkpt lat="40.5474346" lon="9.6697965"><ele>39.0</ele><time>2026-04-18T18:09:09.122Z</time></trkpt><trkpt lat="40.5476317" lon="9.6700228"><ele>39.0</ele><time>2026-04-18T18:09:10.122Z</time></trkpt><trkpt lat="40.5478372" lon="9.6702454"><ele>39.0</ele><time>2026-04-18T18:09:11.122Z</time></trkpt><trkpt lat="40.5480397" lon="9.6704602"><ele>39.0</ele><time>2026-04-18T18:09:12.122Z</time></trkpt><trkpt lat="40.5482477" lon="9.6706652"><ele>39.0</ele><time>2026-04-18T18:09:13.122Z</time></trkpt><trkpt lat="40.5484553" lon="9.6708672"><ele>39.0</ele><time>2026-04-18T18:09:14.122Z</time></trkpt><trkpt lat="40.5486659" lon="9.6710619"><ele>39.0</ele><time>2026-04-18T18:09:15.122Z</time></trkpt><trkpt lat="40.5488751" lon="9.6712531"><ele>40.0</ele><time>2026-04-18T18:09:16.122Z</time></trkpt><trkpt lat="40.5490905" lon="9.6714333"><ele>41.0</ele><time>2026-04-18T18:09:17.122Z</time></trkpt><trkpt lat="40.5493128" lon="9.6716042"><ele>41.0</ele><time>2026-04-18T18:09:18.122Z</time></trkpt><trkpt lat="40.5495362" lon="9.6717709"><ele>41.0</ele><time>2026-04-18T18:09:19.122Z</time></trkpt><trkpt lat="40.5497582" lon="9.6719279"><ele>43.5</ele><time>2026-04-18T18:09:20.122Z</time></trkpt><trkpt lat="40.5499832" lon="9.672074"><ele>46.0</ele><time>2026-04-18T18:09:21.122Z</time></trkpt><trkpt lat="40.5502135" lon="9.6722158"><ele>48.0</ele><time>2026-04-18T18:09:22.122Z</time></trkpt><trkpt lat="40.550444" lon="9.6723515"><ele>50.0</ele><time>2026-04-18T18:09:23.122Z</time></trkpt><trkpt lat="40.5506725" lon="9.6724851"><ele>50.0</ele><time>2026-04-18T18:09:24.121Z</time></trkpt><trkpt lat="40.5509007" lon="9.6726198"><ele>50.0</ele><time>2026-04-18T18:09:25.122Z</time></trkpt><trkpt lat="40.5511327" lon="9.6727572"><ele>50.5</ele><time>2026-04-18T18:09:26.122Z</time></trkpt><trkpt lat="40.5513623" lon="9.672887"><ele>51.0</ele><time>2026-04-18T18:09:27.122Z</time></trkpt><trkpt lat="40.5515926" lon="9.6730245"><ele>51.0</ele><time>2026-04-18T18:09:28.122Z</time></trkpt><trkpt lat="40.5518225" lon="9.6731628"><ele>51.0</ele><time>2026-04-18T18:09:29.121Z</time></trkpt><trkpt lat="40.5520524" lon="9.6733062"><ele>54.0</ele><time>2026-04-18T18:09:30.122Z</time></trkpt><trkpt lat="40.5522798" lon="9.6734422"><ele>57.0</ele><time>2026-04-18T18:09:31.122Z</time></trkpt><trkpt lat="40.5525107" lon="9.6735746"><ele>56.5</ele><time>2026-04-18T18:09:32.122Z</time></trkpt><trkpt lat="40.5527422" lon="9.6737068"><ele>56.0</ele><time>2026-04-18T18:09:33.122Z</time></trkpt><trkpt lat="40.5529758" lon="9.6738416"><ele>56.0</ele><time>2026-04-18T18:09:34.122Z</time></trkpt><trkpt lat="40.5532087" lon="9.673975"><ele>56.0</ele><time>2026-04-18T18:09:35.122Z</time></trkpt><trkpt lat="40.5534433" lon="9.6741131"><ele>56.0</ele><time>2026-04-18T18:09:36.122Z</time></trkpt><trkpt lat="40.553678" lon="9.6742572"><ele>56.0</ele><time>2026-04-18T18:09:37.121Z</time></trkpt><trkpt lat="40.5539092" lon="9.674397"><ele>57.0</ele><time>2026-04-18T18:09:38.121Z</time></trkpt><trkpt lat="40.5541441" lon="9.6745367"><ele>58.0</ele><time>2026-04-18T18:09:39.122Z</time></trkpt><trkpt lat="40.5543788" lon="9.6746694"><ele>59.0</ele><time>2026-04-18T18:09:40.122Z</time></trkpt><trkpt lat="40.5546172" lon="9.6748126"><ele>60.0</ele><time>2026-04-18T18:09:41.122Z</time></trkpt><trkpt lat="40.5548552" lon="9.6749514"><ele>60.0</ele><time>2026-04-18T18:09:42.122Z</time></trkpt><trkpt lat="40.5550911" lon="9.6750871"><ele>60.0</ele><time>2026-04-18T18:09:43.122Z</time></trkpt><trkpt lat="40.5553272" lon="9.6752226"><ele>57.5</ele><time>2026-04-18T18:09:44.122Z</time></trkpt><trkpt lat="40.5555647" lon="9.6753626"><ele>55.0</ele><time>2026-04-18T18:09:45.122Z</time></trkpt><trkpt lat="40.555803" lon="9.6755037"><ele>55.0</ele><time>2026-04-18T18:09:46.121Z</time></trkpt><trkpt lat="40.5560404" lon="9.6756428"><ele>55.0</ele><time>2026-04-18T18:09:47.122Z</time></trkpt><trkpt lat="40.5562746" lon="9.6757832"><ele>55.5</ele><time>2026-04-18T18:09:48.122Z</time></trkpt><trkpt lat="40.5565118" lon="9.6759227"><ele>56.0</ele><time>2026-04-18T18:09:49.122Z</time></trkpt><trkpt lat="40.5567476" lon="9.6760609"><ele>53.5</ele><time>2026-04-18T18:09:50.121Z</time></trkpt><trkpt lat="40.5569832" lon="9.6762009"><ele>51.0</ele><time>2026-04-18T18:09:51.122Z</time></trkpt><trkpt lat="40.5572206" lon="9.6763357"><ele>51.0</ele><time>2026-04-18T18:09:52.122Z</time></trkpt><trkpt lat="40.557458" lon="9.6764629"><ele>51.0</ele><time>2026-04-18T18:09:53.122Z</time></trkpt><trkpt lat="40.5576973" lon="9.6765857"><ele>53.0</ele><time>2026-04-18T18:09:54.122Z</time></trkpt><trkpt lat="40.5579407" lon="9.6767138"><ele>55.0</ele><time>2026-04-18T18:09:55.121Z</time></trkpt><trkpt lat="40.5581833" lon="9.6768241"><ele>55.0</ele><time>2026-04-18T18:09:56.122Z</time></trkpt><trkpt lat="40.5584296" lon="9.6769331"><ele>55.0</ele><time>2026-04-18T18:09:57.122Z</time></trkpt><trkpt lat="40.558669" lon="9.6770413"><ele>52.0</ele><time>2026-04-18T18:09:58.122Z</time></trkpt><trkpt lat="40.5589155" lon="9.6771484"><ele>49.0</ele><time>2026-04-18T18:09:59.121Z</time></trkpt><trkpt lat="40.5591608" lon="9.677256"><ele>49.0</ele><time>2026-04-18T18:10:00.122Z</time></trkpt><trkpt lat="40.5594052" lon="9.6773656"><ele>49.0</ele><time>2026-04-18T18:10:01.122Z</time></trkpt><trkpt lat="40.5596553" lon="9.6774759"><ele>51.0</ele><time>2026-04-18T18:10:02.122Z</time></trkpt><trkpt lat="40.5598993" lon="9.6775863"><ele>53.0</ele><time>2026-04-18T18:10:03.122Z</time></trkpt><trkpt lat="40.5601458" lon="9.6776955"><ele>51.5</ele><time>2026-04-18T18:10:04.122Z</time></trkpt><trkpt lat="40.5603904" lon="9.6778058"><ele>50.0</ele><time>2026-04-18T18:10:05.122Z</time></trkpt><trkpt lat="40.5606305" lon="9.6779162"><ele>50.0</ele><time>2026-04-18T18:10:06.122Z</time></trkpt><trkpt lat="40.5608762" lon="9.6780211"><ele>50.0</ele><time>2026-04-18T18:10:07.122Z</time></trkpt><trkpt lat="40.5611215" lon="9.6781313"><ele>50.5</ele><time>2026-04-18T18:10:08.122Z</time></trkpt><trkpt lat="40.5613661" lon="9.6782394"><ele>51.0</ele><time>2026-04-18T18:10:09.122Z</time></trkpt><trkpt lat="40.5616091" lon="9.6783451"><ele>51.0</ele><time>2026-04-18T18:10:10.122Z</time></trkpt><trkpt lat="40.5618464" lon="9.6784501"><ele>51.0</ele><time>2026-04-18T18:10:11.122Z</time></trkpt><trkpt lat="40.5620864" lon="9.6785522"><ele>48.5</ele><time>2026-04-18T18:10:12.122Z</time></trkpt><trkpt lat="40.5623236" lon="9.6786594"><ele>46.0</ele><time>2026-04-18T18:10:13.122Z</time></trkpt><trkpt lat="40.5625618" lon="9.6787635"><ele>46.0</ele><time>2026-04-18T18:10:14.121Z</time></trkpt><trkpt lat="40.5628017" lon="9.6788671"><ele>46.0</ele><time>2026-04-18T18:10:15.122Z</time></trkpt><trkpt lat="40.5630434" lon="9.6789717"><ele>49.5</ele><time>2026-04-18T18:10:16.121Z</time></trkpt><trkpt lat="40.5632824" lon="9.679079"><ele>53.0</ele><time>2026-04-18T18:10:17.122Z</time></trkpt><trkpt lat="40.5635228" lon="9.6791932"><ele>57.5</ele><time>2026-04-18T18:10:18.122Z</time></trkpt><trkpt lat="40.5637609" lon="9.6792998"><ele>62.0</ele><time>2026-04-18T18:10:19.122Z</time></trkpt><trkpt lat="40.5640007" lon="9.679403"><ele>60.5</ele><time>2026-04-18T18:10:20.122Z</time></trkpt><trkpt lat="40.5642398" lon="9.6795084"><ele>59.0</ele><time>2026-04-18T18:10:21.122Z</time></trkpt><trkpt lat="40.5644795" lon="9.6796149"><ele>61.0</ele><time>2026-04-18T18:10:22.122Z</time></trkpt><trkpt lat="40.5647158" lon="9.6797195"><ele>63.0</ele><time>2026-04-18T18:10:23.121Z</time></trkpt><trkpt lat="40.564951" lon="9.6798219"><ele>63.0</ele><time>2026-04-18T18:10:24.122Z</time></trkpt><trkpt lat="40.5651875" lon="9.6799293"><ele>63.0</ele><time>2026-04-18T18:10:25.122Z</time></trkpt><trkpt lat="40.5654217" lon="9.6800338"><ele>65.0</ele><time>2026-04-18T18:10:26.122Z</time></trkpt><trkpt lat="40.5656544" lon="9.6801374"><ele>67.0</ele><time>2026-04-18T18:10:27.122Z</time></trkpt><trkpt lat="40.5658854" lon="9.6802403"><ele>66.5</ele><time>2026-04-18T18:10:28.121Z</time></trkpt><trkpt lat="40.5661131" lon="9.6803434"><ele>66.0</ele><time>2026-04-18T18:10:29.122Z</time></trkpt><trkpt lat="40.5663411" lon="9.6804436"><ele>66.0</ele><time>2026-04-18T18:10:30.122Z</time></trkpt><trkpt lat="40.5665687" lon="9.6805428"><ele>66.0</ele><time>2026-04-18T18:10:31.122Z</time></trkpt><trkpt lat="40.5667919" lon="9.6806468"><ele>66.0</ele><time>2026-04-18T18:10:32.122Z</time></trkpt><trkpt lat="40.5670156" lon="9.680754"><ele>66.0</ele><time>2026-04-18T18:10:33.122Z</time></trkpt><trkpt lat="40.5672435" lon="9.6808528"><ele>69.0</ele><time>2026-04-18T18:10:34.122Z</time></trkpt><trkpt lat="40.5674715" lon="9.6809513"><ele>72.0</ele><time>2026-04-18T18:10:35.122Z</time></trkpt><trkpt lat="40.5677013" lon="9.681047"><ele>72.0</ele><time>2026-04-18T18:10:36.122Z</time></trkpt><trkpt lat="40.5679326" lon="9.6811528"><ele>72.0</ele><time>2026-04-18T18:10:37.122Z</time></trkpt><trkpt lat="40.5681647" lon="9.6812576"><ele>72.0</ele><time>2026-04-18T18:10:38.122Z</time></trkpt><trkpt lat="40.5683956" lon="9.6813627"><ele>72.0</ele><time>2026-04-18T18:10:39.122Z</time></trkpt><trkpt lat="40.5686252" lon="9.6814613"><ele>74.0</ele><time>2026-04-18T18:10:40.122Z</time></trkpt><trkpt lat="40.5688538" lon="9.6815659"><ele>76.0</ele><time>2026-04-18T18:10:41.122Z</time></trkpt><trkpt lat="40.5690799" lon="9.6816638"><ele>76.0</ele><time>2026-04-18T18:10:42.122Z</time></trkpt><trkpt lat="40.5693014" lon="9.6817683"><ele>76.0</ele><time>2026-04-18T18:10:43.122Z</time></trkpt><trkpt lat="40.5695234" lon="9.6818771"><ele>73.5</ele><time>2026-04-18T18:10:44.121Z</time></trkpt><trkpt lat="40.5697396" lon="9.681991"><ele>71.0</ele><time>2026-04-18T18:10:45.122Z</time></trkpt><trkpt lat="40.5699577" lon="9.682108"><ele>71.0</ele><time>2026-04-18T18:10:46.122Z</time></trkpt><trkpt lat="40.5701691" lon="9.682231"><ele>71.0</ele><time>2026-04-18T18:10:47.122Z</time></trkpt><trkpt lat="40.5703778" lon="9.6823697"><ele>82.0</ele><time>2026-04-18T18:10:48.122Z</time></trkpt><trkpt lat="40.5705844" lon="9.6825141"><ele>93.0</ele><time>2026-04-18T18:10:49.121Z</time></trkpt><trkpt lat="40.5707924" lon="9.6826657"><ele>92.0</ele><time>2026-04-18T18:10:50.122Z</time></trkpt><trkpt lat="40.5709971" lon="9.6828248"><ele>91.0</ele><time>2026-04-18T18:10:51.122Z</time></trkpt><trkpt lat="40.5711992" lon="9.6829893"><ele>91.0</ele><time>2026-04-18T18:10:52.121Z</time></trkpt><trkpt lat="40.5714005" lon="9.6831593"><ele>91.0</ele><time>2026-04-18T18:10:53.122Z</time></trkpt><trkpt lat="40.571596" lon="9.6833299"><ele>91.0</ele><time>2026-04-18T18:10:54.122Z</time></trkpt><trkpt lat="40.5717909" lon="9.6835073"><ele>91.0</ele><time>2026-04-18T18:10:55.122Z</time></trkpt><trkpt lat="40.5719824" lon="9.6836874"><ele>88.0</ele><time>2026-04-18T18:10:56.122Z</time></trkpt><trkpt lat="40.5721806" lon="9.6838586"><ele>85.0</ele><time>2026-04-18T18:10:57.121Z</time></trkpt><trkpt lat="40.5723873" lon="9.6840244"><ele>85.0</ele><time>2026-04-18T18:10:58.122Z</time></trkpt><trkpt lat="40.5725979" lon="9.6841806"><ele>85.0</ele><time>2026-04-18T18:10:59.122Z</time></trkpt><trkpt lat="40.572816" lon="9.6843242"><ele>80.0</ele><time>2026-04-18T18:11:00.122Z</time></trkpt><trkpt lat="40.5730391" lon="9.6844712"><ele>75.0</ele><time>2026-04-18T18:11:01.122Z</time></trkpt><trkpt lat="40.5732627" lon="9.6846189"><ele>75.0</ele><time>2026-04-18T18:11:02.122Z</time></trkpt><trkpt lat="40.5734846" lon="9.6847626"><ele>75.0</ele><time>2026-04-18T18:11:03.122Z</time></trkpt><trkpt lat="40.5737068" lon="9.6849094"><ele>82.0</ele><time>2026-04-18T18:11:04.122Z</time></trkpt><trkpt lat="40.5739304" lon="9.685064"><ele>89.0</ele><time>2026-04-18T18:11:05.122Z</time></trkpt><trkpt lat="40.5741532" lon="9.6852198"><ele>91.5</ele><time>2026-04-18T18:11:06.122Z</time></trkpt><trkpt lat="40.5743798" lon="9.6853784"><ele>94.0</ele><time>2026-04-18T18:11:07.122Z</time></trkpt><trkpt lat="40.5745987" lon="9.68554"><ele>78.5</ele><time>2026-04-18T18:11:08.122Z</time></trkpt><trkpt lat="40.5748148" lon="9.685699"><ele>63.0</ele><time>2026-04-18T18:11:09.122Z</time></trkpt><trkpt lat="40.5816566" lon="9.6906908"><ele>63.0</ele><time>2026-04-18T18:11:38.122Z</time></trkpt><trkpt lat="40.5818729" lon="9.6908563"><ele>63.0</ele><time>2026-04-18T18:11:39.122Z</time></trkpt><trkpt lat="40.5820971" lon="9.6909991"><ele>58.5</ele><time>2026-04-18T18:11:40.122Z</time></trkpt><trkpt lat="40.5823275" lon="9.691126"><ele>54.0</ele><time>2026-04-18T18:11:41.122Z</time></trkpt><trkpt lat="40.5825551" lon="9.6912363"><ele>54.0</ele><time>2026-04-18T18:11:42.122Z</time></trkpt><trkpt lat="40.5827947" lon="9.691333"><ele>54.0</ele><time>2026-04-18T18:11:43.122Z</time></trkpt><trkpt lat="40.5830362" lon="9.6914188"><ele>54.0</ele><time>2026-04-18T18:11:44.122Z</time></trkpt><trkpt lat="40.5832804" lon="9.6914833"><ele>54.0</ele><time>2026-04-18T18:11:45.121Z</time></trkpt><trkpt lat="40.5835284" lon="9.6915246"><ele>54.0</ele><time>2026-04-18T18:11:46.122Z</time></trkpt><trkpt lat="40.5837776" lon="9.6915427"><ele>54.0</ele><time>2026-04-18T18:11:47.121Z</time></trkpt><trkpt lat="40.5840239" lon="9.6915418"><ele>54.0</ele><time>2026-04-18T18:11:48.122Z</time></trkpt><trkpt lat="40.5842703" lon="9.691523"><ele>54.0</ele><time>2026-04-18T18:11:49.122Z</time></trkpt><trkpt lat="40.5845139" lon="9.6914801"><ele>55.0</ele><time>2026-04-18T18:11:50.121Z</time></trkpt><trkpt lat="40.5847499" lon="9.6914309"><ele>56.0</ele><time>2026-04-18T18:11:51.122Z</time></trkpt><trkpt lat="40.5849864" lon="9.6913936"><ele>56.0</ele><time>2026-04-18T18:11:52.122Z</time></trkpt><trkpt lat="40.5852244" lon="9.691386"><ele>56.0</ele><time>2026-04-18T18:11:53.122Z</time></trkpt><trkpt lat="40.5854645" lon="9.6913915"><ele>57.0</ele><time>2026-04-18T18:11:54.122Z</time></trkpt><trkpt lat="40.5857092" lon="9.6914083"><ele>58.0</ele><time>2026-04-18T18:11:55.122Z</time></trkpt><trkpt lat="40.5859522" lon="9.6914429"><ele>55.5</ele><time>2026-04-18T18:11:56.122Z</time></trkpt><trkpt lat="40.5861915" lon="9.691489"><ele>53.0</ele><time>2026-04-18T18:11:57.122Z</time></trkpt><trkpt lat="40.5864327" lon="9.6915513"><ele>53.0</ele><time>2026-04-18T18:11:58.121Z</time></trkpt><trkpt lat="40.5866737" lon="9.6916402"><ele>53.0</ele><time>2026-04-18T18:11:59.122Z</time></trkpt><trkpt lat="40.5869127" lon="9.6917445"><ele>52.0</ele><time>2026-04-18T18:12:00.121Z</time></trkpt><trkpt lat="40.5871482" lon="9.6918686"><ele>51.0</ele><time>2026-04-18T18:12:01.122Z</time></trkpt><trkpt lat="40.5873769" lon="9.6920098"><ele>50.5</ele><time>2026-04-18T18:12:02.122Z</time></trkpt><trkpt lat="40.5876053" lon="9.6921709"><ele>50.0</ele><time>2026-04-18T18:12:03.122Z</time></trkpt><trkpt lat="40.5878335" lon="9.6923378"><ele>48.5</ele><time>2026-04-18T18:12:04.121Z</time></trkpt><trkpt lat="40.5880615" lon="9.6924985"><ele>47.0</ele><time>2026-04-18T18:12:05.122Z</time></trkpt><trkpt lat="40.5882942" lon="9.6926498"><ele>46.0</ele><time>2026-04-18T18:12:06.121Z</time></trkpt><trkpt lat="40.5885304" lon="9.6927909"><ele>45.0</ele><time>2026-04-18T18:12:07.122Z</time></trkpt><trkpt lat="40.5887708" lon="9.6929213"><ele>48.0</ele><time>2026-04-18T18:12:08.122Z</time></trkpt><trkpt lat="40.5890168" lon="9.6930344"><ele>51.0</ele><time>2026-04-18T18:12:09.122Z</time></trkpt><trkpt lat="40.5892666" lon="9.6931282"><ele>50.5</ele><time>2026-04-18T18:12:10.122Z</time></trkpt><trkpt lat="40.5895205" lon="9.6932078"><ele>50.0</ele><time>2026-04-18T18:12:11.122Z</time></trkpt><trkpt lat="40.5897748" lon="9.693272"><ele>50.0</ele><time>2026-04-18T18:12:12.122Z</time></trkpt><trkpt lat="40.5900298" lon="9.6933226"><ele>50.0</ele><time>2026-04-18T18:12:13.121Z</time></trkpt><trkpt lat="40.5902862" lon="9.6933681"><ele>49.0</ele><time>2026-04-18T18:12:14.122Z</time></trkpt><trkpt lat="40.5905374" lon="9.6934166"><ele>48.0</ele><time>2026-04-18T18:12:15.122Z</time></trkpt><trkpt lat="40.5907875" lon="9.6934615"><ele>48.0</ele><time>2026-04-18T18:12:16.122Z</time></trkpt><trkpt lat="40.5910337" lon="9.6935091"><ele>48.0</ele><time>2026-04-18T18:12:17.122Z</time></trkpt><trkpt lat="40.5912812" lon="9.693556"><ele>47.0</ele><time>2026-04-18T18:12:18.122Z</time></trkpt><trkpt lat="40.591526" lon="9.6936052"><ele>46.0</ele><time>2026-04-18T18:12:19.122Z</time></trkpt><trkpt lat="40.5917706" lon="9.6936519"><ele>47.5</ele><time>2026-04-18T18:12:20.122Z</time></trkpt><trkpt lat="40.5920189" lon="9.6937016"><ele>49.0</ele><time>2026-04-18T18:12:21.122Z</time></trkpt><trkpt lat="40.5922724" lon="9.6937506"><ele>49.0</ele><time>2026-04-18T18:12:22.122Z</time></trkpt><trkpt lat="40.5925252" lon="9.6937914"><ele>49.0</ele><time>2026-04-18T18:12:23.121Z</time></trkpt><trkpt lat="40.5927828" lon="9.6938278"><ele>49.5</ele><time>2026-04-18T18:12:24.122Z</time></trkpt><trkpt lat="40.5930379" lon="9.6938587"><ele>50.0</ele><time>2026-04-18T18:12:25.122Z</time></trkpt><trkpt lat="40.5932955" lon="9.6938904"><ele>50.0</ele><time>2026-04-18T18:12:26.121Z</time></trkpt><trkpt lat="40.5935558" lon="9.6939175"><ele>50.0</ele><time>2026-04-18T18:12:27.122Z</time></trkpt><trkpt lat="40.5938174" lon="9.6939431"><ele>49.5</ele><time>2026-04-18T18:12:28.122Z</time></trkpt><trkpt lat="40.5940739" lon="9.6939661"><ele>49.0</ele><time>2026-04-18T18:12:29.122Z</time></trkpt><trkpt lat="40.5943324" lon="9.6939937"><ele>50.5</ele><time>2026-04-18T18:12:30.122Z</time></trkpt><trkpt lat="40.5945919" lon="9.694024"><ele>52.0</ele><time>2026-04-18T18:12:31.122Z</time></trkpt><trkpt lat="40.5948515" lon="9.6940557"><ele>52.0</ele><time>2026-04-18T18:12:32.122Z</time></trkpt><trkpt lat="40.595109" lon="9.6940941"><ele>52.0</ele><time>2026-04-18T18:12:33.121Z</time></trkpt><trkpt lat="40.5953694" lon="9.6941233"><ele>54.5</ele><time>2026-04-18T18:12:34.122Z</time></trkpt><trkpt lat="40.5956309" lon="9.6941548"><ele>57.0</ele><time>2026-04-18T18:12:35.122Z</time></trkpt><trkpt lat="40.5958938" lon="9.6941844"><ele>57.0</ele><time>2026-04-18T18:12:36.122Z</time></trkpt><trkpt lat="40.5961569" lon="9.6942148"><ele>57.0</ele><time>2026-04-18T18:12:37.122Z</time></trkpt><trkpt lat="40.5964208" lon="9.6942437"><ele>55.5</ele><time>2026-04-18T18:12:38.121Z</time></trkpt><trkpt lat="40.5966835" lon="9.6942714"><ele>54.0</ele><time>2026-04-18T18:12:39.122Z</time></trkpt><trkpt lat="40.5969473" lon="9.6943"><ele>53.0</ele><time>2026-04-18T18:12:40.122Z</time></trkpt><trkpt lat="40.5972189" lon="9.6943258"><ele>52.0</ele><time>2026-04-18T18:12:41.122Z</time></trkpt><trkpt lat="40.5974921" lon="9.6943542"><ele>52.0</ele><time>2026-04-18T18:12:42.122Z</time></trkpt><trkpt lat="40.5977672" lon="9.694383"><ele>52.0</ele><time>2026-04-18T18:12:43.122Z</time></trkpt><trkpt lat="40.5980445" lon="9.6944113"><ele>47.5</ele><time>2026-04-18T18:12:44.122Z</time></trkpt><trkpt lat="40.5983175" lon="9.6944422"><ele>43.0</ele><time>2026-04-18T18:12:45.122Z</time></trkpt><trkpt lat="40.5985932" lon="9.6944792"><ele>41.0</ele><time>2026-04-18T18:12:46.122Z</time></trkpt><trkpt lat="40.5988664" lon="9.6945108"><ele>39.0</ele><time>2026-04-18T18:12:47.122Z</time></trkpt><trkpt lat="40.5991415" lon="9.6945405"><ele>39.0</ele><time>2026-04-18T18:12:48.122Z</time></trkpt><trkpt lat="40.599416" lon="9.694569"><ele>39.0</ele><time>2026-04-18T18:12:49.122Z</time></trkpt><trkpt lat="40.5996915" lon="9.694603"><ele>38.0</ele><time>2026-04-18T18:12:50.122Z</time></trkpt><trkpt lat="40.5999684" lon="9.6946372"><ele>37.0</ele><time>2026-04-18T18:12:51.122Z</time></trkpt><trkpt lat="40.6002385" lon="9.6946793"><ele>36.0</ele><time>2026-04-18T18:12:52.122Z</time></trkpt><trkpt lat="40.600512" lon="9.6947311"><ele>35.0</ele><time>2026-04-18T18:12:53.122Z</time></trkpt><trkpt lat="40.6007855" lon="9.6947879"><ele>35.0</ele><time>2026-04-18T18:12:54.12Z</time></trkpt><trkpt lat="40.6010567" lon="9.6948614"><ele>35.0</ele><time>2026-04-18T18:12:55.122Z</time></trkpt><trkpt lat="40.6013253" lon="9.6949437"><ele>35.5</ele><time>2026-04-18T18:12:56.122Z</time></trkpt><trkpt lat="40.6015877" lon="9.6950373"><ele>36.0</ele><time>2026-04-18T18:12:57.122Z</time></trkpt><trkpt lat="40.6018483" lon="9.6951417"><ele>36.0</ele><time>2026-04-18T18:12:58.122Z</time></trkpt><trkpt lat="40.6021033" lon="9.6952497"><ele>36.0</ele><time>2026-04-18T18:12:59.122Z</time></trkpt><trkpt lat="40.6023599" lon="9.6953731"><ele>34.5</ele><time>2026-04-18T18:13:00.122Z</time></trkpt><trkpt lat="40.6026161" lon="9.6955091"><ele>33.0</ele><time>2026-04-18T18:13:01.121Z</time></trkpt><trkpt lat="40.6028665" lon="9.6956488"><ele>33.0</ele><time>2026-04-18T18:13:02.122Z</time></trkpt><trkpt lat="40.603112" lon="9.6957985"><ele>33.0</ele><time>2026-04-18T18:13:03.121Z</time></trkpt><trkpt lat="40.603355" lon="9.6959613"><ele>33.0</ele><time>2026-04-18T18:13:04.122Z</time></trkpt><trkpt lat="40.6035953" lon="9.696129"><ele>33.0</ele><time>2026-04-18T18:13:05.122Z</time></trkpt><trkpt lat="40.603827" lon="9.6963104"><ele>33.0</ele><time>2026-04-18T18:13:06.122Z</time></trkpt><trkpt lat="40.6040586" lon="9.6964941"><ele>33.0</ele><time>2026-04-18T18:13:07.122Z</time></trkpt><trkpt lat="40.6042823" lon="9.6966877"><ele>33.5</ele><time>2026-04-18T18:13:08.122Z</time></trkpt><trkpt lat="40.6045011" lon="9.6968888"><ele>34.0</ele><time>2026-04-18T18:13:09.122Z</time></trkpt><trkpt lat="40.6047128" lon="9.6971012"><ele>34.0</ele><time>2026-04-18T18:13:10.122Z</time></trkpt><trkpt lat="40.6049209" lon="9.6973194"><ele>34.0</ele><time>2026-04-18T18:13:11.122Z</time></trkpt><trkpt lat="40.6051242" lon="9.6975516"><ele>34.5</ele><time>2026-04-18T18:13:12.122Z</time></trkpt><trkpt lat="40.6053233" lon="9.6977851"><ele>35.0</ele><time>2026-04-18T18:13:13.122Z</time></trkpt><trkpt lat="40.6055167" lon="9.6980189"><ele>35.0</ele><time>2026-04-18T18:13:14.122Z</time></trkpt><trkpt lat="40.6057128" lon="9.6982504"><ele>35.0</ele><time>2026-04-18T18:13:15.122Z</time></trkpt><trkpt lat="40.6059092" lon="9.6984822"><ele>34.5</ele><time>2026-04-18T18:13:16.122Z</time></trkpt><trkpt lat="40.6061022" lon="9.6987103"><ele>34.0</ele><time>2026-04-18T18:13:17.122Z</time></trkpt><trkpt lat="40.606295" lon="9.6989404"><ele>36.5</ele><time>2026-04-18T18:13:18.122Z</time></trkpt><trkpt lat="40.6064875" lon="9.699172"><ele>39.0</ele><time>2026-04-18T18:13:19.122Z</time></trkpt><trkpt lat="40.6066839" lon="9.6993986"><ele>38.5</ele><time>2026-04-18T18:13:20.122Z</time></trkpt><trkpt lat="40.6068781" lon="9.6996242"><ele>38.0</ele><time>2026-04-18T18:13:21.122Z</time></trkpt><trkpt lat="40.6070716" lon="9.6998455"><ele>38.0</ele><time>2026-04-18T18:13:22.122Z</time></trkpt><trkpt lat="40.6072745" lon="9.7000703"><ele>38.0</ele><time>2026-04-18T18:13:23.122Z</time></trkpt><trkpt lat="40.6074766" lon="9.7002847"><ele>39.0</ele><time>2026-04-18T18:13:24.122Z</time></trkpt><trkpt lat="40.6076832" lon="9.7004971"><ele>40.0</ele><time>2026-04-18T18:13:25.122Z</time></trkpt><trkpt lat="40.6078929" lon="9.7007044"><ele>40.0</ele><time>2026-04-18T18:13:26.122Z</time></trkpt><trkpt lat="40.6081047" lon="9.7009113"><ele>40.0</ele><time>2026-04-18T18:13:27.122Z</time></trkpt><trkpt lat="40.6083224" lon="9.7011126"><ele>40.0</ele><time>2026-04-18T18:13:28.122Z</time></trkpt><trkpt lat="40.6085427" lon="9.7013022"><ele>40.0</ele><time>2026-04-18T18:13:29.122Z</time></trkpt><trkpt lat="40.6087628" lon="9.7014856"><ele>40.0</ele><time>2026-04-18T18:13:30.122Z</time></trkpt><trkpt lat="40.6089863" lon="9.701661"><ele>40.0</ele><time>2026-04-18T18:13:31.122Z</time></trkpt><trkpt lat="40.6092121" lon="9.701838"><ele>38.5</ele><time>2026-04-18T18:13:32.122Z</time></trkpt><trkpt lat="40.609439" lon="9.7020074"><ele>37.0</ele><time>2026-04-18T18:13:33.122Z</time></trkpt><trkpt lat="40.6096693" lon="9.7021714"><ele>37.0</ele><time>2026-04-18T18:13:34.122Z</time></trkpt><trkpt lat="40.6099048" lon="9.7023328"><ele>37.0</ele><time>2026-04-18T18:13:35.122Z</time></trkpt><trkpt lat="40.6101414" lon="9.702485"><ele>37.5</ele><time>2026-04-18T18:13:36.122Z</time></trkpt><trkpt lat="40.6103796" lon="9.7026311"><ele>38.0</ele><time>2026-04-18T18:13:37.122Z</time></trkpt><trkpt lat="40.6106216" lon="9.7027701"><ele>36.5</ele><time>2026-04-18T18:13:38.122Z</time></trkpt><trkpt lat="40.610869" lon="9.7029049"><ele>35.0</ele><time>2026-04-18T18:13:39.122Z</time></trkpt><trkpt lat="40.6111149" lon="9.7030327"><ele>35.5</ele><time>2026-04-18T18:13:40.122Z</time></trkpt><trkpt lat="40.6113616" lon="9.7031563"><ele>36.0</ele><time>2026-04-18T18:13:41.122Z</time></trkpt><trkpt lat="40.6116085" lon="9.7032797"><ele>36.0</ele><time>2026-04-18T18:13:42.122Z</time></trkpt><trkpt lat="40.6118585" lon="9.7033976"><ele>36.0</ele><time>2026-04-18T18:13:43.122Z</time></trkpt><trkpt lat="40.612109" lon="9.7035191"><ele>34.0</ele><time>2026-04-18T18:13:44.122Z</time></trkpt><trkpt lat="40.6123557" lon="9.7036379"><ele>32.0</ele><time>2026-04-18T18:13:45.122Z</time></trkpt><trkpt lat="40.6126054" lon="9.7037565"><ele>33.0</ele><time>2026-04-18T18:13:46.122Z</time></trkpt><trkpt lat="40.6128561" lon="9.7038757"><ele>34.0</ele><time>2026-04-18T18:13:47.122Z</time></trkpt><trkpt lat="40.6131046" lon="9.7039954"><ele>34.0</ele><time>2026-04-18T18:13:48.122Z</time></trkpt><trkpt lat="40.6133519" lon="9.7041138"><ele>34.0</ele><time>2026-04-18T18:13:49.121Z</time></trkpt><trkpt lat="40.6135993" lon="9.7042345"><ele>33.5</ele><time>2026-04-18T18:13:50.122Z</time></trkpt><trkpt lat="40.6138493" lon="9.704361"><ele>33.0</ele><time>2026-04-18T18:13:51.122Z</time></trkpt><trkpt lat="40.6140975" lon="9.7044853"><ele>33.0</ele><time>2026-04-18T18:13:52.122Z</time></trkpt><trkpt lat="40.6143414" lon="9.7046168"><ele>33.0</ele><time>2026-04-18T18:13:53.122Z</time></trkpt><trkpt lat="40.6145833" lon="9.7047557"><ele>35.5</ele><time>2026-04-18T18:13:54.122Z</time></trkpt><trkpt lat="40.6148247" lon="9.7049079"><ele>38.0</ele><time>2026-04-18T18:13:55.122Z</time></trkpt><trkpt lat="40.6150632" lon="9.7050656"><ele>38.0</ele><time>2026-04-18T18:13:56.121Z</time></trkpt><trkpt lat="40.6152989" lon="9.7052292"><ele>38.0</ele><time>2026-04-18T18:13:57.122Z</time></trkpt><trkpt lat="40.6155349" lon="9.7054032"><ele>37.0</ele><time>2026-04-18T18:13:58.122Z</time></trkpt><trkpt lat="40.6157695" lon="9.7055767"><ele>36.0</ele><time>2026-04-18T18:13:59.122Z</time></trkpt><trkpt lat="40.6160035" lon="9.7057504"><ele>35.0</ele><time>2026-04-18T18:14:00.122Z</time></trkpt><trkpt lat="40.6162407" lon="9.7059233"><ele>34.0</ele><time>2026-04-18T18:14:01.122Z</time></trkpt><trkpt lat="40.6164768" lon="9.7060953"><ele>34.0</ele><time>2026-04-18T18:14:02.122Z</time></trkpt><trkpt lat="40.6167092" lon="9.7062647"><ele>34.0</ele><time>2026-04-18T18:14:03.122Z</time></trkpt><trkpt lat="40.6169418" lon="9.7064329"><ele>35.5</ele><time>2026-04-18T18:14:04.122Z</time></trkpt><trkpt lat="40.6171767" lon="9.7066055"><ele>37.0</ele><time>2026-04-18T18:14:05.122Z</time></trkpt><trkpt lat="40.6174119" lon="9.7067748"><ele>34.0</ele><time>2026-04-18T18:14:06.122Z</time></trkpt><trkpt lat="40.6176549" lon="9.7069304"><ele>31.0</ele><time>2026-04-18T18:14:07.122Z</time></trkpt><trkpt lat="40.6178993" lon="9.7070849"><ele>31.0</ele><time>2026-04-18T18:14:08.122Z</time></trkpt><trkpt lat="40.6181477" lon="9.7072222"><ele>31.0</ele><time>2026-04-18T18:14:09.122Z</time></trkpt><trkpt lat="40.6184007" lon="9.7073497"><ele>30.5</ele><time>2026-04-18T18:14:10.122Z</time></trkpt><trkpt lat="40.6186584" lon="9.7074601"><ele>30.0</ele><time>2026-04-18T18:14:11.122Z</time></trkpt><trkpt lat="40.6189184" lon="9.7075556"><ele>30.0</ele><time>2026-04-18T18:14:12.122Z</time></trkpt><trkpt lat="40.6191804" lon="9.707639"><ele>30.0</ele><time>2026-04-18T18:14:13.122Z</time></trkpt><trkpt lat="40.6194444" lon="9.7077049"><ele>28.5</ele><time>2026-04-18T18:14:14.121Z</time></trkpt><trkpt lat="40.6197072" lon="9.7077543"><ele>27.0</ele><time>2026-04-18T18:14:15.122Z</time></trkpt><trkpt lat="40.6199704" lon="9.7077896"><ele>27.0</ele><time>2026-04-18T18:14:16.122Z</time></trkpt><trkpt lat="40.6202316" lon="9.7078075"><ele>27.0</ele><time>2026-04-18T18:14:17.122Z</time></trkpt><trkpt lat="40.6204971" lon="9.7078197"><ele>27.0</ele><time>2026-04-18T18:14:18.122Z</time></trkpt><trkpt lat="40.6207612" lon="9.7078105"><ele>27.0</ele><time>2026-04-18T18:14:19.122Z</time></trkpt><trkpt lat="40.6210271" lon="9.7077877"><ele>25.5</ele><time>2026-04-18T18:14:20.122Z</time></trkpt><trkpt lat="40.621295" lon="9.7077523"><ele>24.0</ele><time>2026-04-18T18:14:21.122Z</time></trkpt><trkpt lat="40.6215629" lon="9.7077016"><ele>27.0</ele><time>2026-04-18T18:14:22.122Z</time></trkpt><trkpt lat="40.6218264" lon="9.7076445"><ele>30.0</ele><time>2026-04-18T18:14:23.122Z</time></trkpt><trkpt lat="40.6220879" lon="9.7075758"><ele>30.0</ele><time>2026-04-18T18:14:24.122Z</time></trkpt><trkpt lat="40.6223452" lon="9.7074928"><ele>30.0</ele><time>2026-04-18T18:14:25.122Z</time></trkpt><trkpt lat="40.6225949" lon="9.7073872"><ele>27.5</ele><time>2026-04-18T18:14:26.122Z</time></trkpt><trkpt lat="40.6228419" lon="9.7072686"><ele>25.0</ele><time>2026-04-18T18:14:27.121Z</time></trkpt><trkpt lat="40.6230858" lon="9.7071393"><ele>25.0</ele><time>2026-04-18T18:14:28.122Z</time></trkpt><trkpt lat="40.6233275" lon="9.7070023"><ele>25.0</ele><time>2026-04-18T18:14:29.122Z</time></trkpt><trkpt lat="40.6235616" lon="9.7068528"><ele>27.5</ele><time>2026-04-18T18:14:30.122Z</time></trkpt><trkpt lat="40.6237922" lon="9.7066908"><ele>30.0</ele><time>2026-04-18T18:14:31.122Z</time></trkpt><trkpt lat="40.6240241" lon="9.7065158"><ele>30.0</ele><time>2026-04-18T18:14:32.122Z</time></trkpt><trkpt lat="40.6242541" lon="9.7063329"><ele>30.0</ele><time>2026-04-18T18:14:33.121Z</time></trkpt><trkpt lat="40.6244821" lon="9.7061505"><ele>30.0</ele><time>2026-04-18T18:14:34.122Z</time></trkpt><trkpt lat="40.6247115" lon="9.7059663"><ele>30.0</ele><time>2026-04-18T18:14:35.122Z</time></trkpt><trkpt lat="40.6249372" lon="9.7057818"><ele>30.0</ele><time>2026-04-18T18:14:36.122Z</time></trkpt><trkpt lat="40.6251655" lon="9.7055946"><ele>30.0</ele><time>2026-04-18T18:14:37.122Z</time></trkpt><trkpt lat="40.625397" lon="9.7054012"><ele>27.0</ele><time>2026-04-18T18:14:38.122Z</time></trkpt><trkpt lat="40.6256302" lon="9.7052099"><ele>24.0</ele><time>2026-04-18T18:14:39.122Z</time></trkpt><trkpt lat="40.6258591" lon="9.7050228"><ele>24.0</ele><time>2026-04-18T18:14:40.122Z</time></trkpt><trkpt lat="40.6260883" lon="9.7048339"><ele>24.0</ele><time>2026-04-18T18:14:41.122Z</time></trkpt><trkpt lat="40.6263113" lon="9.7046454"><ele>23.0</ele><time>2026-04-18T18:14:42.122Z</time></trkpt><trkpt lat="40.6265413" lon="9.7044622"><ele>22.0</ele><time>2026-04-18T18:14:43.122Z</time></trkpt><trkpt lat="40.6267686" lon="9.7042836"><ele>23.5</ele><time>2026-04-18T18:14:44.122Z</time></trkpt><trkpt lat="40.6269962" lon="9.7040999"><ele>25.0</ele><time>2026-04-18T18:14:45.122Z</time></trkpt><trkpt lat="40.627222" lon="9.7039206"><ele>25.0</ele><time>2026-04-18T18:14:46.122Z</time></trkpt><trkpt lat="40.6274503" lon="9.703749"><ele>25.0</ele><time>2026-04-18T18:14:47.122Z</time></trkpt><trkpt lat="40.6276869" lon="9.7035806"><ele>22.5</ele><time>2026-04-18T18:14:48.123Z</time></trkpt><trkpt lat="40.6279274" lon="9.7034216"><ele>20.0</ele><time>2026-04-18T18:14:49.122Z</time></trkpt><trkpt lat="40.6281736" lon="9.7032666"><ele>20.0</ele><time>2026-04-18T18:14:50.122Z</time></trkpt><trkpt lat="40.6284264" lon="9.7031203"><ele>20.0</ele><time>2026-04-18T18:14:51.122Z</time></trkpt><trkpt lat="40.6286797" lon="9.7029814"><ele>17.0</ele><time>2026-04-18T18:14:52.122Z</time></trkpt><trkpt lat="40.6289344" lon="9.7028549"><ele>14.0</ele><time>2026-04-18T18:14:53.121Z</time></trkpt><trkpt lat="40.6291974" lon="9.7027387"><ele>13.0</ele><time>2026-04-18T18:14:54.122Z</time></trkpt><trkpt lat="40.6294615" lon="9.7026369"><ele>12.0</ele><time>2026-04-18T18:14:55.122Z</time></trkpt><trkpt lat="40.6297269" lon="9.7025413"><ele>11.5</ele><time>2026-04-18T18:14:56.122Z</time></trkpt><trkpt lat="40.6299978" lon="9.7024643"><ele>11.0</ele><time>2026-04-18T18:14:57.121Z</time></trkpt><trkpt lat="40.6302662" lon="9.7023967"><ele>9.0</ele><time>2026-04-18T18:14:58.122Z</time></trkpt><trkpt lat="40.6305364" lon="9.7023449"><ele>7.0</ele><time>2026-04-18T18:14:59.121Z</time></trkpt><trkpt lat="40.6308048" lon="9.7023046"><ele>7.0</ele><time>2026-04-18T18:15:00.122Z</time></trkpt><trkpt lat="40.6310711" lon="9.7022691"><ele>7.0</ele><time>2026-04-18T18:15:01.122Z</time></trkpt><trkpt lat="40.6313352" lon="9.7022393"><ele>6.0</ele><time>2026-04-18T18:15:02.121Z</time></trkpt><trkpt lat="40.6315825" lon="9.702214"><ele>5.0</ele><time>2026-04-18T18:15:03.122Z</time></trkpt><trkpt lat="40.6318227" lon="9.7021983"><ele>5.0</ele><time>2026-04-18T18:15:04.122Z</time></trkpt><trkpt lat="40.6320628" lon="9.7021955"><ele>5.0</ele><time>2026-04-18T18:15:05.122Z</time></trkpt><trkpt lat="40.6322986" lon="9.7022007"><ele>5.0</ele><time>2026-04-18T18:15:06.122Z</time></trkpt><trkpt lat="40.6325366" lon="9.7022147"><ele>5.0</ele><time>2026-04-18T18:15:07.122Z</time></trkpt><trkpt lat="40.6327845" lon="9.7022367"><ele>6.5</ele><time>2026-04-18T18:15:08.122Z</time></trkpt><trkpt lat="40.6330341" lon="9.7022622"><ele>8.0</ele><time>2026-04-18T18:15:09.121Z</time></trkpt><trkpt lat="40.6332884" lon="9.7023027"><ele>8.0</ele><time>2026-04-18T18:15:10.122Z</time></trkpt><trkpt lat="40.6335397" lon="9.7023572"><ele>8.0</ele><time>2026-04-18T18:15:11.122Z</time></trkpt><trkpt lat="40.633792" lon="9.7024234"><ele>6.0</ele><time>2026-04-18T18:15:12.122Z</time></trkpt><trkpt lat="40.6340443" lon="9.7025019"><ele>4.0</ele><time>2026-04-18T18:15:13.122Z</time></trkpt><trkpt lat="40.6342969" lon="9.7025935"><ele>4.0</ele><time>2026-04-18T18:15:14.122Z</time></trkpt><trkpt lat="40.6345446" lon="9.7026987"><ele>4.0</ele><time>2026-04-18T18:15:15.122Z</time></trkpt><trkpt lat="40.6347926" lon="9.7028112"><ele>4.0</ele><time>2026-04-18T18:15:16.122Z</time></trkpt><trkpt lat="40.6350435" lon="9.7029265"><ele>4.0</ele><time>2026-04-18T18:15:17.122Z</time></trkpt><trkpt lat="40.635293" lon="9.7030431"><ele>3.5</ele><time>2026-04-18T18:15:18.122Z</time></trkpt><trkpt lat="40.6355431" lon="9.7031622"><ele>3.0</ele><time>2026-04-18T18:15:19.122Z</time></trkpt><trkpt lat="40.6357919" lon="9.7032819"><ele>3.0</ele><time>2026-04-18T18:15:20.122Z</time></trkpt><trkpt lat="40.6360382" lon="9.7034018"><ele>3.0</ele><time>2026-04-18T18:15:21.122Z</time></trkpt><trkpt lat="40.6362871" lon="9.7035193"><ele>1.0</ele><time>2026-04-18T18:15:22.122Z</time></trkpt><trkpt lat="40.6365321" lon="9.7036346"><ele>-1.0</ele><time>2026-04-18T18:15:23.122Z</time></trkpt><trkpt lat="40.6367761" lon="9.703758"><ele>-0.5</ele><time>2026-04-18T18:15:24.122Z</time></trkpt><trkpt lat="40.6370224" lon="9.7038797"><ele>0.0</ele><time>2026-04-18T18:15:25.122Z</time></trkpt><trkpt lat="40.6372664" lon="9.703995"><ele>0.0</ele><time>2026-04-18T18:15:26.122Z</time></trkpt><trkpt lat="40.6375128" lon="9.7041104"><ele>0.0</ele><time>2026-04-18T18:15:27.122Z</time></trkpt><trkpt lat="40.6377584" lon="9.7042305"><ele>0.5</ele><time>2026-04-18T18:15:28.122Z</time></trkpt><trkpt lat="40.6379983" lon="9.7043458"><ele>1.0</ele><time>2026-04-18T18:15:29.122Z</time></trkpt><trkpt lat="40.6382421" lon="9.7044638"><ele>1.0</ele><time>2026-04-18T18:15:30.122Z</time></trkpt><trkpt lat="40.6384846" lon="9.7045822"><ele>1.0</ele><time>2026-04-18T18:15:31.122Z</time></trkpt><trkpt lat="40.6387308" lon="9.7047041"><ele>1.0</ele><time>2026-04-18T18:15:32.122Z</time></trkpt><trkpt lat="40.6389766" lon="9.7048234"><ele>1.0</ele><time>2026-04-18T18:15:33.122Z</time></trkpt><trkpt lat="40.6392245" lon="9.7049416"><ele>2.0</ele><time>2026-04-18T18:15:34.122Z</time></trkpt><trkpt lat="40.639468" lon="9.705059"><ele>3.0</ele><time>2026-04-18T18:15:35.122Z</time></trkpt><trkpt lat="40.6397071" lon="9.7051789"><ele>2.0</ele><time>2026-04-18T18:15:36.122Z</time></trkpt><trkpt lat="40.6399449" lon="9.7052898"><ele>1.0</ele><time>2026-04-18T18:15:37.122Z</time></trkpt><trkpt lat="40.6401803" lon="9.7054032"><ele>2.0</ele><time>2026-04-18T18:15:38.122Z</time></trkpt><trkpt lat="40.6404116" lon="9.7055148"><ele>3.0</ele><time>2026-04-18T18:15:39.121Z</time></trkpt><trkpt lat="40.6406398" lon="9.7056248"><ele>3.0</ele><time>2026-04-18T18:15:40.121Z</time></trkpt><trkpt lat="40.6408661" lon="9.7057354"><ele>3.0</ele><time>2026-04-18T18:15:41.122Z</time></trkpt><trkpt lat="40.6410893" lon="9.7058464"><ele>3.0</ele><time>2026-04-18T18:15:42.122Z</time></trkpt><trkpt lat="40.6413112" lon="9.7059609"><ele>3.0</ele><time>2026-04-18T18:15:43.122Z</time></trkpt><trkpt lat="40.6415289" lon="9.7060905"><ele>2.5</ele><time>2026-04-18T18:15:44.122Z</time></trkpt><trkpt lat="40.6417455" lon="9.706224"><ele>2.0</ele><time>2026-04-18T18:15:45.122Z</time></trkpt><trkpt lat="40.6419606" lon="9.7063729"><ele>2.5</ele><time>2026-04-18T18:15:46.121Z</time></trkpt><trkpt lat="40.6421736" lon="9.7065284"><ele>3.0</ele><time>2026-04-18T18:15:47.122Z</time></trkpt><trkpt lat="40.6423863" lon="9.706695"><ele>3.0</ele><time>2026-04-18T18:15:48.122Z</time></trkpt><trkpt lat="40.6425939" lon="9.7068583"><ele>3.0</ele><time>2026-04-18T18:15:49.122Z</time></trkpt><trkpt lat="40.6428008" lon="9.7070275"><ele>3.5</ele><time>2026-04-18T18:15:50.122Z</time></trkpt><trkpt lat="40.6430026" lon="9.7072062"><ele>4.0</ele><time>2026-04-18T18:15:51.122Z</time></trkpt><trkpt lat="40.6431986" lon="9.7073904"><ele>4.0</ele><time>2026-04-18T18:15:52.122Z</time></trkpt><trkpt lat="40.6433944" lon="9.7075867"><ele>4.0</ele><time>2026-04-18T18:15:53.121Z</time></trkpt><trkpt lat="40.643584" lon="9.7077888"><ele>4.0</ele><time>2026-04-18T18:15:54.122Z</time></trkpt><trkpt lat="40.6437677" lon="9.7080029"><ele>4.0</ele><time>2026-04-18T18:15:55.122Z</time></trkpt><trkpt lat="40.6439529" lon="9.7082216"><ele>4.0</ele><time>2026-04-18T18:15:56.122Z</time></trkpt><trkpt lat="40.6441314" lon="9.7084554"><ele>4.0</ele><time>2026-04-18T18:15:57.122Z</time></trkpt><trkpt lat="40.6443099" lon="9.7086972"><ele>4.0</ele><time>2026-04-18T18:15:58.122Z</time></trkpt><trkpt lat="40.6444789" lon="9.7089522"><ele>4.0</ele><time>2026-04-18T18:15:59.122Z</time></trkpt><trkpt lat="40.6446467" lon="9.7092092"><ele>4.5</ele><time>2026-04-18T18:16:00.121Z</time></trkpt><trkpt lat="40.6448106" lon="9.7094795"><ele>5.0</ele><time>2026-04-18T18:16:01.122Z</time></trkpt><trkpt lat="40.6449734" lon="9.7097562"><ele>5.0</ele><time>2026-04-18T18:16:02.122Z</time></trkpt><trkpt lat="40.6451293" lon="9.7100394"><ele>5.0</ele><time>2026-04-18T18:16:03.122Z</time></trkpt><trkpt lat="40.6452818" lon="9.7103315"><ele>5.5</ele><time>2026-04-18T18:16:04.122Z</time></trkpt><trkpt lat="40.6454305" lon="9.7106343"><ele>6.0</ele><time>2026-04-18T18:16:05.122Z</time></trkpt><trkpt lat="40.6455701" lon="9.7109408"><ele>6.5</ele><time>2026-04-18T18:16:06.121Z</time></trkpt><trkpt lat="40.6457086" lon="9.7112476"><ele>7.0</ele><time>2026-04-18T18:16:07.122Z</time></trkpt><trkpt lat="40.6458453" lon="9.7115601"><ele>7.0</ele><time>2026-04-18T18:16:08.122Z</time></trkpt><trkpt lat="40.6459822" lon="9.7118715"><ele>7.0</ele><time>2026-04-18T18:16:09.122Z</time></trkpt><trkpt lat="40.6461209" lon="9.7121857"><ele>8.0</ele><time>2026-04-18T18:16:10.122Z</time></trkpt><trkpt lat="40.6462576" lon="9.7124991"><ele>9.0</ele><time>2026-04-18T18:16:11.122Z</time></trkpt><trkpt lat="40.6463933" lon="9.7128116"><ele>9.0</ele><time>2026-04-18T18:16:12.122Z</time></trkpt><trkpt lat="40.6465313" lon="9.7131181"><ele>9.0</ele><time>2026-04-18T18:16:13.122Z</time></trkpt><trkpt lat="40.6466691" lon="9.7134269"><ele>7.5</ele><time>2026-04-18T18:16:14.122Z</time></trkpt><trkpt lat="40.6468043" lon="9.7137359"><ele>6.0</ele><time>2026-04-18T18:16:15.122Z</time></trkpt><trkpt lat="40.6469432" lon="9.7140447"><ele>6.0</ele><time>2026-04-18T18:16:16.122Z</time></trkpt><trkpt lat="40.6470793" lon="9.7143494"><ele>6.0</ele><time>2026-04-18T18:16:17.122Z</time></trkpt><trkpt lat="40.6472132" lon="9.7146547"><ele>6.0</ele><time>2026-04-18T18:16:18.122Z</time></trkpt><trkpt lat="40.647349" lon="9.7149592"><ele>6.0</ele><time>2026-04-18T18:16:19.122Z</time></trkpt><trkpt lat="40.6474851" lon="9.7152687"><ele>5.0</ele><time>2026-04-18T18:16:20.122Z</time></trkpt><trkpt lat="40.6476269" lon="9.7155823"><ele>4.0</ele><time>2026-04-18T18:16:21.122Z</time></trkpt><trkpt lat="40.6477666" lon="9.7159002"><ele>6.5</ele><time>2026-04-18T18:16:22.122Z</time></trkpt><trkpt lat="40.6479028" lon="9.7162166"><ele>9.0</ele><time>2026-04-18T18:16:23.122Z</time></trkpt><trkpt lat="40.6480408" lon="9.7165335"><ele>9.0</ele><time>2026-04-18T18:16:24.122Z</time></trkpt><trkpt lat="40.6481779" lon="9.7168512"><ele>9.0</ele><time>2026-04-18T18:16:25.122Z</time></trkpt><trkpt lat="40.648316" lon="9.7171656"><ele>8.5</ele><time>2026-04-18T18:16:26.122Z</time></trkpt><trkpt lat="40.6484541" lon="9.7174758"><ele>8.0</ele><time>2026-04-18T18:16:27.122Z</time></trkpt><trkpt lat="40.6485935" lon="9.7177833"><ele>11.5</ele><time>2026-04-18T18:16:28.122Z</time></trkpt><trkpt lat="40.6487392" lon="9.7180887"><ele>15.0</ele><time>2026-04-18T18:16:29.121Z</time></trkpt><trkpt lat="40.6488927" lon="9.7183876"><ele>12.5</ele><time>2026-04-18T18:16:30.122Z</time></trkpt><trkpt lat="40.6490525" lon="9.7186803"><ele>10.0</ele><time>2026-04-18T18:16:31.122Z</time></trkpt><trkpt lat="40.6492244" lon="9.718966"><ele>10.0</ele><time>2026-04-18T18:16:32.122Z</time></trkpt><trkpt lat="40.6493994" lon="9.7192456"><ele>10.0</ele><time>2026-04-18T18:16:33.122Z</time></trkpt><trkpt lat="40.6495906" lon="9.7195156"><ele>10.5</ele><time>2026-04-18T18:16:34.122Z</time></trkpt><trkpt lat="40.6497871" lon="9.7197741"><ele>11.0</ele><time>2026-04-18T18:16:35.122Z</time></trkpt><trkpt lat="40.6499912" lon="9.7200263"><ele>10.0</ele><time>2026-04-18T18:16:36.122Z</time></trkpt><trkpt lat="40.6502004" lon="9.7202663"><ele>9.0</ele><time>2026-04-18T18:16:37.121Z</time></trkpt><trkpt lat="40.6504148" lon="9.7204983"><ele>9.0</ele><time>2026-04-18T18:16:38.122Z</time></trkpt><trkpt lat="40.6506347" lon="9.7207233"><ele>9.0</ele><time>2026-04-18T18:16:39.122Z</time></trkpt><trkpt lat="40.6508655" lon="9.7209397"><ele>9.5</ele><time>2026-04-18T18:16:40.122Z</time></trkpt><trkpt lat="40.6511027" lon="9.7211428"><ele>10.0</ele><time>2026-04-18T18:16:41.122Z</time></trkpt><trkpt lat="40.6513424" lon="9.7213418"><ele>8.5</ele><time>2026-04-18T18:16:42.122Z</time></trkpt><trkpt lat="40.6515887" lon="9.7215267"><ele>7.0</ele><time>2026-04-18T18:16:43.122Z</time></trkpt><trkpt lat="40.6518389" lon="9.7217011"><ele>7.0</ele><time>2026-04-18T18:16:44.121Z</time></trkpt><trkpt lat="40.6520932" lon="9.721859"><ele>7.0</ele><time>2026-04-18T18:16:45.122Z</time></trkpt><trkpt lat="40.6523523" lon="9.7220012"><ele>7.0</ele><time>2026-04-18T18:16:46.122Z</time></trkpt><trkpt lat="40.6526161" lon="9.7221261"><ele>7.0</ele><time>2026-04-18T18:16:47.122Z</time></trkpt><trkpt lat="40.6528823" lon="9.7222389"><ele>5.0</ele><time>2026-04-18T18:16:48.122Z</time></trkpt><trkpt lat="40.6531485" lon="9.7223528"><ele>3.0</ele><time>2026-04-18T18:16:49.122Z</time></trkpt><trkpt lat="40.653417" lon="9.7224474"><ele>3.5</ele><time>2026-04-18T18:16:50.122Z</time></trkpt><trkpt lat="40.6536898" lon="9.7225295"><ele>4.0</ele><time>2026-04-18T18:16:51.122Z</time></trkpt><trkpt lat="40.6539571" lon="9.7225942"><ele>4.0</ele><time>2026-04-18T18:16:52.122Z</time></trkpt><trkpt lat="40.6542321" lon="9.7226401"><ele>4.0</ele><time>2026-04-18T18:16:53.122Z</time></trkpt><trkpt lat="40.6545087" lon="9.7226669"><ele>5.0</ele><time>2026-04-18T18:16:54.122Z</time></trkpt><trkpt lat="40.6547798" lon="9.722682"><ele>6.0</ele><time>2026-04-18T18:16:55.122Z</time></trkpt><trkpt lat="40.6550557" lon="9.7226801"><ele>7.5</ele><time>2026-04-18T18:16:56.122Z</time></trkpt><trkpt lat="40.6553297" lon="9.7226709"><ele>9.0</ele><time>2026-04-18T18:16:57.122Z</time></trkpt><trkpt lat="40.6556013" lon="9.7226476"><ele>9.0</ele><time>2026-04-18T18:16:58.122Z</time></trkpt><trkpt lat="40.6558673" lon="9.7226101"><ele>9.0</ele><time>2026-04-18T18:16:59.122Z</time></trkpt><trkpt lat="40.6561379" lon="9.7225573"><ele>7.5</ele><time>2026-04-18T18:17:00.122Z</time></trkpt><trkpt lat="40.6564064" lon="9.7224874"><ele>6.0</ele><time>2026-04-18T18:17:01.122Z</time></trkpt><trkpt lat="40.6566701" lon="9.7224045"><ele>6.0</ele><time>2026-04-18T18:17:02.122Z</time></trkpt><trkpt lat="40.6569298" lon="9.7223094"><ele>6.0</ele><time>2026-04-18T18:17:03.122Z</time></trkpt><trkpt lat="40.6571876" lon="9.7221977"><ele>5.0</ele><time>2026-04-18T18:17:04.122Z</time></trkpt><trkpt lat="40.6574434" lon="9.7220705"><ele>4.0</ele><time>2026-04-18T18:17:05.122Z</time></trkpt><trkpt lat="40.6576951" lon="9.7219319"><ele>5.0</ele><time>2026-04-18T18:17:06.122Z</time></trkpt><trkpt lat="40.6579439" lon="9.7217831"><ele>6.0</ele><time>2026-04-18T18:17:07.122Z</time></trkpt><trkpt lat="40.6581873" lon="9.7216191"><ele>6.0</ele><time>2026-04-18T18:17:08.122Z</time></trkpt><trkpt lat="40.6584277" lon="9.7214409"><ele>6.0</ele><time>2026-04-18T18:17:09.122Z</time></trkpt><trkpt lat="40.658664" lon="9.7212528"><ele>7.0</ele><time>2026-04-18T18:17:10.122Z</time></trkpt><trkpt lat="40.6588898" lon="9.7210533"><ele>8.0</ele><time>2026-04-18T18:17:11.122Z</time></trkpt><trkpt lat="40.65911" lon="9.7208367"><ele>8.0</ele><time>2026-04-18T18:17:12.122Z</time></trkpt><trkpt lat="40.6593215" lon="9.7206155"><ele>8.0</ele><time>2026-04-18T18:17:13.122Z</time></trkpt><trkpt lat="40.6595315" lon="9.720379"><ele>8.5</ele><time>2026-04-18T18:17:14.122Z</time></trkpt><trkpt lat="40.6597314" lon="9.7201409"><ele>9.0</ele><time>2026-04-18T18:17:15.121Z</time></trkpt><trkpt lat="40.6599264" lon="9.7198869"><ele>9.0</ele><time>2026-04-18T18:17:16.122Z</time></trkpt><trkpt lat="40.6601176" lon="9.7196277"><ele>9.0</ele><time>2026-04-18T18:17:17.122Z</time></trkpt><trkpt lat="40.6603076" lon="9.719365"><ele>8.5</ele><time>2026-04-18T18:17:18.122Z</time></trkpt><trkpt lat="40.660496" lon="9.7191038"><ele>8.0</ele><time>2026-04-18T18:17:19.122Z</time></trkpt><trkpt lat="40.6606868" lon="9.7188431"><ele>8.0</ele><time>2026-04-18T18:17:20.121Z</time></trkpt><trkpt lat="40.660877" lon="9.7185918"><ele>8.0</ele><time>2026-04-18T18:17:21.122Z</time></trkpt><trkpt lat="40.6610686" lon="9.7183359"><ele>9.5</ele><time>2026-04-18T18:17:22.121Z</time></trkpt><trkpt lat="40.6612607" lon="9.718082"><ele>11.0</ele><time>2026-04-18T18:17:23.122Z</time></trkpt><trkpt lat="40.6614459" lon="9.7178288"><ele>11.5</ele><time>2026-04-18T18:17:24.122Z</time></trkpt><trkpt lat="40.6616354" lon="9.7175748"><ele>12.0</ele><time>2026-04-18T18:17:25.121Z</time></trkpt><trkpt lat="40.6618192" lon="9.7173178"><ele>12.0</ele><time>2026-04-18T18:17:26.122Z</time></trkpt><trkpt lat="40.662005" lon="9.7170647"><ele>12.0</ele><time>2026-04-18T18:17:27.121Z</time></trkpt><trkpt lat="40.6621866" lon="9.7168078"><ele>13.0</ele><time>2026-04-18T18:17:28.122Z</time></trkpt><trkpt lat="40.6623662" lon="9.7165597"><ele>14.0</ele><time>2026-04-18T18:17:29.121Z</time></trkpt><trkpt lat="40.6625491" lon="9.7163082"><ele>15.0</ele><time>2026-04-18T18:17:30.122Z</time></trkpt><trkpt lat="40.6627336" lon="9.7160646"><ele>16.0</ele><time>2026-04-18T18:17:31.122Z</time></trkpt><trkpt lat="40.6629267" lon="9.7158247"><ele>17.0</ele><time>2026-04-18T18:17:32.122Z</time></trkpt><trkpt lat="40.6631228" lon="9.7155942"><ele>18.0</ele><time>2026-04-18T18:17:33.122Z</time></trkpt><trkpt lat="40.6633214" lon="9.7153677"><ele>18.0</ele><time>2026-04-18T18:17:34.122Z</time></trkpt><trkpt lat="40.6635276" lon="9.7151516"><ele>18.0</ele><time>2026-04-18T18:17:35.121Z</time></trkpt><trkpt lat="40.6637427" lon="9.7149437"><ele>19.5</ele><time>2026-04-18T18:17:36.122Z</time></trkpt><trkpt lat="40.6639623" lon="9.7147432"><ele>21.0</ele><time>2026-04-18T18:17:37.121Z</time></trkpt><trkpt lat="40.6641896" lon="9.7145539"><ele>20.0</ele><time>2026-04-18T18:17:38.122Z</time></trkpt><trkpt lat="40.6644189" lon="9.7143764"><ele>19.0</ele><time>2026-04-18T18:17:39.122Z</time></trkpt><trkpt lat="40.6646576" lon="9.7142039"><ele>19.0</ele><time>2026-04-18T18:17:40.122Z</time></trkpt><trkpt lat="40.6649" lon="9.7140382"><ele>19.0</ele><time>2026-04-18T18:17:41.122Z</time></trkpt><trkpt lat="40.6651494" lon="9.7138754"><ele>20.5</ele><time>2026-04-18T18:17:42.122Z</time></trkpt><trkpt lat="40.665401" lon="9.7137276"><ele>22.0</ele><time>2026-04-18T18:17:43.121Z</time></trkpt><trkpt lat="40.6656599" lon="9.7135865"><ele>21.5</ele><time>2026-04-18T18:17:44.122Z</time></trkpt><trkpt lat="40.6659224" lon="9.7134615"><ele>21.0</ele><time>2026-04-18T18:17:45.123Z</time></trkpt><trkpt lat="40.6661931" lon="9.7133492"><ele>20.5</ele><time>2026-04-18T18:17:46.123Z</time></trkpt><trkpt lat="40.666465" lon="9.7132479"><ele>20.0</ele><time>2026-04-18T18:17:47.123Z</time></trkpt><trkpt lat="40.666744" lon="9.7131587"><ele>22.5</ele><time>2026-04-18T18:17:48.123Z</time></trkpt><trkpt lat="40.6670257" lon="9.7130756"><ele>25.0</ele><time>2026-04-18T18:17:49.123Z</time></trkpt><trkpt lat="40.6673107" lon="9.7130053"><ele>25.0</ele><time>2026-04-18T18:17:50.123Z</time></trkpt><trkpt lat="40.6675956" lon="9.7129452"><ele>25.0</ele><time>2026-04-18T18:17:51.123Z</time></trkpt><trkpt lat="40.6678836" lon="9.7128999"><ele>25.5</ele><time>2026-04-18T18:17:52.123Z</time></trkpt><trkpt lat="40.6681748" lon="9.7128704"><ele>26.0</ele><time>2026-04-18T18:17:53.123Z</time></trkpt><trkpt lat="40.6684639" lon="9.7128509"><ele>29.0</ele><time>2026-04-18T18:17:54.123Z</time></trkpt><trkpt lat="40.6687494" lon="9.7128413"><ele>32.0</ele><time>2026-04-18T18:17:55.123Z</time></trkpt><trkpt lat="40.6690388" lon="9.7128461"><ele>32.0</ele><time>2026-04-18T18:17:56.123Z</time></trkpt><trkpt lat="40.6693301" lon="9.712861"><ele>32.0</ele><time>2026-04-18T18:17:57.123Z</time></trkpt><trkpt lat="40.6696196" lon="9.7128894"><ele>35.5</ele><time>2026-04-18T18:17:58.123Z</time></trkpt><trkpt lat="40.6699106" lon="9.7129322"><ele>39.0</ele><time>2026-04-18T18:17:59.123Z</time></trkpt><trkpt lat="40.6819886" lon="9.7182888"><ele>27.5</ele><time>2026-04-18T18:18:40.123Z</time></trkpt><trkpt lat="40.6822991" lon="9.7183109"><ele>16.0</ele><time>2026-04-18T18:18:41.122Z</time></trkpt><trkpt lat="40.6826075" lon="9.7183286"><ele>14.5</ele><time>2026-04-18T18:18:42.122Z</time></trkpt><trkpt lat="40.6829156" lon="9.7183274"><ele>13.0</ele><time>2026-04-18T18:18:43.123Z</time></trkpt><trkpt lat="40.6832182" lon="9.718319"><ele>13.0</ele><time>2026-04-18T18:18:44.123Z</time></trkpt><trkpt lat="40.6835194" lon="9.7183004"><ele>13.0</ele><time>2026-04-18T18:18:45.123Z</time></trkpt><trkpt lat="40.6838154" lon="9.7182713"><ele>12.0</ele><time>2026-04-18T18:18:46.123Z</time></trkpt><trkpt lat="40.6841078" lon="9.7182346"><ele>11.0</ele><time>2026-04-18T18:18:47.123Z</time></trkpt><trkpt lat="40.6843993" lon="9.7181848"><ele>10.5</ele><time>2026-04-18T18:18:48.122Z</time></trkpt><trkpt lat="40.6846898" lon="9.7181267"><ele>10.0</ele><time>2026-04-18T18:18:49.123Z</time></trkpt><trkpt lat="40.6849742" lon="9.7180579"><ele>10.0</ele><time>2026-04-18T18:18:50.123Z</time></trkpt><trkpt lat="40.6852565" lon="9.7179807"><ele>10.0</ele><time>2026-04-18T18:18:51.123Z</time></trkpt><trkpt lat="40.6855342" lon="9.7178954"><ele>9.5</ele><time>2026-04-18T18:18:52.123Z</time></trkpt><trkpt lat="40.6858135" lon="9.7177973"><ele>9.0</ele><time>2026-04-18T18:18:53.123Z</time></trkpt><trkpt lat="40.6860882" lon="9.717689"><ele>8.5</ele><time>2026-04-18T18:18:54.123Z</time></trkpt><trkpt lat="40.6863656" lon="9.7175702"><ele>8.0</ele><time>2026-04-18T18:18:55.123Z</time></trkpt><trkpt lat="40.6866375" lon="9.717439"><ele>8.0</ele><time>2026-04-18T18:18:56.123Z</time></trkpt><trkpt lat="40.6869042" lon="9.7173071"><ele>8.0</ele><time>2026-04-18T18:18:57.122Z</time></trkpt><trkpt lat="40.687171" lon="9.7171597"><ele>7.5</ele><time>2026-04-18T18:18:58.123Z</time></trkpt><trkpt lat="40.6874406" lon="9.7170044"><ele>7.0</ele><time>2026-04-18T18:18:59.123Z</time></trkpt><trkpt lat="40.6877026" lon="9.7168427"><ele>6.0</ele><time>2026-04-18T18:19:00.123Z</time></trkpt><trkpt lat="40.68796" lon="9.7166635"><ele>5.0</ele><time>2026-04-18T18:19:01.123Z</time></trkpt><trkpt lat="40.6882113" lon="9.7164795"><ele>5.0</ele><time>2026-04-18T18:19:02.123Z</time></trkpt><trkpt lat="40.6884586" lon="9.7162834"><ele>5.0</ele><time>2026-04-18T18:19:03.123Z</time></trkpt><trkpt lat="40.6887038" lon="9.7160819"><ele>5.0</ele><time>2026-04-18T18:19:04.123Z</time></trkpt><trkpt lat="40.688938" lon="9.7158747"><ele>5.0</ele><time>2026-04-18T18:19:05.123Z</time></trkpt><trkpt lat="40.6891724" lon="9.715651"><ele>5.0</ele><time>2026-04-18T18:19:06.123Z</time></trkpt><trkpt lat="40.6894017" lon="9.7154206"><ele>5.0</ele><time>2026-04-18T18:19:07.123Z</time></trkpt><trkpt lat="40.6896315" lon="9.7151906"><ele>5.0</ele><time>2026-04-18T18:19:08.123Z</time></trkpt><trkpt lat="40.6898638" lon="9.7149631"><ele>5.0</ele><time>2026-04-18T18:19:09.123Z</time></trkpt><trkpt lat="40.690097" lon="9.7147431"><ele>5.0</ele><time>2026-04-18T18:19:10.122Z</time></trkpt><trkpt lat="40.690333" lon="9.7145272"><ele>5.0</ele><time>2026-04-18T18:19:11.123Z</time></trkpt><trkpt lat="40.6905622" lon="9.7143108"><ele>5.0</ele><time>2026-04-18T18:19:12.123Z</time></trkpt><trkpt lat="40.6907916" lon="9.7140906"><ele>5.0</ele><time>2026-04-18T18:19:13.123Z</time></trkpt><trkpt lat="40.6910158" lon="9.7138736"><ele>5.0</ele><time>2026-04-18T18:19:14.123Z</time></trkpt><trkpt lat="40.6912403" lon="9.7136557"><ele>5.0</ele><time>2026-04-18T18:19:15.123Z</time></trkpt><trkpt lat="40.6914679" lon="9.7134466"><ele>5.5</ele><time>2026-04-18T18:19:16.123Z</time></trkpt><trkpt lat="40.6917096" lon="9.7132592"><ele>6.0</ele><time>2026-04-18T18:19:17.123Z</time></trkpt><trkpt lat="40.6919661" lon="9.7130991"><ele>5.0</ele><time>2026-04-18T18:19:18.123Z</time></trkpt><trkpt lat="40.6922254" lon="9.7129717"><ele>4.0</ele><time>2026-04-18T18:19:19.123Z</time></trkpt><trkpt lat="40.6924985" lon="9.7128691"><ele>4.0</ele><time>2026-04-18T18:19:20.123Z</time></trkpt><trkpt lat="40.6927782" lon="9.7127866"><ele>4.0</ele><time>2026-04-18T18:19:21.123Z</time></trkpt><trkpt lat="40.6930599" lon="9.7127362"><ele>4.0</ele><time>2026-04-18T18:19:22.123Z</time></trkpt><trkpt lat="40.6933435" lon="9.7127165"><ele>4.0</ele><time>2026-04-18T18:19:23.123Z</time></trkpt><trkpt lat="40.6936222" lon="9.7127101"><ele>4.5</ele><time>2026-04-18T18:19:24.123Z</time></trkpt><trkpt lat="40.6938943" lon="9.712689"><ele>5.0</ele><time>2026-04-18T18:19:25.123Z</time></trkpt><trkpt lat="40.6941674" lon="9.7126586"><ele>4.0</ele><time>2026-04-18T18:19:26.123Z</time></trkpt><trkpt lat="40.6944437" lon="9.712627"><ele>3.0</ele><time>2026-04-18T18:19:27.123Z</time></trkpt><trkpt lat="40.6947139" lon="9.7125396"><ele>3.0</ele><time>2026-04-18T18:19:28.123Z</time></trkpt><trkpt lat="40.6949792" lon="9.7124493"><ele>3.0</ele><time>2026-04-18T18:19:29.123Z</time></trkpt><trkpt lat="40.6952391" lon="9.7123392"><ele>3.5</ele><time>2026-04-18T18:19:30.123Z</time></trkpt><trkpt lat="40.6954984" lon="9.7122181"><ele>4.0</ele><time>2026-04-18T18:19:31.123Z</time></trkpt><trkpt lat="40.6957484" lon="9.7120781"><ele>4.0</ele><time>2026-04-18T18:19:32.123Z</time></trkpt><trkpt lat="40.6959936" lon="9.7119257"><ele>4.0</ele><time>2026-04-18T18:19:33.123Z</time></trkpt><trkpt lat="40.6962339" lon="9.7117566"><ele>7.0</ele><time>2026-04-18T18:19:34.123Z</time></trkpt><trkpt lat="40.6964667" lon="9.7115702"><ele>10.0</ele><time>2026-04-18T18:19:35.123Z</time></trkpt><trkpt lat="40.6966905" lon="9.7113662"><ele>10.0</ele><time>2026-04-18T18:19:36.123Z</time></trkpt><trkpt lat="40.6969061" lon="9.7111482"><ele>10.0</ele><time>2026-04-18T18:19:37.123Z</time></trkpt><trkpt lat="40.6971111" lon="9.7109168"><ele>11.5</ele><time>2026-04-18T18:19:38.123Z</time></trkpt><trkpt lat="40.6973071" lon="9.7106691"><ele>13.0</ele><time>2026-04-18T18:19:39.123Z</time></trkpt><trkpt lat="40.6974907" lon="9.710411"><ele>14.0</ele><time>2026-04-18T18:19:40.122Z</time></trkpt><trkpt lat="40.697669" lon="9.7101445"><ele>15.0</ele><time>2026-04-18T18:19:41.123Z</time></trkpt><trkpt lat="40.6978377" lon="9.70986"><ele>15.0</ele><time>2026-04-18T18:19:42.123Z</time></trkpt><trkpt lat="40.6979929" lon="9.7095667"><ele>15.0</ele><time>2026-04-18T18:19:43.123Z</time></trkpt><trkpt lat="40.6981336" lon="9.7092565"><ele>16.0</ele><time>2026-04-18T18:19:44.123Z</time></trkpt><trkpt lat="40.698265" lon="9.7089384"><ele>17.0</ele><time>2026-04-18T18:19:45.123Z</time></trkpt><trkpt lat="40.698382" lon="9.708613"><ele>16.0</ele><time>2026-04-18T18:19:46.122Z</time></trkpt><trkpt lat="40.6984843" lon="9.7082819"><ele>15.0</ele><time>2026-04-18T18:19:47.123Z</time></trkpt><trkpt lat="40.6985753" lon="9.7079466"><ele>11.5</ele><time>2026-04-18T18:19:48.123Z</time></trkpt><trkpt lat="40.6986517" lon="9.7076064"><ele>8.0</ele><time>2026-04-18T18:19:49.123Z</time></trkpt><trkpt lat="40.6987154" lon="9.7072608"><ele>8.0</ele><time>2026-04-18T18:19:50.123Z</time></trkpt><trkpt lat="40.698772" lon="9.7069163"><ele>8.0</ele><time>2026-04-18T18:19:51.123Z</time></trkpt><trkpt lat="40.6988136" lon="9.7065668"><ele>8.0</ele><time>2026-04-18T18:19:52.123Z</time></trkpt><trkpt lat="40.6988344" lon="9.7062116"><ele>8.0</ele><time>2026-04-18T18:19:53.123Z</time></trkpt><trkpt lat="40.6988441" lon="9.7058543"><ele>8.0</ele><time>2026-04-18T18:19:54.123Z</time></trkpt><trkpt lat="40.6988481" lon="9.7054943"><ele>8.0</ele><time>2026-04-18T18:19:55.123Z</time></trkpt><trkpt lat="40.6988498" lon="9.7051346"><ele>8.5</ele><time>2026-04-18T18:19:56.123Z</time></trkpt><trkpt lat="40.6988483" lon="9.7047742"><ele>9.0</ele><time>2026-04-18T18:19:57.123Z</time></trkpt><trkpt lat="40.6988526" lon="9.7044163"><ele>9.0</ele><time>2026-04-18T18:19:58.123Z</time></trkpt><trkpt lat="40.6988621" lon="9.7040576"><ele>9.0</ele><time>2026-04-18T18:19:59.123Z</time></trkpt><trkpt lat="40.6988792" lon="9.7037025"><ele>10.5</ele><time>2026-04-18T18:20:00.123Z</time></trkpt><trkpt lat="40.6989053" lon="9.7033483"><ele>12.0</ele><time>2026-04-18T18:20:01.123Z</time></trkpt><trkpt lat="40.698943" lon="9.7030017"><ele>12.5</ele><time>2026-04-18T18:20:02.123Z</time></trkpt><trkpt lat="40.6989945" lon="9.7026601"><ele>13.0</ele><time>2026-04-18T18:20:03.123Z</time></trkpt><trkpt lat="40.6990533" lon="9.7023233"><ele>13.0</ele><time>2026-04-18T18:20:04.123Z</time></trkpt><trkpt lat="40.6991219" lon="9.7019912"><ele>13.0</ele><time>2026-04-18T18:20:05.123Z</time></trkpt><trkpt lat="40.699198" lon="9.7016607"><ele>13.5</ele><time>2026-04-18T18:20:06.122Z</time></trkpt><trkpt lat="40.6992831" lon="9.7013361"><ele>14.0</ele><time>2026-04-18T18:20:07.123Z</time></trkpt><trkpt lat="40.6993734" lon="9.701015"><ele>14.0</ele><time>2026-04-18T18:20:08.122Z</time></trkpt><trkpt lat="40.6994772" lon="9.7006987"><ele>14.0</ele><time>2026-04-18T18:20:09.123Z</time></trkpt><trkpt lat="40.6995841" lon="9.7003901"><ele>15.5</ele><time>2026-04-18T18:20:10.123Z</time></trkpt><trkpt lat="40.6997016" lon="9.700087"><ele>17.0</ele><time>2026-04-18T18:20:11.123Z</time></trkpt><trkpt lat="40.6998265" lon="9.6997899"><ele>17.0</ele><time>2026-04-18T18:20:12.123Z</time></trkpt><trkpt lat="40.6999611" lon="9.6995006"><ele>17.0</ele><time>2026-04-18T18:20:13.123Z</time></trkpt><trkpt lat="40.700102" lon="9.6992204"><ele>16.0</ele><time>2026-04-18T18:20:14.123Z</time></trkpt><trkpt lat="40.7002576" lon="9.6989525"><ele>15.0</ele><time>2026-04-18T18:20:15.123Z</time></trkpt><trkpt lat="40.7004217" lon="9.6986885"><ele>16.0</ele><time>2026-04-18T18:20:16.123Z</time></trkpt><trkpt lat="40.7005885" lon="9.6984283"><ele>17.0</ele><time>2026-04-18T18:20:17.123Z</time></trkpt><trkpt lat="40.7007618" lon="9.6981782"><ele>17.0</ele><time>2026-04-18T18:20:18.123Z</time></trkpt><trkpt lat="40.7009384" lon="9.6979355"><ele>17.0</ele><time>2026-04-18T18:20:19.123Z</time></trkpt><trkpt lat="40.7011237" lon="9.6977024"><ele>19.0</ele><time>2026-04-18T18:20:20.123Z</time></trkpt><trkpt lat="40.7013162" lon="9.6974756"><ele>21.0</ele><time>2026-04-18T18:20:21.123Z</time></trkpt><trkpt lat="40.7015191" lon="9.6972653"><ele>21.0</ele><time>2026-04-18T18:20:22.123Z</time></trkpt><trkpt lat="40.7017273" lon="9.6970618"><ele>21.0</ele><time>2026-04-18T18:20:23.123Z</time></trkpt><trkpt lat="40.7019439" lon="9.6968707"><ele>25.0</ele><time>2026-04-18T18:20:24.123Z</time></trkpt><trkpt lat="40.7021718" lon="9.6966848"><ele>29.0</ele><time>2026-04-18T18:20:25.122Z</time></trkpt><trkpt lat="40.7024088" lon="9.696505"><ele>29.0</ele><time>2026-04-18T18:20:26.123Z</time></trkpt><trkpt lat="40.7026579" lon="9.6963288"><ele>29.0</ele><time>2026-04-18T18:20:27.123Z</time></trkpt><trkpt lat="40.7029091" lon="9.6961697"><ele>27.5</ele><time>2026-04-18T18:20:28.123Z</time></trkpt><trkpt lat="40.7031649" lon="9.6960246"><ele>26.0</ele><time>2026-04-18T18:20:29.123Z</time></trkpt><trkpt lat="40.7034244" lon="9.6958912"><ele>23.0</ele><time>2026-04-18T18:20:30.123Z</time></trkpt><trkpt lat="40.7036864" lon="9.6957752"><ele>20.0</ele><time>2026-04-18T18:20:31.123Z</time></trkpt><trkpt lat="40.7039478" lon="9.6956725"><ele>20.0</ele><time>2026-04-18T18:20:32.123Z</time></trkpt><trkpt lat="40.7042156" lon="9.6955879"><ele>20.0</ele><time>2026-04-18T18:20:33.123Z</time></trkpt><trkpt lat="40.7044862" lon="9.6955154"><ele>19.0</ele><time>2026-04-18T18:20:34.123Z</time></trkpt><trkpt lat="40.7047587" lon="9.6954517"><ele>18.0</ele><time>2026-04-18T18:20:35.123Z</time></trkpt><trkpt lat="40.7050312" lon="9.6953841"><ele>17.5</ele><time>2026-04-18T18:20:36.123Z</time></trkpt><trkpt lat="40.7053031" lon="9.6953224"><ele>17.0</ele><time>2026-04-18T18:20:37.123Z</time></trkpt><trkpt lat="40.7055745" lon="9.6952551"><ele>18.0</ele><time>2026-04-18T18:20:38.123Z</time></trkpt><trkpt lat="40.7058434" lon="9.6951888"><ele>19.0</ele><time>2026-04-18T18:20:39.123Z</time></trkpt><trkpt lat="40.7061134" lon="9.6951253"><ele>19.5</ele><time>2026-04-18T18:20:40.123Z</time></trkpt><trkpt lat="40.7063829" lon="9.6950585"><ele>20.0</ele><time>2026-04-18T18:20:41.121Z</time></trkpt><trkpt lat="40.7066487" lon="9.6949839"><ele>20.5</ele><time>2026-04-18T18:20:42.123Z</time></trkpt><trkpt lat="40.7069193" lon="9.6949003"><ele>21.0</ele><time>2026-04-18T18:20:43.123Z</time></trkpt><trkpt lat="40.7071877" lon="9.6947964"><ele>21.0</ele><time>2026-04-18T18:20:44.123Z</time></trkpt><trkpt lat="40.707454" lon="9.6946786"><ele>21.0</ele><time>2026-04-18T18:20:45.123Z</time></trkpt><trkpt lat="40.7077138" lon="9.6945415"><ele>25.5</ele><time>2026-04-18T18:20:46.123Z</time></trkpt><trkpt lat="40.7079695" lon="9.6943857"><ele>30.0</ele><time>2026-04-18T18:20:47.122Z</time></trkpt><trkpt lat="40.7082166" lon="9.6942185"><ele>30.0</ele><time>2026-04-18T18:20:48.123Z</time></trkpt><trkpt lat="40.7084586" lon="9.6940325"><ele>30.0</ele><time>2026-04-18T18:20:49.123Z</time></trkpt><trkpt lat="40.7086953" lon="9.6938331"><ele>30.0</ele><time>2026-04-18T18:20:50.123Z</time></trkpt><trkpt lat="40.7089236" lon="9.6936144"><ele>30.0</ele><time>2026-04-18T18:20:51.122Z</time></trkpt><trkpt lat="40.7091419" lon="9.6933809"><ele>30.0</ele><time>2026-04-18T18:20:52.123Z</time></trkpt><trkpt lat="40.7093493" lon="9.6931364"><ele>30.0</ele><time>2026-04-18T18:20:53.123Z</time></trkpt><trkpt lat="40.7095482" lon="9.6928782"><ele>24.5</ele><time>2026-04-18T18:20:54.123Z</time></trkpt><trkpt lat="40.7097352" lon="9.6926077"><ele>19.0</ele><time>2026-04-18T18:20:55.123Z</time></trkpt><trkpt lat="40.7099122" lon="9.6923262"><ele>19.0</ele><time>2026-04-18T18:20:56.123Z</time></trkpt><trkpt lat="40.7100789" lon="9.6920358"><ele>19.0</ele><time>2026-04-18T18:20:57.123Z</time></trkpt><trkpt lat="40.7102317" lon="9.6917339"><ele>17.0</ele><time>2026-04-18T18:20:58.122Z</time></trkpt><trkpt lat="40.7103722" lon="9.6914194"><ele>15.0</ele><time>2026-04-18T18:20:59.123Z</time></trkpt><trkpt lat="40.7104998" lon="9.691096"><ele>16.5</ele><time>2026-04-18T18:21:00.122Z</time></trkpt><trkpt lat="40.7106138" lon="9.690764"><ele>18.0</ele><time>2026-04-18T18:21:01.122Z</time></trkpt><trkpt lat="40.7107189" lon="9.690428"><ele>19.0</ele><time>2026-04-18T18:21:02.123Z</time></trkpt><trkpt lat="40.7108095" lon="9.6900897"><ele>20.0</ele><time>2026-04-18T18:21:03.123Z</time></trkpt><trkpt lat="40.7108931" lon="9.6897452"><ele>21.0</ele><time>2026-04-18T18:21:04.123Z</time></trkpt><trkpt lat="40.7109622" lon="9.6893945"><ele>22.0</ele><time>2026-04-18T18:21:05.123Z</time></trkpt><trkpt lat="40.7110209" lon="9.6890417"><ele>18.5</ele><time>2026-04-18T18:21:06.123Z</time></trkpt><trkpt lat="40.711082" lon="9.6886864"><ele>15.0</ele><time>2026-04-18T18:21:07.122Z</time></trkpt><trkpt lat="40.7111441" lon="9.6883337"><ele>15.0</ele><time>2026-04-18T18:21:08.122Z</time></trkpt><trkpt lat="40.7112089" lon="9.6879819"><ele>15.0</ele><time>2026-04-18T18:21:09.123Z</time></trkpt><trkpt lat="40.7112779" lon="9.6876338"><ele>16.0</ele><time>2026-04-18T18:21:10.123Z</time></trkpt><trkpt lat="40.7113506" lon="9.687294"><ele>17.0</ele><time>2026-04-18T18:21:11.122Z</time></trkpt><trkpt lat="40.7114295" lon="9.6869559"><ele>17.0</ele><time>2026-04-18T18:21:12.123Z</time></trkpt><trkpt lat="40.7115169" lon="9.6866226"><ele>17.0</ele><time>2026-04-18T18:21:13.123Z</time></trkpt><trkpt lat="40.7116131" lon="9.6862916"><ele>17.5</ele><time>2026-04-18T18:21:14.123Z</time></trkpt><trkpt lat="40.7117156" lon="9.6859657"><ele>18.0</ele><time>2026-04-18T18:21:15.123Z</time></trkpt><trkpt lat="40.7118291" lon="9.6856406"><ele>18.0</ele><time>2026-04-18T18:21:16.123Z</time></trkpt><trkpt lat="40.7119535" lon="9.6853167"><ele>18.0</ele><time>2026-04-18T18:21:17.123Z</time></trkpt><trkpt lat="40.7120883" lon="9.6849984"><ele>18.0</ele><time>2026-04-18T18:21:18.123Z</time></trkpt><trkpt lat="40.7122309" lon="9.6846874"><ele>18.0</ele><time>2026-04-18T18:21:19.123Z</time></trkpt><trkpt lat="40.7123839" lon="9.6843794"><ele>18.5</ele><time>2026-04-18T18:21:20.123Z</time></trkpt><trkpt lat="40.7125432" lon="9.6840776"><ele>19.0</ele><time>2026-04-18T18:21:21.123Z</time></trkpt><trkpt lat="40.7127121" lon="9.6837783"><ele>20.5</ele><time>2026-04-18T18:21:22.123Z</time></trkpt><trkpt lat="40.71289" lon="9.6834903"><ele>22.0</ele><time>2026-04-18T18:21:23.123Z</time></trkpt><trkpt lat="40.7130745" lon="9.6832086"><ele>22.0</ele><time>2026-04-18T18:21:24.123Z</time></trkpt><trkpt lat="40.7132685" lon="9.6829309"><ele>22.0</ele><time>2026-04-18T18:21:25.123Z</time></trkpt><trkpt lat="40.7134638" lon="9.6826615"><ele>22.0</ele><time>2026-04-18T18:21:26.123Z</time></trkpt><trkpt lat="40.7136618" lon="9.6823942"><ele>22.0</ele><time>2026-04-18T18:21:27.123Z</time></trkpt><trkpt lat="40.7138648" lon="9.6821285"><ele>24.0</ele><time>2026-04-18T18:21:28.123Z</time></trkpt><trkpt lat="40.7140676" lon="9.6818707"><ele>26.0</ele><time>2026-04-18T18:21:29.122Z</time></trkpt><trkpt lat="40.7142716" lon="9.6816142"><ele>25.5</ele><time>2026-04-18T18:21:30.123Z</time></trkpt><trkpt lat="40.7144722" lon="9.6813545"><ele>25.0</ele><time>2026-04-18T18:21:31.123Z</time></trkpt><trkpt lat="40.7146678" lon="9.6810826"><ele>26.5</ele><time>2026-04-18T18:21:32.123Z</time></trkpt><trkpt lat="40.7148594" lon="9.6808056"><ele>28.0</ele><time>2026-04-18T18:21:33.122Z</time></trkpt><trkpt lat="40.7150487" lon="9.6805308"><ele>28.0</ele><time>2026-04-18T18:21:34.122Z</time></trkpt><trkpt lat="40.7152227" lon="9.680247"><ele>28.0</ele><time>2026-04-18T18:21:35.123Z</time></trkpt><trkpt lat="40.7153911" lon="9.6799539"><ele>27.0</ele><time>2026-04-18T18:21:36.123Z</time></trkpt><trkpt lat="40.7155502" lon="9.6796511"><ele>26.0</ele><time>2026-04-18T18:21:37.122Z</time></trkpt><trkpt lat="40.7157045" lon="9.6793477"><ele>26.0</ele><time>2026-04-18T18:21:38.123Z</time></trkpt><trkpt lat="40.7158494" lon="9.6790353"><ele>26.0</ele><time>2026-04-18T18:21:39.123Z</time></trkpt><trkpt lat="40.7159853" lon="9.6787161"><ele>25.5</ele><time>2026-04-18T18:21:40.122Z</time></trkpt><trkpt lat="40.7161128" lon="9.6783887"><ele>25.0</ele><time>2026-04-18T18:21:41.123Z</time></trkpt><trkpt lat="40.7162326" lon="9.678061"><ele>26.5</ele><time>2026-04-18T18:21:42.123Z</time></trkpt><trkpt lat="40.7163475" lon="9.677725"><ele>28.0</ele><time>2026-04-18T18:21:43.123Z</time></trkpt><trkpt lat="40.7164566" lon="9.6773885"><ele>28.0</ele><time>2026-04-18T18:21:44.123Z</time></trkpt><trkpt lat="40.716557" lon="9.6770466"><ele>28.0</ele><time>2026-04-18T18:21:45.123Z</time></trkpt><trkpt lat="40.716655" lon="9.6767061"><ele>28.5</ele><time>2026-04-18T18:21:46.123Z</time></trkpt><trkpt lat="40.716753" lon="9.6763675"><ele>29.0</ele><time>2026-04-18T18:21:47.123Z</time></trkpt><trkpt lat="40.716852" lon="9.6760264"><ele>30.0</ele><time>2026-04-18T18:21:48.123Z</time></trkpt><trkpt lat="40.7169556" lon="9.6756854"><ele>31.0</ele><time>2026-04-18T18:21:49.123Z</time></trkpt><trkpt lat="40.7170671" lon="9.675354"><ele>32.5</ele><time>2026-04-18T18:21:50.123Z</time></trkpt><trkpt lat="40.71719" lon="9.6750321"><ele>34.0</ele><time>2026-04-18T18:21:51.123Z</time></trkpt><trkpt lat="40.7173244" lon="9.6747095"><ele>37.5</ele><time>2026-04-18T18:21:52.123Z</time></trkpt><trkpt lat="40.7174642" lon="9.6743872"><ele>41.0</ele><time>2026-04-18T18:21:53.123Z</time></trkpt><trkpt lat="40.7176049" lon="9.6740663"><ele>37.0</ele><time>2026-04-18T18:21:54.123Z</time></trkpt><trkpt lat="40.7177481" lon="9.6737495"><ele>33.0</ele><time>2026-04-18T18:21:55.123Z</time></trkpt><trkpt lat="40.7178907" lon="9.6734295"><ele>33.0</ele><time>2026-04-18T18:21:56.123Z</time></trkpt><trkpt lat="40.7180261" lon="9.6731124"><ele>33.0</ele><time>2026-04-18T18:21:57.123Z</time></trkpt><trkpt lat="40.7181542" lon="9.6727906"><ele>36.5</ele><time>2026-04-18T18:21:58.123Z</time></trkpt><trkpt lat="40.718277" lon="9.672464"><ele>40.0</ele><time>2026-04-18T18:21:59.123Z</time></trkpt><trkpt lat="40.7183881" lon="9.6721264"><ele>37.0</ele><time>2026-04-18T18:22:00.122Z</time></trkpt><trkpt lat="40.7184913" lon="9.6717863"><ele>34.0</ele><time>2026-04-18T18:22:01.123Z</time></trkpt><trkpt lat="40.7185912" lon="9.6714525"><ele>34.0</ele><time>2026-04-18T18:22:02.123Z</time></trkpt><trkpt lat="40.7186825" lon="9.6711196"><ele>34.0</ele><time>2026-04-18T18:22:03.123Z</time></trkpt><trkpt lat="40.7187717" lon="9.6707879"><ele>37.5</ele><time>2026-04-18T18:22:04.123Z</time></trkpt><trkpt lat="40.718872" lon="9.67046"><ele>41.0</ele><time>2026-04-18T18:22:05.123Z</time></trkpt><trkpt lat="40.7189813" lon="9.6701334"><ele>45.0</ele><time>2026-04-18T18:22:06.123Z</time></trkpt><trkpt lat="40.7191049" lon="9.6698161"><ele>49.0</ele><time>2026-04-18T18:22:07.122Z</time></trkpt><trkpt lat="40.7192412" lon="9.6695005"><ele>50.5</ele><time>2026-04-18T18:22:08.123Z</time></trkpt><trkpt lat="40.7193835" lon="9.6691829"><ele>52.0</ele><time>2026-04-18T18:22:09.123Z</time></trkpt><trkpt lat="40.7195248" lon="9.6688641"><ele>48.0</ele><time>2026-04-18T18:22:10.123Z</time></trkpt><trkpt lat="40.7196665" lon="9.6685458"><ele>44.0</ele><time>2026-04-18T18:22:11.123Z</time></trkpt><trkpt lat="40.7198099" lon="9.6682302"><ele>44.0</ele><time>2026-04-18T18:22:12.122Z</time></trkpt><trkpt lat="40.7199508" lon="9.6679133"><ele>44.0</ele><time>2026-04-18T18:22:13.123Z</time></trkpt><trkpt lat="40.7200913" lon="9.6676006"><ele>43.0</ele><time>2026-04-18T18:22:14.122Z</time></trkpt><trkpt lat="40.7202295" lon="9.6672911"><ele>42.0</ele><time>2026-04-18T18:22:15.123Z</time></trkpt><trkpt lat="40.7203646" lon="9.666979"><ele>46.0</ele><time>2026-04-18T18:22:16.123Z</time></trkpt><trkpt lat="40.7204995" lon="9.6666664"><ele>50.0</ele><time>2026-04-18T18:22:17.122Z</time></trkpt><trkpt lat="40.7206317" lon="9.6663587"><ele>56.5</ele><time>2026-04-18T18:22:18.123Z</time></trkpt><trkpt lat="40.720765" lon="9.6660559"><ele>63.0</ele><time>2026-04-18T18:22:19.123Z</time></trkpt><trkpt lat="40.7209123" lon="9.6657582"><ele>59.0</ele><time>2026-04-18T18:22:20.122Z</time></trkpt><trkpt lat="40.721069" lon="9.6654634"><ele>55.0</ele><time>2026-04-18T18:22:21.123Z</time></trkpt><trkpt lat="40.7212319" lon="9.6651769"><ele>55.0</ele><time>2026-04-18T18:22:22.123Z</time></trkpt><trkpt lat="40.7214021" lon="9.6648995"><ele>55.0</ele><time>2026-04-18T18:22:23.123Z</time></trkpt><trkpt lat="40.7215756" lon="9.6646321"><ele>53.5</ele><time>2026-04-18T18:22:24.123Z</time></trkpt><trkpt lat="40.7217541" lon="9.6643643"><ele>52.0</ele><time>2026-04-18T18:22:25.123Z</time></trkpt><trkpt lat="40.7219386" lon="9.6641075"><ele>52.0</ele><time>2026-04-18T18:22:26.123Z</time></trkpt><trkpt lat="40.7221277" lon="9.6638541"><ele>52.0</ele><time>2026-04-18T18:22:27.123Z</time></trkpt><trkpt lat="40.722323" lon="9.6636082"><ele>60.0</ele><time>2026-04-18T18:22:28.123Z</time></trkpt><trkpt lat="40.7225176" lon="9.6633653"><ele>68.0</ele><time>2026-04-18T18:22:29.123Z</time></trkpt><trkpt lat="40.7227123" lon="9.6631218"><ele>69.5</ele><time>2026-04-18T18:22:30.122Z</time></trkpt><trkpt lat="40.7229058" lon="9.6628735"><ele>71.0</ele><time>2026-04-18T18:22:31.123Z</time></trkpt><trkpt lat="40.7230896" lon="9.6626069"><ele>71.0</ele><time>2026-04-18T18:22:32.123Z</time></trkpt><trkpt lat="40.723263" lon="9.6623489"><ele>71.0</ele><time>2026-04-18T18:22:33.123Z</time></trkpt><trkpt lat="40.7234232" lon="9.6621004"><ele>68.0</ele><time>2026-04-18T18:22:34.123Z</time></trkpt><trkpt lat="40.7235742" lon="9.6618593"><ele>65.0</ele><time>2026-04-18T18:22:35.123Z</time></trkpt><trkpt lat="40.7237245" lon="9.6616145"><ele>65.0</ele><time>2026-04-18T18:22:36.123Z</time></trkpt><trkpt lat="40.7238718" lon="9.6613645"><ele>65.0</ele><time>2026-04-18T18:22:37.123Z</time></trkpt><trkpt lat="40.7240166" lon="9.6611065"><ele>68.5</ele><time>2026-04-18T18:22:38.122Z</time></trkpt><trkpt lat="40.7241569" lon="9.6608489"><ele>72.0</ele><time>2026-04-18T18:22:39.123Z</time></trkpt><trkpt lat="40.7242889" lon="9.6605903"><ele>71.5</ele><time>2026-04-18T18:22:40.123Z</time></trkpt><trkpt lat="40.7244156" lon="9.6603284"><ele>71.0</ele><time>2026-04-18T18:22:41.123Z</time></trkpt><trkpt lat="40.7245376" lon="9.6600649"><ele>83.5</ele><time>2026-04-18T18:22:42.123Z</time></trkpt><trkpt lat="40.7246547" lon="9.6598073"><ele>96.0</ele><time>2026-04-18T18:22:43.123Z</time></trkpt><trkpt lat="40.7247726" lon="9.6595502"><ele>96.0</ele><time>2026-04-18T18:22:44.123Z</time></trkpt><trkpt lat="40.7244439" lon="9.6602652"><ele>77.0</ele><time>2026-04-18T18:23:00.815Z</time></trkpt><trkpt lat="40.7274343" lon="9.6539403"><ele>77.0</ele><time>2026-04-18T18:23:11.123Z</time></trkpt><trkpt lat="40.7275389" lon="9.6537303"><ele>77.0</ele><time>2026-04-18T18:23:12.123Z</time></trkpt><trkpt lat="40.7276462" lon="9.653512"><ele>77.0</ele><time>2026-04-18T18:23:13.123Z</time></trkpt><trkpt lat="40.7277576" lon="9.6532963"><ele>76.0</ele><time>2026-04-18T18:23:14.122Z</time></trkpt><trkpt lat="40.727873" lon="9.653091"><ele>75.0</ele><time>2026-04-18T18:23:15.123Z</time></trkpt><trkpt lat="40.7279987" lon="9.6528831"><ele>74.0</ele><time>2026-04-18T18:23:16.123Z</time></trkpt><trkpt lat="40.7281353" lon="9.6526713"><ele>74.0</ele><time>2026-04-18T18:23:17.123Z</time></trkpt><trkpt lat="40.7282764" lon="9.6524652"><ele>74.0</ele><time>2026-04-18T18:23:18.123Z</time></trkpt><trkpt lat="40.7284291" lon="9.652259"><ele>74.0</ele><time>2026-04-18T18:23:19.123Z</time></trkpt><trkpt lat="40.7285901" lon="9.6520619"><ele>73.0</ele><time>2026-04-18T18:23:20.123Z</time></trkpt><trkpt lat="40.7287544" lon="9.65187"><ele>72.0</ele><time>2026-04-18T18:23:21.123Z</time></trkpt><trkpt lat="40.7289285" lon="9.6516743"><ele>71.0</ele><time>2026-04-18T18:23:22.123Z</time></trkpt><trkpt lat="40.7291109" lon="9.6514916"><ele>71.0</ele><time>2026-04-18T18:23:23.122Z</time></trkpt><trkpt lat="40.7292969" lon="9.6513161"><ele>71.0</ele><time>2026-04-18T18:23:24.123Z</time></trkpt><trkpt lat="40.7294805" lon="9.6511603"><ele>71.0</ele><time>2026-04-18T18:23:25.123Z</time></trkpt><trkpt lat="40.7296643" lon="9.6510049"><ele>71.66666666666667</ele><time>2026-04-18T18:23:26.123Z</time></trkpt><trkpt lat="40.729851" lon="9.6508473"><ele>72.33333333333333</ele><time>2026-04-18T18:23:27.123Z</time></trkpt><trkpt lat="40.7300405" lon="9.650709"><ele>73.0</ele><time>2026-04-18T18:23:28.123Z</time></trkpt><trkpt lat="40.7302307" lon="9.6505855"><ele>73.0</ele><time>2026-04-18T18:23:29.123Z</time></trkpt><trkpt lat="40.7304243" lon="9.6504721"><ele>73.0</ele><time>2026-04-18T18:23:30.122Z</time></trkpt><trkpt lat="40.7306175" lon="9.6503649"><ele>73.0</ele><time>2026-04-18T18:23:31.123Z</time></trkpt><trkpt lat="40.7308143" lon="9.6502692"><ele>72.66666666666666</ele><time>2026-04-18T18:23:32.123Z</time></trkpt><trkpt lat="40.7310157" lon="9.6501848"><ele>72.33333333333333</ele><time>2026-04-18T18:23:33.122Z</time></trkpt><trkpt lat="40.7312188" lon="9.6501013"><ele>72.0</ele><time>2026-04-18T18:23:34.123Z</time></trkpt><trkpt lat="40.7314262" lon="9.6500265"><ele>75.66666666666667</ele><time>2026-04-18T18:23:35.123Z</time></trkpt><trkpt lat="40.7316374" lon="9.6499617"><ele>79.33333333333334</ele><time>2026-04-18T18:23:36.123Z</time></trkpt><trkpt lat="40.7318563" lon="9.6499033"><ele>83.0</ele><time>2026-04-18T18:23:37.123Z</time></trkpt><trkpt lat="40.7320816" lon="9.649853"><ele>83.0</ele><time>2026-04-18T18:23:38.122Z</time></trkpt><trkpt lat="40.7323041" lon="9.6498153"><ele>83.0</ele><time>2026-04-18T18:23:39.123Z</time></trkpt><trkpt lat="40.7325279" lon="9.6497779"><ele>83.66666666666667</ele><time>2026-04-18T18:23:40.123Z</time></trkpt><trkpt lat="40.7327449" lon="9.6497325"><ele>84.33333333333333</ele><time>2026-04-18T18:23:41.123Z</time></trkpt><trkpt lat="40.7329581" lon="9.6496802"><ele>85.0</ele><time>2026-04-18T18:23:42.123Z</time></trkpt><trkpt lat="40.7331596" lon="9.6496278"><ele>85.0</ele><time>2026-04-18T18:23:43.123Z</time></trkpt><trkpt lat="40.7333458" lon="9.6495707"><ele>85.0</ele><time>2026-04-18T18:23:44.123Z</time></trkpt><trkpt lat="40.7335302" lon="9.6495058"><ele>85.0</ele><time>2026-04-18T18:23:45.123Z</time></trkpt><trkpt lat="40.7337165" lon="9.6494347"><ele>87.0</ele><time>2026-04-18T18:23:46.123Z</time></trkpt><trkpt lat="40.7338991" lon="9.6493576"><ele>89.0</ele><time>2026-04-18T18:23:47.123Z</time></trkpt><trkpt lat="40.7340819" lon="9.6492754"><ele>91.0</ele><time>2026-04-18T18:23:48.123Z</time></trkpt><trkpt lat="40.7342619" lon="9.6491873"><ele>95.0</ele><time>2026-04-18T18:23:49.123Z</time></trkpt><trkpt lat="40.7344382" lon="9.649095"><ele>99.0</ele><time>2026-04-18T18:23:50.123Z</time></trkpt><trkpt lat="40.7346126" lon="9.6489988"><ele>103.0</ele><time>2026-04-18T18:23:51.123Z</time></trkpt><trkpt lat="40.734785" lon="9.6489032"><ele>103.0</ele><time>2026-04-18T18:23:52.123Z</time></trkpt><trkpt lat="40.7349516" lon="9.6487994"><ele>103.0</ele><time>2026-04-18T18:23:53.123Z</time></trkpt><trkpt lat="40.7351201" lon="9.6486907"><ele>103.0</ele><time>2026-04-18T18:23:54.123Z</time></trkpt><trkpt lat="40.7352834" lon="9.6485761"><ele>104.0</ele><time>2026-04-18T18:23:55.123Z</time></trkpt><trkpt lat="40.7354457" lon="9.6484555"><ele>105.0</ele><time>2026-04-18T18:23:56.123Z</time></trkpt><trkpt lat="40.7356053" lon="9.6483285"><ele>106.0</ele><time>2026-04-18T18:23:57.123Z</time></trkpt><trkpt lat="40.7357652" lon="9.6481974"><ele>106.0</ele><time>2026-04-18T18:23:58.123Z</time></trkpt><trkpt lat="40.735926" lon="9.648057"><ele>106.0</ele><time>2026-04-18T18:23:59.123Z</time></trkpt><trkpt lat="40.7360894" lon="9.6479104"><ele>106.0</ele><time>2026-04-18T18:24:00.123Z</time></trkpt><trkpt lat="40.7362472" lon="9.6477629"><ele>105.33333333333334</ele><time>2026-04-18T18:24:01.123Z</time></trkpt><trkpt lat="40.7364013" lon="9.6476078"><ele>104.66666666666666</ele><time>2026-04-18T18:24:02.123Z</time></trkpt><trkpt lat="40.7365549" lon="9.6474449"><ele>104.0</ele><time>2026-04-18T18:24:03.123Z</time></trkpt><trkpt lat="40.7367058" lon="9.647279"><ele>104.0</ele><time>2026-04-18T18:24:04.123Z</time></trkpt><trkpt lat="40.7368564" lon="9.6471096"><ele>104.0</ele><time>2026-04-18T18:24:05.123Z</time></trkpt><trkpt lat="40.7370021" lon="9.6469389"><ele>104.0</ele><time>2026-04-18T18:24:06.123Z</time></trkpt><trkpt lat="40.7371472" lon="9.6467701"><ele>103.33333333333333</ele><time>2026-04-18T18:24:07.123Z</time></trkpt><trkpt lat="40.73729" lon="9.6466052"><ele>102.66666666666666</ele><time>2026-04-18T18:24:08.123Z</time></trkpt><trkpt lat="40.7374294" lon="9.6464478"><ele>102.0</ele><time>2026-04-18T18:24:09.123Z</time></trkpt><trkpt lat="40.7375682" lon="9.6462983"><ele>102.0</ele><time>2026-04-18T18:24:10.122Z</time></trkpt><trkpt lat="40.737709" lon="9.6461483"><ele>102.0</ele><time>2026-04-18T18:24:11.123Z</time></trkpt><trkpt lat="40.7378536" lon="9.6459994"><ele>102.0</ele><time>2026-04-18T18:24:12.123Z</time></trkpt><trkpt lat="40.738002" lon="9.6458394"><ele>101.66666666666666</ele><time>2026-04-18T18:24:13.123Z</time></trkpt><trkpt lat="40.738153" lon="9.6456771"><ele>101.33333333333333</ele><time>2026-04-18T18:24:14.123Z</time></trkpt><trkpt lat="40.7382975" lon="9.6455162"><ele>101.0</ele><time>2026-04-18T18:24:15.123Z</time></trkpt><trkpt lat="40.7384441" lon="9.6453567"><ele>102.0</ele><time>2026-04-18T18:24:16.123Z</time></trkpt><trkpt lat="40.7385931" lon="9.6451961"><ele>103.0</ele><time>2026-04-18T18:24:17.122Z</time></trkpt><trkpt lat="40.7387455" lon="9.6450352"><ele>104.0</ele><time>2026-04-18T18:24:18.123Z</time></trkpt><trkpt lat="40.7388984" lon="9.6448706"><ele>104.0</ele><time>2026-04-18T18:24:19.123Z</time></trkpt><trkpt lat="40.7390486" lon="9.6447002"><ele>104.0</ele><time>2026-04-18T18:24:20.123Z</time></trkpt><trkpt lat="40.7391978" lon="9.6445236"><ele>104.0</ele><time>2026-04-18T18:24:21.123Z</time></trkpt><trkpt lat="40.7393488" lon="9.644353"><ele>110.33333333333333</ele><time>2026-04-18T18:24:22.123Z</time></trkpt><trkpt lat="40.7394956" lon="9.6441858"><ele>116.66666666666666</ele><time>2026-04-18T18:24:23.123Z</time></trkpt><trkpt lat="40.7396403" lon="9.6440158"><ele>123.0</ele><time>2026-04-18T18:24:24.123Z</time></trkpt><trkpt lat="40.7397788" lon="9.6438503"><ele>123.0</ele><time>2026-04-18T18:24:25.123Z</time></trkpt><trkpt lat="40.7399168" lon="9.6436839"><ele>123.0</ele><time>2026-04-18T18:24:26.123Z</time></trkpt><trkpt lat="40.7417637" lon="9.6415345"><ele>117.66666666666666</ele><time>2026-04-18T18:24:39.123Z</time></trkpt><trkpt lat="40.7418803" lon="9.6413977"><ele>112.33333333333333</ele><time>2026-04-18T18:24:40.123Z</time></trkpt><trkpt lat="40.742018" lon="9.6412418"><ele>107.0</ele><time>2026-04-18T18:24:41.123Z</time></trkpt><trkpt lat="40.7421616" lon="9.6410683"><ele>102.66666666666666</ele><time>2026-04-18T18:24:42.123Z</time></trkpt><trkpt lat="40.7423132" lon="9.6409028"><ele>98.33333333333333</ele><time>2026-04-18T18:24:43.123Z</time></trkpt><trkpt lat="40.7424571" lon="9.6407344"><ele>94.0</ele><time>2026-04-18T18:24:44.123Z</time></trkpt><trkpt lat="40.7426023" lon="9.6405684"><ele>94.0</ele><time>2026-04-18T18:24:45.123Z</time></trkpt><trkpt lat="40.7427478" lon="9.6404015"><ele>94.0</ele><time>2026-04-18T18:24:46.123Z</time></trkpt><trkpt lat="40.7428995" lon="9.6402357"><ele>94.0</ele><time>2026-04-18T18:24:47.122Z</time></trkpt><trkpt lat="40.7430578" lon="9.6400771"><ele>94.0</ele><time>2026-04-18T18:24:48.123Z</time></trkpt><trkpt lat="40.7432187" lon="9.6399261"><ele>94.0</ele><time>2026-04-18T18:24:49.123Z</time></trkpt><trkpt lat="40.7433805" lon="9.6397827"><ele>94.0</ele><time>2026-04-18T18:24:50.123Z</time></trkpt><trkpt lat="40.7435521" lon="9.6396469"><ele>94.33333333333333</ele><time>2026-04-18T18:24:51.123Z</time></trkpt><trkpt lat="40.7437318" lon="9.6395185"><ele>94.66666666666667</ele><time>2026-04-18T18:24:52.123Z</time></trkpt><trkpt lat="40.7439255" lon="9.6393965"><ele>95.0</ele><time>2026-04-18T18:24:53.123Z</time></trkpt><trkpt lat="40.7441284" lon="9.6392878"><ele>98.5</ele><time>2026-04-18T18:24:54.123Z</time></trkpt><trkpt lat="40.7443433" lon="9.6391903"><ele>102.0</ele><time>2026-04-18T18:24:55.123Z</time></trkpt><trkpt lat="40.7445735" lon="9.6390986"><ele>103.0</ele><time>2026-04-18T18:24:56.123Z</time></trkpt><trkpt lat="40.744807" lon="9.6390255"><ele>104.0</ele><time>2026-04-18T18:24:57.123Z</time></trkpt><trkpt lat="40.7450463" lon="9.6389657"><ele>101.0</ele><time>2026-04-18T18:24:58.123Z</time></trkpt><trkpt lat="40.7452964" lon="9.6389328"><ele>98.0</ele><time>2026-04-18T18:24:59.123Z</time></trkpt><trkpt lat="40.7455505" lon="9.6389152"><ele>98.0</ele><time>2026-04-18T18:25:00.123Z</time></trkpt><trkpt lat="40.7458035" lon="9.6389129"><ele>98.0</ele><time>2026-04-18T18:25:01.123Z</time></trkpt><trkpt lat="40.7460526" lon="9.6389256"><ele>96.0</ele><time>2026-04-18T18:25:02.122Z</time></trkpt><trkpt lat="40.7463047" lon="9.6389634"><ele>94.0</ele><time>2026-04-18T18:25:03.122Z</time></trkpt><trkpt lat="40.7465568" lon="9.6390219"><ele>94.0</ele><time>2026-04-18T18:25:04.123Z</time></trkpt><trkpt lat="40.7468065" lon="9.6391037"><ele>94.0</ele><time>2026-04-18T18:25:05.123Z</time></trkpt><trkpt lat="40.7470471" lon="9.6391994"><ele>97.0</ele><time>2026-04-18T18:25:06.123Z</time></trkpt><trkpt lat="40.7472811" lon="9.6393162"><ele>100.0</ele><time>2026-04-18T18:25:07.122Z</time></trkpt><trkpt lat="40.7475132" lon="9.6394408"><ele>102.0</ele><time>2026-04-18T18:25:08.123Z</time></trkpt><trkpt lat="40.7477475" lon="9.6395715"><ele>104.0</ele><time>2026-04-18T18:25:09.123Z</time></trkpt><trkpt lat="40.7479846" lon="9.6397135"><ele>104.0</ele><time>2026-04-18T18:25:10.123Z</time></trkpt><trkpt lat="40.7482199" lon="9.6398567"><ele>104.0</ele><time>2026-04-18T18:25:11.123Z</time></trkpt><trkpt lat="40.7484536" lon="9.6400001"><ele>101.5</ele><time>2026-04-18T18:25:12.123Z</time></trkpt><trkpt lat="40.7486857" lon="9.6401365"><ele>99.0</ele><time>2026-04-18T18:25:13.123Z</time></trkpt><trkpt lat="40.7489199" lon="9.6402651"><ele>96.5</ele><time>2026-04-18T18:25:14.123Z</time></trkpt><trkpt lat="40.749156" lon="9.640386"><ele>94.0</ele><time>2026-04-18T18:25:15.123Z</time></trkpt><trkpt lat="40.7493935" lon="9.6404986"><ele>94.0</ele><time>2026-04-18T18:25:16.122Z</time></trkpt><trkpt lat="40.7496327" lon="9.640599"><ele>94.0</ele><time>2026-04-18T18:25:17.123Z</time></trkpt><trkpt lat="40.7498791" lon="9.6406834"><ele>94.0</ele><time>2026-04-18T18:25:18.123Z</time></trkpt><trkpt lat="40.7501312" lon="9.6407513"><ele>94.0</ele><time>2026-04-18T18:25:19.123Z</time></trkpt><trkpt lat="40.7503847" lon="9.6407998"><ele>91.0</ele><time>2026-04-18T18:25:20.123Z</time></trkpt><trkpt lat="40.7506369" lon="9.640832"><ele>88.0</ele><time>2026-04-18T18:25:21.123Z</time></trkpt><trkpt lat="40.7508846" lon="9.6408428"><ele>82.5</ele><time>2026-04-18T18:25:22.123Z</time></trkpt><trkpt lat="40.7511336" lon="9.6408351"><ele>77.0</ele><time>2026-04-18T18:25:23.122Z</time></trkpt><trkpt lat="40.7513756" lon="9.6408121"><ele>77.0</ele><time>2026-04-18T18:25:24.123Z</time></trkpt><trkpt lat="40.7516185" lon="9.6407751"><ele>77.0</ele><time>2026-04-18T18:25:25.122Z</time></trkpt><trkpt lat="40.7518592" lon="9.6407214"><ele>74.0</ele><time>2026-04-18T18:25:26.123Z</time></trkpt><trkpt lat="40.752097" lon="9.6406456"><ele>71.0</ele><time>2026-04-18T18:25:27.122Z</time></trkpt><trkpt lat="40.7523255" lon="9.6405489"><ele>71.0</ele><time>2026-04-18T18:25:28.123Z</time></trkpt><trkpt lat="40.7525595" lon="9.640436"><ele>71.0</ele><time>2026-04-18T18:25:29.123Z</time></trkpt><trkpt lat="40.7527895" lon="9.6403137"><ele>71.0</ele><time>2026-04-18T18:25:30.123Z</time></trkpt><trkpt lat="40.7530152" lon="9.6401993"><ele>71.0</ele><time>2026-04-18T18:25:31.122Z</time></trkpt><trkpt lat="40.7532365" lon="9.6400815"><ele>71.0</ele><time>2026-04-18T18:25:32.123Z</time></trkpt><trkpt lat="40.7534575" lon="9.6399638"><ele>71.0</ele><time>2026-04-18T18:25:33.123Z</time></trkpt><trkpt lat="40.7536824" lon="9.6398544"><ele>68.0</ele><time>2026-04-18T18:25:34.123Z</time></trkpt><trkpt lat="40.7539132" lon="9.639744"><ele>65.0</ele><time>2026-04-18T18:25:35.123Z</time></trkpt><trkpt lat="40.7541415" lon="9.6396527"><ele>61.0</ele><time>2026-04-18T18:25:36.123Z</time></trkpt><trkpt lat="40.7543763" lon="9.6395753"><ele>57.0</ele><time>2026-04-18T18:25:37.123Z</time></trkpt><trkpt lat="40.7546118" lon="9.6395194"><ele>57.0</ele><time>2026-04-18T18:25:38.123Z</time></trkpt><trkpt lat="40.7548499" lon="9.6394813"><ele>57.0</ele><time>2026-04-18T18:25:39.122Z</time></trkpt><trkpt lat="40.7550896" lon="9.63946"><ele>58.5</ele><time>2026-04-18T18:25:40.123Z</time></trkpt><trkpt lat="40.7553288" lon="9.6394521"><ele>60.0</ele><time>2026-04-18T18:25:41.123Z</time></trkpt><trkpt lat="40.7555675" lon="9.6394621"><ele>56.5</ele><time>2026-04-18T18:25:42.123Z</time></trkpt><trkpt lat="40.7558025" lon="9.6394882"><ele>53.0</ele><time>2026-04-18T18:25:43.123Z</time></trkpt><trkpt lat="40.7560381" lon="9.6395349"><ele>53.0</ele><time>2026-04-18T18:25:44.123Z</time></trkpt><trkpt lat="40.7562699" lon="9.6395954"><ele>53.0</ele><time>2026-04-18T18:25:45.122Z</time></trkpt><trkpt lat="40.7564974" lon="9.6396697"><ele>53.0</ele><time>2026-04-18T18:25:46.123Z</time></trkpt><trkpt lat="40.7567188" lon="9.6397605"><ele>53.0</ele><time>2026-04-18T18:25:47.123Z</time></trkpt><trkpt lat="40.7569354" lon="9.6398658"><ele>60.0</ele><time>2026-04-18T18:25:48.123Z</time></trkpt><trkpt lat="40.7571483" lon="9.6399836"><ele>67.0</ele><time>2026-04-18T18:25:49.122Z</time></trkpt><trkpt lat="40.7573591" lon="9.6401186"><ele>67.0</ele><time>2026-04-18T18:25:50.123Z</time></trkpt><trkpt lat="40.757568" lon="9.640269"><ele>67.0</ele><time>2026-04-18T18:25:51.123Z</time></trkpt><trkpt lat="40.7577746" lon="9.6404392"><ele>65.0</ele><time>2026-04-18T18:25:52.123Z</time></trkpt><trkpt lat="40.7579793" lon="9.6406286"><ele>63.0</ele><time>2026-04-18T18:25:53.123Z</time></trkpt><trkpt lat="40.7581739" lon="9.6408388"><ele>63.0</ele><time>2026-04-18T18:25:54.123Z</time></trkpt><trkpt lat="40.758362" lon="9.6410643"><ele>63.0</ele><time>2026-04-18T18:25:55.123Z</time></trkpt><trkpt lat="40.7585458" lon="9.6412956"><ele>62.5</ele><time>2026-04-18T18:25:56.123Z</time></trkpt><trkpt lat="40.7587266" lon="9.6415285"><ele>62.0</ele><time>2026-04-18T18:25:57.123Z</time></trkpt><trkpt lat="40.7589089" lon="9.6417612"><ele>62.5</ele><time>2026-04-18T18:25:58.122Z</time></trkpt><trkpt lat="40.7590895" lon="9.6419987"><ele>63.0</ele><time>2026-04-18T18:25:59.123Z</time></trkpt><trkpt lat="40.7592772" lon="9.642224"><ele>63.5</ele><time>2026-04-18T18:26:00.123Z</time></trkpt><trkpt lat="40.7594699" lon="9.6424449"><ele>64.0</ele><time>2026-04-18T18:26:01.123Z</time></trkpt><trkpt lat="40.7596755" lon="9.642652"><ele>60.0</ele><time>2026-04-18T18:26:02.122Z</time></trkpt><trkpt lat="40.7598917" lon="9.6428438"><ele>56.0</ele><time>2026-04-18T18:26:03.123Z</time></trkpt><trkpt lat="40.7601156" lon="9.6430237"><ele>61.5</ele><time>2026-04-18T18:26:04.122Z</time></trkpt><trkpt lat="40.7603489" lon="9.6431875"><ele>67.0</ele><time>2026-04-18T18:26:05.123Z</time></trkpt><trkpt lat="40.7605887" lon="9.6433377"><ele>67.0</ele><time>2026-04-18T18:26:06.123Z</time></trkpt><trkpt lat="40.7608329" lon="9.6434723"><ele>67.0</ele><time>2026-04-18T18:26:07.123Z</time></trkpt><trkpt lat="40.7610834" lon="9.6435834"><ele>72.0</ele><time>2026-04-18T18:26:08.123Z</time></trkpt><trkpt lat="40.7613347" lon="9.6436785"><ele>77.0</ele><time>2026-04-18T18:26:09.123Z</time></trkpt><trkpt lat="40.7615883" lon="9.6437528"><ele>77.0</ele><time>2026-04-18T18:26:10.123Z</time></trkpt><trkpt lat="40.7618424" lon="9.643809"><ele>77.0</ele><time>2026-04-18T18:26:11.123Z</time></trkpt><trkpt lat="40.7627015" lon="9.6438527"><ele>60.0</ele><time>2026-04-18T18:26:14.123Z</time></trkpt><trkpt lat="40.7555675" lon="9.6394621"><ele>56.5</ele><time>2026-04-18T18:25:42.123Z</time></trkpt><trkpt lat="40.7558025" lon="9.6394882"><ele>53.0</ele><time>2026-04-18T18:25:43.123Z</time></trkpt><trkpt lat="40.7560381" lon="9.6395349"><ele>53.0</ele><time>2026-04-18T18:25:44.123Z</time></trkpt><trkpt lat="40.7562699" lon="9.6395954"><ele>53.0</ele><time>2026-04-18T18:25:45.122Z</time></trkpt><trkpt lat="40.7564974" lon="9.6396697"><ele>53.0</ele><time>2026-04-18T18:25:46.123Z</time></trkpt><trkpt lat="40.7567188" lon="9.6397605"><ele>53.0</ele><time>2026-04-18T18:25:47.123Z</time></trkpt><trkpt lat="40.7569354" lon="9.6398658"><ele>60.0</ele><time>2026-04-18T18:25:48.123Z</time></trkpt><trkpt lat="40.7571483" lon="9.6399836"><ele>67.0</ele><time>2026-04-18T18:25:49.122Z</time></trkpt><trkpt lat="40.7573591" lon="9.6401186"><ele>67.0</ele><time>2026-04-18T18:25:50.123Z</time></trkpt><trkpt lat="40.757568" lon="9.640269"><ele>67.0</ele><time>2026-04-18T18:25:51.123Z</time></trkpt><trkpt lat="40.7577746" lon="9.6404392"><ele>65.0</ele><time>2026-04-18T18:25:52.123Z</time></trkpt><trkpt lat="40.7579793" lon="9.6406286"><ele>63.0</ele><time>2026-04-18T18:25:53.123Z</time></trkpt><trkpt lat="40.7581739" lon="9.6408388"><ele>63.0</ele><time>2026-04-18T18:25:54.123Z</time></trkpt><trkpt lat="40.758362" lon="9.6410643"><ele>63.0</ele><time>2026-04-18T18:25:55.123Z</time></trkpt><trkpt lat="40.7585458" lon="9.6412956"><ele>62.5</ele><time>2026-04-18T18:25:56.123Z</time></trkpt><trkpt lat="40.7587266" lon="9.6415285"><ele>62.0</ele><time>2026-04-18T18:25:57.123Z</time></trkpt><trkpt lat="40.7589089" lon="9.6417612"><ele>62.5</ele><time>2026-04-18T18:25:58.122Z</time></trkpt><trkpt lat="40.7590895" lon="9.6419987"><ele>63.0</ele><time>2026-04-18T18:25:59.123Z</time></trkpt><trkpt lat="40.7592772" lon="9.642224"><ele>63.5</ele><time>2026-04-18T18:26:00.123Z</time></trkpt><trkpt lat="40.7594699" lon="9.6424449"><ele>64.0</ele><time>2026-04-18T18:26:01.123Z</time></trkpt><trkpt lat="40.7596755" lon="9.642652"><ele>60.0</ele><time>2026-04-18T18:26:02.122Z</time></trkpt><trkpt lat="40.7598917" lon="9.6428438"><ele>56.0</ele><time>2026-04-18T18:26:03.123Z</time></trkpt><trkpt lat="40.7601156" lon="9.6430237"><ele>61.5</ele><time>2026-04-18T18:26:04.122Z</time></trkpt><trkpt lat="40.7603489" lon="9.6431875"><ele>67.0</ele><time>2026-04-18T18:26:05.123Z</time></trkpt><trkpt lat="40.7605887" lon="9.6433377"><ele>67.0</ele><time>2026-04-18T18:26:06.123Z</time></trkpt><trkpt lat="40.7608329" lon="9.6434723"><ele>67.0</ele><time>2026-04-18T18:26:07.123Z</time></trkpt><trkpt lat="40.7610834" lon="9.6435834"><ele>72.0</ele><time>2026-04-18T18:26:08.123Z</time></trkpt><trkpt lat="40.7613347" lon="9.6436785"><ele>77.0</ele><time>2026-04-18T18:26:09.123Z</time></trkpt><trkpt lat="40.7615883" lon="9.6437528"><ele>77.0</ele><time>2026-04-18T18:26:10.123Z</time></trkpt><trkpt lat="40.7618424" lon="9.643809"><ele>77.0</ele><time>2026-04-18T18:26:11.123Z</time></trkpt><trkpt lat="40.7627015" lon="9.6438527"><ele>60.0</ele><time>2026-04-18T18:26:14.123Z</time></trkpt><trkpt lat="40.762963" lon="9.6438062"><ele>43.0</ele><time>2026-04-18T18:26:15.123Z</time></trkpt><trkpt lat="40.7632308" lon="9.6437521"><ele>43.0</ele><time>2026-04-18T18:26:16.123Z</time></trkpt><trkpt lat="40.7634934" lon="9.6436683"><ele>43.0</ele><time>2026-04-18T18:26:17.123Z</time></trkpt><trkpt lat="40.763762" lon="9.6435697"><ele>44.0</ele><time>2026-04-18T18:26:18.122Z</time></trkpt><trkpt lat="40.764026" lon="9.6434472"><ele>45.0</ele><time>2026-04-18T18:26:19.122Z</time></trkpt><trkpt lat="40.7642841" lon="9.6433053"><ele>49.0</ele><time>2026-04-18T18:26:20.123Z</time></trkpt><trkpt lat="40.7645346" lon="9.6431437"><ele>53.0</ele><time>2026-04-18T18:26:21.123Z</time></trkpt><trkpt lat="40.7647799" lon="9.6429578"><ele>53.5</ele><time>2026-04-18T18:26:22.123Z</time></trkpt><trkpt lat="40.7650164" lon="9.6427524"><ele>54.0</ele><time>2026-04-18T18:26:23.123Z</time></trkpt><trkpt lat="40.765242" lon="9.6425351"><ele>58.0</ele><time>2026-04-18T18:26:24.123Z</time></trkpt><trkpt lat="40.7654593" lon="9.6423049"><ele>62.0</ele><time>2026-04-18T18:26:25.123Z</time></trkpt><trkpt lat="40.7656769" lon="9.6420701"><ele>63.5</ele><time>2026-04-18T18:26:26.123Z</time></trkpt><trkpt lat="40.7658926" lon="9.6418401"><ele>65.0</ele><time>2026-04-18T18:26:27.123Z</time></trkpt><trkpt lat="40.7661069" lon="9.6416099"><ele>65.0</ele><time>2026-04-18T18:26:28.123Z</time></trkpt><trkpt lat="40.7663226" lon="9.641378"><ele>65.0</ele><time>2026-04-18T18:26:29.123Z</time></trkpt><trkpt lat="40.7665381" lon="9.6411466"><ele>61.5</ele><time>2026-04-18T18:26:30.123Z</time></trkpt><trkpt lat="40.7667512" lon="9.6409127"><ele>58.0</ele><time>2026-04-18T18:26:31.123Z</time></trkpt><trkpt lat="40.7669633" lon="9.6406786"><ele>58.0</ele><time>2026-04-18T18:26:32.123Z</time></trkpt><trkpt lat="40.7671769" lon="9.6404425"><ele>58.0</ele><time>2026-04-18T18:26:33.123Z</time></trkpt><trkpt lat="40.7673955" lon="9.6401983"><ele>59.0</ele><time>2026-04-18T18:26:34.123Z</time></trkpt><trkpt lat="40.7676295" lon="9.639931"><ele>60.0</ele><time>2026-04-18T18:26:35.122Z</time></trkpt><trkpt lat="40.7678564" lon="9.6396675"><ele>62.0</ele><time>2026-04-18T18:26:36.123Z</time></trkpt><trkpt lat="40.7681025" lon="9.639391"><ele>64.0</ele><time>2026-04-18T18:26:37.123Z</time></trkpt><trkpt lat="40.7683374" lon="9.6391248"><ele>63.5</ele><time>2026-04-18T18:26:38.123Z</time></trkpt><trkpt lat="40.7685753" lon="9.6388693"><ele>63.0</ele><time>2026-04-18T18:26:39.123Z</time></trkpt><trkpt lat="40.7688085" lon="9.6386153"><ele>63.0</ele><time>2026-04-18T18:26:40.123Z</time></trkpt><trkpt lat="40.7690343" lon="9.6383672"><ele>63.0</ele><time>2026-04-18T18:26:41.123Z</time></trkpt><trkpt lat="40.7692657" lon="9.6381291"><ele>67.0</ele><time>2026-04-18T18:26:42.122Z</time></trkpt><trkpt lat="40.7694875" lon="9.6378869"><ele>71.0</ele><time>2026-04-18T18:26:43.123Z</time></trkpt><trkpt lat="40.7696999" lon="9.6376382"><ele>71.0</ele><time>2026-04-18T18:26:44.122Z</time></trkpt><trkpt lat="40.7699132" lon="9.6373809"><ele>71.0</ele><time>2026-04-18T18:26:45.122Z</time></trkpt><trkpt lat="40.770113" lon="9.6371079"><ele>79.5</ele><time>2026-04-18T18:26:46.123Z</time></trkpt><trkpt lat="40.7703094" lon="9.6368294"><ele>88.0</ele><time>2026-04-18T18:26:47.123Z</time></trkpt><trkpt lat="40.7704987" lon="9.6365434"><ele>88.0</ele><time>2026-04-18T18:26:48.122Z</time></trkpt><trkpt lat="40.7706794" lon="9.6362445"><ele>88.0</ele><time>2026-04-18T18:26:49.123Z</time></trkpt><trkpt lat="40.7708566" lon="9.6359323"><ele>85.0</ele><time>2026-04-18T18:26:50.123Z</time></trkpt><trkpt lat="40.7710218" lon="9.63561"><ele>82.0</ele><time>2026-04-18T18:26:51.123Z</time></trkpt><trkpt lat="40.7711713" lon="9.6353095"><ele>86.0</ele><time>2026-04-18T18:26:52.123Z</time></trkpt><trkpt lat="40.7713144" lon="9.6349645"><ele>90.0</ele><time>2026-04-18T18:26:53.123Z</time></trkpt><trkpt lat="40.7714508" lon="9.6346327"><ele>86.0</ele><time>2026-04-18T18:26:54.123Z</time></trkpt><trkpt lat="40.7715797" lon="9.6342987"><ele>82.0</ele><time>2026-04-18T18:26:55.123Z</time></trkpt><trkpt lat="40.7716908" lon="9.6339531"><ele>81.5</ele><time>2026-04-18T18:26:56.123Z</time></trkpt><trkpt lat="40.7718011" lon="9.6336095"><ele>81.0</ele><time>2026-04-18T18:26:57.122Z</time></trkpt><trkpt lat="40.7718898" lon="9.6332619"><ele>84.0</ele><time>2026-04-18T18:26:58.123Z</time></trkpt><trkpt lat="40.771977" lon="9.6329148"><ele>87.0</ele><time>2026-04-18T18:26:59.122Z</time></trkpt><trkpt lat="40.7720597" lon="9.6325642"><ele>91.0</ele><time>2026-04-18T18:27:00.123Z</time></trkpt><trkpt lat="40.7721378" lon="9.6322217"><ele>95.0</ele><time>2026-04-18T18:27:01.123Z</time></trkpt><trkpt lat="40.772205" lon="9.631879"><ele>95.5</ele><time>2026-04-18T18:27:02.123Z</time></trkpt><trkpt lat="40.7722784" lon="9.631541"><ele>96.0</ele><time>2026-04-18T18:27:03.123Z</time></trkpt><trkpt lat="40.7723506" lon="9.6312015"><ele>92.0</ele><time>2026-04-18T18:27:04.123Z</time></trkpt><trkpt lat="40.7724282" lon="9.6308535"><ele>88.0</ele><time>2026-04-18T18:27:05.123Z</time></trkpt><trkpt lat="40.7724995" lon="9.6305134"><ele>91.5</ele><time>2026-04-18T18:27:06.123Z</time></trkpt><trkpt lat="40.7725817" lon="9.6301784"><ele>95.0</ele><time>2026-04-18T18:27:07.123Z</time></trkpt><trkpt lat="40.7726684" lon="9.6298525"><ele>99.5</ele><time>2026-04-18T18:27:08.123Z</time></trkpt><trkpt lat="40.7727566" lon="9.6295284"><ele>104.0</ele><time>2026-04-18T18:27:09.122Z</time></trkpt><trkpt lat="40.772862" lon="9.6292106"><ele>103.5</ele><time>2026-04-18T18:27:10.123Z</time></trkpt><trkpt lat="40.7729592" lon="9.6288857"><ele>103.0</ele><time>2026-04-18T18:27:11.123Z</time></trkpt><trkpt lat="40.7730608" lon="9.6285602"><ele>103.0</ele><time>2026-04-18T18:27:12.123Z</time></trkpt><trkpt lat="40.7731736" lon="9.6282336"><ele>103.0</ele><time>2026-04-18T18:27:13.123Z</time></trkpt><trkpt lat="40.7732918" lon="9.6279034"><ele>101.0</ele><time>2026-04-18T18:27:14.122Z</time></trkpt><trkpt lat="40.7734181" lon="9.6275773"><ele>99.0</ele><time>2026-04-18T18:27:15.123Z</time></trkpt><trkpt lat="40.7735494" lon="9.6272586"><ele>105.5</ele><time>2026-04-18T18:27:16.123Z</time></trkpt><trkpt lat="40.7736894" lon="9.6269436"><ele>112.0</ele><time>2026-04-18T18:27:17.123Z</time></trkpt><trkpt lat="40.7738389" lon="9.6266306"><ele>112.0</ele><time>2026-04-18T18:27:18.122Z</time></trkpt><trkpt lat="40.7739817" lon="9.626321"><ele>112.0</ele><time>2026-04-18T18:27:19.123Z</time></trkpt><trkpt lat="40.7741549" lon="9.6260181"><ele>117.5</ele><time>2026-04-18T18:27:20.123Z</time></trkpt><trkpt lat="40.7743238" lon="9.6257248"><ele>123.0</ele><time>2026-04-18T18:27:21.123Z</time></trkpt><trkpt lat="40.7744951" lon="9.6254352"><ele>125.5</ele><time>2026-04-18T18:27:22.123Z</time></trkpt><trkpt lat="40.7746693" lon="9.6251487"><ele>128.0</ele><time>2026-04-18T18:27:23.122Z</time></trkpt><trkpt lat="40.7748524" lon="9.624868"><ele>128.0</ele><time>2026-04-18T18:27:24.123Z</time></trkpt><trkpt lat="40.7750378" lon="9.6245946"><ele>128.0</ele><time>2026-04-18T18:27:25.123Z</time></trkpt><trkpt lat="40.7752192" lon="9.6243304"><ele>128.5</ele><time>2026-04-18T18:27:26.123Z</time></trkpt><trkpt lat="40.7754128" lon="9.624073"><ele>129.0</ele><time>2026-04-18T18:27:27.123Z</time></trkpt><trkpt lat="40.7756023" lon="9.6238179"><ele>134.5</ele><time>2026-04-18T18:27:28.123Z</time></trkpt><trkpt lat="40.7757991" lon="9.6235709"><ele>140.0</ele><time>2026-04-18T18:27:29.123Z</time></trkpt><trkpt lat="40.7760016" lon="9.6233261"><ele>138.5</ele><time>2026-04-18T18:27:30.123Z</time></trkpt><trkpt lat="40.7762107" lon="9.6230916"><ele>137.0</ele><time>2026-04-18T18:27:31.123Z</time></trkpt><trkpt lat="40.7764236" lon="9.6228617"><ele>140.5</ele><time>2026-04-18T18:27:32.123Z</time></trkpt><trkpt lat="40.7766413" lon="9.6226381"><ele>144.0</ele><time>2026-04-18T18:27:33.122Z</time></trkpt><trkpt lat="40.7768601" lon="9.6224192"><ele>144.0</ele><time>2026-04-18T18:27:34.123Z</time></trkpt><trkpt lat="40.7770839" lon="9.6222073"><ele>144.0</ele><time>2026-04-18T18:27:35.123Z</time></trkpt><trkpt lat="40.7773116" lon="9.622002"><ele>144.5</ele><time>2026-04-18T18:27:36.122Z</time></trkpt><trkpt lat="40.7775442" lon="9.6218016"><ele>145.0</ele><time>2026-04-18T18:27:37.123Z</time></trkpt><trkpt lat="40.7777824" lon="9.6216085"><ele>145.0</ele><time>2026-04-18T18:27:38.123Z</time></trkpt><trkpt lat="40.7780261" lon="9.6214198"><ele>145.0</ele><time>2026-04-18T18:27:39.122Z</time></trkpt><trkpt lat="40.7782707" lon="9.6212396"><ele>146.5</ele><time>2026-04-18T18:27:40.123Z</time></trkpt><trkpt lat="40.7785198" lon="9.6210651"><ele>148.0</ele><time>2026-04-18T18:27:41.123Z</time></trkpt><trkpt lat="40.7884431" lon="9.6150825"><ele>110.5</ele><time>2026-04-18T18:28:17.123Z</time></trkpt><trkpt lat="40.7886608" lon="9.6148504"><ele>73.0</ele><time>2026-04-18T18:28:18.123Z</time></trkpt><trkpt lat="40.7888861" lon="9.6146095"><ele>76.5</ele><time>2026-04-18T18:28:19.122Z</time></trkpt><trkpt lat="40.7891103" lon="9.6143621"><ele>80.0</ele><time>2026-04-18T18:28:20.123Z</time></trkpt><trkpt lat="40.7893214" lon="9.6141083"><ele>79.5</ele><time>2026-04-18T18:28:21.123Z</time></trkpt><trkpt lat="40.7895315" lon="9.613842"><ele>79.0</ele><time>2026-04-18T18:28:22.123Z</time></trkpt><trkpt lat="40.7897373" lon="9.6135702"><ele>79.0</ele><time>2026-04-18T18:28:23.123Z</time></trkpt><trkpt lat="40.7899358" lon="9.6132943"><ele>79.0</ele><time>2026-04-18T18:28:24.123Z</time></trkpt><trkpt lat="40.790134" lon="9.6130183"><ele>86.5</ele><time>2026-04-18T18:28:25.123Z</time></trkpt><trkpt lat="40.7903272" lon="9.6127385"><ele>94.0</ele><time>2026-04-18T18:28:26.123Z</time></trkpt><trkpt lat="40.7905175" lon="9.6124584"><ele>94.0</ele><time>2026-04-18T18:28:27.123Z</time></trkpt><trkpt lat="40.7907122" lon="9.6121821"><ele>94.0</ele><time>2026-04-18T18:28:28.123Z</time></trkpt><trkpt lat="40.7909132" lon="9.6119202"><ele>86.5</ele><time>2026-04-18T18:28:29.123Z</time></trkpt><trkpt lat="40.7911234" lon="9.6116719"><ele>79.0</ele><time>2026-04-18T18:28:30.123Z</time></trkpt><trkpt lat="40.7913407" lon="9.6114374"><ele>79.0</ele><time>2026-04-18T18:28:31.122Z</time></trkpt><trkpt lat="40.7915618" lon="9.6112159"><ele>79.0</ele><time>2026-04-18T18:28:32.123Z</time></trkpt><trkpt lat="40.7917882" lon="9.6110061"><ele>90.5</ele><time>2026-04-18T18:28:33.123Z</time></trkpt><trkpt lat="40.7920232" lon="9.6108158"><ele>102.0</ele><time>2026-04-18T18:28:34.123Z</time></trkpt><trkpt lat="40.7922624" lon="9.6106352"><ele>102.0</ele><time>2026-04-18T18:28:35.123Z</time></trkpt><trkpt lat="40.7925062" lon="9.6104726"><ele>102.0</ele><time>2026-04-18T18:28:36.123Z</time></trkpt><trkpt lat="40.7927554" lon="9.6103178"><ele>117.5</ele><time>2026-04-18T18:28:37.123Z</time></trkpt><trkpt lat="40.7930018" lon="9.6101737"><ele>133.0</ele><time>2026-04-18T18:28:38.123Z</time></trkpt><trkpt lat="40.79325" lon="9.610039"><ele>133.0</ele><time>2026-04-18T18:28:39.123Z</time></trkpt><trkpt lat="40.7935" lon="9.6098961"><ele>133.0</ele><time>2026-04-18T18:28:40.122Z</time></trkpt><trkpt lat="40.7937451" lon="9.6097517"><ele>133.0</ele><time>2026-04-18T18:28:41.123Z</time></trkpt><trkpt lat="40.7939875" lon="9.6095969"><ele>133.0</ele><time>2026-04-18T18:28:42.123Z</time></trkpt><trkpt lat="40.7942246" lon="9.6094257"><ele>133.0</ele><time>2026-04-18T18:28:43.123Z</time></trkpt><trkpt lat="40.7944568" lon="9.6092403"><ele>133.0</ele><time>2026-04-18T18:28:44.123Z</time></trkpt><trkpt lat="40.7946797" lon="9.609043"><ele>133.0</ele><time>2026-04-18T18:28:45.123Z</time></trkpt><trkpt lat="40.7948954" lon="9.6088308"><ele>133.0</ele><time>2026-04-18T18:28:46.123Z</time></trkpt><trkpt lat="40.7951034" lon="9.6086073"><ele>137.0</ele><time>2026-04-18T18:28:47.122Z</time></trkpt><trkpt lat="40.7953045" lon="9.6083738"><ele>141.0</ele><time>2026-04-18T18:28:48.123Z</time></trkpt><trkpt lat="40.7954982" lon="9.608126"><ele>141.0</ele><time>2026-04-18T18:28:49.123Z</time></trkpt><trkpt lat="40.7956827" lon="9.6078624"><ele>141.0</ele><time>2026-04-18T18:28:50.123Z</time></trkpt><trkpt lat="40.7958564" lon="9.6075842"><ele>139.0</ele><time>2026-04-18T18:28:51.123Z</time></trkpt><trkpt lat="40.7960205" lon="9.6072975"><ele>137.0</ele><time>2026-04-18T18:28:52.123Z</time></trkpt><trkpt lat="40.7961745" lon="9.6069881"><ele>135.0</ele><time>2026-04-18T18:28:53.123Z</time></trkpt><trkpt lat="40.7963182" lon="9.6066645"><ele>133.0</ele><time>2026-04-18T18:28:54.123Z</time></trkpt><trkpt lat="40.7964474" lon="9.6063352"><ele>131.5</ele><time>2026-04-18T18:28:55.123Z</time></trkpt><trkpt lat="40.7965652" lon="9.6060005"><ele>130.0</ele><time>2026-04-18T18:28:56.123Z</time></trkpt><trkpt lat="40.7966677" lon="9.6056597"><ele>130.0</ele><time>2026-04-18T18:28:57.122Z</time></trkpt><trkpt lat="40.7967604" lon="9.6053128"><ele>130.0</ele><time>2026-04-18T18:28:58.123Z</time></trkpt><trkpt lat="40.7968388" lon="9.6049592"><ele>124.5</ele><time>2026-04-18T18:28:59.123Z</time></trkpt><trkpt lat="40.7969033" lon="9.6045981"><ele>119.0</ele><time>2026-04-18T18:29:00.122Z</time></trkpt><trkpt lat="40.7969511" lon="9.6042288"><ele>118.5</ele><time>2026-04-18T18:29:01.123Z</time></trkpt><trkpt lat="40.7969844" lon="9.6038567"><ele>118.0</ele><time>2026-04-18T18:29:02.122Z</time></trkpt><trkpt lat="40.7970055" lon="9.6034793"><ele>121.0</ele><time>2026-04-18T18:29:03.123Z</time></trkpt><trkpt lat="40.7970109" lon="9.6030932"><ele>124.0</ele><time>2026-04-18T18:29:04.123Z</time></trkpt><trkpt lat="40.7970031" lon="9.6027046"><ele>126.5</ele><time>2026-04-18T18:29:05.123Z</time></trkpt><trkpt lat="40.7969766" lon="9.6023165"><ele>129.0</ele><time>2026-04-18T18:29:06.123Z</time></trkpt><trkpt lat="40.7969368" lon="9.6019278"><ele>129.0</ele><time>2026-04-18T18:29:07.123Z</time></trkpt><trkpt lat="40.7968841" lon="9.6015444"><ele>129.0</ele><time>2026-04-18T18:29:08.123Z</time></trkpt><trkpt lat="40.7968275" lon="9.6011696"><ele>140.0</ele><time>2026-04-18T18:29:09.123Z</time></trkpt><trkpt lat="40.7967732" lon="9.6008039"><ele>151.0</ele><time>2026-04-18T18:29:10.123Z</time></trkpt><trkpt lat="40.7967199" lon="9.6004416"><ele>149.5</ele><time>2026-04-18T18:29:11.123Z</time></trkpt><trkpt lat="40.7966802" lon="9.6000759"><ele>148.0</ele><time>2026-04-18T18:29:12.123Z</time></trkpt><trkpt lat="40.7966567" lon="9.599708"><ele>145.0</ele><time>2026-04-18T18:29:13.122Z</time></trkpt><trkpt lat="40.7966491" lon="9.5993408"><ele>142.0</ele><time>2026-04-18T18:29:14.123Z</time></trkpt><trkpt lat="40.7966556" lon="9.5989761"><ele>143.5</ele><time>2026-04-18T18:29:15.122Z</time></trkpt><trkpt lat="40.7966771" lon="9.5986148"><ele>145.0</ele><time>2026-04-18T18:29:16.123Z</time></trkpt><trkpt lat="40.7967124" lon="9.5982543"><ele>145.0</ele><time>2026-04-18T18:29:17.123Z</time></trkpt><trkpt lat="40.7967665" lon="9.5978966"><ele>145.0</ele><time>2026-04-18T18:29:18.123Z</time></trkpt><trkpt lat="40.7968379" lon="9.5975472"><ele>150.0</ele><time>2026-04-18T18:29:19.123Z</time></trkpt><trkpt lat="40.7969238" lon="9.5971966"><ele>155.0</ele><time>2026-04-18T18:29:20.123Z</time></trkpt><trkpt lat="40.7970229" lon="9.5968562"><ele>159.0</ele><time>2026-04-18T18:29:21.123Z</time></trkpt><trkpt lat="40.7971419" lon="9.5965285"><ele>163.0</ele><time>2026-04-18T18:29:22.123Z</time></trkpt><trkpt lat="40.7972785" lon="9.5962084"><ele>168.0</ele><time>2026-04-18T18:29:23.122Z</time></trkpt><trkpt lat="40.7974273" lon="9.5958981"><ele>173.0</ele><time>2026-04-18T18:29:24.123Z</time></trkpt><trkpt lat="40.7975817" lon="9.5955887"><ele>180.5</ele><time>2026-04-18T18:29:25.123Z</time></trkpt><trkpt lat="40.7977423" lon="9.5952796"><ele>188.0</ele><time>2026-04-18T18:29:26.122Z</time></trkpt><trkpt lat="40.7978998" lon="9.5949684"><ele>188.0</ele><time>2026-04-18T18:29:27.123Z</time></trkpt><trkpt lat="40.7980551" lon="9.5946601"><ele>188.0</ele><time>2026-04-18T18:29:28.123Z</time></trkpt><trkpt lat="40.798212" lon="9.5943499"><ele>186.0</ele><time>2026-04-18T18:29:29.123Z</time></trkpt><trkpt lat="40.7983703" lon="9.5940419"><ele>184.0</ele><time>2026-04-18T18:29:30.123Z</time></trkpt><trkpt lat="40.7985354" lon="9.593734"><ele>180.0</ele><time>2026-04-18T18:29:31.123Z</time></trkpt><trkpt lat="40.7987103" lon="9.5934367"><ele>176.0</ele><time>2026-04-18T18:29:32.123Z</time></trkpt><trkpt lat="40.798891" lon="9.5931542"><ele>176.0</ele><time>2026-04-18T18:29:33.123Z</time></trkpt><trkpt lat="40.799091" lon="9.5928868"><ele>176.0</ele><time>2026-04-18T18:29:34.123Z</time></trkpt><trkpt lat="40.7993032" lon="9.592631"><ele>174.0</ele><time>2026-04-18T18:29:35.122Z</time></trkpt><trkpt lat="40.7995308" lon="9.5923983"><ele>172.0</ele><time>2026-04-18T18:29:36.123Z</time></trkpt><trkpt lat="40.7997686" lon="9.5921778"><ele>171.0</ele><time>2026-04-18T18:29:37.123Z</time></trkpt><trkpt lat="40.800018" lon="9.5919877"><ele>170.0</ele><time>2026-04-18T18:29:38.123Z</time></trkpt><trkpt lat="40.800276" lon="9.5918141"><ele>168.5</ele><time>2026-04-18T18:29:39.122Z</time></trkpt><trkpt lat="40.8005425" lon="9.5916585"><ele>167.0</ele><time>2026-04-18T18:29:40.123Z</time></trkpt><trkpt lat="40.8008141" lon="9.5915269"><ele>164.0</ele><time>2026-04-18T18:29:41.123Z</time></trkpt><trkpt lat="40.801094" lon="9.5914186"><ele>161.0</ele><time>2026-04-18T18:29:42.123Z</time></trkpt><trkpt lat="40.8013768" lon="9.5913337"><ele>161.0</ele><time>2026-04-18T18:29:43.123Z</time></trkpt><trkpt lat="40.8016686" lon="9.5912753"><ele>161.0</ele><time>2026-04-18T18:29:44.123Z</time></trkpt><trkpt lat="40.8019614" lon="9.591239"><ele>160.0</ele><time>2026-04-18T18:29:45.123Z</time></trkpt><trkpt lat="40.8022561" lon="9.5912214"><ele>159.0</ele><time>2026-04-18T18:29:46.123Z</time></trkpt><trkpt lat="40.8025524" lon="9.5912213"><ele>158.0</ele><time>2026-04-18T18:29:47.123Z</time></trkpt><trkpt lat="40.8028506" lon="9.5912254"><ele>157.0</ele><time>2026-04-18T18:29:48.122Z</time></trkpt><trkpt lat="40.8031484" lon="9.5912318"><ele>157.0</ele><time>2026-04-18T18:29:49.123Z</time></trkpt><trkpt lat="40.8034492" lon="9.591235"><ele>157.0</ele><time>2026-04-18T18:29:50.123Z</time></trkpt><trkpt lat="40.8037473" lon="9.5912423"><ele>154.0</ele><time>2026-04-18T18:29:51.122Z</time></trkpt><trkpt lat="40.8040429" lon="9.5912487"><ele>151.0</ele><time>2026-04-18T18:29:52.123Z</time></trkpt><trkpt lat="40.804334" lon="9.5912524"><ele>151.0</ele><time>2026-04-18T18:29:53.123Z</time></trkpt><trkpt lat="40.8046303" lon="9.5912562"><ele>151.0</ele><time>2026-04-18T18:29:54.123Z</time></trkpt><trkpt lat="40.8049252" lon="9.5912619"><ele>149.5</ele><time>2026-04-18T18:29:55.123Z</time></trkpt><trkpt lat="40.8052142" lon="9.5912683"><ele>148.0</ele><time>2026-04-18T18:29:56.123Z</time></trkpt><trkpt lat="40.8055052" lon="9.5912733"><ele>148.0</ele><time>2026-04-18T18:29:57.123Z</time></trkpt><trkpt lat="40.8058013" lon="9.5912791"><ele>148.0</ele><time>2026-04-18T18:29:58.123Z</time></trkpt><trkpt lat="40.8060902" lon="9.5912737"><ele>146.5</ele><time>2026-04-18T18:29:59.123Z</time></trkpt><trkpt lat="40.8063755" lon="9.5912617"><ele>145.0</ele><time>2026-04-18T18:30:00.123Z</time></trkpt><trkpt lat="40.8066686" lon="9.591243"><ele>142.5</ele><time>2026-04-18T18:30:01.122Z</time></trkpt><trkpt lat="40.8069581" lon="9.5912156"><ele>140.0</ele><time>2026-04-18T18:30:02.123Z</time></trkpt><trkpt lat="40.8072499" lon="9.59118"><ele>140.0</ele><time>2026-04-18T18:30:03.123Z</time></trkpt><trkpt lat="40.8075361" lon="9.5911311"><ele>140.0</ele><time>2026-04-18T18:30:04.123Z</time></trkpt><trkpt lat="40.8078212" lon="9.5910701"><ele>140.0</ele><time>2026-04-18T18:30:05.123Z</time></trkpt><trkpt lat="40.8081089" lon="9.5909943"><ele>140.0</ele><time>2026-04-18T18:30:06.123Z</time></trkpt><trkpt lat="40.8083912" lon="9.590898"><ele>139.5</ele><time>2026-04-18T18:30:07.123Z</time></trkpt><trkpt lat="40.808673" lon="9.5907911"><ele>139.0</ele><time>2026-04-18T18:30:08.123Z</time></trkpt><trkpt lat="40.8089552" lon="9.590667"><ele>139.0</ele><time>2026-04-18T18:30:09.123Z</time></trkpt><trkpt lat="40.8092321" lon="9.5905279"><ele>139.0</ele><time>2026-04-18T18:30:10.122Z</time></trkpt><trkpt lat="40.8095075" lon="9.5903726"><ele>136.0</ele><time>2026-04-18T18:30:11.123Z</time></trkpt><trkpt lat="40.8097801" lon="9.5902025"><ele>133.0</ele><time>2026-04-18T18:30:12.123Z</time></trkpt><trkpt lat="40.8100442" lon="9.5900203"><ele>134.0</ele><time>2026-04-18T18:30:13.123Z</time></trkpt><trkpt lat="40.8103078" lon="9.5898255"><ele>135.0</ele><time>2026-04-18T18:30:14.123Z</time></trkpt><trkpt lat="40.8105628" lon="9.5896158"><ele>133.0</ele><time>2026-04-18T18:30:15.123Z</time></trkpt><trkpt lat="40.8108128" lon="9.5893934"><ele>131.0</ele><time>2026-04-18T18:30:16.123Z</time></trkpt><trkpt lat="40.8110556" lon="9.5891531"><ele>131.0</ele><time>2026-04-18T18:30:17.123Z</time></trkpt><trkpt lat="40.8112935" lon="9.5889144"><ele>131.0</ele><time>2026-04-18T18:30:18.122Z</time></trkpt><trkpt lat="40.811529" lon="9.5886673"><ele>125.5</ele><time>2026-04-18T18:30:19.123Z</time></trkpt><trkpt lat="40.8117614" lon="9.5884116"><ele>120.0</ele><time>2026-04-18T18:30:20.123Z</time></trkpt><trkpt lat="40.8119893" lon="9.5881645"><ele>116.0</ele><time>2026-04-18T18:30:21.122Z</time></trkpt><trkpt lat="40.8122181" lon="9.5879118"><ele>112.0</ele><time>2026-04-18T18:30:22.123Z</time></trkpt><trkpt lat="40.8124429" lon="9.5876554"><ele>102.5</ele><time>2026-04-18T18:30:23.122Z</time></trkpt><trkpt lat="40.8126618" lon="9.5874"><ele>93.0</ele><time>2026-04-18T18:30:24.123Z</time></trkpt><trkpt lat="40.8128832" lon="9.5871479"><ele>94.5</ele><time>2026-04-18T18:30:25.122Z</time></trkpt><trkpt lat="40.8131041" lon="9.586901"><ele>96.0</ele><time>2026-04-18T18:30:26.123Z</time></trkpt><trkpt lat="40.8133235" lon="9.586653"><ele>92.5</ele><time>2026-04-18T18:30:27.123Z</time></trkpt><trkpt lat="40.8135413" lon="9.5863992"><ele>89.0</ele><time>2026-04-18T18:30:28.123Z</time></trkpt><trkpt lat="40.8137603" lon="9.5861482"><ele>88.5</ele><time>2026-04-18T18:30:29.122Z</time></trkpt><trkpt lat="40.8139764" lon="9.5858933"><ele>88.0</ele><time>2026-04-18T18:30:30.123Z</time></trkpt><trkpt lat="40.8141977" lon="9.5856416"><ele>86.0</ele><time>2026-04-18T18:30:31.123Z</time></trkpt><trkpt lat="40.8144161" lon="9.5853918"><ele>84.0</ele><time>2026-04-18T18:30:32.123Z</time></trkpt><trkpt lat="40.8146375" lon="9.5851519"><ele>83.5</ele><time>2026-04-18T18:30:33.123Z</time></trkpt><trkpt lat="40.8148594" lon="9.5849159"><ele>83.0</ele><time>2026-04-18T18:30:34.123Z</time></trkpt><trkpt lat="40.8150847" lon="9.5846814"><ele>81.5</ele><time>2026-04-18T18:30:35.123Z</time></trkpt><trkpt lat="40.8153136" lon="9.5844537"><ele>80.0</ele><time>2026-04-18T18:30:36.123Z</time></trkpt><trkpt lat="40.8155491" lon="9.5842306"><ele>80.0</ele><time>2026-04-18T18:30:37.123Z</time></trkpt><trkpt lat="40.8157878" lon="9.5840147"><ele>80.0</ele><time>2026-04-18T18:30:38.122Z</time></trkpt><trkpt lat="40.8160292" lon="9.5838031"><ele>81.0</ele><time>2026-04-18T18:30:39.123Z</time></trkpt><trkpt lat="40.8162696" lon="9.5835986"><ele>82.0</ele><time>2026-04-18T18:30:40.122Z</time></trkpt><trkpt lat="40.8165144" lon="9.5834017"><ele>82.0</ele><time>2026-04-18T18:30:41.123Z</time></trkpt><trkpt lat="40.8167641" lon="9.5832177"><ele>82.0</ele><time>2026-04-18T18:30:42.123Z</time></trkpt><trkpt lat="40.817022" lon="9.5830426"><ele>81.5</ele><time>2026-04-18T18:30:43.123Z</time></trkpt><trkpt lat="40.8172807" lon="9.582876"><ele>81.0</ele><time>2026-04-18T18:30:44.123Z</time></trkpt><trkpt lat="40.8175441" lon="9.5827152"><ele>79.0</ele><time>2026-04-18T18:30:45.123Z</time></trkpt><trkpt lat="40.81781" lon="9.5825663"><ele>77.0</ele><time>2026-04-18T18:30:46.123Z</time></trkpt><trkpt lat="40.8180791" lon="9.5824273"><ele>77.0</ele><time>2026-04-18T18:30:47.123Z</time></trkpt><trkpt lat="40.8183459" lon="9.5822927"><ele>77.0</ele><time>2026-04-18T18:30:48.123Z</time></trkpt><trkpt lat="40.8186162" lon="9.5821643"><ele>77.0</ele><time>2026-04-18T18:30:49.122Z</time></trkpt><trkpt lat="40.8188892" lon="9.5820426"><ele>77.0</ele><time>2026-04-18T18:30:50.123Z</time></trkpt><trkpt lat="40.8191657" lon="9.5819231"><ele>81.0</ele><time>2026-04-18T18:30:51.123Z</time></trkpt><trkpt lat="40.8194434" lon="9.5818098"><ele>85.0</ele><time>2026-04-18T18:30:52.123Z</time></trkpt><trkpt lat="40.8197183" lon="9.5817014"><ele>85.0</ele><time>2026-04-18T18:30:53.123Z</time></trkpt><trkpt lat="40.8199937" lon="9.5815947"><ele>85.0</ele><time>2026-04-18T18:30:54.123Z</time></trkpt><trkpt lat="40.8202709" lon="9.5814893"><ele>86.0</ele><time>2026-04-18T18:30:55.123Z</time></trkpt><trkpt lat="40.8205442" lon="9.5813914"><ele>87.0</ele><time>2026-04-18T18:30:56.123Z</time></trkpt><trkpt lat="40.8208157" lon="9.5812869"><ele>91.0</ele><time>2026-04-18T18:30:57.123Z</time></trkpt><trkpt lat="40.8210864" lon="9.581182"><ele>95.0</ele><time>2026-04-18T18:30:58.123Z</time></trkpt><trkpt lat="40.8213603" lon="9.581077"><ele>95.0</ele><time>2026-04-18T18:30:59.123Z</time></trkpt><trkpt lat="40.8216327" lon="9.5809723"><ele>95.0</ele><time>2026-04-18T18:31:00.123Z</time></trkpt><trkpt lat="40.82191" lon="9.5808703"><ele>88.5</ele><time>2026-04-18T18:31:01.123Z</time></trkpt><trkpt lat="40.8221817" lon="9.580764"><ele>82.0</ele><time>2026-04-18T18:31:02.123Z</time></trkpt><trkpt lat="40.8224508" lon="9.580657"><ele>80.5</ele><time>2026-04-18T18:31:03.123Z</time></trkpt><trkpt lat="40.8227147" lon="9.5805431"><ele>79.0</ele><time>2026-04-18T18:31:04.123Z</time></trkpt><trkpt lat="40.822975" lon="9.5804257"><ele>83.5</ele><time>2026-04-18T18:31:05.122Z</time></trkpt><trkpt lat="40.8232338" lon="9.5803039"><ele>88.0</ele><time>2026-04-18T18:31:06.123Z</time></trkpt><trkpt lat="40.8234882" lon="9.580176"><ele>88.0</ele><time>2026-04-18T18:31:07.123Z</time></trkpt><trkpt lat="40.8237449" lon="9.5800462"><ele>88.0</ele><time>2026-04-18T18:31:08.123Z</time></trkpt><trkpt lat="40.8240005" lon="9.5799081"><ele>88.0</ele><time>2026-04-18T18:31:09.122Z</time></trkpt><trkpt lat="40.8242618" lon="9.5797615"><ele>88.0</ele><time>2026-04-18T18:31:10.123Z</time></trkpt><trkpt lat="40.8245238" lon="9.5796075"><ele>84.0</ele><time>2026-04-18T18:31:11.123Z</time></trkpt><trkpt lat="40.824783" lon="9.5794415"><ele>80.0</ele><time>2026-04-18T18:31:12.123Z</time></trkpt><trkpt lat="40.8250409" lon="9.5792592"><ele>74.0</ele><time>2026-04-18T18:31:13.123Z</time></trkpt><trkpt lat="40.825299" lon="9.5790702"><ele>68.0</ele><time>2026-04-18T18:31:14.124Z</time></trkpt><trkpt lat="40.8255478" lon="9.5788684"><ele>69.0</ele><time>2026-04-18T18:31:15.124Z</time></trkpt><trkpt lat="40.8257907" lon="9.5786652"><ele>70.0</ele><time>2026-04-18T18:31:16.124Z</time></trkpt><trkpt lat="40.8260277" lon="9.5784562"><ele>72.0</ele><time>2026-04-18T18:31:17.124Z</time></trkpt><trkpt lat="40.8262614" lon="9.5782422"><ele>74.0</ele><time>2026-04-18T18:31:18.123Z</time></trkpt><trkpt lat="40.8264952" lon="9.5780156"><ele>75.0</ele><time>2026-04-18T18:31:19.124Z</time></trkpt><trkpt lat="40.826723" lon="9.5777766"><ele>76.0</ele><time>2026-04-18T18:31:20.124Z</time></trkpt><trkpt lat="40.8269484" lon="9.5775283"><ele>76.0</ele><time>2026-04-18T18:31:21.124Z</time></trkpt><trkpt lat="40.8271688" lon="9.5772749"><ele>76.0</ele><time>2026-04-18T18:31:22.124Z</time></trkpt><trkpt lat="40.8273775" lon="9.5770196"><ele>70.5</ele><time>2026-04-18T18:31:23.124Z</time></trkpt><trkpt lat="40.8275803" lon="9.5767619"><ele>65.0</ele><time>2026-04-18T18:31:24.124Z</time></trkpt><trkpt lat="40.8277768" lon="9.5764965"><ele>65.0</ele><time>2026-04-18T18:31:25.124Z</time></trkpt><trkpt lat="40.8279701" lon="9.5762217"><ele>65.0</ele><time>2026-04-18T18:31:26.124Z</time></trkpt><trkpt lat="40.8281586" lon="9.5759354"><ele>64.0</ele><time>2026-04-18T18:31:27.124Z</time></trkpt><trkpt lat="40.8283411" lon="9.5756325"><ele>63.0</ele><time>2026-04-18T18:31:28.124Z</time></trkpt><trkpt lat="40.8285258" lon="9.5753188"><ele>63.0</ele><time>2026-04-18T18:31:29.123Z</time></trkpt><trkpt lat="40.8286973" lon="9.575018"><ele>63.0</ele><time>2026-04-18T18:31:30.124Z</time></trkpt><trkpt lat="40.8288524" lon="9.5747329"><ele>64.0</ele><time>2026-04-18T18:31:31.124Z</time></trkpt><trkpt lat="40.8289956" lon="9.5744407"><ele>65.0</ele><time>2026-04-18T18:31:32.124Z</time></trkpt><trkpt lat="40.8291327" lon="9.5741486"><ele>65.0</ele><time>2026-04-18T18:31:33.124Z</time></trkpt><trkpt lat="40.8292598" lon="9.5738647"><ele>65.0</ele><time>2026-04-18T18:31:34.124Z</time></trkpt><trkpt lat="40.829373" lon="9.5735903"><ele>65.33333333333334</ele><time>2026-04-18T18:31:35.124Z</time></trkpt><trkpt lat="40.8294774" lon="9.573331"><ele>65.66666666666667</ele><time>2026-04-18T18:31:36.124Z</time></trkpt><trkpt lat="40.8295755" lon="9.5730814"><ele>66.0</ele><time>2026-04-18T18:31:37.124Z</time></trkpt><trkpt lat="40.8296718" lon="9.5728389"><ele>66.0</ele><time>2026-04-18T18:31:38.124Z</time></trkpt><trkpt lat="40.8297597" lon="9.572604"><ele>66.0</ele><time>2026-04-18T18:31:39.124Z</time></trkpt><trkpt lat="40.8298453" lon="9.5723766"><ele>66.0</ele><time>2026-04-18T18:31:40.124Z</time></trkpt><trkpt lat="40.8299223" lon="9.5721566"><ele>63.66666666666667</ele><time>2026-04-18T18:31:41.124Z</time></trkpt><trkpt lat="40.8299953" lon="9.5719398"><ele>61.333333333333336</ele><time>2026-04-18T18:31:42.123Z</time></trkpt><trkpt lat="40.8300637" lon="9.5717194"><ele>59.0</ele><time>2026-04-18T18:31:43.124Z</time></trkpt><trkpt lat="40.8301344" lon="9.5715004"><ele>58.66666666666667</ele><time>2026-04-18T18:31:44.124Z</time></trkpt><trkpt lat="40.8301981" lon="9.5712829"><ele>58.33333333333333</ele><time>2026-04-18T18:31:45.123Z</time></trkpt><trkpt lat="40.8302649" lon="9.5710648"><ele>58.0</ele><time>2026-04-18T18:31:46.124Z</time></trkpt><trkpt lat="40.8303302" lon="9.5708451"><ele>59.666666666666664</ele><time>2026-04-18T18:31:47.124Z</time></trkpt><trkpt lat="40.8303957" lon="9.5706193"><ele>61.33333333333333</ele><time>2026-04-18T18:31:48.124Z</time></trkpt><trkpt lat="40.8304615" lon="9.5703919"><ele>63.0</ele><time>2026-04-18T18:31:49.124Z</time></trkpt><trkpt lat="40.8305299" lon="9.5701614"><ele>63.0</ele><time>2026-04-18T18:31:50.124Z</time></trkpt><trkpt lat="40.8305967" lon="9.5699347"><ele>63.0</ele><time>2026-04-18T18:31:51.124Z</time></trkpt><trkpt lat="40.8306641" lon="9.5697075"><ele>63.0</ele><time>2026-04-18T18:31:52.124Z</time></trkpt><trkpt lat="40.8307297" lon="9.569476"><ele>61.33333333333333</ele><time>2026-04-18T18:31:53.124Z</time></trkpt><trkpt lat="40.8307941" lon="9.5692501"><ele>59.666666666666664</ele><time>2026-04-18T18:31:54.124Z</time></trkpt><trkpt lat="40.8308588" lon="9.5690282"><ele>58.0</ele><time>2026-04-18T18:31:55.124Z</time></trkpt><trkpt lat="40.8309206" lon="9.5688097"><ele>59.0</ele><time>2026-04-18T18:31:56.124Z</time></trkpt><trkpt lat="40.8309806" lon="9.5685927"><ele>60.0</ele><time>2026-04-18T18:31:57.124Z</time></trkpt><trkpt lat="40.8310393" lon="9.5683704"><ele>61.0</ele><time>2026-04-18T18:31:58.124Z</time></trkpt><trkpt lat="40.8310973" lon="9.5681586"><ele>61.0</ele><time>2026-04-18T18:31:59.124Z</time></trkpt><trkpt lat="40.8311564" lon="9.5679626"><ele>61.0</ele><time>2026-04-18T18:32:00.124Z</time></trkpt><trkpt lat="40.8312122" lon="9.5677691"><ele>61.0</ele><time>2026-04-18T18:32:01.123Z</time></trkpt><trkpt lat="40.8312656" lon="9.5675844"><ele>59.0</ele><time>2026-04-18T18:32:02.124Z</time></trkpt><trkpt lat="40.8313147" lon="9.5674018"><ele>57.0</ele><time>2026-04-18T18:32:03.124Z</time></trkpt><trkpt lat="40.8313691" lon="9.5672212"><ele>55.0</ele><time>2026-04-18T18:32:04.124Z</time></trkpt><trkpt lat="40.8314228" lon="9.5670298"><ele>53.0</ele><time>2026-04-18T18:32:05.123Z</time></trkpt><trkpt lat="40.831477" lon="9.5668277"><ele>53.0</ele><time>2026-04-18T18:32:06.124Z</time></trkpt><trkpt lat="40.8315357" lon="9.5666247"><ele>53.0</ele><time>2026-04-18T18:32:07.124Z</time></trkpt><trkpt lat="40.8315956" lon="9.5664182"><ele>53.0</ele><time>2026-04-18T18:32:08.124Z</time></trkpt><trkpt lat="40.8316561" lon="9.5662079"><ele>52.66666666666667</ele><time>2026-04-18T18:32:09.123Z</time></trkpt><trkpt lat="40.8317145" lon="9.5659959"><ele>52.33333333333333</ele><time>2026-04-18T18:32:10.124Z</time></trkpt><trkpt lat="40.8317731" lon="9.5657826"><ele>52.0</ele><time>2026-04-18T18:32:11.124Z</time></trkpt><trkpt lat="40.8318335" lon="9.5655668"><ele>51.666666666666664</ele><time>2026-04-18T18:32:12.124Z</time></trkpt><trkpt lat="40.8318965" lon="9.5653453"><ele>51.33333333333333</ele><time>2026-04-18T18:32:13.124Z</time></trkpt><trkpt lat="40.8319599" lon="9.5651185"><ele>51.0</ele><time>2026-04-18T18:32:14.124Z</time></trkpt><trkpt lat="40.8320307" lon="9.5648852"><ele>51.0</ele><time>2026-04-18T18:32:15.124Z</time></trkpt><trkpt lat="40.8320994" lon="9.5646586"><ele>51.0</ele><time>2026-04-18T18:32:16.124Z</time></trkpt><trkpt lat="40.8321656" lon="9.5644447"><ele>51.0</ele><time>2026-04-18T18:32:17.124Z</time></trkpt><trkpt lat="40.8322326" lon="9.5642306"><ele>51.33333333333333</ele><time>2026-04-18T18:32:18.124Z</time></trkpt><trkpt lat="40.8322981" lon="9.5640232"><ele>51.666666666666664</ele><time>2026-04-18T18:32:19.124Z</time></trkpt><trkpt lat="40.8323599" lon="9.5638251"><ele>52.0</ele><time>2026-04-18T18:32:20.124Z</time></trkpt><trkpt lat="40.8324187" lon="9.5636303"><ele>51.0</ele><time>2026-04-18T18:32:21.123Z</time></trkpt><trkpt lat="40.8324783" lon="9.5634308"><ele>50.0</ele><time>2026-04-18T18:32:22.124Z</time></trkpt><trkpt lat="40.8325449" lon="9.5632326"><ele>49.0</ele><time>2026-04-18T18:32:23.124Z</time></trkpt><trkpt lat="40.8326165" lon="9.5630291"><ele>52.0</ele><time>2026-04-18T18:32:24.124Z</time></trkpt><trkpt lat="40.8326847" lon="9.5628276"><ele>55.0</ele><time>2026-04-18T18:32:25.124Z</time></trkpt><trkpt lat="40.8327565" lon="9.5626289"><ele>58.0</ele><time>2026-04-18T18:32:26.124Z</time></trkpt><trkpt lat="40.8328343" lon="9.5624196"><ele>58.0</ele><time>2026-04-18T18:32:27.123Z</time></trkpt><trkpt lat="40.8329109" lon="9.5622139"><ele>58.0</ele><time>2026-04-18T18:32:28.124Z</time></trkpt><trkpt lat="40.8329861" lon="9.5620182"><ele>58.0</ele><time>2026-04-18T18:32:29.124Z</time></trkpt><trkpt lat="40.8330657" lon="9.5618146"><ele>56.0</ele><time>2026-04-18T18:32:30.124Z</time></trkpt><trkpt lat="40.8331532" lon="9.5616009"><ele>54.0</ele><time>2026-04-18T18:32:31.123Z</time></trkpt><trkpt lat="40.8332393" lon="9.5613927"><ele>52.0</ele><time>2026-04-18T18:32:32.124Z</time></trkpt><trkpt lat="40.8333289" lon="9.5611828"><ele>52.0</ele><time>2026-04-18T18:32:33.124Z</time></trkpt><trkpt lat="40.8334252" lon="9.5609668"><ele>52.0</ele><time>2026-04-18T18:32:34.124Z</time></trkpt><trkpt lat="40.8335234" lon="9.5607535"><ele>52.0</ele><time>2026-04-18T18:32:35.123Z</time></trkpt><trkpt lat="40.8336231" lon="9.5605461"><ele>51.0</ele><time>2026-04-18T18:32:36.124Z</time></trkpt><trkpt lat="40.8337225" lon="9.5603346"><ele>50.0</ele><time>2026-04-18T18:32:37.124Z</time></trkpt><trkpt lat="40.8338307" lon="9.5601226"><ele>49.0</ele><time>2026-04-18T18:32:38.123Z</time></trkpt><trkpt lat="40.8339383" lon="9.5599131"><ele>49.0</ele><time>2026-04-18T18:32:39.124Z</time></trkpt><trkpt lat="40.8340445" lon="9.559709"><ele>49.0</ele><time>2026-04-18T18:32:40.124Z</time></trkpt><trkpt lat="40.8341557" lon="9.5595057"><ele>49.0</ele><time>2026-04-18T18:32:41.124Z</time></trkpt><trkpt lat="40.8342702" lon="9.5593051"><ele>48.33333333333333</ele><time>2026-04-18T18:32:42.124Z</time></trkpt><trkpt lat="40.8343839" lon="9.5591075"><ele>47.666666666666664</ele><time>2026-04-18T18:32:43.124Z</time></trkpt><trkpt lat="40.8344993" lon="9.5589142"><ele>47.0</ele><time>2026-04-18T18:32:44.124Z</time></trkpt><trkpt lat="40.8346145" lon="9.5587161"><ele>45.33333333333333</ele><time>2026-04-18T18:32:45.123Z</time></trkpt><trkpt lat="40.8347287" lon="9.5585207"><ele>43.666666666666664</ele><time>2026-04-18T18:32:46.124Z</time></trkpt><trkpt lat="40.8348484" lon="9.5583299"><ele>42.0</ele><time>2026-04-18T18:32:47.124Z</time></trkpt><trkpt lat="40.8349651" lon="9.5581451"><ele>42.0</ele><time>2026-04-18T18:32:48.123Z</time></trkpt><trkpt lat="40.8350819" lon="9.5579673"><ele>42.0</ele><time>2026-04-18T18:32:49.124Z</time></trkpt><trkpt lat="40.8351957" lon="9.5577912"><ele>42.0</ele><time>2026-04-18T18:32:50.124Z</time></trkpt><trkpt lat="40.8353088" lon="9.5576132"><ele>42.666666666666664</ele><time>2026-04-18T18:32:51.124Z</time></trkpt><trkpt lat="40.8354262" lon="9.557436"><ele>43.33333333333333</ele><time>2026-04-18T18:32:52.123Z</time></trkpt><trkpt lat="40.8355455" lon="9.5572547"><ele>44.0</ele><time>2026-04-18T18:32:53.124Z</time></trkpt><trkpt lat="40.8356676" lon="9.55708"><ele>44.0</ele><time>2026-04-18T18:32:54.124Z</time></trkpt><trkpt lat="40.8357895" lon="9.556907"><ele>44.0</ele><time>2026-04-18T18:32:55.123Z</time></trkpt><trkpt lat="40.8359131" lon="9.5567351"><ele>44.0</ele><time>2026-04-18T18:32:56.124Z</time></trkpt><trkpt lat="40.8360369" lon="9.5565627"><ele>44.0</ele><time>2026-04-18T18:32:57.124Z</time></trkpt><trkpt lat="40.8361533" lon="9.5563946"><ele>44.0</ele><time>2026-04-18T18:32:58.124Z</time></trkpt><trkpt lat="40.8362716" lon="9.5562311"><ele>44.0</ele><time>2026-04-18T18:32:59.124Z</time></trkpt><trkpt lat="40.8363924" lon="9.5560568"><ele>43.0</ele><time>2026-04-18T18:33:00.124Z</time></trkpt><trkpt lat="40.8365166" lon="9.5558858"><ele>42.0</ele><time>2026-04-18T18:33:01.124Z</time></trkpt><trkpt lat="40.8366431" lon="9.5557134"><ele>41.0</ele><time>2026-04-18T18:33:02.124Z</time></trkpt><trkpt lat="40.8367677" lon="9.5555392"><ele>41.0</ele><time>2026-04-18T18:33:03.124Z</time></trkpt><trkpt lat="40.8368898" lon="9.555363"><ele>41.0</ele><time>2026-04-18T18:33:04.124Z</time></trkpt><trkpt lat="40.8370118" lon="9.5551908"><ele>41.0</ele><time>2026-04-18T18:33:05.124Z</time></trkpt><trkpt lat="40.8371337" lon="9.5550182"><ele>41.0</ele><time>2026-04-18T18:33:06.124Z</time></trkpt><trkpt lat="40.8372552" lon="9.5548499"><ele>41.0</ele><time>2026-04-18T18:33:07.124Z</time></trkpt><trkpt lat="40.837378" lon="9.5546793"><ele>41.0</ele><time>2026-04-18T18:33:08.124Z</time></trkpt><trkpt lat="40.8374972" lon="9.554512"><ele>40.33333333333333</ele><time>2026-04-18T18:33:09.124Z</time></trkpt><trkpt lat="40.8376225" lon="9.5543469"><ele>39.666666666666664</ele><time>2026-04-18T18:33:10.124Z</time></trkpt><trkpt lat="40.8377453" lon="9.5541782"><ele>39.0</ele><time>2026-04-18T18:33:11.124Z</time></trkpt><trkpt lat="40.8378623" lon="9.5540051"><ele>39.0</ele><time>2026-04-18T18:33:12.124Z</time></trkpt><trkpt lat="40.8379871" lon="9.5538261"><ele>39.0</ele><time>2026-04-18T18:33:13.123Z</time></trkpt><trkpt lat="40.8381208" lon="9.5536454"><ele>39.0</ele><time>2026-04-18T18:33:14.124Z</time></trkpt><trkpt lat="40.838255" lon="9.5534586"><ele>38.666666666666664</ele><time>2026-04-18T18:33:15.124Z</time></trkpt><trkpt lat="40.83839" lon="9.5532804"><ele>38.33333333333333</ele><time>2026-04-18T18:33:16.124Z</time></trkpt><trkpt lat="40.8385293" lon="9.5530956"><ele>38.0</ele><time>2026-04-18T18:33:17.124Z</time></trkpt><trkpt lat="40.8386652" lon="9.5529082"><ele>36.0</ele><time>2026-04-18T18:33:18.124Z</time></trkpt><trkpt lat="40.8388007" lon="9.5527232"><ele>34.0</ele><time>2026-04-18T18:33:19.124Z</time></trkpt><trkpt lat="40.8389333" lon="9.5525337"><ele>32.0</ele><time>2026-04-18T18:33:20.124Z</time></trkpt><trkpt lat="40.8390651" lon="9.5523458"><ele>32.0</ele><time>2026-04-18T18:33:21.124Z</time></trkpt><trkpt lat="40.8392025" lon="9.5521553"><ele>32.0</ele><time>2026-04-18T18:33:22.124Z</time></trkpt><trkpt lat="40.8393477" lon="9.5519529"><ele>32.0</ele><time>2026-04-18T18:33:23.124Z</time></trkpt><trkpt lat="40.8395021" lon="9.5517356"><ele>30.5</ele><time>2026-04-18T18:33:24.124Z</time></trkpt><trkpt lat="40.8396616" lon="9.5515097"><ele>29.0</ele><time>2026-04-18T18:33:25.124Z</time></trkpt><trkpt lat="40.8398241" lon="9.5512841"><ele>29.0</ele><time>2026-04-18T18:33:26.124Z</time></trkpt><trkpt lat="40.8399871" lon="9.5510608"><ele>29.0</ele><time>2026-04-18T18:33:27.124Z</time></trkpt><trkpt lat="40.8401495" lon="9.5508411"><ele>29.0</ele><time>2026-04-18T18:33:28.123Z</time></trkpt><trkpt lat="40.8403124" lon="9.550626"><ele>29.0</ele><time>2026-04-18T18:33:29.124Z</time></trkpt><trkpt lat="40.8404762" lon="9.5504129"><ele>30.0</ele><time>2026-04-18T18:33:30.124Z</time></trkpt><trkpt lat="40.8406429" lon="9.5502033"><ele>31.0</ele><time>2026-04-18T18:33:31.124Z</time></trkpt><trkpt lat="40.8408081" lon="9.5499964"><ele>29.0</ele><time>2026-04-18T18:33:32.124Z</time></trkpt><trkpt lat="40.8409753" lon="9.5497939"><ele>27.0</ele><time>2026-04-18T18:33:33.124Z</time></trkpt><trkpt lat="40.8411462" lon="9.5495908"><ele>29.0</ele><time>2026-04-18T18:33:34.124Z</time></trkpt><trkpt lat="40.8413146" lon="9.5493908"><ele>31.0</ele><time>2026-04-18T18:33:35.124Z</time></trkpt><trkpt lat="40.8414857" lon="9.5491967"><ele>31.0</ele><time>2026-04-18T18:33:36.124Z</time></trkpt><trkpt lat="40.8416578" lon="9.5490083"><ele>31.0</ele><time>2026-04-18T18:33:37.124Z</time></trkpt><trkpt lat="40.8418355" lon="9.5488258"><ele>31.0</ele><time>2026-04-18T18:33:38.124Z</time></trkpt><trkpt lat="40.8420206" lon="9.5486458"><ele>31.5</ele><time>2026-04-18T18:33:39.124Z</time></trkpt><trkpt lat="40.8422076" lon="9.5484657"><ele>32.0</ele><time>2026-04-18T18:33:40.124Z</time></trkpt><trkpt lat="40.8423949" lon="9.5482866"><ele>32.0</ele><time>2026-04-18T18:33:41.124Z</time></trkpt><trkpt lat="40.8425873" lon="9.5481128"><ele>32.0</ele><time>2026-04-18T18:33:42.124Z</time></trkpt><trkpt lat="40.8427844" lon="9.5479465"><ele>34.0</ele><time>2026-04-18T18:33:43.124Z</time></trkpt><trkpt lat="40.8429784" lon="9.547784"><ele>36.0</ele><time>2026-04-18T18:33:44.124Z</time></trkpt><trkpt lat="40.8431709" lon="9.5476346"><ele>36.0</ele><time>2026-04-18T18:33:45.124Z</time></trkpt><trkpt lat="40.8433591" lon="9.5474963"><ele>36.0</ele><time>2026-04-18T18:33:46.124Z</time></trkpt><trkpt lat="40.8435355" lon="9.5473623"><ele>36.0</ele><time>2026-04-18T18:33:47.124Z</time></trkpt><trkpt lat="40.843706" lon="9.5472359"><ele>36.0</ele><time>2026-04-18T18:33:48.124Z</time></trkpt><trkpt lat="40.8438696" lon="9.5471137"><ele>36.0</ele><time>2026-04-18T18:33:49.124Z</time></trkpt><trkpt lat="40.8440426" lon="9.5469778"><ele>36.0</ele><time>2026-04-18T18:33:50.124Z</time></trkpt><trkpt lat="40.844226" lon="9.5468336"><ele>36.0</ele><time>2026-04-18T18:33:51.124Z</time></trkpt><trkpt lat="40.8444241" lon="9.5466962"><ele>36.0</ele><time>2026-04-18T18:33:52.123Z</time></trkpt><trkpt lat="40.8446405" lon="9.5465646"><ele>36.0</ele><time>2026-04-18T18:33:53.124Z</time></trkpt><trkpt lat="40.8448581" lon="9.5464236"><ele>36.0</ele><time>2026-04-18T18:33:54.124Z</time></trkpt><trkpt lat="40.8450834" lon="9.5462816"><ele>36.0</ele><time>2026-04-18T18:33:55.124Z</time></trkpt><trkpt lat="40.8453178" lon="9.5461312"><ele>36.0</ele><time>2026-04-18T18:33:56.124Z</time></trkpt><trkpt lat="40.8455459" lon="9.5459778"><ele>36.0</ele><time>2026-04-18T18:33:57.124Z</time></trkpt><trkpt lat="40.8457773" lon="9.5458224"><ele>36.0</ele><time>2026-04-18T18:33:58.124Z</time></trkpt><trkpt lat="40.8460086" lon="9.5456639"><ele>36.0</ele><time>2026-04-18T18:33:59.124Z</time></trkpt><trkpt lat="40.8462432" lon="9.5455102"><ele>36.0</ele><time>2026-04-18T18:34:00.124Z</time></trkpt><trkpt lat="40.846474" lon="9.545356"><ele>36.5</ele><time>2026-04-18T18:34:01.124Z</time></trkpt><trkpt lat="40.8467061" lon="9.545197"><ele>37.0</ele><time>2026-04-18T18:34:02.124Z</time></trkpt><trkpt lat="40.8469369" lon="9.5450408"><ele>37.0</ele><time>2026-04-18T18:34:03.124Z</time></trkpt><trkpt lat="40.8471662" lon="9.5448863"><ele>37.0</ele><time>2026-04-18T18:34:04.124Z</time></trkpt><trkpt lat="40.847395" lon="9.5447339"><ele>37.0</ele><time>2026-04-18T18:34:05.124Z</time></trkpt><trkpt lat="40.847622" lon="9.5445811"><ele>37.0</ele><time>2026-04-18T18:34:06.124Z</time></trkpt><trkpt lat="40.8478469" lon="9.5444245"><ele>37.5</ele><time>2026-04-18T18:34:07.124Z</time></trkpt><trkpt lat="40.8480739" lon="9.5442638"><ele>38.0</ele><time>2026-04-18T18:34:08.124Z</time></trkpt><trkpt lat="40.8482998" lon="9.5440982"><ele>36.5</ele><time>2026-04-18T18:34:09.124Z</time></trkpt><trkpt lat="40.8485271" lon="9.5439323"><ele>35.0</ele><time>2026-04-18T18:34:10.124Z</time></trkpt><trkpt lat="40.8487545" lon="9.5437677"><ele>36.0</ele><time>2026-04-18T18:34:11.124Z</time></trkpt><trkpt lat="40.8489821" lon="9.5436044"><ele>37.0</ele><time>2026-04-18T18:34:12.124Z</time></trkpt><trkpt lat="40.8492055" lon="9.5434441"><ele>35.5</ele><time>2026-04-18T18:34:13.124Z</time></trkpt><trkpt lat="40.8494423" lon="9.5432695"><ele>34.0</ele><time>2026-04-18T18:34:14.123Z</time></trkpt><trkpt lat="40.8496702" lon="9.5430925"><ele>34.0</ele><time>2026-04-18T18:34:15.124Z</time></trkpt><trkpt lat="40.8498959" lon="9.5429112"><ele>34.0</ele><time>2026-04-18T18:34:16.123Z</time></trkpt><trkpt lat="40.8501207" lon="9.5427306"><ele>34.5</ele><time>2026-04-18T18:34:17.124Z</time></trkpt><trkpt lat="40.8503447" lon="9.5425473"><ele>35.0</ele><time>2026-04-18T18:34:18.124Z</time></trkpt><trkpt lat="40.8505728" lon="9.5423593"><ele>35.0</ele><time>2026-04-18T18:34:19.124Z</time></trkpt><trkpt lat="40.8507991" lon="9.54217"><ele>35.0</ele><time>2026-04-18T18:34:20.124Z</time></trkpt><trkpt lat="40.8510266" lon="9.54198"><ele>37.5</ele><time>2026-04-18T18:34:21.124Z</time></trkpt><trkpt lat="40.8512563" lon="9.5417802"><ele>40.0</ele><time>2026-04-18T18:34:22.124Z</time></trkpt><trkpt lat="40.8514811" lon="9.5415783"><ele>40.0</ele><time>2026-04-18T18:34:23.124Z</time></trkpt><trkpt lat="40.8517061" lon="9.5413746"><ele>40.0</ele><time>2026-04-18T18:34:24.123Z</time></trkpt><trkpt lat="40.8519305" lon="9.5411739"><ele>44.5</ele><time>2026-04-18T18:34:25.124Z</time></trkpt><trkpt lat="40.8521543" lon="9.5409689"><ele>49.0</ele><time>2026-04-18T18:34:26.124Z</time></trkpt><trkpt lat="40.852376" lon="9.5407619"><ele>49.0</ele><time>2026-04-18T18:34:27.124Z</time></trkpt><trkpt lat="40.8525999" lon="9.5405531"><ele>49.0</ele><time>2026-04-18T18:34:28.124Z</time></trkpt><trkpt lat="40.8528217" lon="9.5403472"><ele>53.5</ele><time>2026-04-18T18:34:29.124Z</time></trkpt><trkpt lat="40.8530454" lon="9.5401358"><ele>58.0</ele><time>2026-04-18T18:34:30.124Z</time></trkpt><trkpt lat="40.8532691" lon="9.5399235"><ele>57.5</ele><time>2026-04-18T18:34:31.124Z</time></trkpt><trkpt lat="40.8534982" lon="9.5397098"><ele>57.0</ele><time>2026-04-18T18:34:32.124Z</time></trkpt><trkpt lat="40.8537269" lon="9.5394954"><ele>57.0</ele><time>2026-04-18T18:34:33.124Z</time></trkpt><trkpt lat="40.8539485" lon="9.5392805"><ele>57.0</ele><time>2026-04-18T18:34:34.124Z</time></trkpt><trkpt lat="40.8541711" lon="9.5390717"><ele>56.5</ele><time>2026-04-18T18:34:35.124Z</time></trkpt><trkpt lat="40.8543979" lon="9.5388538"><ele>56.0</ele><time>2026-04-18T18:34:36.124Z</time></trkpt><trkpt lat="40.8546234" lon="9.5386381"><ele>56.0</ele><time>2026-04-18T18:34:37.124Z</time></trkpt><trkpt lat="40.8548457" lon="9.5384267"><ele>56.0</ele><time>2026-04-18T18:34:38.124Z</time></trkpt><trkpt lat="40.8550713" lon="9.5382087"><ele>56.5</ele><time>2026-04-18T18:34:39.124Z</time></trkpt><trkpt lat="40.8552988" lon="9.5379918"><ele>57.0</ele><time>2026-04-18T18:34:40.124Z</time></trkpt><trkpt lat="40.85552" lon="9.5377777"><ele>54.5</ele><time>2026-04-18T18:34:41.124Z</time></trkpt><trkpt lat="40.8557505" lon="9.5375638"><ele>52.0</ele><time>2026-04-18T18:34:42.123Z</time></trkpt><trkpt lat="40.855977" lon="9.537351"><ele>51.0</ele><time>2026-04-18T18:34:43.123Z</time></trkpt><trkpt lat="40.856209" lon="9.537153"><ele>50.0</ele><time>2026-04-18T18:34:44.124Z</time></trkpt><trkpt lat="40.8564414" lon="9.5369391"><ele>48.0</ele><time>2026-04-18T18:34:45.124Z</time></trkpt><trkpt lat="40.8566659" lon="9.5367147"><ele>46.0</ele><time>2026-04-18T18:34:46.124Z</time></trkpt><trkpt lat="40.8568842" lon="9.5364914"><ele>45.0</ele><time>2026-04-18T18:34:47.124Z</time></trkpt><trkpt lat="40.8571094" lon="9.5362605"><ele>44.0</ele><time>2026-04-18T18:34:48.124Z</time></trkpt><trkpt lat="40.8573351" lon="9.5360278"><ele>44.0</ele><time>2026-04-18T18:34:49.124Z</time></trkpt><trkpt lat="40.8575563" lon="9.5357922"><ele>44.0</ele><time>2026-04-18T18:34:50.124Z</time></trkpt><trkpt lat="40.8577815" lon="9.5355555"><ele>42.5</ele><time>2026-04-18T18:34:51.124Z</time></trkpt><trkpt lat="40.8580048" lon="9.5353176"><ele>41.0</ele><time>2026-04-18T18:34:52.124Z</time></trkpt><trkpt lat="40.8582211" lon="9.5350798"><ele>41.0</ele><time>2026-04-18T18:34:53.123Z</time></trkpt><trkpt lat="40.8584305" lon="9.5348354"><ele>41.0</ele><time>2026-04-18T18:34:54.124Z</time></trkpt><trkpt lat="40.8586518" lon="9.5345843"><ele>41.0</ele><time>2026-04-18T18:34:55.124Z</time></trkpt><trkpt lat="40.8588615" lon="9.5343245"><ele>41.0</ele><time>2026-04-18T18:34:56.124Z</time></trkpt><trkpt lat="40.8590792" lon="9.5340665"><ele>40.5</ele><time>2026-04-18T18:34:57.124Z</time></trkpt><trkpt lat="40.8592896" lon="9.5338032"><ele>40.0</ele><time>2026-04-18T18:34:58.124Z</time></trkpt><trkpt lat="40.8594975" lon="9.5335357"><ele>38.0</ele><time>2026-04-18T18:34:59.124Z</time></trkpt><trkpt lat="40.8597013" lon="9.5332642"><ele>36.0</ele><time>2026-04-18T18:35:00.124Z</time></trkpt><trkpt lat="40.8599" lon="9.5329888"><ele>34.5</ele><time>2026-04-18T18:35:01.124Z</time></trkpt><trkpt lat="40.8600908" lon="9.53271"><ele>33.0</ele><time>2026-04-18T18:35:02.124Z</time></trkpt><trkpt lat="40.8602803" lon="9.5324228"><ele>33.0</ele><time>2026-04-18T18:35:03.124Z</time></trkpt><trkpt lat="40.8604674" lon="9.5321291"><ele>33.0</ele><time>2026-04-18T18:35:04.124Z</time></trkpt><trkpt lat="40.8606483" lon="9.5318429"><ele>31.5</ele><time>2026-04-18T18:35:05.124Z</time></trkpt><trkpt lat="40.8608283" lon="9.5315475"><ele>30.0</ele><time>2026-04-18T18:35:06.124Z</time></trkpt><trkpt lat="40.8610034" lon="9.5312509"><ele>28.0</ele><time>2026-04-18T18:35:07.123Z</time></trkpt><trkpt lat="40.8611724" lon="9.5309431"><ele>26.0</ele><time>2026-04-18T18:35:08.123Z</time></trkpt><trkpt lat="40.8613335" lon="9.5306388"><ele>25.0</ele><time>2026-04-18T18:35:09.124Z</time></trkpt><trkpt lat="40.8614898" lon="9.530331"><ele>24.0</ele><time>2026-04-18T18:35:10.123Z</time></trkpt><trkpt lat="40.8616492" lon="9.5300128"><ele>24.0</ele><time>2026-04-18T18:35:11.123Z</time></trkpt><trkpt lat="40.8617982" lon="9.5297008"><ele>24.0</ele><time>2026-04-18T18:35:12.124Z</time></trkpt><trkpt lat="40.8619462" lon="9.529386"><ele>22.5</ele><time>2026-04-18T18:35:13.124Z</time></trkpt><trkpt lat="40.862089" lon="9.529064"><ele>21.0</ele><time>2026-04-18T18:35:14.123Z</time></trkpt><trkpt lat="40.8622241" lon="9.528742"><ele>21.0</ele><time>2026-04-18T18:35:15.124Z</time></trkpt><trkpt lat="40.8623553" lon="9.5284176"><ele>21.0</ele><time>2026-04-18T18:35:16.124Z</time></trkpt><trkpt lat="40.8624863" lon="9.5280871"><ele>20.0</ele><time>2026-04-18T18:35:17.124Z</time></trkpt><trkpt lat="40.8626134" lon="9.5277543"><ele>19.0</ele><time>2026-04-18T18:35:18.124Z</time></trkpt><trkpt lat="40.8627381" lon="9.5274221"><ele>18.0</ele><time>2026-04-18T18:35:19.124Z</time></trkpt><trkpt lat="40.862863" lon="9.5270867"><ele>17.0</ele><time>2026-04-18T18:35:20.124Z</time></trkpt><trkpt lat="40.8629855" lon="9.5267517"><ele>16.0</ele><time>2026-04-18T18:35:21.124Z</time></trkpt><trkpt lat="40.8631048" lon="9.5264147"><ele>15.0</ele><time>2026-04-18T18:35:22.124Z</time></trkpt><trkpt lat="40.863217" lon="9.5260707"><ele>15.0</ele><time>2026-04-18T18:35:23.123Z</time></trkpt><trkpt lat="40.8633238" lon="9.5257274"><ele>15.0</ele><time>2026-04-18T18:35:24.124Z</time></trkpt><trkpt lat="40.8634334" lon="9.5253803"><ele>16.5</ele><time>2026-04-18T18:35:25.124Z</time></trkpt><trkpt lat="40.863542" lon="9.5250321"><ele>18.0</ele><time>2026-04-18T18:35:26.123Z</time></trkpt><trkpt lat="40.8636495" lon="9.5246883"><ele>18.0</ele><time>2026-04-18T18:35:27.124Z</time></trkpt><trkpt lat="40.8637558" lon="9.5243425"><ele>18.0</ele><time>2026-04-18T18:35:28.124Z</time></trkpt><trkpt lat="40.8638627" lon="9.5239973"><ele>18.0</ele><time>2026-04-18T18:35:29.124Z</time></trkpt><trkpt lat="40.8639653" lon="9.5236535"><ele>18.0</ele><time>2026-04-18T18:35:30.124Z</time></trkpt><trkpt lat="40.8640699" lon="9.5233077"><ele>18.0</ele><time>2026-04-18T18:35:31.124Z</time></trkpt><trkpt lat="40.8641753" lon="9.5229645"><ele>18.0</ele><time>2026-04-18T18:35:32.124Z</time></trkpt><trkpt lat="40.8642795" lon="9.5226195"><ele>16.5</ele><time>2026-04-18T18:35:33.124Z</time></trkpt><trkpt lat="40.8643803" lon="9.5222713"><ele>15.0</ele><time>2026-04-18T18:35:34.124Z</time></trkpt><trkpt lat="40.8644858" lon="9.5219284"><ele>15.0</ele><time>2026-04-18T18:35:35.124Z</time></trkpt><trkpt lat="40.8645908" lon="9.5215864"><ele>15.0</ele><time>2026-04-18T18:35:36.124Z</time></trkpt><trkpt lat="40.8647012" lon="9.5212463"><ele>15.5</ele><time>2026-04-18T18:35:37.124Z</time></trkpt><trkpt lat="40.864812" lon="9.5209039"><ele>16.0</ele><time>2026-04-18T18:35:38.124Z</time></trkpt><trkpt lat="40.8649257" lon="9.5205588"><ele>15.5</ele><time>2026-04-18T18:35:39.124Z</time></trkpt><trkpt lat="40.8650388" lon="9.5202157"><ele>15.0</ele><time>2026-04-18T18:35:40.124Z</time></trkpt><trkpt lat="40.8651542" lon="9.5198707"><ele>14.5</ele><time>2026-04-18T18:35:41.124Z</time></trkpt><trkpt lat="40.8652711" lon="9.5195303"><ele>14.0</ele><time>2026-04-18T18:35:42.124Z</time></trkpt><trkpt lat="40.865391" lon="9.5191906"><ele>14.0</ele><time>2026-04-18T18:35:43.124Z</time></trkpt><trkpt lat="40.8655129" lon="9.5188492"><ele>14.0</ele><time>2026-04-18T18:35:44.124Z</time></trkpt><trkpt lat="40.8656358" lon="9.5185103"><ele>15.5</ele><time>2026-04-18T18:35:45.124Z</time></trkpt><trkpt lat="40.8657564" lon="9.5181768"><ele>17.0</ele><time>2026-04-18T18:35:46.124Z</time></trkpt><trkpt lat="40.8658849" lon="9.5178357"><ele>15.5</ele><time>2026-04-18T18:35:47.124Z</time></trkpt><trkpt lat="40.8660179" lon="9.5174999"><ele>14.0</ele><time>2026-04-18T18:35:48.124Z</time></trkpt><trkpt lat="40.8661482" lon="9.5171653"><ele>14.0</ele><time>2026-04-18T18:35:49.124Z</time></trkpt><trkpt lat="40.8662835" lon="9.5168247"><ele>14.0</ele><time>2026-04-18T18:35:50.124Z</time></trkpt><trkpt lat="40.8664197" lon="9.5164868"><ele>14.0</ele><time>2026-04-18T18:35:51.124Z</time></trkpt><trkpt lat="40.8665631" lon="9.5161451"><ele>14.0</ele><time>2026-04-18T18:35:52.124Z</time></trkpt><trkpt lat="40.8667037" lon="9.5158112"><ele>14.0</ele><time>2026-04-18T18:35:53.124Z</time></trkpt><trkpt lat="40.8668541" lon="9.5154808"><ele>14.0</ele><time>2026-04-18T18:35:54.123Z</time></trkpt><trkpt lat="40.8670063" lon="9.5151485"><ele>14.0</ele><time>2026-04-18T18:35:55.124Z</time></trkpt><trkpt lat="40.8671591" lon="9.5148183"><ele>14.0</ele><time>2026-04-18T18:35:56.124Z</time></trkpt><trkpt lat="40.8673124" lon="9.5144906"><ele>14.0</ele><time>2026-04-18T18:35:57.124Z</time></trkpt><trkpt lat="40.8674689" lon="9.5141595"><ele>14.0</ele><time>2026-04-18T18:35:58.124Z</time></trkpt><trkpt lat="40.8676254" lon="9.5138291"><ele>15.0</ele><time>2026-04-18T18:35:59.124Z</time></trkpt><trkpt lat="40.8677802" lon="9.5135079"><ele>16.0</ele><time>2026-04-18T18:36:00.124Z</time></trkpt><trkpt lat="40.8679373" lon="9.5131839"><ele>16.5</ele><time>2026-04-18T18:36:01.124Z</time></trkpt><trkpt lat="40.8680942" lon="9.5128632"><ele>17.0</ele><time>2026-04-18T18:36:02.124Z</time></trkpt><trkpt lat="40.8682485" lon="9.5125438"><ele>17.0</ele><time>2026-04-18T18:36:03.124Z</time></trkpt><trkpt lat="40.8684023" lon="9.5122281"><ele>17.0</ele><time>2026-04-18T18:36:04.123Z</time></trkpt><trkpt lat="40.8685582" lon="9.5119105"><ele>17.5</ele><time>2026-04-18T18:36:05.124Z</time></trkpt><trkpt lat="40.8687124" lon="9.5115935"><ele>18.0</ele><time>2026-04-18T18:36:06.124Z</time></trkpt><trkpt lat="40.8688662" lon="9.5112754"><ele>18.0</ele><time>2026-04-18T18:36:07.123Z</time></trkpt><trkpt lat="40.8690266" lon="9.5109536"><ele>18.0</ele><time>2026-04-18T18:36:08.124Z</time></trkpt><trkpt lat="40.8691837" lon="9.5106329"><ele>17.0</ele><time>2026-04-18T18:36:09.124Z</time></trkpt><trkpt lat="40.8693418" lon="9.5103109"><ele>16.0</ele><time>2026-04-18T18:36:10.124Z</time></trkpt><trkpt lat="40.8694983" lon="9.509987"><ele>16.0</ele><time>2026-04-18T18:36:11.124Z</time></trkpt><trkpt lat="40.8696538" lon="9.5096648"><ele>16.0</ele><time>2026-04-18T18:36:12.124Z</time></trkpt><trkpt lat="40.8698083" lon="9.5093457"><ele>16.0</ele><time>2026-04-18T18:36:13.124Z</time></trkpt><trkpt lat="40.8699685" lon="9.509027"><ele>16.0</ele><time>2026-04-18T18:36:14.124Z</time></trkpt><trkpt lat="40.8701216" lon="9.5087121"><ele>16.5</ele><time>2026-04-18T18:36:15.124Z</time></trkpt><trkpt lat="40.8702766" lon="9.5083919"><ele>17.0</ele><time>2026-04-18T18:36:16.124Z</time></trkpt><trkpt lat="40.8704337" lon="9.5080711"><ele>17.5</ele><time>2026-04-18T18:36:17.124Z</time></trkpt><trkpt lat="40.8705904" lon="9.5077489"><ele>18.0</ele><time>2026-04-18T18:36:18.124Z</time></trkpt><trkpt lat="40.8707445" lon="9.507427"><ele>18.0</ele><time>2026-04-18T18:36:19.123Z</time></trkpt><trkpt lat="40.8709009" lon="9.5071065"><ele>18.0</ele><time>2026-04-18T18:36:20.124Z</time></trkpt><trkpt lat="40.8710573" lon="9.5067861"><ele>17.5</ele><time>2026-04-18T18:36:21.124Z</time></trkpt><trkpt lat="40.8712175" lon="9.5064691"><ele>17.0</ele><time>2026-04-18T18:36:22.124Z</time></trkpt><trkpt lat="40.8713781" lon="9.5061551"><ele>18.0</ele><time>2026-04-18T18:36:23.124Z</time></trkpt><trkpt lat="40.8715433" lon="9.5058439"><ele>19.0</ele><time>2026-04-18T18:36:24.124Z</time></trkpt><trkpt lat="40.8717128" lon="9.5055396"><ele>18.5</ele><time>2026-04-18T18:36:25.124Z</time></trkpt><trkpt lat="40.8718876" lon="9.5052373"><ele>18.0</ele><time>2026-04-18T18:36:26.123Z</time></trkpt><trkpt lat="40.8720646" lon="9.5049428"><ele>18.0</ele><time>2026-04-18T18:36:27.124Z</time></trkpt><trkpt lat="40.8722487" lon="9.5046555"><ele>18.0</ele><time>2026-04-18T18:36:28.124Z</time></trkpt><trkpt lat="40.8724373" lon="9.504376"><ele>22.0</ele><time>2026-04-18T18:36:29.124Z</time></trkpt><trkpt lat="40.8726314" lon="9.5041024"><ele>26.0</ele><time>2026-04-18T18:36:30.124Z</time></trkpt><trkpt lat="40.8728333" lon="9.5038338"><ele>27.5</ele><time>2026-04-18T18:36:31.124Z</time></trkpt><trkpt lat="40.8730381" lon="9.5035731"><ele>29.0</ele><time>2026-04-18T18:36:32.124Z</time></trkpt><trkpt lat="40.8732485" lon="9.5033195"><ele>33.0</ele><time>2026-04-18T18:36:33.124Z</time></trkpt><trkpt lat="40.873462" lon="9.5030696"><ele>37.0</ele><time>2026-04-18T18:36:34.124Z</time></trkpt><trkpt lat="40.8736839" lon="9.5028277"><ele>37.0</ele><time>2026-04-18T18:36:35.123Z</time></trkpt><trkpt lat="40.8739118" lon="9.5025877"><ele>37.0</ele><time>2026-04-18T18:36:36.123Z</time></trkpt><trkpt lat="40.8741439" lon="9.5023595"><ele>36.5</ele><time>2026-04-18T18:36:37.124Z</time></trkpt><trkpt lat="40.8743807" lon="9.5021401"><ele>36.0</ele><time>2026-04-18T18:36:38.123Z</time></trkpt><trkpt lat="40.8746241" lon="9.5019237"><ele>32.0</ele><time>2026-04-18T18:36:39.124Z</time></trkpt><trkpt lat="40.8748751" lon="9.5017181"><ele>28.0</ele><time>2026-04-18T18:36:40.123Z</time></trkpt><trkpt lat="40.8751321" lon="9.5015262"><ele>26.5</ele><time>2026-04-18T18:36:41.124Z</time></trkpt><trkpt lat="40.8753916" lon="9.5013436"><ele>25.0</ele><time>2026-04-18T18:36:42.124Z</time></trkpt><trkpt lat="40.875652" lon="9.5011691"><ele>25.0</ele><time>2026-04-18T18:36:43.124Z</time></trkpt><trkpt lat="40.8759156" lon="9.5010062"><ele>25.0</ele><time>2026-04-18T18:36:44.124Z</time></trkpt><trkpt lat="40.8761842" lon="9.5008539"><ele>24.0</ele><time>2026-04-18T18:36:45.124Z</time></trkpt><trkpt lat="40.8764512" lon="9.5007096"><ele>23.0</ele><time>2026-04-18T18:36:46.124Z</time></trkpt><trkpt lat="40.8767226" lon="9.5005746"><ele>24.0</ele><time>2026-04-18T18:36:47.124Z</time></trkpt><trkpt lat="40.8770015" lon="9.5004489"><ele>25.0</ele><time>2026-04-18T18:36:48.124Z</time></trkpt><trkpt lat="40.8772851" lon="9.5003276"><ele>25.5</ele><time>2026-04-18T18:36:49.123Z</time></trkpt><trkpt lat="40.8775675" lon="9.5002126"><ele>26.0</ele><time>2026-04-18T18:36:50.124Z</time></trkpt><trkpt lat="40.8778503" lon="9.5001034"><ele>27.0</ele><time>2026-04-18T18:36:51.124Z</time></trkpt><trkpt lat="40.878133" lon="9.5000027"><ele>28.0</ele><time>2026-04-18T18:36:52.124Z</time></trkpt><trkpt lat="40.8784183" lon="9.4998989"><ele>29.5</ele><time>2026-04-18T18:36:53.124Z</time></trkpt><trkpt lat="40.8787009" lon="9.4998001"><ele>31.0</ele><time>2026-04-18T18:36:54.124Z</time></trkpt><trkpt lat="40.8789864" lon="9.4997006"><ele>31.0</ele><time>2026-04-18T18:36:55.124Z</time></trkpt><trkpt lat="40.8792702" lon="9.4996119"><ele>31.0</ele><time>2026-04-18T18:36:56.124Z</time></trkpt><trkpt lat="40.8795565" lon="9.4995146"><ele>32.0</ele><time>2026-04-18T18:36:57.124Z</time></trkpt><trkpt lat="40.8798426" lon="9.4994186"><ele>33.0</ele><time>2026-04-18T18:36:58.124Z</time></trkpt><trkpt lat="40.8801302" lon="9.4993177"><ele>33.0</ele><time>2026-04-18T18:36:59.124Z</time></trkpt><trkpt lat="40.8804138" lon="9.4992103"><ele>33.0</ele><time>2026-04-18T18:37:00.124Z</time></trkpt><trkpt lat="40.8806994" lon="9.4990974"><ele>34.0</ele><time>2026-04-18T18:37:01.124Z</time></trkpt><trkpt lat="40.8809815" lon="9.4989799"><ele>35.0</ele><time>2026-04-18T18:37:02.124Z</time></trkpt><trkpt lat="40.8812634" lon="9.4988532"><ele>36.0</ele><time>2026-04-18T18:37:03.123Z</time></trkpt><trkpt lat="40.8815434" lon="9.4987205"><ele>37.0</ele><time>2026-04-18T18:37:04.124Z</time></trkpt><trkpt lat="40.8818189" lon="9.498581"><ele>37.0</ele><time>2026-04-18T18:37:05.124Z</time></trkpt><trkpt lat="40.8820977" lon="9.4984277"><ele>37.0</ele><time>2026-04-18T18:37:06.124Z</time></trkpt><trkpt lat="40.8823703" lon="9.4982675"><ele>34.0</ele><time>2026-04-18T18:37:07.124Z</time></trkpt><trkpt lat="40.8826406" lon="9.4981001"><ele>31.0</ele><time>2026-04-18T18:37:08.124Z</time></trkpt><trkpt lat="40.8829044" lon="9.4979198"><ele>31.5</ele><time>2026-04-18T18:37:09.123Z</time></trkpt><trkpt lat="40.8831619" lon="9.4977309"><ele>32.0</ele><time>2026-04-18T18:37:10.124Z</time></trkpt><trkpt lat="40.8834187" lon="9.4975323"><ele>29.0</ele><time>2026-04-18T18:37:11.124Z</time></trkpt><trkpt lat="40.8836706" lon="9.4973238"><ele>26.0</ele><time>2026-04-18T18:37:12.124Z</time></trkpt><trkpt lat="40.8839151" lon="9.4971052"><ele>26.5</ele><time>2026-04-18T18:37:13.124Z</time></trkpt><trkpt lat="40.884155" lon="9.49688"><ele>27.0</ele><time>2026-04-18T18:37:14.123Z</time></trkpt><trkpt lat="40.8843902" lon="9.4966462"><ele>25.0</ele><time>2026-04-18T18:37:15.124Z</time></trkpt><trkpt lat="40.8846251" lon="9.4964084"><ele>23.0</ele><time>2026-04-18T18:37:16.124Z</time></trkpt><trkpt lat="40.8848604" lon="9.4961651"><ele>23.0</ele><time>2026-04-18T18:37:17.123Z</time></trkpt><trkpt lat="40.8850908" lon="9.4959172"><ele>23.0</ele><time>2026-04-18T18:37:18.124Z</time></trkpt><trkpt lat="40.8853171" lon="9.4956603"><ele>23.5</ele><time>2026-04-18T18:37:19.124Z</time></trkpt><trkpt lat="40.8855414" lon="9.4954086"><ele>24.0</ele><time>2026-04-18T18:37:20.123Z</time></trkpt><trkpt lat="40.8857654" lon="9.495154"><ele>23.0</ele><time>2026-04-18T18:37:21.124Z</time></trkpt><trkpt lat="40.8859837" lon="9.4949014"><ele>22.0</ele><time>2026-04-18T18:37:22.124Z</time></trkpt><trkpt lat="40.8861998" lon="9.4946454"><ele>22.5</ele><time>2026-04-18T18:37:23.124Z</time></trkpt><trkpt lat="40.8864146" lon="9.4943885"><ele>23.0</ele><time>2026-04-18T18:37:24.123Z</time></trkpt><trkpt lat="40.8866303" lon="9.4941343"><ele>21.0</ele><time>2026-04-18T18:37:25.124Z</time></trkpt><trkpt lat="40.8868428" lon="9.4938845"><ele>19.0</ele><time>2026-04-18T18:37:26.124Z</time></trkpt><trkpt lat="40.8870541" lon="9.4936353"><ele>18.5</ele><time>2026-04-18T18:37:27.124Z</time></trkpt><trkpt lat="40.8872672" lon="9.4933857"><ele>18.0</ele><time>2026-04-18T18:37:28.124Z</time></trkpt><trkpt lat="40.8874831" lon="9.4931336"><ele>17.0</ele><time>2026-04-18T18:37:29.123Z</time></trkpt><trkpt lat="40.8877007" lon="9.4928807"><ele>16.0</ele><time>2026-04-18T18:37:30.124Z</time></trkpt><trkpt lat="40.8879122" lon="9.4926331"><ele>16.0</ele><time>2026-04-18T18:37:31.124Z</time></trkpt><trkpt lat="40.8881208" lon="9.492388"><ele>16.0</ele><time>2026-04-18T18:37:32.124Z</time></trkpt><trkpt lat="40.8883238" lon="9.4921508"><ele>13.5</ele><time>2026-04-18T18:37:33.124Z</time></trkpt><trkpt lat="40.8885211" lon="9.4919158"><ele>11.0</ele><time>2026-04-18T18:37:34.124Z</time></trkpt><trkpt lat="40.8887199" lon="9.4916854"><ele>11.0</ele><time>2026-04-18T18:37:35.124Z</time></trkpt><trkpt lat="40.8889119" lon="9.4914604"><ele>11.0</ele><time>2026-04-18T18:37:36.123Z</time></trkpt><trkpt lat="40.8890943" lon="9.4912447"><ele>11.5</ele><time>2026-04-18T18:37:37.124Z</time></trkpt><trkpt lat="40.8892735" lon="9.4910335"><ele>12.0</ele><time>2026-04-18T18:37:38.123Z</time></trkpt><trkpt lat="40.8894589" lon="9.490817"><ele>12.0</ele><time>2026-04-18T18:37:39.124Z</time></trkpt><trkpt lat="40.889645" lon="9.4905972"><ele>12.0</ele><time>2026-04-18T18:37:40.124Z</time></trkpt><trkpt lat="40.8898347" lon="9.4903746"><ele>13.5</ele><time>2026-04-18T18:37:41.124Z</time></trkpt><trkpt lat="40.8900187" lon="9.4901612"><ele>15.0</ele><time>2026-04-18T18:37:42.123Z</time></trkpt><trkpt lat="40.8901936" lon="9.4899583"><ele>15.0</ele><time>2026-04-18T18:37:43.123Z</time></trkpt><trkpt lat="40.8903589" lon="9.4897688"><ele>15.0</ele><time>2026-04-18T18:37:44.124Z</time></trkpt><trkpt lat="40.8905191" lon="9.4895914"><ele>15.0</ele><time>2026-04-18T18:37:45.124Z</time></trkpt><trkpt lat="40.890679" lon="9.4894298"><ele>14.666666666666668</ele><time>2026-04-18T18:37:46.124Z</time></trkpt><trkpt lat="40.8908345" lon="9.4892887"><ele>14.333333333333334</ele><time>2026-04-18T18:37:47.124Z</time></trkpt><trkpt lat="40.8909843" lon="9.4891597"><ele>14.0</ele><time>2026-04-18T18:37:48.124Z</time></trkpt><trkpt lat="40.8911264" lon="9.4890408"><ele>14.0</ele><time>2026-04-18T18:37:49.124Z</time></trkpt><trkpt lat="40.8912611" lon="9.488926"><ele>14.0</ele><time>2026-04-18T18:37:50.124Z</time></trkpt><trkpt lat="40.8913885" lon="9.4888123"><ele>14.0</ele><time>2026-04-18T18:37:51.124Z</time></trkpt><trkpt lat="40.8915073" lon="9.4887047"><ele>14.5</ele><time>2026-04-18T18:37:52.124Z</time></trkpt><trkpt lat="40.8916209" lon="9.4886076"><ele>15.0</ele><time>2026-04-18T18:37:53.124Z</time></trkpt><trkpt lat="40.8917411" lon="9.4885273"><ele>15.5</ele><time>2026-04-18T18:37:54.124Z</time></trkpt><trkpt lat="40.8918743" lon="9.4884611"><ele>16.0</ele><time>2026-04-18T18:37:55.124Z</time></trkpt><trkpt lat="40.892023" lon="9.4884137"><ele>16.666666666666664</ele><time>2026-04-18T18:37:56.124Z</time></trkpt><trkpt lat="40.8921805" lon="9.4883872"><ele>17.333333333333332</ele><time>2026-04-18T18:37:57.123Z</time></trkpt><trkpt lat="40.8923476" lon="9.4883851"><ele>18.0</ele><time>2026-04-18T18:37:58.124Z</time></trkpt><trkpt lat="40.892532" lon="9.4883926"><ele>18.0</ele><time>2026-04-18T18:37:59.124Z</time></trkpt><trkpt lat="40.8927251" lon="9.4884028"><ele>18.0</ele><time>2026-04-18T18:38:00.124Z</time></trkpt><trkpt lat="40.8929121" lon="9.4884167"><ele>18.0</ele><time>2026-04-18T18:38:01.124Z</time></trkpt><trkpt lat="40.893098" lon="9.4884304"><ele>18.0</ele><time>2026-04-18T18:38:02.124Z</time></trkpt><trkpt lat="40.8932757" lon="9.4884447"><ele>18.0</ele><time>2026-04-18T18:38:03.124Z</time></trkpt><trkpt lat="40.89345" lon="9.4884563"><ele>18.0</ele><time>2026-04-18T18:38:04.124Z</time></trkpt><trkpt lat="40.8936235" lon="9.4884659"><ele>17.333333333333332</ele><time>2026-04-18T18:38:05.124Z</time></trkpt><trkpt lat="40.893792" lon="9.4884793"><ele>16.666666666666664</ele><time>2026-04-18T18:38:06.124Z</time></trkpt><trkpt lat="40.8939598" lon="9.4884874"><ele>16.0</ele><time>2026-04-18T18:38:07.124Z</time></trkpt><trkpt lat="40.8941225" lon="9.4884995"><ele>17.0</ele><time>2026-04-18T18:38:08.123Z</time></trkpt><trkpt lat="40.8942869" lon="9.4885093"><ele>18.0</ele><time>2026-04-18T18:38:09.124Z</time></trkpt><trkpt lat="40.8944475" lon="9.4885149"><ele>19.0</ele><time>2026-04-18T18:38:10.124Z</time></trkpt><trkpt lat="40.8946059" lon="9.4885264"><ele>19.0</ele><time>2026-04-18T18:38:11.123Z</time></trkpt><trkpt lat="40.8947597" lon="9.4885496"><ele>19.0</ele><time>2026-04-18T18:38:12.124Z</time></trkpt><trkpt lat="40.8949105" lon="9.4885995"><ele>19.0</ele><time>2026-04-18T18:38:13.123Z</time></trkpt><trkpt lat="40.8950524" lon="9.4886869"><ele>18.666666666666664</ele><time>2026-04-18T18:38:14.124Z</time></trkpt><trkpt lat="40.8951867" lon="9.4887969"><ele>18.333333333333332</ele><time>2026-04-18T18:38:15.124Z</time></trkpt><trkpt lat="40.8953123" lon="9.4889254"><ele>18.0</ele><time>2026-04-18T18:38:16.124Z</time></trkpt><trkpt lat="40.8954343" lon="9.4890625"><ele>18.0</ele><time>2026-04-18T18:38:17.124Z</time></trkpt><trkpt lat="40.8955564" lon="9.4892027"><ele>18.0</ele><time>2026-04-18T18:38:18.124Z</time></trkpt><trkpt lat="40.8956807" lon="9.489346"><ele>18.0</ele><time>2026-04-18T18:38:19.124Z</time></trkpt><trkpt lat="40.8958115" lon="9.4894961"><ele>18.0</ele><time>2026-04-18T18:38:20.124Z</time></trkpt><trkpt lat="40.8959459" lon="9.4896521"><ele>18.0</ele><time>2026-04-18T18:38:21.124Z</time></trkpt><trkpt lat="40.8960851" lon="9.489814"><ele>18.0</ele><time>2026-04-18T18:38:22.124Z</time></trkpt><trkpt lat="40.896229" lon="9.489974"><ele>18.0</ele><time>2026-04-18T18:38:23.124Z</time></trkpt><trkpt lat="40.8963702" lon="9.4901346"><ele>18.0</ele><time>2026-04-18T18:38:24.124Z</time></trkpt><trkpt lat="40.8965205" lon="9.4903014"><ele>18.0</ele><time>2026-04-18T18:38:25.123Z</time></trkpt><trkpt lat="40.8966768" lon="9.4904749"><ele>19.666666666666668</ele><time>2026-04-18T18:38:26.124Z</time></trkpt><trkpt lat="40.8968352" lon="9.4906573"><ele>21.333333333333336</ele><time>2026-04-18T18:38:27.124Z</time></trkpt><trkpt lat="40.8970013" lon="9.4908447"><ele>23.0</ele><time>2026-04-18T18:38:28.124Z</time></trkpt><trkpt lat="40.8971741" lon="9.4910398"><ele>23.0</ele><time>2026-04-18T18:38:29.124Z</time></trkpt><trkpt lat="40.8973552" lon="9.4912435"><ele>23.0</ele><time>2026-04-18T18:38:30.124Z</time></trkpt><trkpt lat="40.8975489" lon="9.4914582"><ele>23.0</ele><time>2026-04-18T18:38:31.124Z</time></trkpt><trkpt lat="40.8977482" lon="9.491688"><ele>23.0</ele><time>2026-04-18T18:38:32.124Z</time></trkpt><trkpt lat="40.897942" lon="9.4919173"><ele>22.0</ele><time>2026-04-18T18:38:33.124Z</time></trkpt><trkpt lat="40.8981275" lon="9.4921365"><ele>21.0</ele><time>2026-04-18T18:38:34.124Z</time></trkpt><trkpt lat="40.8983112" lon="9.4923556"><ele>21.5</ele><time>2026-04-18T18:38:35.123Z</time></trkpt><trkpt lat="40.898498" lon="9.4925711"><ele>22.0</ele><time>2026-04-18T18:38:36.123Z</time></trkpt><trkpt lat="40.8986827" lon="9.4927883"><ele>21.0</ele><time>2026-04-18T18:38:37.124Z</time></trkpt><trkpt lat="40.8988658" lon="9.4930069"><ele>20.0</ele><time>2026-04-18T18:38:38.124Z</time></trkpt><trkpt lat="40.8990526" lon="9.4932293"><ele>20.0</ele><time>2026-04-18T18:38:39.124Z</time></trkpt><trkpt lat="40.8992345" lon="9.493453"><ele>20.0</ele><time>2026-04-18T18:38:40.124Z</time></trkpt><trkpt lat="40.8994155" lon="9.4936727"><ele>19.5</ele><time>2026-04-18T18:38:41.124Z</time></trkpt><trkpt lat="40.899597" lon="9.4938921"><ele>19.0</ele><time>2026-04-18T18:38:42.124Z</time></trkpt><trkpt lat="40.8997764" lon="9.4941108"><ele>19.0</ele><time>2026-04-18T18:38:43.124Z</time></trkpt><trkpt lat="40.8999549" lon="9.4943267"><ele>19.0</ele><time>2026-04-18T18:38:44.124Z</time></trkpt><trkpt lat="40.9001307" lon="9.4945433"><ele>20.0</ele><time>2026-04-18T18:38:45.124Z</time></trkpt><trkpt lat="40.9003077" lon="9.4947586"><ele>21.0</ele><time>2026-04-18T18:38:46.124Z</time></trkpt><trkpt lat="40.900487" lon="9.4949732"><ele>21.0</ele><time>2026-04-18T18:38:47.124Z</time></trkpt><trkpt lat="40.9006627" lon="9.4951909"><ele>21.0</ele><time>2026-04-18T18:38:48.124Z</time></trkpt><trkpt lat="40.9008414" lon="9.4954025"><ele>21.5</ele><time>2026-04-18T18:38:49.124Z</time></trkpt><trkpt lat="40.9010202" lon="9.4956189"><ele>22.0</ele><time>2026-04-18T18:38:50.124Z</time></trkpt><trkpt lat="40.9011991" lon="9.4958375"><ele>22.0</ele><time>2026-04-18T18:38:51.124Z</time></trkpt><trkpt lat="40.9013815" lon="9.4960625"><ele>22.0</ele><time>2026-04-18T18:38:52.124Z</time></trkpt><trkpt lat="40.9015624" lon="9.496283"><ele>20.5</ele><time>2026-04-18T18:38:53.124Z</time></trkpt><trkpt lat="40.9017459" lon="9.4965036"><ele>19.0</ele><time>2026-04-18T18:38:54.124Z</time></trkpt><trkpt lat="40.9019284" lon="9.4967228"><ele>20.5</ele><time>2026-04-18T18:38:55.124Z</time></trkpt><trkpt lat="40.9021102" lon="9.496941"><ele>22.0</ele><time>2026-04-18T18:38:56.124Z</time></trkpt><trkpt lat="40.9022925" lon="9.4971575"><ele>22.0</ele><time>2026-04-18T18:38:57.124Z</time></trkpt><trkpt lat="40.9024743" lon="9.4973823"><ele>22.0</ele><time>2026-04-18T18:38:58.124Z</time></trkpt><trkpt lat="40.9026551" lon="9.4975975"><ele>22.0</ele><time>2026-04-18T18:38:59.124Z</time></trkpt><trkpt lat="40.9028387" lon="9.4978172"><ele>22.0</ele><time>2026-04-18T18:39:00.123Z</time></trkpt><trkpt lat="40.9030188" lon="9.4980362"><ele>22.0</ele><time>2026-04-18T18:39:01.124Z</time></trkpt><trkpt lat="40.9031982" lon="9.4982536"><ele>22.0</ele><time>2026-04-18T18:39:02.124Z</time></trkpt><trkpt lat="40.9033753" lon="9.4984771"><ele>21.5</ele><time>2026-04-18T18:39:03.124Z</time></trkpt><trkpt lat="40.9035494" lon="9.4987043"><ele>21.0</ele><time>2026-04-18T18:39:04.124Z</time></trkpt><trkpt lat="40.9037206" lon="9.4989337"><ele>21.0</ele><time>2026-04-18T18:39:05.124Z</time></trkpt><trkpt lat="40.9038876" lon="9.4991701"><ele>21.0</ele><time>2026-04-18T18:39:06.124Z</time></trkpt><trkpt lat="40.9040523" lon="9.4994133"><ele>22.5</ele><time>2026-04-18T18:39:07.123Z</time></trkpt><trkpt lat="40.9042128" lon="9.4996616"><ele>24.0</ele><time>2026-04-18T18:39:08.124Z</time></trkpt><trkpt lat="40.9043676" lon="9.4999076"><ele>24.0</ele><time>2026-04-18T18:39:09.124Z</time></trkpt><trkpt lat="40.9045179" lon="9.5001637"><ele>24.0</ele><time>2026-04-18T18:39:10.124Z</time></trkpt><trkpt lat="40.9046643" lon="9.5004241"><ele>22.0</ele><time>2026-04-18T18:39:11.123Z</time></trkpt><trkpt lat="40.9048065" lon="9.5006852"><ele>20.0</ele><time>2026-04-18T18:39:12.124Z</time></trkpt><trkpt lat="40.9049459" lon="9.5009454"><ele>19.5</ele><time>2026-04-18T18:39:13.124Z</time></trkpt><trkpt lat="40.9050837" lon="9.5012136"><ele>19.0</ele><time>2026-04-18T18:39:14.123Z</time></trkpt><trkpt lat="40.9052171" lon="9.5014824"><ele>19.0</ele><time>2026-04-18T18:39:15.124Z</time></trkpt><trkpt lat="40.9053449" lon="9.5017606"><ele>19.0</ele><time>2026-04-18T18:39:16.123Z</time></trkpt><trkpt lat="40.9054722" lon="9.5020411"><ele>21.0</ele><time>2026-04-18T18:39:17.124Z</time></trkpt><trkpt lat="40.9055968" lon="9.5023202"><ele>23.0</ele><time>2026-04-18T18:39:18.124Z</time></trkpt><trkpt lat="40.9057238" lon="9.5025961"><ele>23.0</ele><time>2026-04-18T18:39:19.123Z</time></trkpt><trkpt lat="40.9058503" lon="9.5028616"><ele>23.0</ele><time>2026-04-18T18:39:20.124Z</time></trkpt><trkpt lat="40.9059735" lon="9.5031244"><ele>29.0</ele><time>2026-04-18T18:39:21.124Z</time></trkpt><trkpt lat="40.9060965" lon="9.5033862"><ele>35.0</ele><time>2026-04-18T18:39:22.124Z</time></trkpt><trkpt lat="40.9062164" lon="9.5036404"><ele>30.5</ele><time>2026-04-18T18:39:23.124Z</time></trkpt><trkpt lat="40.9063338" lon="9.5038972"><ele>26.0</ele><time>2026-04-18T18:39:24.124Z</time></trkpt><trkpt lat="40.9064518" lon="9.5041482"><ele>26.0</ele><time>2026-04-18T18:39:25.124Z</time></trkpt><trkpt lat="40.9065654" lon="9.5043963"><ele>26.0</ele><time>2026-04-18T18:39:26.124Z</time></trkpt><trkpt lat="40.9066775" lon="9.504641"><ele>26.0</ele><time>2026-04-18T18:39:27.124Z</time></trkpt><trkpt lat="40.9067837" lon="9.5048763"><ele>25.0</ele><time>2026-04-18T18:39:28.124Z</time></trkpt><trkpt lat="40.9068902" lon="9.5050999"><ele>24.0</ele><time>2026-04-18T18:39:29.124Z</time></trkpt><trkpt lat="40.906994" lon="9.505315"><ele>23.0</ele><time>2026-04-18T18:39:30.124Z</time></trkpt><trkpt lat="40.9070974" lon="9.5055207"><ele>21.666666666666668</ele><time>2026-04-18T18:39:31.124Z</time></trkpt><trkpt lat="40.9072042" lon="9.5057311"><ele>20.333333333333332</ele><time>2026-04-18T18:39:32.124Z</time></trkpt><trkpt lat="40.9073055" lon="9.5059342"><ele>19.0</ele><time>2026-04-18T18:39:33.124Z</time></trkpt><trkpt lat="40.9074103" lon="9.5061254"><ele>18.0</ele><time>2026-04-18T18:39:34.124Z</time></trkpt><trkpt lat="40.907513" lon="9.5062927"><ele>17.0</ele><time>2026-04-18T18:39:35.124Z</time></trkpt><trkpt lat="40.9076193" lon="9.5064452"><ele>16.0</ele><time>2026-04-18T18:39:36.122Z</time></trkpt><trkpt lat="40.9077237" lon="9.5065898"><ele>16.0</ele><time>2026-04-18T18:39:37.124Z</time></trkpt><trkpt lat="40.907836" lon="9.5067136"><ele>16.0</ele><time>2026-04-18T18:39:38.124Z</time></trkpt><trkpt lat="40.9079496" lon="9.506818"><ele>16.0</ele><time>2026-04-18T18:39:39.124Z</time></trkpt><trkpt lat="40.9080662" lon="9.5069087"><ele>16.0</ele><time>2026-04-18T18:39:40.124Z</time></trkpt><trkpt lat="40.9081816" lon="9.5069901"><ele>16.0</ele><time>2026-04-18T18:39:41.124Z</time></trkpt><trkpt lat="40.9083001" lon="9.5070579"><ele>16.0</ele><time>2026-04-18T18:39:42.124Z</time></trkpt><trkpt lat="40.9084249" lon="9.5071074"><ele>16.0</ele><time>2026-04-18T18:39:43.124Z</time></trkpt><trkpt lat="40.9085673" lon="9.5071486"><ele>16.0</ele><time>2026-04-18T18:39:44.124Z</time></trkpt><trkpt lat="40.9087171" lon="9.5071811"><ele>16.666666666666664</ele><time>2026-04-18T18:39:45.123Z</time></trkpt><trkpt lat="40.9088671" lon="9.507204"><ele>17.333333333333332</ele><time>2026-04-18T18:39:46.124Z</time></trkpt><trkpt lat="40.9090157" lon="9.5072121"><ele>18.0</ele><time>2026-04-18T18:39:47.124Z</time></trkpt><trkpt lat="40.9091683" lon="9.5071997"><ele>15.333333333333334</ele><time>2026-04-18T18:39:48.124Z</time></trkpt><trkpt lat="40.9093293" lon="9.5071616"><ele>12.666666666666668</ele><time>2026-04-18T18:39:49.124Z</time></trkpt><trkpt lat="40.9094894" lon="9.5070972"><ele>10.0</ele><time>2026-04-18T18:39:50.124Z</time></trkpt><trkpt lat="40.9096408" lon="9.5070154"><ele>8.666666666666668</ele><time>2026-04-18T18:39:51.124Z</time></trkpt><trkpt lat="40.9098085" lon="9.5068983"><ele>7.333333333333334</ele><time>2026-04-18T18:39:52.124Z</time></trkpt><trkpt lat="40.9099633" lon="9.5067866"><ele>6.0</ele><time>2026-04-18T18:39:53.124Z</time></trkpt><trkpt lat="40.9101028" lon="9.5066548"><ele>5.75</ele><time>2026-04-18T18:39:54.124Z</time></trkpt><trkpt lat="40.9102301" lon="9.5065093"><ele>5.5</ele><time>2026-04-18T18:39:55.124Z</time></trkpt><trkpt lat="40.9103115" lon="9.5063743"><ele>5.25</ele><time>2026-04-18T18:39:56.124Z</time></trkpt><trkpt lat="40.9103993" lon="9.5062302"><ele>5.0</ele><time>2026-04-18T18:39:57.124Z</time></trkpt><trkpt lat="40.9104732" lon="9.5060892"><ele>5.0</ele><time>2026-04-18T18:39:58.124Z</time></trkpt><trkpt lat="40.9105355" lon="9.5059334"><ele>5.0</ele><time>2026-04-18T18:39:59.124Z</time></trkpt><trkpt lat="40.9105916" lon="9.5057601"><ele>5.0</ele><time>2026-04-18T18:40:00.124Z</time></trkpt><trkpt lat="40.9106369" lon="9.5055841"><ele>5.0</ele><time>2026-04-18T18:40:01.124Z</time></trkpt><trkpt lat="40.910679" lon="9.5054071"><ele>5.0</ele><time>2026-04-18T18:40:02.124Z</time></trkpt><trkpt lat="40.9107257" lon="9.5052224"><ele>5.0</ele><time>2026-04-18T18:40:03.124Z</time></trkpt><trkpt lat="40.9107708" lon="9.50504"><ele>5.0</ele><time>2026-04-18T18:40:04.123Z</time></trkpt><trkpt lat="40.9108171" lon="9.504864"><ele>5.0</ele><time>2026-04-18T18:40:05.124Z</time></trkpt><trkpt lat="40.9108653" lon="9.504698"><ele>4.5</ele><time>2026-04-18T18:40:06.124Z</time></trkpt><trkpt lat="40.910911" lon="9.5045442"><ele>4.0</ele><time>2026-04-18T18:40:07.124Z</time></trkpt><trkpt lat="40.9109596" lon="9.5043987"><ele>3.5</ele><time>2026-04-18T18:40:08.124Z</time></trkpt><trkpt lat="40.9110102" lon="9.5042555"><ele>3.0</ele><time>2026-04-18T18:40:09.123Z</time></trkpt><trkpt lat="40.9110653" lon="9.5041157"><ele>3.0</ele><time>2026-04-18T18:40:10.123Z</time></trkpt><trkpt lat="40.9111361" lon="9.5039751"><ele>3.0</ele><time>2026-04-18T18:40:11.124Z</time></trkpt><trkpt lat="40.9112187" lon="9.5038318"><ele>3.0</ele><time>2026-04-18T18:40:12.124Z</time></trkpt><trkpt lat="40.9113157" lon="9.5036824"><ele>3.0</ele><time>2026-04-18T18:40:13.124Z</time></trkpt><trkpt lat="40.9114204" lon="9.5035333"><ele>2.6666666666666665</ele><time>2026-04-18T18:40:14.124Z</time></trkpt><trkpt lat="40.9115294" lon="9.5033874"><ele>2.333333333333333</ele><time>2026-04-18T18:40:15.124Z</time></trkpt><trkpt lat="40.9116453" lon="9.5032444"><ele>2.0</ele><time>2026-04-18T18:40:16.124Z</time></trkpt><trkpt lat="40.9117678" lon="9.5031068"><ele>2.0</ele><time>2026-04-18T18:40:17.123Z</time></trkpt><trkpt lat="40.9118948" lon="9.5029701"><ele>2.0</ele><time>2026-04-18T18:40:18.124Z</time></trkpt><trkpt lat="40.9120272" lon="9.502837"><ele>2.0</ele><time>2026-04-18T18:40:19.124Z</time></trkpt><trkpt lat="40.9121569" lon="9.502714"><ele>2.0</ele><time>2026-04-18T18:40:20.124Z</time></trkpt><trkpt lat="40.9122874" lon="9.5026019"><ele>2.0</ele><time>2026-04-18T18:40:21.124Z</time></trkpt><trkpt lat="40.9124203" lon="9.5024995"><ele>2.0</ele><time>2026-04-18T18:40:22.124Z</time></trkpt><trkpt lat="40.9125577" lon="9.5024025"><ele>1.3333333333333333</ele><time>2026-04-18T18:40:23.124Z</time></trkpt><trkpt lat="40.9127003" lon="9.5023068"><ele>0.6666666666666666</ele><time>2026-04-18T18:40:24.124Z</time></trkpt><trkpt lat="40.9128464" lon="9.5022113"><ele>0.0</ele><time>2026-04-18T18:40:25.124Z</time></trkpt><trkpt lat="40.9129957" lon="9.5021274"><ele>0.3333333333333333</ele><time>2026-04-18T18:40:26.124Z</time></trkpt><trkpt lat="40.9131535" lon="9.5020469"><ele>0.6666666666666666</ele><time>2026-04-18T18:40:27.124Z</time></trkpt><trkpt lat="40.9133168" lon="9.501976"><ele>1.0</ele><time>2026-04-18T18:40:28.124Z</time></trkpt><trkpt lat="40.9134807" lon="9.5019071"><ele>2.3333333333333335</ele><time>2026-04-18T18:40:29.124Z</time></trkpt><trkpt lat="40.913645" lon="9.5018525"><ele>3.666666666666667</ele><time>2026-04-18T18:40:30.124Z</time></trkpt><trkpt lat="40.9138068" lon="9.5018055"><ele>5.0</ele><time>2026-04-18T18:40:31.124Z</time></trkpt><trkpt lat="40.9139716" lon="9.5017673"><ele>5.0</ele><time>2026-04-18T18:40:32.124Z</time></trkpt><trkpt lat="40.9141378" lon="9.5017303"><ele>5.0</ele><time>2026-04-18T18:40:33.124Z</time></trkpt><trkpt lat="40.9143009" lon="9.5017013"><ele>5.0</ele><time>2026-04-18T18:40:34.123Z</time></trkpt><trkpt lat="40.9144562" lon="9.5016796"><ele>4.75</ele><time>2026-04-18T18:40:35.124Z</time></trkpt><trkpt lat="40.9146042" lon="9.50167"><ele>4.5</ele><time>2026-04-18T18:40:36.124Z</time></trkpt><trkpt lat="40.9147455" lon="9.5016638"><ele>4.25</ele><time>2026-04-18T18:40:37.124Z</time></trkpt><trkpt lat="40.914893" lon="9.5016578"><ele>4.0</ele><time>2026-04-18T18:40:38.124Z</time></trkpt><trkpt lat="40.9150558" lon="9.5016489"><ele>3.0</ele><time>2026-04-18T18:40:39.124Z</time></trkpt><trkpt lat="40.9152296" lon="9.5016423"><ele>2.0</ele><time>2026-04-18T18:40:40.124Z</time></trkpt><trkpt lat="40.915404" lon="9.5016343"><ele>1.0</ele><time>2026-04-18T18:40:41.124Z</time></trkpt><trkpt lat="40.9155772" lon="9.5016227"><ele>1.0</ele><time>2026-04-18T18:40:42.124Z</time></trkpt><trkpt lat="40.9157503" lon="9.5016118"><ele>1.0</ele><time>2026-04-18T18:40:43.124Z</time></trkpt><trkpt lat="40.9159181" lon="9.5016035"><ele>1.0</ele><time>2026-04-18T18:40:44.124Z</time></trkpt><trkpt lat="40.9160862" lon="9.5015956"><ele>1.0</ele><time>2026-04-18T18:40:45.124Z</time></trkpt><trkpt lat="40.9162505" lon="9.5015846"><ele>1.0</ele><time>2026-04-18T18:40:46.124Z</time></trkpt><trkpt lat="40.9164142" lon="9.5015761"><ele>1.0</ele><time>2026-04-18T18:40:47.124Z</time></trkpt><trkpt lat="40.9165749" lon="9.5015684"><ele>0.6666666666666666</ele><time>2026-04-18T18:40:48.124Z</time></trkpt><trkpt lat="40.9167365" lon="9.5015618"><ele>0.3333333333333333</ele><time>2026-04-18T18:40:49.124Z</time></trkpt><trkpt lat="40.9168907" lon="9.5015514"><ele>0.0</ele><time>2026-04-18T18:40:50.124Z</time></trkpt><trkpt lat="40.917038" lon="9.5015438"><ele>0.0</ele><time>2026-04-18T18:40:51.124Z</time></trkpt><trkpt lat="40.9171922" lon="9.5015388"><ele>0.0</ele><time>2026-04-18T18:40:52.123Z</time></trkpt><trkpt lat="40.9173477" lon="9.5015328"><ele>0.0</ele><time>2026-04-18T18:40:53.124Z</time></trkpt><trkpt lat="40.9175012" lon="9.5015252"><ele>0.0</ele><time>2026-04-18T18:40:54.124Z</time></trkpt><trkpt lat="40.9176501" lon="9.5015227"><ele>0.0</ele><time>2026-04-18T18:40:55.123Z</time></trkpt><trkpt lat="40.9177989" lon="9.501516"><ele>0.0</ele><time>2026-04-18T18:40:56.124Z</time></trkpt><trkpt lat="40.917943" lon="9.50151"><ele>0.0</ele><time>2026-04-18T18:40:57.124Z</time></trkpt><trkpt lat="40.9180862" lon="9.5014991"><ele>0.0</ele><time>2026-04-18T18:40:58.124Z</time></trkpt><trkpt lat="40.9182269" lon="9.501489"><ele>0.0</ele><time>2026-04-18T18:40:59.124Z</time></trkpt><trkpt lat="40.9183668" lon="9.5014847"><ele>0.0</ele><time>2026-04-18T18:41:00.124Z</time></trkpt><trkpt lat="40.9185096" lon="9.5014789"><ele>0.0</ele><time>2026-04-18T18:41:01.124Z</time></trkpt><trkpt lat="40.9186546" lon="9.5014727"><ele>0.0</ele><time>2026-04-18T18:41:02.123Z</time></trkpt><trkpt lat="40.9187996" lon="9.501463"><ele>0.0</ele><time>2026-04-18T18:41:03.124Z</time></trkpt><trkpt lat="40.9189399" lon="9.5014591"><ele>0.0</ele><time>2026-04-18T18:41:04.124Z</time></trkpt><trkpt lat="40.9190757" lon="9.5014548"><ele>0.0</ele><time>2026-04-18T18:41:05.123Z</time></trkpt><trkpt lat="40.9192027" lon="9.5014531"><ele>0.0</ele><time>2026-04-18T18:41:06.124Z</time></trkpt><trkpt lat="40.9193258" lon="9.5014524"><ele>0.0</ele><time>2026-04-18T18:41:07.124Z</time></trkpt><trkpt lat="40.919444" lon="9.5014534"><ele>0.0</ele><time>2026-04-18T18:41:08.123Z</time></trkpt><trkpt lat="40.9195529" lon="9.5014617"><ele>0.0</ele><time>2026-04-18T18:41:09.124Z</time></trkpt><trkpt lat="40.9196611" lon="9.5014829"><ele>0.0</ele><time>2026-04-18T18:41:10.124Z</time></trkpt><trkpt lat="40.9197687" lon="9.5015049"><ele>0.0</ele><time>2026-04-18T18:41:11.124Z</time></trkpt><trkpt lat="40.9198803" lon="9.5015369"><ele>0.0</ele><time>2026-04-18T18:41:12.124Z</time></trkpt><trkpt lat="40.9199973" lon="9.5015788"><ele>0.0</ele><time>2026-04-18T18:41:13.124Z</time></trkpt><trkpt lat="40.9201155" lon="9.5016242"><ele>1.3333333333333333</ele><time>2026-04-18T18:41:14.124Z</time></trkpt><trkpt lat="40.9203379" lon="9.5017364"><ele>2.6666666666666665</ele><time>2026-04-18T18:41:16.124Z</time></trkpt><trkpt lat="40.9204438" lon="9.5017957"><ele>4.0</ele><time>2026-04-18T18:41:17.124Z</time></trkpt><trkpt lat="40.9205434" lon="9.5018647"><ele>4.0</ele><time>2026-04-18T18:41:18.124Z</time></trkpt><trkpt lat="40.9206424" lon="9.5019333"><ele>4.0</ele><time>2026-04-18T18:41:19.124Z</time></trkpt><trkpt lat="40.9207331" lon="9.502003"><ele>4.0</ele><time>2026-04-18T18:41:20.124Z</time></trkpt><trkpt lat="40.9208219" lon="9.5020755"><ele>4.0</ele><time>2026-04-18T18:41:21.124Z</time></trkpt><trkpt lat="40.9209039" lon="9.5021514"><ele>4.0</ele><time>2026-04-18T18:41:22.123Z</time></trkpt><trkpt lat="40.9209812" lon="9.5022337"><ele>5.0</ele><time>2026-04-18T18:41:23.124Z</time></trkpt><trkpt lat="40.9210566" lon="9.5023177"><ele>6.0</ele><time>2026-04-18T18:41:24.124Z</time></trkpt><trkpt lat="40.9211386" lon="9.5024143"><ele>7.0</ele><time>2026-04-18T18:41:25.124Z</time></trkpt><trkpt lat="40.9212338" lon="9.5025332"><ele>8.0</ele><time>2026-04-18T18:41:26.123Z</time></trkpt><trkpt lat="40.921333" lon="9.5026668"><ele>8.0</ele><time>2026-04-18T18:41:27.124Z</time></trkpt><trkpt lat="40.9214209" lon="9.5028158"><ele>8.0</ele><time>2026-04-18T18:41:28.124Z</time></trkpt><trkpt lat="40.9214917" lon="9.5029799"><ele>8.0</ele><time>2026-04-18T18:41:29.124Z</time></trkpt><trkpt lat="40.9215546" lon="9.5031545"><ele>8.0</ele><time>2026-04-18T18:41:30.124Z</time></trkpt><trkpt lat="40.9216217" lon="9.5033305"><ele>7.333333333333333</ele><time>2026-04-18T18:41:31.124Z</time></trkpt><trkpt lat="40.9216938" lon="9.5035112"><ele>6.666666666666666</ele><time>2026-04-18T18:41:32.124Z</time></trkpt><trkpt lat="40.9217724" lon="9.5037001"><ele>6.0</ele><time>2026-04-18T18:41:33.124Z</time></trkpt><trkpt lat="40.921847" lon="9.503885"><ele>4.666666666666667</ele><time>2026-04-18T18:41:34.124Z</time></trkpt><trkpt lat="40.9219256" lon="9.5040768"><ele>3.333333333333333</ele><time>2026-04-18T18:41:35.124Z</time></trkpt><trkpt lat="40.9220023" lon="9.5042671"><ele>2.0</ele><time>2026-04-18T18:41:36.124Z</time></trkpt><trkpt lat="40.9256749" lon="9.5074796"><ele>2.0</ele><time>2026-04-18T18:42:03.124Z</time></trkpt><trkpt lat="40.9258874" lon="9.5074503"><ele>2.0</ele><time>2026-04-18T18:42:04.124Z</time></trkpt><trkpt lat="40.9260428" lon="9.5074564"><ele>2.0</ele><time>2026-04-18T18:42:05.124Z</time></trkpt><trkpt lat="40.9262043" lon="9.5074583"><ele>2.0</ele><time>2026-04-18T18:42:06.124Z</time></trkpt><trkpt lat="40.9263533" lon="9.5074785"><ele>2.0</ele><time>2026-04-18T18:42:07.124Z</time></trkpt><trkpt lat="40.9265047" lon="9.5074922"><ele>2.0</ele><time>2026-04-18T18:42:08.124Z</time></trkpt><trkpt lat="40.926647" lon="9.5075155"><ele>2.0</ele><time>2026-04-18T18:42:09.124Z</time></trkpt><trkpt lat="40.9267829" lon="9.5075407"><ele>1.5</ele><time>2026-04-18T18:42:10.124Z</time></trkpt><trkpt lat="40.9269163" lon="9.5075723"><ele>1.0</ele><time>2026-04-18T18:42:11.124Z</time></trkpt><trkpt lat="40.9270421" lon="9.5076006"><ele>0.5</ele><time>2026-04-18T18:42:12.124Z</time></trkpt><trkpt lat="40.9271786" lon="9.507627"><ele>0.0</ele><time>2026-04-18T18:42:13.124Z</time></trkpt><trkpt lat="40.9273101" lon="9.5076569"><ele>0.0</ele><time>2026-04-18T18:42:14.124Z</time></trkpt><trkpt lat="40.9274496" lon="9.5076857"><ele>0.0</ele><time>2026-04-18T18:42:15.124Z</time></trkpt><trkpt lat="40.9275893" lon="9.5077206"><ele>0.0</ele><time>2026-04-18T18:42:16.123Z</time></trkpt><trkpt lat="40.9277263" lon="9.5077561"><ele>0.0</ele><time>2026-04-18T18:42:17.124Z</time></trkpt><trkpt lat="40.9278635" lon="9.5077961"><ele>0.0</ele><time>2026-04-18T18:42:18.124Z</time></trkpt><trkpt lat="40.928003" lon="9.5078341"><ele>0.0</ele><time>2026-04-18T18:42:19.124Z</time></trkpt><trkpt lat="40.9281441" lon="9.5078673"><ele>0.0</ele><time>2026-04-18T18:42:20.123Z</time></trkpt><trkpt lat="40.928291" lon="9.5079061"><ele>0.0</ele><time>2026-04-18T18:42:21.123Z</time></trkpt><trkpt lat="40.9284434" lon="9.5079453"><ele>1.0</ele><time>2026-04-18T18:42:22.124Z</time></trkpt><trkpt lat="40.9285936" lon="9.507983"><ele>2.0</ele><time>2026-04-18T18:42:23.124Z</time></trkpt><trkpt lat="40.9287419" lon="9.5080229"><ele>3.0</ele><time>2026-04-18T18:42:24.124Z</time></trkpt><trkpt lat="40.9288922" lon="9.5080652"><ele>3.0</ele><time>2026-04-18T18:42:25.124Z</time></trkpt><trkpt lat="40.9290494" lon="9.5081024"><ele>3.0</ele><time>2026-04-18T18:42:26.124Z</time></trkpt><trkpt lat="40.9292037" lon="9.5081454"><ele>3.0</ele><time>2026-04-18T18:42:27.123Z</time></trkpt><trkpt lat="40.9293597" lon="9.5081874"><ele>2.0</ele><time>2026-04-18T18:42:28.124Z</time></trkpt><trkpt lat="40.9295205" lon="9.5082273"><ele>1.0</ele><time>2026-04-18T18:42:29.123Z</time></trkpt><trkpt lat="40.9296801" lon="9.508271"><ele>0.0</ele><time>2026-04-18T18:42:30.124Z</time></trkpt><trkpt lat="40.9298389" lon="9.508316"><ele>0.0</ele><time>2026-04-18T18:42:31.124Z</time></trkpt><trkpt lat="40.9300008" lon="9.5083568"><ele>0.0</ele><time>2026-04-18T18:42:32.124Z</time></trkpt><trkpt lat="40.930159" lon="9.5083977"><ele>0.0</ele><time>2026-04-18T18:42:33.124Z</time></trkpt><trkpt lat="40.9303233" lon="9.5084391"><ele>0.6666666666666666</ele><time>2026-04-18T18:42:34.124Z</time></trkpt><trkpt lat="40.9304924" lon="9.5084737"><ele>1.3333333333333333</ele><time>2026-04-18T18:42:35.124Z</time></trkpt><trkpt lat="40.930662" lon="9.508504"><ele>2.0</ele><time>2026-04-18T18:42:36.124Z</time></trkpt><trkpt lat="40.9308313" lon="9.5085258"><ele>2.6666666666666665</ele><time>2026-04-18T18:42:37.124Z</time></trkpt><trkpt lat="40.9310017" lon="9.5085414"><ele>3.333333333333333</ele><time>2026-04-18T18:42:38.124Z</time></trkpt><trkpt lat="40.9311699" lon="9.5085567"><ele>4.0</ele><time>2026-04-18T18:42:39.124Z</time></trkpt><trkpt lat="40.9313375" lon="9.508573"><ele>4.0</ele><time>2026-04-18T18:42:40.124Z</time></trkpt><trkpt lat="40.9315083" lon="9.5085831"><ele>4.0</ele><time>2026-04-18T18:42:41.123Z</time></trkpt><trkpt lat="40.9316899" lon="9.5085894"><ele>4.0</ele><time>2026-04-18T18:42:42.124Z</time></trkpt><trkpt lat="40.9318824" lon="9.5085957"><ele>4.666666666666666</ele><time>2026-04-18T18:42:43.124Z</time></trkpt><trkpt lat="40.9320807" lon="9.5085906"><ele>5.333333333333333</ele><time>2026-04-18T18:42:44.124Z</time></trkpt><trkpt lat="40.9322758" lon="9.5085843"><ele>6.0</ele><time>2026-04-18T18:42:45.124Z</time></trkpt><trkpt lat="40.9324703" lon="9.5085752"><ele>5.333333333333333</ele><time>2026-04-18T18:42:46.124Z</time></trkpt><trkpt lat="40.9326687" lon="9.5085661"><ele>4.666666666666666</ele><time>2026-04-18T18:42:47.124Z</time></trkpt><trkpt lat="40.9328676" lon="9.5085546"><ele>4.0</ele><time>2026-04-18T18:42:48.124Z</time></trkpt><trkpt lat="40.9330701" lon="9.5085451"><ele>4.0</ele><time>2026-04-18T18:42:49.124Z</time></trkpt><trkpt lat="40.9332701" lon="9.5085281"><ele>4.0</ele><time>2026-04-18T18:42:50.124Z</time></trkpt><trkpt lat="40.9334756" lon="9.508515"><ele>4.0</ele><time>2026-04-18T18:42:51.124Z</time></trkpt><trkpt lat="40.9336811" lon="9.5084901"><ele>4.333333333333333</ele><time>2026-04-18T18:42:52.124Z</time></trkpt><trkpt lat="40.9338868" lon="9.5084644"><ele>4.666666666666667</ele><time>2026-04-18T18:42:53.124Z</time></trkpt><trkpt lat="40.9340947" lon="9.5084333"><ele>5.0</ele><time>2026-04-18T18:42:54.123Z</time></trkpt><trkpt lat="40.9342993" lon="9.5083991"><ele>5.0</ele><time>2026-04-18T18:42:55.124Z</time></trkpt><trkpt lat="40.9345037" lon="9.5083569"><ele>5.0</ele><time>2026-04-18T18:42:56.124Z</time></trkpt><trkpt lat="40.9347127" lon="9.5083154"><ele>5.0</ele><time>2026-04-18T18:42:57.123Z</time></trkpt><trkpt lat="40.9349223" lon="9.508268"><ele>5.666666666666667</ele><time>2026-04-18T18:42:58.124Z</time></trkpt><trkpt lat="40.9351344" lon="9.5082154"><ele>6.333333333333334</ele><time>2026-04-18T18:42:59.124Z</time></trkpt><trkpt lat="40.9353462" lon="9.5081616"><ele>7.0</ele><time>2026-04-18T18:43:00.124Z</time></trkpt><trkpt lat="40.9355586" lon="9.5081027"><ele>7.0</ele><time>2026-04-18T18:43:01.123Z</time></trkpt><trkpt lat="40.9357683" lon="9.5080392"><ele>7.0</ele><time>2026-04-18T18:43:02.124Z</time></trkpt><trkpt lat="40.9359814" lon="9.5079717"><ele>7.0</ele><time>2026-04-18T18:43:03.124Z</time></trkpt><trkpt lat="40.9361943" lon="9.5079017"><ele>7.0</ele><time>2026-04-18T18:43:04.124Z</time></trkpt><trkpt lat="40.9364123" lon="9.5078237"><ele>7.0</ele><time>2026-04-18T18:43:05.124Z</time></trkpt><trkpt lat="40.9366289" lon="9.5077419"><ele>9.0</ele><time>2026-04-18T18:43:06.124Z</time></trkpt><trkpt lat="40.9368472" lon="9.5076584"><ele>11.0</ele><time>2026-04-18T18:43:07.124Z</time></trkpt><trkpt lat="40.9370739" lon="9.5075672"><ele>11.0</ele><time>2026-04-18T18:43:08.124Z</time></trkpt><trkpt lat="40.9373045" lon="9.5074718"><ele>11.0</ele><time>2026-04-18T18:43:09.124Z</time></trkpt><trkpt lat="40.9375399" lon="9.5073693"><ele>11.5</ele><time>2026-04-18T18:43:10.124Z</time></trkpt><trkpt lat="40.937777" lon="9.5072601"><ele>12.0</ele><time>2026-04-18T18:43:11.124Z</time></trkpt><trkpt lat="40.9380143" lon="9.5071517"><ele>12.0</ele><time>2026-04-18T18:43:12.123Z</time></trkpt><trkpt lat="40.9382508" lon="9.507032"><ele>12.0</ele><time>2026-04-18T18:43:13.124Z</time></trkpt><trkpt lat="40.9384887" lon="9.5069138"><ele>12.0</ele><time>2026-04-18T18:43:14.124Z</time></trkpt><trkpt lat="40.9387242" lon="9.5067993"><ele>12.0</ele><time>2026-04-18T18:43:15.124Z</time></trkpt><trkpt lat="40.9389601" lon="9.5066839"><ele>12.0</ele><time>2026-04-18T18:43:16.124Z</time></trkpt><trkpt lat="40.9392013" lon="9.5065607"><ele>12.0</ele><time>2026-04-18T18:43:17.124Z</time></trkpt><trkpt lat="40.9394444" lon="9.5064341"><ele>12.0</ele><time>2026-04-18T18:43:18.124Z</time></trkpt><trkpt lat="40.9396781" lon="9.5063165"><ele>12.0</ele><time>2026-04-18T18:43:19.124Z</time></trkpt><trkpt lat="40.9398977" lon="9.5062068"><ele>12.666666666666668</ele><time>2026-04-18T18:43:20.124Z</time></trkpt><trkpt lat="40.9401039" lon="9.5060965"><ele>13.333333333333334</ele><time>2026-04-18T18:43:21.124Z</time></trkpt><trkpt lat="40.9403127" lon="9.5059927"><ele>14.0</ele><time>2026-04-18T18:43:22.124Z</time></trkpt><trkpt lat="40.9405236" lon="9.5058878"><ele>14.0</ele><time>2026-04-18T18:43:23.124Z</time></trkpt><trkpt lat="40.9407301" lon="9.5057794"><ele>14.0</ele><time>2026-04-18T18:43:24.124Z</time></trkpt><trkpt lat="40.9409432" lon="9.5056658"><ele>15.5</ele><time>2026-04-18T18:43:25.124Z</time></trkpt><trkpt lat="40.9411603" lon="9.505553"><ele>17.0</ele><time>2026-04-18T18:43:26.124Z</time></trkpt><trkpt lat="40.9413783" lon="9.5054395"><ele>18.5</ele><time>2026-04-18T18:43:27.123Z</time></trkpt><trkpt lat="40.941601" lon="9.5053269"><ele>20.0</ele><time>2026-04-18T18:43:28.124Z</time></trkpt><trkpt lat="40.9418253" lon="9.5052135"><ele>20.0</ele><time>2026-04-18T18:43:29.124Z</time></trkpt><trkpt lat="40.9420468" lon="9.5050996"><ele>20.0</ele><time>2026-04-18T18:43:30.124Z</time></trkpt><trkpt lat="40.9422722" lon="9.5049881"><ele>20.0</ele><time>2026-04-18T18:43:31.124Z</time></trkpt><trkpt lat="40.9424981" lon="9.5048745"><ele>20.0</ele><time>2026-04-18T18:43:32.124Z</time></trkpt><trkpt lat="40.9427127" lon="9.5047658"><ele>19.666666666666668</ele><time>2026-04-18T18:43:33.124Z</time></trkpt><trkpt lat="40.9429145" lon="9.504665"><ele>19.333333333333332</ele><time>2026-04-18T18:43:34.124Z</time></trkpt><trkpt lat="40.9431074" lon="9.5045681"><ele>19.0</ele><time>2026-04-18T18:43:35.124Z</time></trkpt><trkpt lat="40.943288" lon="9.5044702"><ele>19.333333333333332</ele><time>2026-04-18T18:43:36.124Z</time></trkpt><trkpt lat="40.943463" lon="9.5043769"><ele>19.666666666666668</ele><time>2026-04-18T18:43:37.124Z</time></trkpt><trkpt lat="40.9436265" lon="9.5042915"><ele>20.0</ele><time>2026-04-18T18:43:38.124Z</time></trkpt><trkpt lat="40.9437806" lon="9.5042104"><ele>20.0</ele><time>2026-04-18T18:43:39.124Z</time></trkpt><trkpt lat="40.9439269" lon="9.5041385"><ele>20.0</ele><time>2026-04-18T18:43:40.124Z</time></trkpt><trkpt lat="40.944065" lon="9.5040689"><ele>20.0</ele><time>2026-04-18T18:43:41.124Z</time></trkpt><trkpt lat="40.9441986" lon="9.5040041"><ele>20.0</ele><time>2026-04-18T18:43:42.124Z</time></trkpt><trkpt lat="40.9443244" lon="9.5039504"><ele>20.25</ele><time>2026-04-18T18:43:43.123Z</time></trkpt><trkpt lat="40.9444473" lon="9.5039082"><ele>20.5</ele><time>2026-04-18T18:43:44.124Z</time></trkpt><trkpt lat="40.94457" lon="9.5038802"><ele>20.75</ele><time>2026-04-18T18:43:45.124Z</time></trkpt><trkpt lat="40.9446838" lon="9.5038703"><ele>21.0</ele><time>2026-04-18T18:43:46.124Z</time></trkpt><trkpt lat="40.9447927" lon="9.5038733"><ele>21.0</ele><time>2026-04-18T18:43:47.124Z</time></trkpt><trkpt lat="40.9448919" lon="9.5038698"><ele>21.0</ele><time>2026-04-18T18:43:48.124Z</time></trkpt><trkpt lat="40.9449832" lon="9.5038282"><ele>21.0</ele><time>2026-04-18T18:43:49.124Z</time></trkpt><trkpt lat="40.9450658" lon="9.5037561"><ele>21.0</ele><time>2026-04-18T18:43:50.125Z</time></trkpt><trkpt lat="40.9451335" lon="9.5036589"><ele>21.0</ele><time>2026-04-18T18:43:51.125Z</time></trkpt><trkpt lat="40.9452148" lon="9.5035609"><ele>21.75</ele><time>2026-04-18T18:43:52.125Z</time></trkpt><trkpt lat="40.9453125" lon="9.5034767"><ele>22.5</ele><time>2026-04-18T18:43:53.125Z</time></trkpt><trkpt lat="40.9454144" lon="9.5034004"><ele>23.25</ele><time>2026-04-18T18:43:54.125Z</time></trkpt><trkpt lat="40.9455223" lon="9.5033243"><ele>24.0</ele><time>2026-04-18T18:43:55.125Z</time></trkpt><trkpt lat="40.9456396" lon="9.5032561"><ele>24.0</ele><time>2026-04-18T18:43:56.124Z</time></trkpt><trkpt lat="40.9457644" lon="9.5031925"><ele>24.0</ele><time>2026-04-18T18:43:57.125Z</time></trkpt><trkpt lat="40.9458958" lon="9.503125"><ele>24.0</ele><time>2026-04-18T18:43:58.125Z</time></trkpt><trkpt lat="40.946031" lon="9.5030582"><ele>24.0</ele><time>2026-04-18T18:43:59.125Z</time></trkpt><trkpt lat="40.9461776" lon="9.5029821"><ele>24.0</ele><time>2026-04-18T18:44:00.125Z</time></trkpt><trkpt lat="40.9463324" lon="9.5029022"><ele>24.0</ele><time>2026-04-18T18:44:01.125Z</time></trkpt><trkpt lat="40.9464836" lon="9.5028268"><ele>24.0</ele><time>2026-04-18T18:44:02.125Z</time></trkpt><trkpt lat="40.9466292" lon="9.5027529"><ele>25.0</ele><time>2026-04-18T18:44:03.125Z</time></trkpt><trkpt lat="40.9467743" lon="9.5026733"><ele>26.0</ele><time>2026-04-18T18:44:04.125Z</time></trkpt><trkpt lat="40.9469142" lon="9.5025962"><ele>27.0</ele><time>2026-04-18T18:44:05.123Z</time></trkpt><trkpt lat="40.9470644" lon="9.5025273"><ele>27.0</ele><time>2026-04-18T18:44:06.125Z</time></trkpt><trkpt lat="40.9472287" lon="9.5024537"><ele>27.0</ele><time>2026-04-18T18:44:07.124Z</time></trkpt><trkpt lat="40.9474043" lon="9.5023683"><ele>27.0</ele><time>2026-04-18T18:44:08.125Z</time></trkpt><trkpt lat="40.9475921" lon="9.5022674"><ele>28.333333333333336</ele><time>2026-04-18T18:44:09.124Z</time></trkpt><trkpt lat="40.9477918" lon="9.502166"><ele>29.666666666666668</ele><time>2026-04-18T18:44:10.125Z</time></trkpt><trkpt lat="40.9480014" lon="9.5020598"><ele>31.0</ele><time>2026-04-18T18:44:11.125Z</time></trkpt><trkpt lat="40.9482155" lon="9.501951"><ele>31.333333333333336</ele><time>2026-04-18T18:44:12.125Z</time></trkpt><trkpt lat="40.9484176" lon="9.5018516"><ele>31.666666666666664</ele><time>2026-04-18T18:44:13.125Z</time></trkpt><trkpt lat="40.9486161" lon="9.5017471"><ele>32.0</ele><time>2026-04-18T18:44:14.125Z</time></trkpt><trkpt lat="40.9488189" lon="9.5016444"><ele>32.0</ele><time>2026-04-18T18:44:15.125Z</time></trkpt><trkpt lat="40.9490191" lon="9.5015401"><ele>32.0</ele><time>2026-04-18T18:44:16.125Z</time></trkpt><trkpt lat="40.9492156" lon="9.5014415"><ele>32.0</ele><time>2026-04-18T18:44:17.125Z</time></trkpt><trkpt lat="40.9494147" lon="9.5013426"><ele>32.666666666666664</ele><time>2026-04-18T18:44:18.125Z</time></trkpt><trkpt lat="40.949615" lon="9.5012392"><ele>33.333333333333336</ele><time>2026-04-18T18:44:19.124Z</time></trkpt><trkpt lat="40.9498135" lon="9.5011438"><ele>34.0</ele><time>2026-04-18T18:44:20.125Z</time></trkpt><trkpt lat="40.9500077" lon="9.5010468"><ele>35.0</ele><time>2026-04-18T18:44:21.125Z</time></trkpt><trkpt lat="40.9501997" lon="9.5009551"><ele>36.0</ele><time>2026-04-18T18:44:22.125Z</time></trkpt><trkpt lat="40.950392" lon="9.5008631"><ele>37.0</ele><time>2026-04-18T18:44:23.125Z</time></trkpt><trkpt lat="40.9505883" lon="9.5007736"><ele>37.0</ele><time>2026-04-18T18:44:24.125Z</time></trkpt><trkpt lat="40.9507865" lon="9.5006857"><ele>37.0</ele><time>2026-04-18T18:44:25.125Z</time></trkpt><trkpt lat="40.9509704" lon="9.5006093"><ele>37.0</ele><time>2026-04-18T18:44:26.124Z</time></trkpt><trkpt lat="40.9511504" lon="9.5005353"><ele>37.333333333333336</ele><time>2026-04-18T18:44:27.125Z</time></trkpt><trkpt lat="40.9513246" lon="9.5004614"><ele>37.666666666666664</ele><time>2026-04-18T18:44:28.125Z</time></trkpt><trkpt lat="40.9514992" lon="9.5003845"><ele>38.0</ele><time>2026-04-18T18:44:29.125Z</time></trkpt><trkpt lat="40.9516686" lon="9.5003158"><ele>38.33333333333333</ele><time>2026-04-18T18:44:30.125Z</time></trkpt><trkpt lat="40.9518242" lon="9.5002522"><ele>38.666666666666664</ele><time>2026-04-18T18:44:31.125Z</time></trkpt><trkpt lat="40.9519751" lon="9.5001946"><ele>39.0</ele><time>2026-04-18T18:44:32.125Z</time></trkpt><trkpt lat="40.952117" lon="9.5001406"><ele>39.0</ele><time>2026-04-18T18:44:33.125Z</time></trkpt><trkpt lat="40.952257" lon="9.5000895"><ele>39.0</ele><time>2026-04-18T18:44:34.124Z</time></trkpt><trkpt lat="40.9523939" lon="9.5000369"><ele>39.0</ele><time>2026-04-18T18:44:35.125Z</time></trkpt><trkpt lat="40.9525331" lon="9.4999821"><ele>39.0</ele><time>2026-04-18T18:44:36.125Z</time></trkpt><trkpt lat="40.952678" lon="9.499931"><ele>40.0</ele><time>2026-04-18T18:44:37.124Z</time></trkpt><trkpt lat="40.9528249" lon="9.4998821"><ele>41.0</ele><time>2026-04-18T18:44:38.125Z</time></trkpt><trkpt lat="40.952975" lon="9.4998311"><ele>42.0</ele><time>2026-04-18T18:44:39.125Z</time></trkpt><trkpt lat="40.95313" lon="9.4997808"><ele>42.0</ele><time>2026-04-18T18:44:40.125Z</time></trkpt><trkpt lat="40.9532855" lon="9.4997323"><ele>42.0</ele><time>2026-04-18T18:44:41.125Z</time></trkpt><trkpt lat="40.9534444" lon="9.4996824"><ele>42.0</ele><time>2026-04-18T18:44:42.125Z</time></trkpt><trkpt lat="40.953605" lon="9.4996342"><ele>44.66666666666667</ele><time>2026-04-18T18:44:43.125Z</time></trkpt><trkpt lat="40.9537709" lon="9.4995792"><ele>47.333333333333336</ele><time>2026-04-18T18:44:44.125Z</time></trkpt><trkpt lat="40.953937" lon="9.4995258"><ele>50.0</ele><time>2026-04-18T18:44:45.125Z</time></trkpt><trkpt lat="40.9541075" lon="9.4994713"><ele>50.66666666666667</ele><time>2026-04-18T18:44:46.124Z</time></trkpt><trkpt lat="40.9542814" lon="9.4994193"><ele>51.33333333333333</ele><time>2026-04-18T18:44:47.124Z</time></trkpt><trkpt lat="40.9544569" lon="9.4993652"><ele>52.0</ele><time>2026-04-18T18:44:48.125Z</time></trkpt><trkpt lat="40.9546265" lon="9.4993134"><ele>52.0</ele><time>2026-04-18T18:44:49.125Z</time></trkpt><trkpt lat="40.9547869" lon="9.4992647"><ele>52.0</ele><time>2026-04-18T18:44:50.125Z</time></trkpt><trkpt lat="40.954942" lon="9.4992149"><ele>52.0</ele><time>2026-04-18T18:44:51.125Z</time></trkpt><trkpt lat="40.9550959" lon="9.4991639"><ele>54.33333333333333</ele><time>2026-04-18T18:44:52.125Z</time></trkpt><trkpt lat="40.9552474" lon="9.4991136"><ele>56.66666666666667</ele><time>2026-04-18T18:44:53.125Z</time></trkpt><trkpt lat="40.9554004" lon="9.4990633"><ele>59.0</ele><time>2026-04-18T18:44:54.125Z</time></trkpt><trkpt lat="40.9555512" lon="9.4990158"><ele>59.0</ele><time>2026-04-18T18:44:55.125Z</time></trkpt><trkpt lat="40.9557038" lon="9.4989619"><ele>59.0</ele><time>2026-04-18T18:44:56.124Z</time></trkpt><trkpt lat="40.95586" lon="9.4989078"><ele>59.0</ele><time>2026-04-18T18:44:57.125Z</time></trkpt><trkpt lat="40.9560142" lon="9.498849"><ele>60.0</ele><time>2026-04-18T18:44:58.125Z</time></trkpt><trkpt lat="40.9561711" lon="9.4987924"><ele>61.0</ele><time>2026-04-18T18:44:59.125Z</time></trkpt><trkpt lat="40.9563315" lon="9.4987246"><ele>62.0</ele><time>2026-04-18T18:45:00.125Z</time></trkpt><trkpt lat="40.9564928" lon="9.4986558"><ele>59.333333333333336</ele><time>2026-04-18T18:45:01.125Z</time></trkpt><trkpt lat="40.9566513" lon="9.4985812"><ele>56.66666666666667</ele><time>2026-04-18T18:45:02.125Z</time></trkpt><trkpt lat="40.9568117" lon="9.4985085"><ele>54.0</ele><time>2026-04-18T18:45:03.125Z</time></trkpt><trkpt lat="40.9569691" lon="9.4984244"><ele>53.33333333333333</ele><time>2026-04-18T18:45:04.125Z</time></trkpt><trkpt lat="40.9571292" lon="9.498338"><ele>52.666666666666664</ele><time>2026-04-18T18:45:05.124Z</time></trkpt><trkpt lat="40.9572932" lon="9.498247"><ele>52.0</ele><time>2026-04-18T18:45:06.124Z</time></trkpt><trkpt lat="40.9574599" lon="9.4981481"><ele>52.666666666666664</ele><time>2026-04-18T18:45:07.125Z</time></trkpt><trkpt lat="40.9576216" lon="9.4980501"><ele>53.33333333333333</ele><time>2026-04-18T18:45:08.125Z</time></trkpt><trkpt lat="40.9577778" lon="9.4979451"><ele>54.0</ele><time>2026-04-18T18:45:09.125Z</time></trkpt><trkpt lat="40.9579276" lon="9.497842"><ele>54.33333333333333</ele><time>2026-04-18T18:45:10.125Z</time></trkpt><trkpt lat="40.9580806" lon="9.4977332"><ele>54.666666666666664</ele><time>2026-04-18T18:45:11.125Z</time></trkpt><trkpt lat="40.9582309" lon="9.4976151"><ele>55.0</ele><time>2026-04-18T18:45:12.125Z</time></trkpt><trkpt lat="40.9583738" lon="9.4974982"><ele>55.33333333333333</ele><time>2026-04-18T18:45:13.125Z</time></trkpt><trkpt lat="40.9585233" lon="9.4973775"><ele>55.66666666666667</ele><time>2026-04-18T18:45:14.125Z</time></trkpt><trkpt lat="40.9586733" lon="9.4972505"><ele>56.0</ele><time>2026-04-18T18:45:15.125Z</time></trkpt><trkpt lat="40.9588207" lon="9.497121"><ele>55.333333333333336</ele><time>2026-04-18T18:45:16.125Z</time></trkpt><trkpt lat="40.9589629" lon="9.4969937"><ele>54.66666666666667</ele><time>2026-04-18T18:45:17.124Z</time></trkpt><trkpt lat="40.9591085" lon="9.4968538"><ele>54.0</ele><time>2026-04-18T18:45:18.124Z</time></trkpt><trkpt lat="40.9592536" lon="9.4967103"><ele>54.0</ele><time>2026-04-18T18:45:19.125Z</time></trkpt><trkpt lat="40.9593975" lon="9.4965703"><ele>54.0</ele><time>2026-04-18T18:45:20.125Z</time></trkpt><trkpt lat="40.9595335" lon="9.4964331"><ele>54.0</ele><time>2026-04-18T18:45:21.125Z</time></trkpt><trkpt lat="40.9596704" lon="9.4962946"><ele>54.0</ele><time>2026-04-18T18:45:22.125Z</time></trkpt><trkpt lat="40.9598116" lon="9.496153"><ele>54.0</ele><time>2026-04-18T18:45:23.125Z</time></trkpt><trkpt lat="40.959951" lon="9.4960091"><ele>54.0</ele><time>2026-04-18T18:45:24.125Z</time></trkpt><trkpt lat="40.9600933" lon="9.4958573"><ele>54.0</ele><time>2026-04-18T18:45:25.125Z</time></trkpt><trkpt lat="40.9602369" lon="9.4957028"><ele>54.0</ele><time>2026-04-18T18:45:26.125Z</time></trkpt><trkpt lat="40.9603839" lon="9.4955489"><ele>54.0</ele><time>2026-04-18T18:45:27.125Z</time></trkpt><trkpt lat="40.9605326" lon="9.4953953"><ele>54.0</ele><time>2026-04-18T18:45:28.125Z</time></trkpt><trkpt lat="40.9606882" lon="9.4952383"><ele>54.0</ele><time>2026-04-18T18:45:29.125Z</time></trkpt><trkpt lat="40.9608544" lon="9.495074"><ele>54.0</ele><time>2026-04-18T18:45:30.125Z</time></trkpt><trkpt lat="40.961024" lon="9.4949068"><ele>55.0</ele><time>2026-04-18T18:45:31.125Z</time></trkpt><trkpt lat="40.9611864" lon="9.4947505"><ele>56.0</ele><time>2026-04-18T18:45:32.125Z</time></trkpt><trkpt lat="40.9613399" lon="9.4946033"><ele>57.0</ele><time>2026-04-18T18:45:33.125Z</time></trkpt><trkpt lat="40.9614825" lon="9.4944654"><ele>57.0</ele><time>2026-04-18T18:45:34.125Z</time></trkpt><trkpt lat="40.9616186" lon="9.4943394"><ele>57.0</ele><time>2026-04-18T18:45:35.125Z</time></trkpt><trkpt lat="40.9617492" lon="9.4942285"><ele>57.0</ele><time>2026-04-18T18:45:36.125Z</time></trkpt><trkpt lat="40.9618759" lon="9.4941281"><ele>58.0</ele><time>2026-04-18T18:45:37.125Z</time></trkpt><trkpt lat="40.962001" lon="9.4940443"><ele>59.0</ele><time>2026-04-18T18:45:38.125Z</time></trkpt><trkpt lat="40.9621286" lon="9.4939776"><ele>60.0</ele><time>2026-04-18T18:45:39.125Z</time></trkpt><trkpt lat="40.9622542" lon="9.4939173"><ele>61.0</ele><time>2026-04-18T18:45:40.125Z</time></trkpt><trkpt lat="40.9623734" lon="9.4938531"><ele>61.0</ele><time>2026-04-18T18:45:41.125Z</time></trkpt><trkpt lat="40.9624835" lon="9.4937698"><ele>61.0</ele><time>2026-04-18T18:45:42.125Z</time></trkpt><trkpt lat="40.9625831" lon="9.4936769"><ele>61.0</ele><time>2026-04-18T18:45:43.125Z</time></trkpt><trkpt lat="40.9626255" lon="9.4935552"><ele>61.0</ele><time>2026-04-18T18:45:44.125Z</time></trkpt><trkpt lat="40.9626453" lon="9.4934197"><ele>60.5</ele><time>2026-04-18T18:45:45.125Z</time></trkpt><trkpt lat="40.9626471" lon="9.4932726"><ele>60.0</ele><time>2026-04-18T18:45:46.125Z</time></trkpt><trkpt lat="40.9625882" lon="9.4931515"><ele>59.5</ele><time>2026-04-18T18:45:47.125Z</time></trkpt><trkpt lat="40.9624938" lon="9.4930652"><ele>59.0</ele><time>2026-04-18T18:45:48.125Z</time></trkpt><trkpt lat="40.9623625" lon="9.4930368"><ele>59.0</ele><time>2026-04-18T18:45:49.124Z</time></trkpt><trkpt lat="40.9622266" lon="9.4930447"><ele>59.0</ele><time>2026-04-18T18:45:50.125Z</time></trkpt><trkpt lat="40.9620734" lon="9.493075"><ele>59.0</ele><time>2026-04-18T18:45:51.125Z</time></trkpt><trkpt lat="40.9619154" lon="9.4930949"><ele>59.0</ele><time>2026-04-18T18:45:52.125Z</time></trkpt><trkpt lat="40.961759" lon="9.493124"><ele>59.0</ele><time>2026-04-18T18:45:53.125Z</time></trkpt><trkpt lat="40.9616097" lon="9.4931539"><ele>59.0</ele><time>2026-04-18T18:45:54.125Z</time></trkpt><trkpt lat="40.961462" lon="9.4931793"><ele>58.0</ele><time>2026-04-18T18:45:55.125Z</time></trkpt><trkpt lat="40.9613186" lon="9.4931998"><ele>57.0</ele><time>2026-04-18T18:45:56.125Z</time></trkpt><trkpt lat="40.9611819" lon="9.4932228"><ele>56.0</ele><time>2026-04-18T18:45:57.125Z</time></trkpt><trkpt lat="40.9610488" lon="9.4932463"><ele>55.0</ele><time>2026-04-18T18:45:58.125Z</time></trkpt><trkpt lat="40.960924" lon="9.4932626"><ele>54.4</ele><time>2026-04-18T18:45:59.125Z</time></trkpt><trkpt lat="40.960816" lon="9.4932766"><ele>53.8</ele><time>2026-04-18T18:46:00.125Z</time></trkpt><trkpt lat="40.9607223" lon="9.4932811"><ele>53.2</ele><time>2026-04-18T18:46:01.125Z</time></trkpt><trkpt lat="40.9606411" lon="9.4932466"><ele>52.6</ele><time>2026-04-18T18:46:02.124Z</time></trkpt><trkpt lat="40.9605755" lon="9.4931812"><ele>52.0</ele><time>2026-04-18T18:46:03.124Z</time></trkpt><trkpt lat="40.9605264" lon="9.4930893"><ele>52.0</ele><time>2026-04-18T18:46:04.125Z</time></trkpt><trkpt lat="40.9604894" lon="9.4929738"><ele>52.0</ele><time>2026-04-18T18:46:05.125Z</time></trkpt><trkpt lat="40.9604672" lon="9.4928504"><ele>52.0</ele><time>2026-04-18T18:46:06.125Z</time></trkpt><trkpt lat="40.9604762" lon="9.4927311"><ele>52.0</ele><time>2026-04-18T18:46:07.125Z</time></trkpt><trkpt lat="40.9605223" lon="9.4926272"><ele>52.0</ele><time>2026-04-18T18:46:08.124Z</time></trkpt><trkpt lat="40.9606024" lon="9.4925269"><ele>52.0</ele><time>2026-04-18T18:46:09.125Z</time></trkpt><trkpt lat="40.9606812" lon="9.4924341"><ele>52.0</ele><time>2026-04-18T18:46:10.125Z</time></trkpt><trkpt lat="40.9607548" lon="9.4923541"><ele>52.0</ele><time>2026-04-18T18:46:11.125Z</time></trkpt><trkpt lat="40.9608218" lon="9.4922728"><ele>52.0</ele><time>2026-04-18T18:46:12.125Z</time></trkpt><trkpt lat="40.9608831" lon="9.4921939"><ele>52.0</ele><time>2026-04-18T18:46:13.124Z</time></trkpt><trkpt lat="40.9609514" lon="9.4921462"><ele>51.99999999999999</ele><time>2026-04-18T18:46:14.125Z</time></trkpt><trkpt lat="40.961022" lon="9.4921374"><ele>52.0</ele><time>2026-04-18T18:46:15.125Z</time></trkpt><trkpt lat="40.9610878" lon="9.4921694"><ele>52.0</ele><time>2026-04-18T18:46:16.125Z</time></trkpt><trkpt lat="40.9611382" lon="9.4922327"><ele>52.0</ele><time>2026-04-18T18:46:17.125Z</time></trkpt><trkpt lat="40.9611764" lon="9.4923399"><ele>51.99999999999999</ele><time>2026-04-18T18:46:18.125Z</time></trkpt><trkpt lat="40.9612108" lon="9.4924855"><ele>52.0</ele><time>2026-04-18T18:46:19.125Z</time></trkpt><trkpt lat="40.9612446" lon="9.4926261"><ele>52.0</ele><time>2026-04-18T18:46:20.125Z</time></trkpt><trkpt lat="40.9612854" lon="9.492746"><ele>52.0</ele><time>2026-04-18T18:46:21.125Z</time></trkpt><trkpt lat="40.9613413" lon="9.4928454"><ele>52.0</ele><time>2026-04-18T18:46:22.125Z</time></trkpt><trkpt lat="40.9614231" lon="9.4929145"><ele>52.0</ele><time>2026-04-18T18:46:23.124Z</time></trkpt><trkpt lat="40.9615344" lon="9.492952"><ele>52.0</ele><time>2026-04-18T18:46:24.124Z</time></trkpt><trkpt lat="40.9616597" lon="9.4929493"><ele>52.83333333333333</ele><time>2026-04-18T18:46:25.125Z</time></trkpt><trkpt lat="40.9617701" lon="9.492926"><ele>53.666666666666664</ele><time>2026-04-18T18:46:26.125Z</time></trkpt><trkpt lat="40.9618655" lon="9.4929007"><ele>54.5</ele><time>2026-04-18T18:46:27.125Z</time></trkpt><trkpt lat="40.9619371" lon="9.4928681"><ele>55.33333333333333</ele><time>2026-04-18T18:46:28.125Z</time></trkpt><trkpt lat="40.9619793" lon="9.4928005"><ele>56.166666666666664</ele><time>2026-04-18T18:46:29.125Z</time></trkpt><trkpt lat="40.9619912" lon="9.4927099"><ele>57.0</ele><time>2026-04-18T18:46:30.125Z</time></trkpt><trkpt lat="40.961972" lon="9.4925931"><ele>57.0</ele><time>2026-04-18T18:46:31.124Z</time></trkpt><trkpt lat="40.9619387" lon="9.4924651"><ele>57.0</ele><time>2026-04-18T18:46:32.124Z</time></trkpt><trkpt lat="40.9619045" lon="9.4923444"><ele>57.0</ele><time>2026-04-18T18:46:33.125Z</time></trkpt><trkpt lat="40.9618766" lon="9.4922318"><ele>57.0</ele><time>2026-04-18T18:46:34.125Z</time></trkpt><trkpt lat="40.9618461" lon="9.492125"><ele>57.0</ele><time>2026-04-18T18:46:35.125Z</time></trkpt><trkpt lat="40.9618221" lon="9.492029"><ele>57.0</ele><time>2026-04-18T18:46:36.124Z</time></trkpt><trkpt lat="40.9617963" lon="9.4919402"><ele>57.0</ele><time>2026-04-18T18:46:37.125Z</time></trkpt><trkpt lat="40.9617715" lon="9.4918579"><ele>57.0</ele><time>2026-04-18T18:46:38.125Z</time></trkpt><trkpt lat="40.9617466" lon="9.4917786"><ele>57.0</ele><time>2026-04-18T18:46:39.124Z</time></trkpt><trkpt lat="40.961771" lon="9.491646"><ele>57.0</ele><time>2026-04-18T18:46:41.125Z</time></trkpt><trkpt lat="40.9618229" lon="9.491598"><ele>57.0</ele><time>2026-04-18T18:46:42.125Z</time></trkpt><trkpt lat="40.9619006" lon="9.4915596"><ele>57.0</ele><time>2026-04-18T18:46:43.125Z</time></trkpt><trkpt lat="40.9619847" lon="9.4915283"><ele>56.99999999999999</ele><time>2026-04-18T18:46:44.125Z</time></trkpt><trkpt lat="40.9620556" lon="9.4915081"><ele>57.0</ele><time>2026-04-18T18:46:45.125Z</time></trkpt><trkpt lat="40.9621225" lon="9.4914845"><ele>57.0</ele><time>2026-04-18T18:46:46.125Z</time></trkpt><trkpt lat="40.962191" lon="9.4914584"><ele>56.99999999999999</ele><time>2026-04-18T18:46:47.125Z</time></trkpt><trkpt lat="40.962262" lon="9.4914278"><ele>57.0</ele><time>2026-04-18T18:46:48.125Z</time></trkpt><trkpt lat="40.9623299" lon="9.4913941"><ele>57.0</ele><time>2026-04-18T18:46:49.125Z</time></trkpt><trkpt lat="40.9623902" lon="9.4913592"><ele>57.0</ele><time>2026-04-18T18:46:50.125Z</time></trkpt><trkpt lat="40.9624888" lon="9.4912932"><ele>57.0</ele><time>2026-04-18T18:46:52.125Z</time></trkpt><trkpt lat="40.9625688" lon="9.4912567"><ele>66.0</ele><time>2026-04-18T18:46:54.125Z</time></trkpt><trkpt lat="40.9626356" lon="9.4912376"><ele>66.0</ele><time>2026-04-18T18:46:56.125Z</time></trkpt><trkpt lat="40.962711" lon="9.491267"><ele>64.0</ele><time>2026-04-18T18:46:59.125Z</time></trkpt><trkpt lat="40.9627751" lon="9.4912709"><ele>64.0</ele><time>2026-04-18T18:47:02.125Z</time></trkpt></trkseg></trk></gpx>